<
# Wetter Temperatur Luftdruck Luftfeuchtigkeit Sichtweite Windgeschwindigkeit Windrichtung Zeit
1 Clouds -2 1006 69 10000 3.6 70 15:24 01.02.2023
2 Clouds -3 1006 63 10000 4.63 90 13:20 01.02.2023
3 Clouds -5 1006 74 10000 3.6 110 12:59 01.02.2023
4 Clouds -4 1006 74 10000 3.6 90 11:57 01.02.2023
5 Clear -4 1006 74 10000 3.09 100 09:39 01.02.2023
6 Snow -4 1004 84 10000 2.06 110 03:18 01.02.2023
7 Clear -2 1000 80 10000 1.54 40 21:45 31.01.2023
8 Clear -2 999 86 10000 2.06 60 20:20 31.01.2023
9 Clouds -1 997 74 10000 1.54 190 18:59 31.01.2023
10 Clouds 0 996 69 10000 0.51 0 16:34 31.01.2023
11 Clouds 0 995 69 10000 4.12 170 15:36 31.01.2023
12 Clouds 0 995 69 10000 4.12 170 15:18 31.01.2023
13 Clouds 0 991 69 10000 2.57 60 12:33 31.01.2023
14 Clouds 1 989 60 10000 7.2 30 11:21 31.01.2023
15 Clouds 0 985 69 10000 7.72 10 09:54 31.01.2023
16 Snow 0 985 69 10000 7.72 10 09:20 31.01.2023
17 Clouds -1 982 74 10000 14.4 20 08:35 31.01.2023
18 Clouds 0 977 74 10000 14.4 10 06:18 31.01.2023
19 Snow 0 972 93 1000 15.95 80 23:59 30.01.2023
20 Snow 0 972 93 1000 15.95 80 23:23 30.01.2023
21 Snow 0 974 93 600 13.89 80 22:32 30.01.2023
22 Snow -1 976 93 700 13.38 80 21:23 30.01.2023
23 Snow 0 978 86 900 13.38 80 20:39 30.01.2023
24 Snow 0 983 100 500 12.35 100 18:25 30.01.2023
25 Snow 0 986 86 800 11.83 90 16:48 30.01.2023
26 Snow 0 996 69 10000 9.26 80 14:28 30.01.2023
27 Snow -1 1001 80 10000 7.2 80 13:33 30.01.2023
28 Clouds -2 1004 69 10000 6.17 70 11:28 30.01.2023
29 Clear -2 1007 64 10000 6.17 80 09:55 30.01.2023
30 Clear -2 1009 64 10000 3.6 70 08:59 30.01.2023
31 Clear -2 1009 64 10000 3.6 70 08:18 30.01.2023
32 Clear -1 1011 74 10000 3.6 20 01:46 30.01.2023
33 Clear 0 1009 80 10000 4.12 10 23:35 29.01.2023
34 Clear 0 1007 80 10000 4.12 20 22:37 29.01.2023
35 Clouds 0 1005 86 10000 4.63 340 21:41 29.01.2023
36 Clouds 0 1001 86 10000 5.14 340 20:50 29.01.2023
37 Clouds 0 1001 86 10000 5.14 340 20:18 29.01.2023
38 Clouds 0 999 93 10000 6.69 340 19:32 29.01.2023
39 Clouds 1 995 93 10000 0 0 17:51 29.01.2023
40 Clouds 1 994 93 10000 1.03 210 16:22 29.01.2023
41 Clouds 1 992 93 10000 0.51 0 15:50 29.01.2023
42 Clouds 1 990 93 9000 2.57 230 13:34 29.01.2023
43 Clouds 1 989 93 10000 5.66 220 12:52 29.01.2023
44 Clouds 1 989 93 10000 5.66 220 12:24 29.01.2023
45 Clouds 1 988 93 10000 3.09 200 11:58 29.01.2023
46 Snow 1 988 93 10000 3.09 200 11:28 29.01.2023
47 Snow 1 987 93 10000 3.6 200 10:19 29.01.2023
48 Snow 0 987 100 4900 8.23 250 07:20 29.01.2023
49 Snow 1 990 93 2000 5.14 200 03:42 29.01.2023
50 Clouds 3 993 87 10000 2.57 170 23:46 28.01.2023
51 Clouds 4 993 81 4100 7.72 230 20:45 28.01.2023
52 Clouds 4 993 87 10000 6.17 230 19:53 28.01.2023
53 Clouds 4 993 93 4800 8.23 230 18:49 28.01.2023
54 Clouds 5 993 93 6000 9.26 240 17:24 28.01.2023
55 Clouds 5 993 100 10000 6.17 220 16:28 28.01.2023
56 Drizzle 6 994 93 8000 7.72 220 15:59 28.01.2023
57 Drizzle 6 994 93 8000 7.72 220 15:22 28.01.2023
58 Clouds 6 996 93 7000 9.26 180 13:47 28.01.2023
59 Clouds 5 1001 87 7000 9.77 190 11:55 28.01.2023
60 Clouds 5 1003 87 8000 8.75 190 10:35 28.01.2023
61 Clouds 5 1003 87 9000 8.75 170 09:21 28.01.2023
62 Mist 2 1013 87 4500 5.14 230 01:51 28.01.2023
63 Mist 2 1013 87 9000 5.66 210 00:27 28.01.2023
64 Clouds 3 1012 75 10000 6.69 260 22:46 27.01.2023
65 Clouds 3 1010 70 9000 9.77 270 19:47 27.01.2023
66 Clouds 2 1008 69 10000 11.32 260 17:58 27.01.2023
67 Clouds 2 1008 69 10000 11.32 260 17:20 27.01.2023
68 Clouds 3 1006 65 10000 12.86 260 16:41 27.01.2023
69 Clouds 3 1005 60 10000 14.92 260 15:27 27.01.2023
70 Clouds 2 1004 80 4500 14.4 270 14:27 27.01.2023
71 Snow 2 1003 69 9000 12.86 260 13:33 27.01.2023
72 Clouds 1 1001 86 2000 14.4 230 09:37 27.01.2023
73 Snow 1 1001 80 10000 13.89 230 06:51 27.01.2023
74 Clouds 3 1002 81 10000 10.29 220 00:28 27.01.2023
75 Clouds 5 1003 81 10000 9.26 210 22:20 26.01.2023
76 Clouds 5 1006 93 9000 4.63 180 20:56 26.01.2023
77 Clouds 5 1007 100 3000 4.12 200 19:59 26.01.2023
78 Clouds 6 1008 93 10000 8.23 200 18:19 26.01.2023
79 Drizzle 7 1010 93 9000 8.75 210 16:54 26.01.2023
80 Drizzle 7 1010 93 9000 8.75 210 16:21 26.01.2023
81 Drizzle 8 1011 93 4900 9.26 200 15:43 26.01.2023
82 Drizzle 8 1011 93 4900 9.26 200 15:24 26.01.2023
83 Mist 8 1012 93 4900 10.29 200 13:54 26.01.2023
84 Clouds 8 1012 93 6000 10.8 190 12:31 26.01.2023
85 Clouds 8 1014 93 2500 11.32 180 10:56 26.01.2023
86 Clouds 8 1014 93 2500 11.32 180 10:26 26.01.2023
87 Rain 8 1015 87 4500 8.75 160 09:42 26.01.2023
88 Rain 7 1016 87 8000 12.35 150 08:25 26.01.2023
89 Clouds 3 1030 85 10000 5.14 100 23:55 25.01.2023
90 Clouds 3 1031 85 10000 5.14 100 23:36 25.01.2023
91 Clouds 2 1031 80 10000 6.17 110 21:53 25.01.2023
92 Clouds 2 1031 80 10000 6.17 110 21:20 25.01.2023
93 Clouds 3 1032 75 10000 3.09 130 18:31 25.01.2023
94 Clear 3 1032 75 10000 3.6 150 17:22 25.01.2023
95 Clear 1 1032 75 10000 2.57 120 15:37 25.01.2023
96 Clear 0 1030 86 10000 2.06 170 12:48 25.01.2023
97 Clouds 1 1027 80 10000 5.66 340 09:56 25.01.2023
98 Clouds 1 1027 80 10000 5.66 340 09:30 25.01.2023
99 Clouds 1 1019 86 10000 9.77 320 06:54 25.01.2023
100 Clouds 3 1007 87 10000 8.75 290 01:24 25.01.2023
101 Clouds 3 1001 93 10000 3.6 200 22:49 24.01.2023
102 Clouds 4 1000 93 10000 4.12 190 21:30 24.01.2023
103 Clouds 4 999 87 10000 4.63 200 19:58 24.01.2023
104 Clouds 4 999 93 10000 4.12 190 18:32 24.01.2023
105 Clouds 4 999 93 10000 5.14 200 17:20 24.01.2023
106 Clouds 5 999 87 10000 5.14 200 16:52 24.01.2023
107 Clouds 5 999 87 10000 4.12 200 15:21 24.01.2023
108 Clouds 5 999 87 10000 5.14 180 13:19 24.01.2023
109 Clouds 5 999 87 10000 4.12 180 11:20 24.01.2023
110 Clouds 5 999 100 10000 5.66 190 08:23 24.01.2023
111 Clouds 6 999 93 10000 4.63 160 07:51 24.01.2023
112 Clouds 5 1000 87 10000 6.17 130 05:32 24.01.2023
113 Snow 1 1005 80 10000 11.32 80 01:37 24.01.2023
114 Snow 0 1009 69 10000 7.72 80 23:58 23.01.2023
115 Snow 1 1011 60 10000 7.2 100 22:27 23.01.2023
116 Clear -1 1014 47 10000 5.14 80 19:55 23.01.2023
117 Clear -2 1015 59 10000 3.6 100 18:37 23.01.2023
118 Clouds -1 1017 69 10000 2.31 126 16:21 23.01.2023
119 Clear -2 1018 69 10000 2.57 110 14:50 23.01.2023
120 Clear -3 1018 68 10000 3.09 110 13:44 23.01.2023
121 Clear -4 1016 74 10000 1.03 0 12:55 23.01.2023
122 Clear -3 1015 68 10000 2.06 110 11:45 23.01.2023
123 Clear -4 1013 80 10000 1.54 110 08:59 23.01.2023
124 Clear -4 1013 80 10000 1.54 110 08:22 23.01.2023
125 Clouds 2 1007 60 10000 10.29 260 23:37 22.01.2023
126 Clouds 2 1004 55 10000 13.38 260 21:49 22.01.2023
127 Clouds 1 1002 64 10000 13.38 260 20:58 22.01.2023
128 Clouds 1 1000 64 10000 14.92 260 19:54 22.01.2023
129 Clouds 1 1000 64 10000 14.92 260 19:20 22.01.2023
130 Clouds 1 999 55 10000 16.46 260 18:23 22.01.2023
131 Clouds 1 997 55 10000 18.52 250 17:55 22.01.2023
132 Snow 1 997 55 10000 18.52 250 17:23 22.01.2023
133 Snow 0 993 69 9000 18.52 260 15:23 22.01.2023
134 Snow -1 991 74 1200 20.06 260 14:20 22.01.2023
135 Snow -1 991 80 1300 19.55 250 13:26 22.01.2023
136 Snow -2 988 93 150 19.03 260 12:28 22.01.2023
137 Snow -3 989 93 1300 20.06 250 11:23 22.01.2023
138 Snow -3 988 93 200 18.52 240 09:34 22.01.2023
139 Snow 2 985 64 10000 7.72 210 02:58 22.01.2023
140 Clouds 1 986 93 4000 7.72 200 23:43 21.01.2023
141 Clouds 2 986 87 2000 7.2 190 22:55 21.01.2023
142 Clouds 2 987 80 10000 4.63 150 21:28 21.01.2023
143 Snow 1 987 93 4000 3.09 190 18:52 21.01.2023
144 Snow 2 986 80 10000 2.06 140 15:57 21.01.2023
145 Clouds 2 986 80 10000 1.54 260 13:50 21.01.2023
146 Clouds 2 985 87 10000 1.03 0 12:56 21.01.2023
147 Clouds 2 984 93 10000 1.54 170 11:39 21.01.2023
148 Drizzle 1 983 100 10000 1.03 0 10:48 21.01.2023
149 Clouds 2 981 100 1400 3.6 300 08:31 21.01.2023
150 Clouds 5 977 93 10000 8.23 200 04:29 21.01.2023
151 Rain 6 978 100 9000 6.69 180 22:28 20.01.2023
152 Rain 7 979 93 8000 5.66 160 21:37 20.01.2023
153 Clouds 7 980 93 10000 7.72 170 20:42 20.01.2023
154 Drizzle 7 981 93 10000 6.17 170 19:20 20.01.2023
155 Clouds 5 984 96 2903 11.32 165 16:21 20.01.2023
156 Rain 6 985 93 10000 8.75 170 14:45 20.01.2023
157 Clouds 5 988 93 10000 7.2 170 12:50 20.01.2023
158 Clouds 5 991 87 6000 13.89 140 09:48 20.01.2023
159 Clouds 4 992 87 6000 10.29 120 08:22 20.01.2023
160 Snow 1 1000 86 2000 11.32 110 03:33 20.01.2023
161 Snow 2 1002 64 10000 7.72 100 02:28 20.01.2023
162 Clouds -1 1005 69 10000 8.23 100 22:32 19.01.2023
163 Clouds -2 1006 69 10000 6.69 100 20:22 19.01.2023
164 Clouds -4 1007 68 10000 4.63 60 19:20 19.01.2023
165 Clouds -5 1009 63 10000 2.57 70 15:39 19.01.2023
166 Clear -11 1011 73 10000 1.03 0 11:28 19.01.2023
167 Clear -12 1011 79 10000 1.03 90 08:59 19.01.2023
168 Clear -11 1009 62 10000 2.57 120 23:52 18.01.2023
169 Clear -13 1008 72 10000 1.03 110 20:56 18.01.2023
170 Clear -13 1008 72 10000 1.03 110 20:19 18.01.2023
171 Clear -13 1008 72 10000 1.03 110 20:19 18.01.2023
172 Clear -13 1008 78 10000 1.54 100 19:37 18.01.2023
173 Clear -12 1008 67 10000 1.03 0 17:35 18.01.2023
174 Clear -10 1008 57 10000 0 0 15:24 18.01.2023
175 Clear -13 1009 72 10000 1.03 0 13:29 18.01.2023
176 Clear -10 1009 62 10000 3.6 100 11:25 18.01.2023
177 Clear -9 1010 62 10000 3.6 110 08:44 18.01.2023
178 Clear -8 1010 67 10000 3.09 140 01:28 18.01.2023
179 Clear -8 1010 73 10000 3.09 140 23:46 17.01.2023
180 Clear -7 1010 79 10000 1.54 100 20:37 17.01.2023
181 Clouds -4 1010 63 10000 3.09 200 19:34 17.01.2023
182 Clouds -4 1010 63 10000 3.09 200 19:34 17.01.2023
183 Clouds -4 1010 68 10000 2.06 250 18:28 17.01.2023
184 Clouds -3 1009 68 10000 5.14 20 16:34 17.01.2023
185 Clouds -2 1008 64 10000 4.12 50 14:57 17.01.2023
186 Clouds -2 1008 64 10000 4.12 50 14:20 17.01.2023
187 Clouds -2 1007 69 10000 4.63 60 12:48 17.01.2023
188 Clouds -2 1007 64 10000 5.14 50 11:42 17.01.2023
189 Clouds -3 1005 74 10000 1.54 0 09:35 17.01.2023
190 Clouds -1 1004 69 10000 3.6 0 08:20 17.01.2023
191 Clouds -1 1003 69 10000 8.23 360 05:51 17.01.2023
192 Clouds -2 1000 69 10000 2.57 50 00:57 17.01.2023
193 Clouds -2 1000 74 10000 7.72 20 23:40 16.01.2023
194 Clouds -4 1000 68 10000 1.54 0 21:55 16.01.2023
195 Clouds -6 999 73 10000 2.06 0 20:46 16.01.2023
196 Clouds -6 999 73 10000 4.12 160 19:40 16.01.2023
197 Clouds -5 998 68 10000 2.06 40 18:54 16.01.2023
198 Clouds -5 998 68 10000 2.06 40 18:21 16.01.2023
199 Clouds -3 999 59 10000 2.57 200 17:35 16.01.2023
200 Clouds -6 999 63 10000 1.03 0 15:49 16.01.2023
201 Clear -11 1000 73 10000 1.54 0 13:39 16.01.2023
202 Clear -10 1000 67 10000 1.54 180 11:57 16.01.2023
203 Clear -9 1000 62 10000 3.09 140 10:20 16.01.2023
204 Clear -10 1005 62 10000 3.09 130 23:38 15.01.2023
205 Clear -10 1005 57 10000 3.09 120 22:27 15.01.2023
206 Clear -11 1006 62 10000 2.06 110 20:41 15.01.2023
207 Clear -11 1006 62 10000 3.6 130 19:59 15.01.2023
208 Clear -10 1006 62 10000 3.6 110 17:55 15.01.2023
209 Clear -10 1006 62 10000 2.06 120 16:22 15.01.2023
210 Clear -11 1006 79 10000 1.03 0 12:39 15.01.2023
211 Clear -10 1006 67 10000 3.09 50 11:36 15.01.2023
212 Clear -9 1006 62 10000 2.06 30 10:36 15.01.2023
213 Clear -8 1006 53 10000 3.09 90 09:36 15.01.2023
214 Clear -10 1007 62 10000 3.09 100 01:51 15.01.2023
215 Clear -11 1008 62 10000 3.09 110 23:21 14.01.2023
216 Clear -10 1008 62 10000 2.57 120 22:26 14.01.2023
217 Clear -9 1007 57 10000 4.12 100 21:36 14.01.2023
218 Clear -9 1007 57 10000 4.12 100 21:36 14.01.2023
219 Clear -9 1007 57 10000 4.12 100 21:18 14.01.2023
220 Clear -8 1007 53 10000 3.09 100 20:39 14.01.2023
221 Clear -9 1007 57 10000 3.6 110 18:47 14.01.2023
222 Clear -8 1006 53 10000 1.54 60 17:35 14.01.2023
223 Clear -6 1006 53 10000 0 0 15:29 14.01.2023
224 Clear -6 1006 53 10000 2.57 110 14:26 14.01.2023
225 Clear -9 1006 67 10000 1.03 0 13:43 14.01.2023
226 Clear -8 1004 73 10000 1.54 0 11:58 14.01.2023
227 Clear -10 1004 79 10000 0.51 0 10:47 14.01.2023
228 Clear -6 1003 63 10000 2.06 110 08:19 14.01.2023
229 Clear -3 1003 54 10000 4.63 70 23:49 13.01.2023
230 Clear -3 1003 54 10000 6.17 90 22:53 13.01.2023
231 Clear -3 1003 54 10000 6.17 90 22:34 13.01.2023
232 Clear -2 1003 50 10000 6.69 70 21:46 13.01.2023
233 Clouds -3 1003 74 10000 3.98 84 19:49 13.01.2023
234 Clear -2 1002 54 10000 6.17 80 18:23 13.01.2023
235 Clouds -2 1002 54 10000 5.66 80 16:57 13.01.2023
236 Clear -3 1003 63 10000 6.17 70 14:22 13.01.2023
237 Clear -3 1003 68 10000 5.14 80 12:21 13.01.2023
238 Clouds -2 1002 64 10000 5.14 90 10:28 13.01.2023
239 Clouds -1 1001 64 10000 6.69 80 09:47 13.01.2023
240 Clear -1 1001 64 10000 6.17 70 08:56 13.01.2023
241 Clear -1 1001 64 10000 6.17 70 08:28 13.01.2023
242 Clouds -1 1001 64 10000 3.6 60 06:54 13.01.2023
243 Clouds 0 1001 64 10000 4.12 90 05:44 13.01.2023
244 Clouds 1 1000 64 10000 3.6 70 00:45 13.01.2023
245 Clouds -2 999 64 10000 2.06 90 22:45 12.01.2023
246 Clouds -2 999 64 10000 2.06 90 22:45 12.01.2023
247 Clear -3 998 63 10000 4.12 90 20:56 12.01.2023
248 Clear -2 998 54 10000 5.66 90 19:57 12.01.2023
249 Clear -2 997 59 10000 3.6 70 17:56 12.01.2023
250 Clear -2 997 54 10000 3.09 70 16:48 12.01.2023
251 Clear -2 997 59 10000 1.54 70 14:49 12.01.2023
252 Clear -2 997 59 10000 1.54 70 14:24 12.01.2023
253 Clear -2 996 54 10000 2.06 70 13:29 12.01.2023
254 Clouds 0 994 51 10000 6.17 90 10:54 12.01.2023
255 Clear 0 994 55 10000 5.14 80 09:40 12.01.2023
256 Clear 1 992 55 10000 5.14 90 05:59 12.01.2023
257 Clear -6 992 86 10000 0.51 0 00:30 12.01.2023
258 Clear -5 992 80 10000 2.06 120 23:48 11.01.2023
259 Clear -5 992 80 10000 2.06 120 23:30 11.01.2023
260 Clear -5 992 80 10000 2.06 120 23:30 11.01.2023
261 Clear -4 992 74 10000 2.06 90 22:50 11.01.2023
262 Clear -4 992 74 10000 0.51 0 20:59 11.01.2023
263 Clear -3 991 74 10000 2.06 110 18:50 11.01.2023
264 Clear -2 991 69 10000 1.03 0 17:30 11.01.2023
265 Clear -2 991 69 10000 1.54 110 15:31 11.01.2023
266 Clear -3 990 74 10000 1.54 0 13:54 11.01.2023
267 Clear -3 990 74 10000 3.09 110 12:25 11.01.2023
268 Clear -4 989 80 10000 0.51 0 10:53 11.01.2023
269 Clear -2 988 80 10000 1.54 0 08:43 11.01.2023
270 Clear -3 987 86 10000 0 0 07:28 11.01.2023
271 Clear 0 986 69 10000 2.06 120 05:55 11.01.2023
272 Clouds 4 984 60 10000 3.6 50 22:54 10.01.2023
273 Clouds 4 984 60 10000 3.6 50 22:18 10.01.2023
274 Clear 4 984 60 10000 4.63 90 20:56 10.01.2023
275 Clear 4 984 60 10000 4.63 80 19:53 10.01.2023
276 Clear 4 983 60 10000 6.69 80 18:50 10.01.2023
277 Clear 4 983 60 10000 6.69 80 18:27 10.01.2023
278 Clear 2 984 64 10000 4.63 100 16:59 10.01.2023
279 Clouds 3 985 60 10000 5.14 80 15:33 10.01.2023
280 Clouds 3 985 60 10000 5.14 80 15:33 10.01.2023
281 Clear 3 985 56 10000 4.63 80 14:35 10.01.2023
282 Clear 2 986 60 10000 5.14 110 12:54 10.01.2023
283 Clear -4 987 86 10000 2.06 30 09:43 10.01.2023
284 Clear -4 987 86 10000 2.06 30 09:43 10.01.2023
285 Clear -5 987 93 10000 0.51 0 08:37 10.01.2023
286 Clear -5 987 93 10000 1.54 120 07:55 10.01.2023
287 Clear -3 988 80 10000 1.54 0 05:33 10.01.2023
288 Clear -2 990 74 10000 2.57 140 00:29 10.01.2023
289 Clear 0 991 69 10000 8.23 20 21:58 09.01.2023
290 Clear 0 992 69 10000 8.23 20 20:50 09.01.2023
291 Clear 0 992 69 10000 8.23 20 20:18 09.01.2023
292 Clouds 0 991 69 10000 9.77 10 18:30 09.01.2023
293 Clouds -1 991 79 10000 11.32 10 17:49 09.01.2023
294 Clouds 0 991 74 10000 11.83 360 16:34 09.01.2023
295 Clouds 1 991 69 10000 10.8 10 15:36 09.01.2023
296 Clouds 0 991 74 10000 13.38 360 14:59 09.01.2023
297 Clouds 0 991 74 10000 13.38 360 14:41 09.01.2023
298 Clouds 0 991 74 10000 10.8 360 12:54 09.01.2023
299 Clouds 1 990 69 10000 11.32 360 11:52 09.01.2023
300 Snow 1 990 69 10000 11.32 360 11:19 09.01.2023
301 Clouds 0 986 80 10000 10.29 350 06:58 09.01.2023
302 Clouds -1 984 86 10000 12.86 340 02:55 09.01.2023
303 Snow 0 984 80 10000 5.66 320 00:59 09.01.2023
304 Clouds 1 984 69 10000 7.2 10 22:19 08.01.2023
305 Clouds 1 983 75 10000 8.23 10 21:22 08.01.2023
306 Clouds 1 981 75 10000 8.75 20 20:37 08.01.2023
307 Clouds 2 980 75 10000 9.77 10 18:51 08.01.2023
308 Clouds 3 979 75 10000 9.77 10 17:22 08.01.2023
309 Clouds 3 978 75 10000 9.26 10 16:43 08.01.2023
310 Clouds 3 977 81 10000 8.23 60 15:36 08.01.2023
311 Rain 3 977 81 10000 6.69 50 13:58 08.01.2023
312 Rain 3 977 81 10000 6.69 50 13:31 08.01.2023
313 Rain 3 977 81 10000 6.69 20 12:49 08.01.2023
314 Rain 3 975 81 10000 9.26 10 10:37 08.01.2023
315 Snow 2 976 80 10000 5.66 320 09:36 08.01.2023
316 Clouds 2 977 80 10000 5.66 340 07:49 08.01.2023
317 Clouds 1 980 69 10000 7.72 30 00:30 08.01.2023
318 Clouds -3 981 100 10000 2.06 170 22:48 07.01.2023
319 Clouds -3 981 100 10000 2.06 170 22:24 07.01.2023
320 Clouds -2 982 93 10000 1.54 130 21:49 07.01.2023
321 Clouds -2 982 93 10000 2.06 160 20:47 07.01.2023
322 Clouds -2 982 93 10000 2.06 160 20:24 07.01.2023
323 Snow -1 982 86 3000 2.57 100 18:52 07.01.2023
324 Snow -1 982 86 3000 2.06 90 17:53 07.01.2023
325 Snow -1 983 86 10000 1.03 0 17:33 07.01.2023
326 Snow -1 983 80 10000 3.09 80 16:37 07.01.2023
327 Snow -1 984 64 10000 4.63 110 15:50 07.01.2023
328 Snow -1 984 64 10000 4.63 110 15:29 07.01.2023
329 Snow -3 984 80 10000 1.03 0 14:32 07.01.2023
330 Snow -2 985 69 10000 2.57 190 13:54 07.01.2023
331 Snow -2 985 69 10000 2.57 190 13:34 07.01.2023
332 Clouds 0 984 64 10000 6.69 30 12:23 07.01.2023
333 Clouds 0 985 59 10000 4.63 40 11:51 07.01.2023
334 Clear -1 985 64 10000 4.63 40 10:25 07.01.2023
335 Clear -7 986 86 10000 0.51 0 08:38 07.01.2023
336 Clear -5 987 80 10000 1.03 0 07:45 07.01.2023
337 Clear -5 987 80 10000 1.03 0 07:20 07.01.2023
338 Clear -2 989 64 10000 1.03 30 04:49 07.01.2023
339 Clear -1 994 59 10000 6.69 90 22:38 06.01.2023
340 Clear -1 994 59 10000 6.69 90 22:19 06.01.2023
341 Clear 0 994 59 10000 7.72 90 21:28 06.01.2023
342 Clouds -1 995 64 10000 2.57 70 19:58 06.01.2023
343 Clouds -1 995 64 10000 2.57 70 19:40 06.01.2023
344 Clouds -1 995 64 10000 2.57 70 19:22 06.01.2023
345 Clouds -1 995 64 10000 3.09 90 18:43 06.01.2023
346 Clouds -1 996 69 10000 4.12 70 17:23 06.01.2023
347 Snow -1 996 80 9000 3.09 90 16:50 06.01.2023
348 Clouds -1 996 80 9000 3.09 90 16:20 06.01.2023
349 Snow -5 997 86 10000 1.54 160 15:50 06.01.2023
350 Snow -6 997 86 10000 0 0 14:54 06.01.2023
351 Clouds -7 998 79 10000 1.54 20 12:50 06.01.2023
352 Clear -11 998 85 10000 1.03 40 10:59 06.01.2023
353 Clear -12 998 85 10000 1.03 80 09:27 06.01.2023
354 Clear -12 999 85 10000 1.03 0 07:46 06.01.2023
355 Clear -12 1001 85 10000 1.03 100 01:52 06.01.2023
356 Clear -12 1002 92 10000 1.03 0 22:55 05.01.2023
357 Clear -10 1002 79 10000 1.03 0 21:54 05.01.2023
358 Clear -10 1003 85 10000 1.03 0 19:46 05.01.2023
359 Clear -8 1003 73 10000 1.54 100 17:28 05.01.2023
360 Clear -9 1004 79 10000 1.03 130 16:28 05.01.2023
361 Clear -9 1005 73 10000 0.51 0 15:47 05.01.2023
362 Clear -9 1005 79 10000 0 0 14:51 05.01.2023
363 Clear -10 1006 85 10000 0.51 0 12:49 05.01.2023
364 Clear -10 1006 85 10000 0.51 0 12:27 05.01.2023
365 Clear -10 1006 85 10000 1.03 70 09:55 05.01.2023
366 Clear -9 1007 79 10000 2.06 120 08:41 05.01.2023
367 Clear -8 1007 79 10000 1.03 0 07:20 05.01.2023
368 Clear -8 1007 79 10000 1.03 0 06:35 05.01.2023
369 Clear -9 1008 92 10000 1.54 90 23:26 04.01.2023
370 Clear -12 1008 85 10000 1.03 0 21:33 04.01.2023
371 Clear -11 1007 92 10000 0.51 0 20:55 04.01.2023
372 Clear -8 1007 86 10000 1.54 130 19:57 04.01.2023
373 Clear -8 1007 86 10000 1.54 130 19:33 04.01.2023
374 Clear -8 1007 86 10000 1.54 140 18:37 04.01.2023
375 Clear -7 1006 86 10000 1.03 0 16:32 04.01.2023
376 Clear -7 1006 86 10000 1.03 0 16:32 04.01.2023
377 Clear -7 1005 93 10000 1.03 0 15:56 04.01.2023
378 Clear -8 1005 93 10000 1.03 140 14:47 04.01.2023
379 Clear -5 1003 80 10000 3.09 340 11:43 04.01.2023
380 Clear -5 1003 80 10000 3.09 340 11:21 04.01.2023
381 Clear -3 1003 68 10000 4.12 340 10:43 04.01.2023
382 Clear -3 1003 68 10000 4.12 340 10:23 04.01.2023
383 Clear -4 1002 68 10000 4.12 350 08:52 04.01.2023
384 Clear -3 1001 63 10000 2.57 340 05:36 04.01.2023
385 Clear -5 1000 74 10000 0.51 0 00:32 04.01.2023
386 Clear -5 1000 80 10000 1.03 0 23:35 03.01.2023
387 Clear -4 1000 74 10000 1.03 110 22:54 03.01.2023
388 Clouds -1 999 69 10000 2.57 20 20:58 03.01.2023
389 Clouds -1 998 69 10000 3.6 310 19:50 03.01.2023
390 Clouds 0 998 51 10000 4.63 290 17:38 03.01.2023
391 Clouds 0 997 55 10000 5.14 280 16:39 03.01.2023
392 Clouds -1 996 74 10000 4.12 270 13:58 03.01.2023
393 Clouds -1 996 74 10000 4.12 270 13:31 03.01.2023
394 Clouds -3 995 86 10000 2.57 190 12:58 03.01.2023
395 Clouds -3 995 86 10000 2.57 190 12:30 03.01.2023
396 Clouds -1 994 80 10000 0 0 11:32 03.01.2023
397 Clouds 1 990 64 10000 6.69 260 07:50 03.01.2023
398 Snow 0 988 100 3000 4.63 290 04:23 03.01.2023
399 Snow 0 987 100 1000 5.66 290 03:44 03.01.2023
400 Snow 1 987 93 4500 4.63 220 02:50 03.01.2023
401 Snow 2 988 93 10000 2.06 100 22:43 02.01.2023
402 Snow 2 988 93 10000 2.06 100 22:24 02.01.2023
403 Clouds 2 987 93 10000 2.57 130 20:40 02.01.2023
404 Rain 2 987 93 10000 3.09 150 19:54 02.01.2023
405 Snow 1 988 93 10000 3.09 200 18:26 02.01.2023
406 Rain 3 989 81 10000 5.14 150 15:28 02.01.2023
407 Clouds 3 990 75 10000 5.14 170 13:39 02.01.2023
408 Snow 2 990 87 10000 7.2 160 12:18 02.01.2023
409 Snow 1 991 93 3500 6.69 170 10:52 02.01.2023
410 Snow 1 991 86 10000 6.17 190 07:35 02.01.2023
411 Snow -1 993 80 10000 3.09 140 01:39 02.01.2023
412 Snow -4 994 93 10000 2.06 120 22:41 01.01.2023
413 Snow -4 994 86 10000 3.6 70 21:38 01.01.2023
414 Clouds -5 994 93 10000 3.6 90 20:48 01.01.2023
415 Snow -5 994 86 800 2.57 10 19:49 01.01.2023
416 Snow -6 993 86 10000 5.14 80 18:39 01.01.2023
417 Snow -4 993 93 10000 2.57 80 17:23 01.01.2023
418 Snow -4 993 93 10000 5.14 170 16:34 01.01.2023
419 Snow -4 993 93 500 6.17 170 15:27 01.01.2023
420 Clouds -10 993 79 10000 4.63 110 13:41 01.01.2023
421 Clouds -9 993 79 10000 4.12 110 12:41 01.01.2023
422 Clouds -9 993 92 10000 3.09 120 11:39 01.01.2023
423 Snow -8 993 93 10000 2.06 120 10:47 01.01.2023
424 Snow -6 991 63 10000 3.6 350 08:59 01.01.2023
425 Clouds -7 991 71 10000 3.6 350 08:23 01.01.2023
426 Clouds -6 990 73 10000 5.14 350 07:27 01.01.2023
427 Clouds -5 988 74 10000 7.2 340 05:58 01.01.2023
428 Snow -2 980 80 5000 3.09 100 23:44 31.12.2022
429 Clouds -3 981 74 10000 2.57 120 22:59 31.12.2022
430 Clouds -2 981 74 10000 3.6 200 21:42 31.12.2022
431 Snow -2 981 74 10000 3.6 200 21:20 31.12.2022
432 Snow -3 982 93 10000 3.09 110 19:43 31.12.2022
433 Snow -4 982 93 8000 4.12 110 18:45 31.12.2022
434 Snow -4 982 93 8000 4.12 110 18:20 31.12.2022
435 Snow -4 983 93 2300 3.6 110 17:55 31.12.2022
436 Snow -4 983 100 2000 4.12 80 17:00 31.12.2022
437 Snow -4 983 100 2000 4.12 80 16:30 31.12.2022
438 Snow -4 984 93 600 4.63 80 15:28 31.12.2022
439 Clouds -4 985 74 10000 6.17 80 13:53 31.12.2022
440 Snow -5 985 80 10000 6.69 80 12:47 31.12.2022
441 Snow -5 985 80 10000 6.69 80 12:21 31.12.2022
442 Snow -6 985 79 10000 8.23 80 11:51 31.12.2022
443 Snow -6 986 79 2000 7.72 80 10:49 31.12.2022
444 Clouds -6 986 73 10000 8.75 80 09:56 31.12.2022
445 Snow -6 986 73 10000 8.75 80 09:36 31.12.2022
446 Clouds -7 987 63 10000 9.26 70 07:51 31.12.2022
447 Clear -12 993 61 10000 4.63 90 00:59 31.12.2022
448 Clear -12 993 61 10000 4.63 90 00:24 31.12.2022
449 Clear -14 994 72 10000 3.6 110 22:52 30.12.2022
450 Clear -14 994 72 10000 3.6 110 22:18 30.12.2022
451 Clear -13 995 72 10000 2.57 120 21:37 30.12.2022
452 Clear -14 995 78 10000 2.06 110 20:20 30.12.2022
453 Clear -15 995 78 10000 1.03 0 18:28 30.12.2022
454 Clear -15 995 85 10000 1.03 0 17:33 30.12.2022
455 Clouds -14 995 85 10000 1.54 0 16:41 30.12.2022
456 Clear -14 995 78 10000 1.54 150 14:54 30.12.2022
457 Clear -15 996 85 10000 1.03 0 12:52 30.12.2022
458 Clear -13 994 85 10000 0.51 0 08:23 30.12.2022
459 Clear -12 995 82 10000 1.54 140 03:50 30.12.2022
460 Clear -12 994 85 10000 1.03 0 02:26 30.12.2022
461 Clear -12 993 79 10000 1.54 120 23:41 29.12.2022
462 Clear -12 993 92 10000 1.03 0 21:46 29.12.2022
463 Clouds -12 993 79 10000 1.03 0 20:54 29.12.2022
464 Clouds -12 993 79 10000 1.03 0 20:30 29.12.2022
465 Clouds -13 993 85 10000 1.54 0 18:38 29.12.2022
466 Clouds -12 992 79 10000 0.51 0 17:53 29.12.2022
467 Clouds -12 992 79 10000 0.51 0 17:20 29.12.2022
468 Clouds -9 992 73 10000 2.57 160 16:54 29.12.2022
469 Clear -9 992 73 10000 2.06 130 15:47 29.12.2022
470 Clear -7 992 63 10000 3.09 150 13:34 29.12.2022
471 Clear -8 992 68 10000 2.06 0 11:48 29.12.2022
472 Clear -5 991 54 10000 3.09 80 09:29 29.12.2022
473 Clear -5 991 68 10000 6.69 10 02:31 29.12.2022
474 Clouds -7 992 73 10000 3.09 10 23:28 28.12.2022
475 Clouds -7 992 86 10000 7.2 350 21:55 28.12.2022
476 Clouds -6 992 86 10000 7.2 350 21:19 28.12.2022
477 Clouds -6 993 79 10000 7.72 350 19:52 28.12.2022
478 Clouds -6 992 79 10000 9.26 340 17:54 28.12.2022
479 Clouds -5 993 74 10000 9.77 340 16:20 28.12.2022
480 Clouds -6 994 73 10000 6.69 350 13:46 28.12.2022
481 Clouds -6 994 73 10000 7.2 350 12:48 28.12.2022
482 Clear -7 995 79 10000 6.17 350 11:33 28.12.2022
483 Clear -13 995 92 10000 0.51 0 09:28 28.12.2022
484 Clear -12 995 92 10000 1.03 120 07:30 28.12.2022
485 Clear -11 995 92 10000 1.03 130 06:44 28.12.2022
486 Clouds -8 995 100 10000 0.51 0 00:46 28.12.2022
487 Clouds -7 994 93 10000 1.03 0 21:18 27.12.2022
488 Clouds -4 993 93 10000 1.54 150 19:50 27.12.2022
489 Clouds -3 993 93 10000 3.09 150 18:21 27.12.2022
490 Snow -2 993 100 10000 1.54 320 16:58 27.12.2022
491 Snow -2 992 86 10000 5.66 60 15:53 27.12.2022
492 Snow -2 994 89 6179 2.31 46 13:57 27.12.2022
493 Snow -2 992 93 1000 6.17 70 11:42 27.12.2022
494 Clouds -3 992 93 1500 6.17 80 09:47 27.12.2022
495 Snow -3 993 86 4000 4.63 120 09:23 27.12.2022
496 Snow -3 993 86 10000 5.66 70 08:44 27.12.2022
497 Snow -4 995 93 1500 6.69 70 04:33 27.12.2022
498 Clouds -4 1001 42 10000 5.14 80 23:25 26.12.2022
499 Clouds -5 1002 58 10000 6.17 80 21:39 26.12.2022
500 Clouds -6 1003 49 10000 5.66 70 20:43 26.12.2022
501 Clear -7 1005 58 10000 6.17 80 18:50 26.12.2022
502 Clear -7 1006 53 10000 5.66 90 17:52 26.12.2022
503 Clear -8 1007 57 10000 5.14 80 16:38 26.12.2022
504 Clear -8 1008 57 10000 5.14 80 14:49 26.12.2022
505 Clear -9 1008 62 10000 3.09 110 12:53 26.12.2022
506 Clear -8 1008 67 10000 3.09 120 09:27 26.12.2022
507 Clouds -3 1008 68 10000 6.69 0 02:53 26.12.2022
508 Clouds -3 1008 74 10000 3.6 20 23:38 25.12.2022
509 Clouds -2 1007 69 10000 7.72 10 22:42 25.12.2022
510 Clouds -2 1007 64 10000 4.63 20 21:50 25.12.2022
511 Clouds -2 1006 64 10000 5.66 30 19:28 25.12.2022
512 Clouds -2 1004 69 10000 9.26 0 17:52 25.12.2022
513 Clouds -2 1004 69 10000 9.26 0 17:34 25.12.2022
514 Clouds 0 1003 55 10000 6.17 20 16:19 25.12.2022
515 Clear -2 1002 59 10000 2.06 50 13:23 25.12.2022
516 Clouds -4 1000 74 10000 1.54 350 11:21 25.12.2022
517 Clouds -5 999 86 2100 4.12 340 02:57 25.12.2022
518 Clouds -6 1001 79 10000 5.14 350 22:38 24.12.2022
519 Clouds -5 1001 86 1400 8.75 350 19:52 24.12.2022
520 Snow -5 1001 86 1000 5.66 80 16:59 24.12.2022
521 Snow -5 1002 93 550 5.66 80 14:56 24.12.2022
522 Snow -5 1003 93 800 4.63 80 13:56 24.12.2022
523 Snow -5 1004 80 10000 6.69 70 11:44 24.12.2022
524 Clouds -5 1005 80 10000 5.14 80 10:23 24.12.2022
525 Clouds -7 1006 79 10000 5.66 80 09:37 24.12.2022
526 Clear -7 1008 73 10000 4.12 70 07:37 24.12.2022
527 Snow -8 1012 67 10000 4.12 70 02:51 24.12.2022
528 Clear -7 1013 63 10000 4.63 80 00:18 24.12.2022
529 Clear -7 1014 63 10000 4.63 70 22:30 23.12.2022
530 Clear -7 1014 68 10000 4.63 70 21:30 23.12.2022
531 Clear -7 1014 68 10000 4.63 70 21:30 23.12.2022
532 Clouds -7 1015 68 10000 1.54 0 19:40 23.12.2022
533 Clouds -7 1015 68 10000 1.54 0 19:22 23.12.2022
534 Clouds -6 1015 63 10000 2.57 80 18:53 23.12.2022
535 Clouds -6 1015 63 10000 2.57 80 18:21 23.12.2022
536 Clouds -7 1016 63 10000 2.57 100 16:48 23.12.2022
537 Clear -6 1016 58 10000 3.6 90 15:45 23.12.2022
538 Clear -8 1017 62 10000 2.57 60 12:28 23.12.2022
539 Clear -8 1017 62 10000 3.09 70 09:53 23.12.2022
540 Clear -8 1017 62 10000 3.09 70 09:34 23.12.2022
541 Clear -6 1018 53 10000 4.63 70 07:23 23.12.2022
542 Clear -6 1018 53 10000 4.12 70 06:49 23.12.2022
543 Clear -6 1019 53 10000 4.12 60 23:24 22.12.2022
544 Clear -5 1019 54 10000 6.17 80 22:59 22.12.2022
545 Clouds -5 1019 54 10000 4.12 70 21:49 22.12.2022
546 Clouds -5 1019 50 10000 4.12 80 19:47 22.12.2022
547 Clouds -5 1019 50 10000 4.12 80 19:18 22.12.2022
548 Clouds -4 1019 50 10000 5.14 70 17:42 22.12.2022
549 Clouds -4 1019 50 10000 6.17 80 16:48 22.12.2022
550 Clouds -5 1019 50 10000 3.6 50 15:38 22.12.2022
551 Clouds -5 1019 50 10000 3.6 50 15:18 22.12.2022
552 Clear -6 1019 58 10000 4.63 40 14:27 22.12.2022
553 Clear -8 1019 62 10000 2.57 130 13:19 22.12.2022
554 Clear -6 1019 58 10000 4.12 70 11:40 22.12.2022
555 Clear -5 1018 54 10000 4.63 100 10:31 22.12.2022
556 Clear -6 1018 58 10000 3.09 90 09:22 22.12.2022
557 Clear -6 1018 58 10000 3.09 90 09:22 22.12.2022
558 Clear -6 1017 58 10000 4.63 110 08:52 22.12.2022
559 Clear -8 1017 67 10000 1.03 0 07:51 22.12.2022
560 Clear -2 1018 62 10000 3.92 54 04:19 22.12.2022
561 Clear -2 1016 46 10000 2.57 80 00:41 22.12.2022
562 Clear -1 1015 47 10000 5.14 60 22:29 21.12.2022
563 Clear -2 1015 54 10000 5.14 60 21:46 21.12.2022
564 Clear -2 1015 54 10000 5.14 60 21:19 21.12.2022
565 Clouds -1 1015 55 10000 4.12 40 20:34 21.12.2022
566 Clouds -1 1014 51 10000 7.72 20 19:47 21.12.2022
567 Clouds -1 1014 51 10000 7.72 20 19:29 21.12.2022
568 Clouds -2 1014 64 10000 7.72 20 18:54 21.12.2022
569 Clouds -2 1014 64 10000 7.72 20 18:35 21.12.2022
570 Clear -2 1014 71 10000 5.29 23 16:19 21.12.2022
571 Clouds 0 1013 55 10000 6.17 40 14:20 21.12.2022
572 Clouds 0 1010 59 10000 5.66 50 11:58 21.12.2022
573 Clouds 0 1010 59 10000 5.66 50 11:21 21.12.2022
574 Clouds 0 1009 64 10000 7.72 50 10:29 21.12.2022
575 Clouds 0 1008 59 10000 4.63 40 08:49 21.12.2022
576 Clouds -1 1007 69 10000 9.77 40 06:30 21.12.2022
577 Clouds -1 1007 69 10000 9.77 40 06:30 21.12.2022
578 Clouds 0 1004 59 10000 5.66 50 00:26 21.12.2022
579 Clouds 0 1003 59 10000 5.14 50 21:47 20.12.2022
580 Clouds 0 1003 59 10000 8.75 40 20:58 20.12.2022
581 Clouds 0 1002 59 10000 7.2 40 19:55 20.12.2022
582 Clouds 0 1002 59 10000 6.17 50 18:48 20.12.2022
583 Clouds 0 1002 59 10000 6.17 50 18:23 20.12.2022
584 Clouds 0 1001 64 10000 5.14 0 17:50 20.12.2022
585 Clouds 0 1001 64 10000 5.14 0 17:25 20.12.2022
586 Clouds 0 1000 64 10000 9.26 30 15:58 20.12.2022
587 Clouds 0 999 64 10000 9.26 30 14:56 20.12.2022
588 Clouds 0 999 64 10000 9.26 30 14:36 20.12.2022
589 Clouds 0 1000 64 10000 8.75 30 13:26 20.12.2022
590 Clouds 0 1000 59 10000 8.23 30 12:34 20.12.2022
591 Clouds -1 1000 59 10000 9.77 40 11:54 20.12.2022
592 Clear -2 1000 59 10000 8.23 40 10:21 20.12.2022
593 Clear -3 1000 59 10000 7.72 50 07:25 20.12.2022
594 Clouds -3 1001 63 10000 9.77 30 00:20 20.12.2022
595 Clouds -2 1001 59 10000 8.23 30 22:22 19.12.2022
596 Clouds -2 1002 59 10000 5.66 50 21:22 19.12.2022
597 Clouds -2 1001 59 10000 8.75 60 19:41 19.12.2022
598 Clouds -2 1001 54 10000 6.69 50 18:44 19.12.2022
599 Clouds -2 1001 59 10000 6.17 50 17:38 19.12.2022
600 Clouds -2 1001 54 10000 5.14 40 15:59 19.12.2022
601 Clouds -4 1003 63 10000 5.14 30 12:47 19.12.2022
602 Clouds -4 1003 63 10000 5.66 20 11:36 19.12.2022
603 Clear -5 1005 68 10000 9.26 30 07:50 19.12.2022
604 Clear -6 1007 68 10000 7.72 30 06:42 19.12.2022
605 Clear -13 1014 72 10000 2.57 70 00:50 19.12.2022
606 Clear -11 1016 62 10000 3.09 100 21:49 18.12.2022
607 Clear -11 1016 62 10000 3.09 100 21:27 18.12.2022
608 Clear -11 1017 67 10000 3.6 90 20:54 18.12.2022
609 Clear -10 1018 62 10000 4.12 70 19:44 18.12.2022
610 Clear -13 1019 78 10000 1.54 70 18:59 18.12.2022
611 Clear -11 1019 73 10000 2.57 100 17:52 18.12.2022
612 Clear -8 1020 62 10000 4.63 110 15:43 18.12.2022
613 Clear -8 1020 62 10000 4.63 110 15:24 18.12.2022
614 Clear -8 1020 62 10000 4.12 100 14:59 18.12.2022
615 Clear -8 1020 62 10000 4.63 100 13:29 18.12.2022
616 Clear -7 1020 63 10000 3.6 100 12:50 18.12.2022
617 Clear -7 1020 63 10000 4.63 80 11:51 18.12.2022
618 Clouds -6 1019 63 10000 5.14 100 09:47 18.12.2022
619 Clouds -6 1019 63 10000 3.09 100 08:46 18.12.2022
620 Clear -5 1018 58 10000 6.69 90 06:52 18.12.2022
621 Clear -5 1018 58 10000 6.69 90 06:18 18.12.2022
622 Clouds -3 1014 63 10000 9.77 90 01:57 18.12.2022
623 Clouds -3 1013 74 10000 9.26 80 23:32 17.12.2022
624 Clouds -2 1011 74 10000 11.83 80 21:18 17.12.2022
625 Clouds -3 1007 80 10000 9.26 100 17:56 17.12.2022
626 Clouds -3 1006 86 1200 11.32 90 15:48 17.12.2022
627 Snow -3 1006 93 700 8.23 90 13:33 17.12.2022
628 Snow -3 1006 93 700 7.72 80 11:23 17.12.2022
629 Snow -3 1006 93 600 7.2 90 10:44 17.12.2022
630 Clouds -3 1005 86 10000 8.23 80 09:40 17.12.2022
631 Clouds -2 1004 86 4500 8.75 100 07:24 17.12.2022
632 Clouds -2 1004 86 4500 8.75 100 07:24 17.12.2022
633 Clouds -3 1004 93 1800 7.2 90 06:45 17.12.2022
634 Snow -4 1008 87 9277 10.12 121 23:32 16.12.2022
635 Clouds -6 1010 45 4500 4.63 80 20:34 16.12.2022
636 Snow -8 1012 49 10000 4.12 80 18:42 16.12.2022
637 Clear -9 1014 57 10000 4.12 110 15:37 16.12.2022
638 Clear -10 1015 62 10000 3.09 100 14:47 16.12.2022
639 Clear -9 1016 57 10000 4.12 100 13:40 16.12.2022
640 Clear -10 1016 57 10000 3.6 110 11:57 16.12.2022
641 Clear -10 1017 62 10000 2.06 160 09:53 16.12.2022
642 Clear -10 1018 62 10000 0.51 0 08:54 16.12.2022
643 Clear -10 1018 62 10000 2.06 140 07:55 16.12.2022
644 Clear -10 1018 62 10000 2.06 140 07:25 16.12.2022
645 Clear -6 1019 58 10000 9.77 10 23:24 15.12.2022
646 Clear -6 1019 53 10000 7.2 10 22:20 15.12.2022
647 Clear -6 1019 63 10000 8.23 10 20:30 15.12.2022
648 Clouds -6 1019 58 10000 8.75 20 19:35 15.12.2022
649 Clouds -5 1019 54 10000 9.26 20 17:59 15.12.2022
650 Clouds -5 1019 54 10000 9.26 20 17:20 15.12.2022
651 Clear -6 1020 58 10000 3.09 100 14:58 15.12.2022
652 Clear -9 1020 67 10000 2.06 140 13:18 15.12.2022
653 Clouds -9 1020 67 10000 2.06 120 12:25 15.12.2022
654 Clear -8 1020 73 10000 1.03 0 09:32 15.12.2022
655 Clear -8 1020 73 10000 1.03 0 08:49 15.12.2022
656 Clear -9 1022 76 10000 2.06 120 05:50 15.12.2022
657 Clear -11 1022 79 10000 1.54 70 04:37 15.12.2022
658 Clear -8 1024 67 10000 0.51 0 21:25 14.12.2022
659 Clear -9 1024 73 10000 3.09 110 20:59 14.12.2022
660 Clear -9 1024 73 10000 3.09 110 20:23 14.12.2022
661 Clear -8 1025 67 10000 3.09 90 18:25 14.12.2022
662 Clear -9 1025 79 10000 1.54 60 16:57 14.12.2022
663 Clear -8 1025 73 10000 1.03 0 15:39 14.12.2022
664 Clouds -7 1026 58 10000 2.06 80 13:52 14.12.2022
665 Clear -7 1025 73 10000 1.03 0 11:22 14.12.2022
666 Clouds -6 1025 73 10000 1.54 0 10:33 14.12.2022
667 Clear -5 1025 63 10000 4.12 360 08:51 14.12.2022
668 Clear -6 1028 63 10000 3.6 20 22:50 13.12.2022
669 Clear -8 1028 67 10000 1.54 130 21:48 13.12.2022
670 Clear -8 1028 73 10000 2.06 130 20:48 13.12.2022
671 Clear -8 1028 73 10000 2.06 130 20:19 13.12.2022
672 Clear -7 1029 68 10000 1.54 160 17:50 13.12.2022
673 Clear -6 1030 68 10000 1.54 110 15:55 13.12.2022
674 Clear -5 1031 63 10000 3.6 90 14:52 13.12.2022
675 Clear -5 1031 63 10000 3.6 90 14:52 13.12.2022
676 Clear -4 1032 63 10000 4.12 100 11:32 13.12.2022
677 Clear -5 1032 68 10000 3.09 80 10:36 13.12.2022
678 Clear -5 1031 68 10000 3.09 80 09:43 13.12.2022
679 Clear -5 1032 63 10000 1.03 110 06:21 13.12.2022
680 Clear -7 1030 86 10000 0.51 0 22:23 12.12.2022
681 Clear -6 1030 86 10000 0.51 0 21:27 12.12.2022
682 Clear -7 1029 93 10000 0 0 18:34 12.12.2022
683 Clouds -5 1028 86 10000 1.54 100 17:21 12.12.2022
684 Clouds -5 1028 86 10000 0 0 15:22 12.12.2022
685 Clouds -5 1028 86 10000 0 0 15:22 12.12.2022
686 Clear -6 1028 93 10000 1.03 0 12:24 12.12.2022
687 Clear -5 1027 80 10000 1.03 90 09:19 12.12.2022
688 Clear -3 1027 68 10000 4.12 100 05:42 12.12.2022
689 Clear -3 1027 63 10000 3.09 90 03:51 12.12.2022
690 Clear -2 1027 64 10000 3.6 80 22:57 11.12.2022
691 Clear 0 1027 51 10000 7.2 90 20:54 11.12.2022
692 Clear -1 1027 55 10000 6.17 90 19:48 11.12.2022
693 Clear -1 1027 55 10000 6.17 90 19:30 11.12.2022
694 Clear -3 1027 59 10000 2.57 30 18:22 11.12.2022
695 Clear -5 1027 80 10000 1.54 10 17:32 11.12.2022
696 Clear -5 1027 80 10000 1.03 120 16:52 11.12.2022
697 Clear -5 1027 80 10000 1.03 30 15:47 11.12.2022
698 Clear -4 1027 74 10000 1.03 0 14:50 11.12.2022
699 Clear -5 1028 74 10000 1.54 90 12:45 11.12.2022
700 Clear -5 1028 74 10000 1.54 90 12:18 11.12.2022
701 Clear -5 1028 80 10000 1.54 120 08:56 11.12.2022
702 Clear -7 1032 73 10000 1.03 0 00:35 11.12.2022
703 Clear -8 1033 79 10000 1.54 0 23:32 10.12.2022
704 Clear -7 1033 73 10000 2.06 80 22:33 10.12.2022
705 Clear -7 1033 73 10000 2.06 80 22:33 10.12.2022
706 Clear -5 1034 63 10000 2.06 110 21:20 10.12.2022
707 Clear -6 1034 73 10000 1.54 80 20:39 10.12.2022
708 Clear -6 1034 73 10000 2.06 100 19:54 10.12.2022
709 Clear -5 1035 74 10000 2.06 120 16:59 10.12.2022
710 Clear -5 1035 74 10000 2.06 120 16:34 10.12.2022
711 Clear -5 1035 74 10000 1.03 0 15:39 10.12.2022
712 Clear -5 1035 74 10000 1.03 0 14:49 10.12.2022
713 Clear -5 1035 68 10000 2.06 110 12:54 10.12.2022
714 Clear -5 1036 74 10000 1.03 0 11:46 10.12.2022
715 Clear -6 1035 73 10000 1.54 0 10:45 10.12.2022
716 Clear -4 1035 68 10000 1.03 0 09:38 10.12.2022
717 Clear -4 1035 68 10000 3.09 100 07:20 10.12.2022
718 Clear -3 1036 69 10000 2.24 120 03:18 10.12.2022
719 Clear -3 1035 74 10000 2.06 110 23:20 09.12.2022
720 Clear -3 1035 74 10000 2.57 150 22:41 09.12.2022
721 Clear -3 1035 74 10000 2.06 130 21:26 09.12.2022
722 Clear -1 1035 64 10000 2.06 130 20:57 09.12.2022
723 Clear 0 1035 59 10000 3.6 100 19:41 09.12.2022
724 Clear 0 1035 64 10000 5.14 30 17:55 09.12.2022
725 Clear 1 1035 55 10000 4.12 20 16:37 09.12.2022
726 Clear 1 1035 55 10000 4.12 20 16:18 09.12.2022
727 Clear 0 1036 64 10000 6.17 0 15:19 09.12.2022
728 Clouds 0 1036 64 10000 6.17 20 11:36 09.12.2022
729 Clouds 0 1036 59 10000 3.6 90 10:45 09.12.2022
730 Clear 0 1035 59 10000 5.66 60 09:25 09.12.2022
731 Clouds 0 1035 64 10000 6.17 0 05:36 09.12.2022
732 Clouds 0 1035 55 10000 6.69 10 02:29 09.12.2022
733 Clear -1 1035 59 10000 9.77 30 22:32 08.12.2022
734 Clouds -1 1035 69 10000 4.12 40 20:51 08.12.2022
735 Clouds -1 1035 69 10000 8.23 20 18:18 08.12.2022
736 Clouds -1 1036 59 10000 2.06 110 15:45 08.12.2022
737 Clouds -2 1037 64 10000 4.63 70 14:27 08.12.2022
738 Clear -8 1037 86 10000 1.54 0 11:42 08.12.2022
739 Clear -6 1036 68 10000 1.54 0 10:22 08.12.2022
740 Clear -5 1036 63 10000 3.09 140 09:27 08.12.2022
741 Clear -5 1037 80 10000 3.09 110 02:56 08.12.2022
742 Clear -4 1036 80 10000 1.03 0 22:19 07.12.2022
743 Clear -5 1037 86 10000 1.54 0 21:51 07.12.2022
744 Clear -5 1037 86 10000 1.54 0 21:31 07.12.2022
745 Clear -5 1036 93 10000 0.51 0 19:47 07.12.2022
746 Clear -3 1036 80 10000 2.57 100 17:41 07.12.2022
747 Clear -3 1036 86 10000 1.54 130 14:41 07.12.2022
748 Clear -3 1036 86 10000 2.06 110 12:38 07.12.2022
749 Clear -2 1036 86 10000 2.06 120 10:46 07.12.2022
750 Clear -3 1036 93 10000 2.57 110 09:56 07.12.2022
751 Clouds -2 1036 93 10000 1.03 10 08:51 07.12.2022
752 Clear 0 1036 80 10000 3.6 330 06:49 07.12.2022
753 Clear 1 1036 80 10000 4.12 360 05:23 07.12.2022
754 Mist 1 1037 100 10000 0 0 23:43 06.12.2022
755 Drizzle 2 1039 100 1800 1.54 240 21:24 06.12.2022
756 Clouds 1 1040 100 10000 1.03 40 18:28 06.12.2022
757 Clouds 1 1041 100 10000 0 0 16:56 06.12.2022
758 Clouds 1 1041 100 10000 0 0 16:21 06.12.2022
759 Clouds 1 1042 93 10000 0.51 0 15:35 06.12.2022
760 Clouds 1 1042 93 10000 0.51 0 14:34 06.12.2022
761 Clouds 1 1043 93 10000 1.03 120 13:39 06.12.2022
762 Clouds 0 1043 100 10000 1.54 100 12:40 06.12.2022
763 Clouds -3 1043 100 10000 1.03 120 10:23 06.12.2022
764 Clear -3 1043 93 10000 1.03 30 07:38 06.12.2022
765 Clear -4 1045 93 10000 1.03 100 02:22 06.12.2022
766 Clear -3 1044 100 10000 0 0 22:37 05.12.2022
767 Clear -3 1045 93 10000 0 0 21:39 05.12.2022
768 Clear -2 1044 93 10000 1.54 90 20:48 05.12.2022
769 Fog -2 1044 100 10000 1.03 110 19:51 05.12.2022
770 Fog -2 1044 100 10000 1.03 110 19:32 05.12.2022
771 Clear -2 1043 100 10000 0 0 16:49 05.12.2022
772 Fog -1 1043 100 10000 1.03 170 15:26 05.12.2022
773 Fog -1 1043 93 10000 1.03 30 13:44 05.12.2022
774 Fog -2 1042 93 10000 1.03 120 12:57 05.12.2022
775 Fog -2 1042 93 10000 1.03 120 12:37 05.12.2022
776 Fog -1 1037 93 10000 1.03 100 11:00 05.12.2022
777 Fog 0 1039 100 10000 1.54 100 06:38 05.12.2022
778 Clouds 3 1040 100 10000 2.57 330 00:18 05.12.2022
779 Fog 3 1039 100 900 1.03 0 22:41 04.12.2022
780 Fog 3 1039 100 900 1.03 0 22:18 04.12.2022
781 Fog 3 1039 100 1000 1.03 0 21:31 04.12.2022
782 Drizzle 3 1038 93 2000 1.03 110 19:53 04.12.2022
783 Drizzle 3 1038 93 6000 1.03 110 19:23 04.12.2022
784 Clouds 3 1038 93 10000 2.06 110 18:32 04.12.2022
785 Clouds 3 1037 100 10000 2.06 100 17:22 04.12.2022
786 Clouds 3 1037 100 10000 0.51 0 16:36 04.12.2022
787 Clouds 3 1037 100 10000 0.51 0 16:18 04.12.2022
788 Clouds 3 1037 100 10000 1.03 0 15:26 04.12.2022
789 Fog 2 1036 100 800 2.06 130 14:18 04.12.2022
790 Clouds 2 1036 100 10000 1.54 120 12:47 04.12.2022
791 Clouds 2 1036 100 10000 1.54 120 12:25 04.12.2022
792 Drizzle 3 1035 93 10000 2.57 130 11:29 04.12.2022
793 Clouds -2 1035 100 10000 0.51 0 07:36 04.12.2022
794 Clear 1 1033 93 10000 1.03 0 02:51 04.12.2022
795 Clear -1 1033 86 10000 2.06 130 23:44 03.12.2022
796 Clear 0 1033 86 10000 2.06 110 22:34 03.12.2022
797 Clear -1 1033 93 10000 1.03 0 21:48 03.12.2022
798 Clear 1 1033 80 10000 2.57 100 20:45 03.12.2022
799 Clear -1 1032 93 10000 1.54 330 18:41 03.12.2022
800 Clear 0 1032 93 10000 2.57 120 17:49 03.12.2022
801 Clear 1 1032 86 10000 0.51 0 15:50 03.12.2022
802 Clear 1 1032 100 10000 1.03 0 13:43 03.12.2022
803 Clear -1 1031 100 10000 1.03 0 12:43 03.12.2022
804 Clear -1 1031 100 10000 0.51 0 11:57 03.12.2022
805 Clear 0 1030 100 10000 1.54 110 08:38 03.12.2022
806 Clear 3 1026 93 10000 2.57 80 02:48 03.12.2022
807 Clouds 4 1022 93 10000 3.6 90 23:38 02.12.2022
808 Clouds 4 1020 93 10000 3.09 90 21:59 02.12.2022
809 Clouds 4 1017 93 10000 2.57 80 19:50 02.12.2022
810 Clouds 6 1014 87 10000 2.57 90 17:30 02.12.2022
811 Clouds 6 1012 93 10000 2.06 110 15:57 02.12.2022
812 Clouds 6 1011 87 10000 2.06 100 14:37 02.12.2022
813 Clouds 6 1011 87 10000 2.06 100 14:18 02.12.2022
814 Clouds 5 1007 87 10000 3.6 130 11:59 02.12.2022
815 Clouds 6 1006 87 10000 5.14 110 10:43 02.12.2022
816 Clouds 6 1003 81 10000 6.17 170 07:54 02.12.2022
817 Clouds 6 1003 81 10000 6.17 170 07:22 02.12.2022
818 Clouds 6 1000 75 10000 5.66 160 22:53 01.12.2022
819 Clouds 6 999 70 10000 8.75 160 21:43 01.12.2022
820 Clouds 6 999 75 10000 6.17 170 20:56 01.12.2022
821 Clouds 6 998 70 10000 8.23 170 19:18 01.12.2022
822 Clouds 5 997 81 10000 10.8 170 17:30 01.12.2022
823 Rain 6 996 75 10000 9.77 170 14:46 01.12.2022
824 Clouds 6 996 75 10000 8.23 160 11:22 01.12.2022
825 Rain 6 995 81 10000 8.23 170 09:55 01.12.2022
826 Clouds 6 995 81 10000 8.23 170 09:37 01.12.2022
827 Clouds 7 993 70 10000 10.29 170 06:59 01.12.2022
828 Clouds 8 993 71 10000 8.75 180 23:59 30.11.2022
829 Clouds 8 992 76 10000 9.26 160 22:21 30.11.2022
830 Clouds 8 991 76 10000 10.29 170 21:19 30.11.2022
831 Clouds 8 992 93 5000 9.77 200 20:23 30.11.2022
832 Clouds 10 991 93 9000 6.17 140 19:35 30.11.2022
833 Rain 10 991 87 10000 5.14 130 18:32 30.11.2022
834 Clouds 10 992 87 10000 6.69 120 16:53 30.11.2022
835 Drizzle 10 993 87 9000 11.83 120 14:46 30.11.2022
836 Drizzle 10 993 87 9000 11.83 120 14:46 30.11.2022
837 Drizzle 10 993 87 9000 11.83 120 14:26 30.11.2022
838 Drizzle 9 995 87 10000 8.75 90 12:21 30.11.2022
839 Rain 9 996 81 10000 8.23 80 09:52 30.11.2022
840 Clouds 9 996 76 10000 9.77 90 08:38 30.11.2022
841 Clouds 8 997 81 10000 9.26 100 06:43 30.11.2022
842 Clouds 7 1000 81 7000 10.8 110 23:30 29.11.2022
843 Clouds 7 1001 81 7000 12.35 110 22:20 29.11.2022
844 Clouds 6 1001 81 8000 9.77 110 20:52 29.11.2022
845 Clouds 6 1001 81 8000 9.77 110 20:32 29.11.2022
846 Clouds 7 1002 76 7000 8.75 100 18:56 29.11.2022
847 Clouds 6 1003 65 10000 9.26 100 16:57 29.11.2022
848 Clouds 6 1003 65 10000 9.26 100 16:20 29.11.2022
849 Clouds 6 1004 65 10000 9.26 100 14:49 29.11.2022
850 Clouds 5 1005 70 10000 11.32 120 12:45 29.11.2022
851 Clouds 4 1006 75 10000 3.09 60 11:32 29.11.2022
852 Clouds 3 1006 75 10000 6.69 90 10:41 29.11.2022
853 Clouds 4 1006 60 10000 6.69 80 09:37 29.11.2022
854 Clouds 1 1007 64 10000 5.66 40 07:48 29.11.2022
855 Clear 1 1009 64 10000 5.14 100 00:35 29.11.2022
856 Clear 1 1009 64 10000 5.14 100 00:35 29.11.2022
857 Clouds 1 1009 64 10000 5.14 100 23:29 28.11.2022
858 Clear 1 1009 69 10000 3.6 100 22:28 28.11.2022
859 Clouds 1 1009 75 10000 3.6 110 21:43 28.11.2022
860 Clouds 2 1008 69 10000 4.12 100 20:33 28.11.2022
861 Clouds 2 1008 69 10000 3.6 110 19:38 28.11.2022
862 Clouds 1 1008 69 10000 4.12 120 18:29 28.11.2022
863 Clouds 1 1007 69 10000 3.09 140 17:44 28.11.2022
864 Clouds 0 1006 74 10000 3.09 120 15:22 28.11.2022
865 Clouds 0 1005 80 10000 2.57 120 13:59 28.11.2022
866 Clouds 0 1005 80 10000 2.57 120 13:37 28.11.2022
867 Clouds -1 1004 86 10000 1.54 170 11:53 28.11.2022
868 Clear 0 1002 80 10000 1.54 160 09:27 28.11.2022
869 Clear 0 1002 80 10000 1.54 160 09:27 28.11.2022
870 Clouds 2 998 75 10000 3.6 350 05:49 28.11.2022
871 Clouds 2 997 75 10000 5.66 350 04:41 28.11.2022
872 Clouds 2 997 81 10000 5.66 340 03:23 28.11.2022
873 Clear 2 995 75 10000 4.63 360 00:43 28.11.2022
874 Clouds 2 993 80 10000 6.17 350 22:28 27.11.2022
875 Clear 2 992 80 10000 5.66 360 21:19 27.11.2022
876 Clouds 2 990 80 10000 7.72 350 19:28 27.11.2022
877 Clouds 4 988 75 10000 6.17 360 16:45 27.11.2022
878 Clouds 5 987 65 10000 9.77 10 14:29 27.11.2022
879 Clouds 5 986 65 10000 10.29 360 12:31 27.11.2022
880 Clouds 5 985 70 10000 7.72 350 10:39 27.11.2022
881 Clear 3 986 75 10000 2.57 100 07:55 27.11.2022
882 Clear 0 989 93 10000 1.54 210 23:41 26.11.2022
883 Clear 2 990 87 10000 4.12 50 21:52 26.11.2022
884 Clear 3 991 87 10000 2.57 350 20:35 26.11.2022
885 Clear 2 992 93 10000 2.06 340 19:21 26.11.2022
886 Clouds 4 992 81 10000 3.6 80 16:49 26.11.2022
887 Clouds 4 992 81 10000 2.57 110 15:38 26.11.2022
888 Clouds 3 993 93 10000 3.6 80 12:55 26.11.2022
889 Clouds 4 991 81 9000 3.6 70 11:23 26.11.2022
890 Drizzle 7 989 65 10000 6.69 90 09:44 26.11.2022
891 Rain 8 989 53 10000 7.72 70 08:46 26.11.2022
892 Clear 5 994 60 10000 5.66 80 23:23 25.11.2022
893 Clear 5 995 60 10000 4.12 70 21:41 25.11.2022
894 Clear 5 995 60 10000 4.12 70 21:19 25.11.2022
895 Clear 5 996 65 10000 3.6 80 19:36 25.11.2022
896 Clear 6 995 61 10000 2.57 100 16:40 25.11.2022
897 Clear 6 995 61 10000 3.09 40 13:43 25.11.2022
898 Clouds 6 993 68 10000 4.83 65 09:19 25.11.2022
899 Clouds 7 993 57 10000 6.17 80 08:38 25.11.2022
900 Clear 8 991 57 10000 6.17 100 06:52 25.11.2022
901 Clouds 9 987 49 10000 8.75 80 01:54 25.11.2022
902 Clear 9 986 53 10000 4.63 70 23:43 24.11.2022
903 Clear 9 986 49 10000 4.63 60 22:37 24.11.2022
904 Clear 8 985 53 10000 3.6 30 21:45 24.11.2022
905 Clear 8 983 61 10000 7.72 80 19:49 24.11.2022
906 Clouds 8 983 61 10000 8.75 90 17:48 24.11.2022
907 Clouds 8 983 61 10000 8.75 90 17:24 24.11.2022
908 Rain 8 982 61 10000 8.23 90 16:40 24.11.2022
909 Clouds 9 982 53 10000 7.2 80 14:26 24.11.2022
910 Clouds 9 982 53 10000 4.63 80 13:19 24.11.2022
911 Clouds 10 980 50 10000 10.29 70 11:46 24.11.2022
912 Clouds 10 980 50 10000 10.29 70 11:45 24.11.2022
913 Clouds 10 980 50 10000 10.29 70 11:45 24.11.2022
914 Clear 8 980 53 10000 8.75 30 09:23 24.11.2022
915 Drizzle 8 981 49 10000 7.2 40 06:23 24.11.2022
916 Clear 5 985 56 10000 6.17 40 00:41 24.11.2022
917 Clear 6 985 49 10000 6.17 40 23:32 23.11.2022
918 Clear 6 985 45 10000 8.23 50 21:53 23.11.2022
919 Clear 6 985 45 10000 8.23 50 21:18 23.11.2022
920 Clear 5 985 48 10000 10.8 50 19:55 23.11.2022
921 Clear 6 985 45 10000 7.2 50 18:57 23.11.2022
922 Clear 6 985 45 10000 7.2 50 18:19 23.11.2022
923 Clear 4 984 45 10000 9.77 70 14:28 23.11.2022
924 Clouds 4 984 45 10000 14.92 40 13:24 23.11.2022
925 Clouds 4 986 41 10000 9.26 50 12:41 23.11.2022
926 Clouds 4 987 45 10000 9.26 40 11:51 23.11.2022
927 Clear 4 988 52 10000 10.8 40 10:48 23.11.2022
928 Clear 4 988 52 10000 10.8 40 10:18 23.11.2022
929 Clear 3 989 56 10000 8.75 50 09:41 23.11.2022
930 Clear 3 989 56 10000 8.75 50 09:22 23.11.2022
931 Clear 3 990 56 10000 9.26 30 08:36 23.11.2022
932 Clear 3 993 56 10000 12.86 20 05:21 23.11.2022
933 Clear 1 995 64 10000 3.09 40 01:57 23.11.2022
934 Clear 2 997 64 10000 1.54 140 22:37 22.11.2022
935 Clear 3 998 56 10000 3.6 70 21:51 22.11.2022
936 Clear 3 998 56 10000 3.6 70 21:31 22.11.2022
937 Clear 4 998 56 10000 4.12 80 20:44 22.11.2022
938 Clear 4 998 60 10000 5.14 90 19:52 22.11.2022
939 Clear 5 999 56 10000 7.2 80 17:54 22.11.2022
940 Clouds 5 999 60 10000 6.69 70 16:48 22.11.2022
941 Clouds 5 1000 56 10000 6.69 80 14:55 22.11.2022
942 Clear 5 999 65 10000 9.77 100 12:56 22.11.2022
943 Clouds 6 999 70 10000 5.66 100 09:42 22.11.2022
944 Clouds 6 999 75 10000 4.63 100 08:59 22.11.2022
945 Clouds 6 999 75 10000 4.12 60 06:45 22.11.2022
946 Rain 6 998 81 10000 7.2 120 01:35 22.11.2022
947 Rain 6 998 81 10000 5.66 90 23:28 21.11.2022
948 Clouds 6 997 81 10000 8.23 100 22:26 21.11.2022
949 Clouds 6 997 81 10000 8.23 110 21:33 21.11.2022
950 Clouds 6 996 75 10000 8.75 120 20:35 21.11.2022
951 Clouds 6 995 70 10000 8.75 110 19:40 21.11.2022
952 Clouds 5 995 75 10000 6.17 90 18:52 21.11.2022
953 Clouds 5 995 70 10000 6.69 100 17:45 21.11.2022
954 Clouds 5 995 70 10000 7.72 110 16:51 21.11.2022
955 Clouds 5 995 70 10000 7.72 110 16:33 21.11.2022
956 Clouds 5 994 70 10000 7.2 90 15:24 21.11.2022
957 Rain 5 994 75 10000 5.66 80 13:55 21.11.2022
958 Clouds 5 994 75 10000 5.66 80 13:34 21.11.2022
959 Rain 4 993 81 10000 3.6 60 10:20 21.11.2022
960 Clouds 4 991 75 10000 4.63 90 08:20 21.11.2022
961 Clouds 5 990 75 10000 5.66 80 05:41 21.11.2022
962 Clouds 5 988 70 10000 4.63 90 22:19 20.11.2022
963 Clouds 5 988 70 10000 5.66 100 21:23 20.11.2022
964 Clouds 5 987 80 10000 7.81 105 20:23 20.11.2022
965 Clouds 5 986 81 10000 8.18 109 18:20 20.11.2022
966 Clouds 5 986 87 10000 6.69 120 15:57 20.11.2022
967 Clouds 5 986 87 10000 6.69 120 15:25 20.11.2022
968 Clouds 5 985 81 10000 7.2 110 14:30 20.11.2022
969 Clouds 5 985 81 10000 6.69 100 13:32 20.11.2022
970 Rain 5 985 81 10000 4.63 100 12:31 20.11.2022
971 Rain 6 984 81 10000 6.69 100 10:59 20.11.2022
972 Clouds 6 983 81 10000 6.69 130 09:55 20.11.2022
973 Clouds 6 983 75 10000 6.17 110 08:59 20.11.2022
974 Clouds 6 983 75 10000 6.17 110 08:34 20.11.2022
975 Clouds 6 982 75 10000 6.69 120 07:28 20.11.2022
976 Clouds 6 980 81 10000 2.06 90 01:50 20.11.2022
977 Clouds 6 980 81 10000 2.06 90 01:18 20.11.2022
978 Clouds 6 980 87 10000 3.09 60 00:40 20.11.2022
979 Clouds 6 980 87 10000 3.09 60 00:21 20.11.2022
980 Clouds 7 980 76 10000 2.57 60 23:49 19.11.2022
981 Clouds 7 980 76 10000 2.57 60 23:22 19.11.2022
982 Clouds 7 980 76 10000 2.06 60 22:35 19.11.2022
983 Clouds 7 980 81 10000 6.17 130 21:32 19.11.2022
984 Clouds 6 979 87 8000 11.32 110 20:44 19.11.2022
985 Clouds 6 979 87 8000 11.32 110 20:25 19.11.2022
986 Rain 7 979 61 10000 10.8 80 18:55 19.11.2022
987 Clouds 7 981 61 10000 8.75 80 17:40 19.11.2022
988 Clouds 7 981 61 10000 8.75 80 17:19 19.11.2022
989 Clouds 7 984 61 10000 8.75 80 15:40 19.11.2022
990 Clouds 6 986 65 10000 7.72 80 14:27 19.11.2022
991 Clouds 5 989 70 10000 7.2 50 11:58 19.11.2022
992 Clouds 6 991 65 10000 7.2 70 10:20 19.11.2022
993 Clouds 6 992 70 10000 8.23 100 08:39 19.11.2022
994 Clouds 5 996 75 10000 5.66 140 04:51 19.11.2022
995 Clouds 4 997 75 10000 5.14 80 01:55 19.11.2022
996 Clouds 5 998 75 10000 6.69 110 23:44 18.11.2022
997 Clouds 5 999 75 10000 6.17 90 22:35 18.11.2022
998 Clouds 5 999 75 10000 4.63 90 21:37 18.11.2022
999 Clouds 5 999 75 10000 5.14 120 20:59 18.11.2022
1000 Clouds 5 999 75 10000 5.14 120 20:26 18.11.2022
1001 Clouds 4 1000 81 10000 2.57 40 19:46 18.11.2022
1002 Clouds 5 999 75 10000 3.6 90 18:28 18.11.2022
1003 Clouds 5 999 81 10000 5.14 120 16:44 18.11.2022
1004 Clouds 6 998 74 10000 7.03 132 13:40 18.11.2022
1005 Clouds 4 997 81 10000 2.06 80 11:28 18.11.2022
1006 Clouds 5 994 87 10000 1.03 0 08:29 18.11.2022
1007 Clouds 5 992 93 10000 2.57 140 07:51 18.11.2022
1008 Rain 6 990 87 10000 4.12 80 05:18 18.11.2022
1009 Rain 7 988 76 10000 4.63 120 00:46 18.11.2022
1010 Clouds 8 986 71 10000 6.17 130 21:30 17.11.2022
1011 Clouds 7 984 81 10000 7.2 140 20:46 17.11.2022
1012 Rain 8 982 76 10000 7.72 140 19:51 17.11.2022
1013 Clouds 8 981 76 10000 9.26 130 18:35 17.11.2022
1014 Clouds 9 980 71 10000 6.69 120 17:32 17.11.2022
1015 Clouds 9 980 71 10000 6.17 120 16:48 17.11.2022
1016 Clouds 9 977 76 10000 9.77 130 14:40 17.11.2022
1017 Mist 8 975 81 10000 10.8 100 11:21 17.11.2022
1018 Clouds 8 974 71 10000 7.72 90 08:23 17.11.2022
1019 Clouds 8 976 82 10000 7.72 90 03:51 17.11.2022
1020 Clouds 9 976 66 10000 8.23 80 00:21 17.11.2022
1021 Clouds 8 976 71 10000 7.72 80 22:30 16.11.2022
1022 Clouds 8 976 66 10000 7.72 90 20:36 16.11.2022
1023 Rain 8 976 66 10000 8.23 80 19:49 16.11.2022
1024 Rain 8 976 71 10000 6.69 70 18:43 16.11.2022
1025 Clouds 8 976 71 10000 6.17 100 17:20 16.11.2022
1026 Clouds 7 976 65 10000 8.23 100 13:54 16.11.2022
1027 Drizzle 9 975 66 10000 10.29 90 09:39 16.11.2022
1028 Clouds 7 978 87 10000 2.06 360 05:27 16.11.2022
1029 Drizzle 8 983 81 10000 4.12 100 01:25 16.11.2022
1030 Drizzle 8 983 81 10000 4.12 100 01:25 16.11.2022
1031 Drizzle 10 984 71 10000 6.17 90 22:27 15.11.2022
1032 Clear 11 985 66 10000 5.14 60 20:45 15.11.2022
1033 Rain 11 985 66 10000 6.69 70 19:34 15.11.2022
1034 Clouds 11 986 66 10000 5.14 70 18:26 15.11.2022
1035 Clouds 10 986 71 10000 2.06 20 17:21 15.11.2022
1036 Clouds 10 987 71 10000 2.57 50 16:19 15.11.2022
1037 Rain 11 989 66 10000 6.17 70 14:45 15.11.2022
1038 Clear 6 990 81 10000 2.06 20 12:59 15.11.2022
1039 Clouds 4 990 87 10000 1.03 0 11:43 15.11.2022
1040 Rain 4 990 81 10000 1.54 220 10:55 15.11.2022
1041 Clear 4 992 88 10000 2.06 140 07:40 15.11.2022
1042 Clear 7 997 76 10000 3.6 90 00:36 15.11.2022
1043 Clear 7 997 76 10000 2.57 70 23:34 14.11.2022
1044 Clouds 6 998 81 10000 1.03 0 21:30 14.11.2022
1045 Clouds 7 998 81 10000 3.09 80 20:39 14.11.2022
1046 Drizzle 7 997 81 10000 5.66 90 18:37 14.11.2022
1047 Clouds 8 998 76 10000 3.6 90 15:45 14.11.2022
1048 Clouds 7 998 76 10000 6.69 120 12:54 14.11.2022
1049 Clouds 6 997 81 10000 6.17 140 11:42 14.11.2022
1050 Drizzle 8 993 81 7000 11.32 140 09:28 14.11.2022
1051 Rain 8 993 81 10000 5.66 110 07:54 14.11.2022
1052 Rain 8 993 81 10000 3.6 80 06:37 14.11.2022
1053 Rain 8 994 87 5000 2.57 190 00:18 14.11.2022
1054 Clouds 11 992 76 8000 10.29 90 21:54 13.11.2022
1055 Rain 11 992 76 8000 10.29 90 21:27 13.11.2022
1056 Rain 13 991 62 10000 11.83 100 19:44 13.11.2022
1057 Clouds 13 992 62 10000 9.26 80 18:23 13.11.2022
1058 Clouds 13 993 62 10000 10.8 80 17:22 13.11.2022
1059 Clouds 11 997 62 10000 12.35 80 14:58 13.11.2022
1060 Clouds 11 997 62 10000 12.35 80 14:23 13.11.2022
1061 Clouds 10 999 62 10000 11.32 80 12:38 13.11.2022
1062 Clouds 10 1000 57 10000 10.29 80 11:20 13.11.2022
1063 Clouds 10 1000 57 10000 10.29 80 11:20 13.11.2022
1064 Clouds 8 1004 66 10000 10.29 90 08:55 13.11.2022
1065 Clear 6 1010 65 10000 4.63 90 01:35 13.11.2022
1066 Clouds 5 1010 81 10000 2.57 80 22:57 12.11.2022
1067 Clouds 5 1011 81 10000 4.12 70 21:24 12.11.2022
1068 Clouds 5 1011 81 10000 3.6 60 20:21 12.11.2022
1069 Clouds 6 1010 75 10000 3.6 80 18:18 12.11.2022
1070 Clouds 6 1009 87 10000 1.54 100 16:26 12.11.2022
1071 Clouds 6 1009 87 10000 3.6 140 15:23 12.11.2022
1072 Clouds 6 1005 87 10000 3.09 160 12:38 12.11.2022
1073 Drizzle 6 1001 81 10000 7.2 160 09:24 12.11.2022
1074 Rain 6 997 81 10000 4.63 110 06:55 12.11.2022
1075 Clouds 5 991 81 10000 5.66 80 22:49 11.11.2022
1076 Clouds 5 989 87 10000 6.17 90 20:52 11.11.2022
1077 Clouds 6 988 81 10000 4.63 90 19:44 11.11.2022
1078 Clouds 6 988 81 10000 4.63 90 19:21 11.11.2022
1079 Drizzle 6 986 81 10000 4.63 90 17:57 11.11.2022
1080 Drizzle 6 985 81 10000 6.17 80 16:33 11.11.2022
1081 Clouds 6 984 75 10000 6.17 80 14:28 11.11.2022
1082 Clouds 5 983 81 10000 4.63 60 13:30 11.11.2022
1083 Clouds 5 981 81 10000 3.09 90 10:18 11.11.2022
1084 Clouds 5 979 75 10000 3.09 80 08:28 11.11.2022
1085 Clear 4 978 75 10000 2.57 70 06:29 11.11.2022
1086 Clear 3 975 81 10000 2.57 140 23:58 10.11.2022
1087 Clear 5 974 75 10000 2.06 150 22:49 10.11.2022
1088 Clouds 6 973 70 10000 7.2 10 21:38 10.11.2022
1089 Clouds 6 973 70 10000 7.2 10 21:19 10.11.2022
1090 Clouds 6 972 75 10000 7.72 30 20:23 10.11.2022
1091 Clouds 6 972 75 10000 8.75 30 19:55 10.11.2022
1092 Clouds 7 971 70 10000 9.26 20 18:44 10.11.2022
1093 Clouds 9 970 61 10000 4.12 40 16:26 10.11.2022
1094 Clouds 8 970 66 10000 5.14 10 15:24 10.11.2022
1095 Clouds 8 970 66 10000 2.57 360 13:34 10.11.2022
1096 Rain 7 971 70 10000 2.57 40 09:19 10.11.2022
1097 Clouds 6 972 75 10000 3.09 340 07:21 10.11.2022
1098 Clouds 5 978 75 10000 4.12 80 00:57 10.11.2022
1099 Clouds 5 978 81 10000 6.17 90 22:47 09.11.2022
1100 Clouds 5 978 81 10000 6.17 90 22:47 09.11.2022
1101 Clouds 6 979 75 10000 4.12 90 21:32 09.11.2022
1102 Clouds 6 979 70 10000 4.63 80 20:41 09.11.2022
1103 Clear 6 980 65 10000 3.6 90 19:59 09.11.2022
1104 Clear 6 980 65 10000 3.6 90 19:25 09.11.2022
1105 Clear 5 980 70 10000 3.6 50 17:41 09.11.2022
1106 Clear 6 981 65 10000 0.51 0 14:56 09.11.2022
1107 Clear 6 981 65 10000 0.51 0 14:27 09.11.2022
1108 Clear 5 982 70 10000 1.03 0 13:58 09.11.2022
1109 Clear 5 982 65 10000 1.03 0 12:53 09.11.2022
1110 Clear 6 981 61 10000 2.57 80 09:29 09.11.2022
1111 Clear 7 981 57 10000 4.12 90 07:47 09.11.2022
1112 Clear 7 981 61 10000 3.09 90 06:55 09.11.2022
1113 Rain 5 981 75 10000 7.72 10 22:44 08.11.2022
1114 Clouds 6 982 65 10000 7.72 20 21:42 08.11.2022
1115 Clouds 6 982 65 10000 7.72 20 21:42 08.11.2022
1116 Clear 5 981 75 10000 1.03 0 20:55 08.11.2022
1117 Rain 5 981 75 10000 1.03 0 20:30 08.11.2022
1118 Clear 5 981 75 10000 1.54 0 19:28 08.11.2022
1119 Clear 4 982 81 10000 2.06 170 17:37 08.11.2022
1120 Clear 4 983 81 10000 2.57 170 15:38 08.11.2022
1121 Clear 6 984 75 10000 1.03 0 14:51 08.11.2022
1122 Clear 6 984 70 10000 4.63 10 13:33 08.11.2022
1123 Clear 7 985 65 10000 3.09 10 11:54 08.11.2022
1124 Clouds 6 987 75 10000 2.06 100 07:45 08.11.2022
1125 Clouds 6 987 75 10000 1.54 40 06:29 08.11.2022
1126 Clouds 5 990 81 10000 1.03 0 23:50 07.11.2022
1127 Rain 6 991 75 10000 1.54 40 22:21 07.11.2022
1128 Drizzle 6 992 75 10000 2.57 360 20:59 07.11.2022
1129 Clouds 6 992 70 10000 2.57 70 19:57 07.11.2022
1130 Rain 6 992 70 10000 2.57 310 17:44 07.11.2022
1131 Rain 6 993 75 10000 2.06 80 16:26 07.11.2022
1132 Rain 4 993 87 10000 1.54 130 15:33 07.11.2022
1133 Rain 5 994 60 10000 2.06 60 13:54 07.11.2022
1134 Clouds 4 994 65 10000 1.03 0 12:33 07.11.2022
1135 Clouds 3 994 75 10000 1.03 0 10:46 07.11.2022
1136 Clear 4 994 70 10000 1.54 50 09:22 07.11.2022
1137 Clear 3 994 70 10000 1.54 200 07:29 07.11.2022
1138 Clear 2 995 70 10000 2.06 120 03:27 07.11.2022
1139 Clear 4 995 56 10000 2.57 60 01:18 07.11.2022
1140 Clear 6 995 49 10000 2.06 0 21:53 06.11.2022
1141 Clear 6 995 49 10000 2.06 0 21:19 06.11.2022
1142 Clear 6 995 49 10000 3.09 90 20:20 06.11.2022
1143 Clear 5 995 60 10000 1.03 40 19:32 06.11.2022
1144 Clouds 6 995 56 10000 1.54 50 18:21 06.11.2022
1145 Rain 6 995 56 10000 5.66 100 17:46 06.11.2022
1146 Rain 6 995 56 10000 5.66 100 17:19 06.11.2022
1147 Rain 6 995 49 10000 6.17 90 16:36 06.11.2022
1148 Clear 6 995 52 10000 5.66 80 15:42 06.11.2022
1149 Clear 6 995 52 10000 7.2 80 12:48 06.11.2022
1150 Clear 6 995 49 10000 7.2 80 11:56 06.11.2022
1151 Clear 7 995 49 10000 6.69 70 10:36 06.11.2022
1152 Clear 6 995 49 10000 7.2 90 07:45 06.11.2022
1153 Clear 6 995 49 10000 7.2 90 07:45 06.11.2022
1154 Clear 5 997 52 10000 5.66 90 00:49 06.11.2022
1155 Clear 5 997 52 10000 7.72 80 22:52 05.11.2022
1156 Clear 6 997 42 10000 6.17 80 19:21 05.11.2022
1157 Clear 6 997 39 10000 8.23 80 16:58 05.11.2022
1158 Clear 6 996 39 10000 8.23 80 15:45 05.11.2022
1159 Clear 6 997 36 10000 8.75 70 14:33 05.11.2022
1160 Clear 6 998 39 10000 8.75 70 12:34 05.11.2022
1161 Clear 6 998 45 10000 9.26 70 10:23 05.11.2022
1162 Clear 5 999 60 10000 8.23 80 07:58 05.11.2022
1163 Clear 5 1000 65 10000 7.2 80 06:57 05.11.2022
1164 Clear 5 1002 70 10000 4.12 80 02:35 05.11.2022
1165 Clouds 6 1005 65 10000 4.63 80 23:33 04.11.2022
1166 Clouds 7 1005 75 10000 6.41 97 22:01 04.11.2022
1167 Clouds 6 1005 65 10000 6.17 90 19:51 04.11.2022
1168 Clouds 7 1005 70 10000 6.17 90 17:45 04.11.2022
1169 Clouds 7 1006 65 10000 6.17 90 16:30 04.11.2022
1170 Clear 5 1006 65 10000 4.12 80 13:21 04.11.2022
1171 Clear 5 1006 60 10000 4.12 70 12:21 04.11.2022
1172 Clear 3 1006 70 10000 3.6 100 09:31 04.11.2022
1173 Clear -1 1006 86 10000 2.57 170 08:21 04.11.2022
1174 Clear -2 1006 86 10000 0.51 0 06:57 04.11.2022
1175 Clear 0 1004 86 10000 2.06 180 00:58 04.11.2022
1176 Clear 2 1003 80 10000 1.54 50 22:25 03.11.2022
1177 Clouds 4 1002 75 10000 6.69 340 20:47 03.11.2022
1178 Clouds 4 1001 70 10000 6.17 340 19:42 03.11.2022
1179 Clouds 4 1001 75 10000 4.12 350 18:46 03.11.2022
1180 Clouds 5 999 70 10000 4.63 0 17:38 03.11.2022
1181 Clouds 5 998 70 10000 0.51 0 15:41 03.11.2022
1182 Clouds 3 997 81 10000 3.6 210 13:47 03.11.2022
1183 Clouds 1 996 86 10000 2.06 170 12:35 03.11.2022
1184 Clouds 1 996 86 10000 2.06 170 12:35 03.11.2022
1185 Clouds 1 995 80 10000 1.54 160 11:43 03.11.2022
1186 Clouds 4 991 70 10000 7.72 360 07:51 03.11.2022
1187 Clear 1 986 80 10000 3.09 170 23:56 02.11.2022
1188 Clouds 3 983 75 10000 1.03 0 20:57 02.11.2022
1189 Clouds 3 983 75 10000 1.03 0 20:33 02.11.2022
1190 Clouds 3 982 75 10000 1.54 130 18:58 02.11.2022
1191 Clouds 5 982 65 10000 2.06 60 16:34 02.11.2022
1192 Clouds 4 982 70 10000 1.54 220 15:35 02.11.2022
1193 Clouds 4 982 70 10000 4.63 10 14:25 02.11.2022
1194 Clouds 2 982 75 10000 2.06 320 12:35 02.11.2022
1195 Clouds 1 981 75 10000 0.51 0 10:45 02.11.2022
1196 Clear 1 981 80 10000 2.06 170 08:48 02.11.2022
1197 Clear 2 982 75 10000 3.09 120 03:39 02.11.2022
1198 Clear 3 984 81 10000 1.03 0 23:27 01.11.2022
1199 Clear 2 984 80 10000 2.06 180 22:18 01.11.2022
1200 Clear 3 985 81 10000 1.03 0 21:26 01.11.2022
1201 Clear 4 986 81 10000 2.57 10 20:23 01.11.2022
1202 Clear 4 987 87 10000 1.03 130 19:42 01.11.2022
1203 Clear 5 987 81 10000 2.57 350 18:33 01.11.2022
1204 Clear 6 988 75 10000 3.09 30 17:21 01.11.2022
1205 Clear 6 989 75 10000 2.57 60 15:53 01.11.2022
1206 Clouds 6 990 75 10000 4.63 90 13:35 01.11.2022
1207 Clear 5 990 75 10000 3.6 70 12:27 01.11.2022
1208 Clouds 4 990 83 10000 3.09 70 11:21 01.11.2022
1209 Clouds 5 990 75 10000 3.09 90 09:49 01.11.2022
1210 Clouds 4 989 81 10000 3.09 100 08:38 01.11.2022
1211 Clouds 4 989 81 10000 2.57 120 07:29 01.11.2022
1212 Clouds 5 988 75 10000 3.09 180 06:46 01.11.2022
1213 Clouds 5 988 75 10000 4.12 180 05:56 01.11.2022
1214 Clouds 5 986 87 10000 7.2 210 03:32 01.11.2022
1215 Clouds 5 981 93 10000 5.66 150 21:36 31.10.2022
1216 Clouds 6 981 81 10000 4.12 110 20:25 31.10.2022
1217 Clouds 7 979 81 10000 5.66 130 18:50 31.10.2022
1218 Clouds 8 979 76 10000 6.17 90 17:26 31.10.2022
1219 Clouds 8 979 76 10000 6.17 90 16:39 31.10.2022
1220 Clouds 8 981 81 10000 2.06 70 13:23 31.10.2022
1221 Clouds 6 981 93 10000 3.09 100 09:54 31.10.2022
1222 Clouds 6 981 93 10000 2.06 120 08:37 31.10.2022
1223 Drizzle 6 979 93 4000 3.6 170 04:48 31.10.2022
1224 Mist 5 978 93 2000 5.14 300 02:20 31.10.2022
1225 Drizzle 6 976 87 10000 1.03 0 22:59 30.10.2022
1226 Drizzle 6 977 87 10000 3.6 340 20:49 30.10.2022
1227 Drizzle 6 977 87 10000 3.6 340 20:21 30.10.2022
1228 Clouds 7 978 81 10000 3.6 360 18:20 30.10.2022
1229 Drizzle 7 982 81 10000 2.06 360 15:59 30.10.2022
1230 Rain 7 985 81 10000 2.06 340 13:52 30.10.2022
1231 Clouds 6 986 75 10000 1.54 270 12:52 30.10.2022
1232 Clouds 6 987 75 10000 1.54 320 11:24 30.10.2022
1233 Clear 5 989 75 10000 4.12 110 09:37 30.10.2022
1234 Clouds 6 990 75 10000 5.66 80 08:30 30.10.2022
1235 Clear 4 999 75 10000 5.14 70 01:47 30.10.2022
1236 Clear 5 999 70 10000 5.14 80 00:27 30.10.2022
1237 Clear 5 1000 75 10000 5.14 90 23:44 29.10.2022
1238 Clouds 6 1002 81 10000 4.12 120 21:25 29.10.2022
1239 Clouds 7 1004 81 10000 4.63 150 17:51 29.10.2022
1240 Clouds 7 1004 81 10000 4.63 150 17:18 29.10.2022
1241 Clouds 7 1005 81 10000 6.17 150 15:37 29.10.2022
1242 Clouds 6 1005 81 10000 4.12 120 14:47 29.10.2022
1243 Clouds 4 1006 87 10000 3.6 80 12:35 29.10.2022
1244 Clouds 4 1006 81 10000 4.12 100 10:46 29.10.2022
1245 Clouds 4 1006 81 10000 4.63 110 07:37 29.10.2022
1246 Clouds 4 1007 81 10000 3.6 90 05:56 29.10.2022
1247 Clouds 2 1007 91 10000 2.06 100 04:18 29.10.2022
1248 Clear 1 1006 93 10000 2.57 110 23:42 28.10.2022
1249 Clouds 4 1005 81 10000 2.57 340 20:47 28.10.2022
1250 Clouds 5 1005 81 10000 3.6 350 19:29 28.10.2022
1251 Clouds 5 1005 87 10000 2.06 310 18:31 28.10.2022
1252 Mist 5 1006 93 8000 0.51 0 15:37 28.10.2022
1253 Drizzle 5 1005 87 10000 1.54 150 14:44 28.10.2022
1254 Fog 3 1006 93 10000 2.06 120 12:58 28.10.2022
1255 Fog 3 1006 87 10000 1.54 120 11:53 28.10.2022
1256 Fog 3 1006 87 10000 1.54 120 11:25 28.10.2022
1257 Clouds 3 1006 93 10000 1.54 130 09:49 28.10.2022
1258 Clouds 2 1006 93 10000 1.54 130 08:34 28.10.2022
1259 Drizzle 3 1006 93 6000 1.03 120 05:40 28.10.2022
1260 Clouds 2 1007 93 10000 1.54 150 23:50 27.10.2022
1261 Clouds 2 1007 93 10000 1.54 150 23:22 27.10.2022
1262 Clear 3 1007 87 10000 1.54 170 21:56 27.10.2022
1263 Clouds 4 1006 87 10000 1.54 140 20:32 27.10.2022
1264 Clear 6 1006 75 10000 1.03 0 18:23 27.10.2022
1265 Clear 4 1005 87 10000 1.03 200 15:42 27.10.2022
1266 Clear 1 1004 93 10000 1.03 0 11:33 27.10.2022
1267 Clear 1 1002 93 10000 1.03 140 07:31 27.10.2022
1268 Clear 4 1001 87 10000 2.06 140 00:23 27.10.2022
1269 Clear 5 1001 87 10000 1.54 170 23:51 26.10.2022
1270 Clear 5 1001 87 10000 2.06 160 22:40 26.10.2022
1271 Clouds 8 1001 71 10000 0 0 20:46 26.10.2022
1272 Clouds 10 1000 57 10000 3.09 50 17:40 26.10.2022
1273 Clouds 10 1001 57 10000 4.12 80 14:54 26.10.2022
1274 Clouds 9 1000 61 10000 4.63 80 12:56 26.10.2022
1275 Clouds 7 1001 73 10000 3.72 74 12:18 26.10.2022
1276 Clear 8 999 66 10000 6.69 90 09:19 26.10.2022
1277 Clouds 9 998 66 10000 6.17 80 08:52 26.10.2022
1278 Rain 10 995 53 10000 6.17 70 00:52 26.10.2022
1279 Clear 10 995 53 10000 6.17 70 00:33 26.10.2022
1280 Clouds 8 995 66 10000 3.09 50 22:25 25.10.2022
1281 Clear 8 995 66 10000 4.12 50 21:44 25.10.2022
1282 Clouds 8 995 71 10000 2.06 60 20:29 25.10.2022
1283 Clear 8 995 76 10000 1.03 0 18:55 25.10.2022
1284 Clear 8 996 76 10000 1.03 0 16:45 25.10.2022
1285 Clouds 5 996 87 10000 0.51 0 11:42 25.10.2022
1286 Clouds 4 996 87 10000 1.54 200 10:47 25.10.2022
1287 Clouds 4 996 87 10000 1.54 200 10:29 25.10.2022
1288 Clear 4 996 87 10000 0.51 0 08:38 25.10.2022
1289 Clear 4 996 87 10000 0.51 0 08:18 25.10.2022
1290 Clouds 4 996 87 10000 1.03 200 07:53 25.10.2022
1291 Clear 5 996 87 10000 1.03 40 06:46 25.10.2022
1292 Clear 5 997 75 10000 1.03 30 03:29 25.10.2022
1293 Rain 6 998 75 10000 1.54 60 00:32 25.10.2022
1294 Clouds 6 998 81 10000 1.54 30 22:28 24.10.2022
1295 Clouds 7 999 70 10000 3.6 90 21:49 24.10.2022
1296 Rain 7 999 65 10000 1.03 0 20:55 24.10.2022
1297 Clear 7 999 65 10000 1.03 0 20:23 24.10.2022
1298 Clear 8 999 61 10000 3.09 80 18:41 24.10.2022
1299 Clouds 7 999 65 10000 4.63 100 16:55 24.10.2022
1300 Clear 7 1000 70 10000 4.63 90 15:28 24.10.2022
1301 Clouds 7 1000 65 10000 3.6 90 14:20 24.10.2022
1302 Clouds 6 1000 70 10000 4.12 90 12:37 24.10.2022
1303 Rain 6 1000 70 10000 6.17 80 09:27 24.10.2022
1304 Clouds 6 1000 65 10000 7.72 100 07:31 24.10.2022
1305 Clouds 4 1004 75 10000 5.66 90 22:40 23.10.2022
1306 Clouds 6 1005 65 10000 5.66 100 20:39 23.10.2022
1307 Clouds 5 1006 75 10000 7.2 100 18:53 23.10.2022
1308 Clouds 6 1006 75 10000 5.66 110 17:29 23.10.2022
1309 Clouds 6 1006 75 10000 5.66 110 17:29 23.10.2022
1310 Clouds 6 1008 70 10000 5.66 100 15:41 23.10.2022
1311 Clouds 5 1008 75 10000 5.66 100 14:56 23.10.2022
1312 Clouds 5 1009 70 10000 5.66 100 11:56 23.10.2022
1313 Clouds 5 1010 81 10000 3.6 90 10:40 23.10.2022
1314 Clouds 4 1012 81 10000 4.12 120 05:53 23.10.2022
1315 Clouds 4 1014 81 10000 4.12 90 23:24 22.10.2022
1316 Clouds 4 1014 81 10000 2.57 100 22:29 22.10.2022
1317 Clouds 4 1015 75 10000 2.57 110 21:39 22.10.2022
1318 Clouds 4 1015 75 10000 2.06 90 20:18 22.10.2022
1319 Clouds 4 1015 75 10000 1.54 160 19:31 22.10.2022
1320 Clouds 5 1015 65 10000 1.03 0 17:41 22.10.2022
1321 Clouds 5 1015 65 10000 1.03 0 16:28 22.10.2022
1322 Clear 2 1015 80 10000 1.03 90 14:49 22.10.2022
1323 Clear 2 1015 80 10000 1.03 90 14:18 22.10.2022
1324 Clear 0 1015 86 10000 2.06 100 11:25 22.10.2022
1325 Clear 0 1015 86 10000 1.03 120 09:45 22.10.2022
1326 Clear 0 1015 86 10000 1.03 120 09:45 22.10.2022
1327 Clear -1 1015 86 10000 1.03 130 08:37 22.10.2022
1328 Clear 0 1015 86 10000 1.54 110 05:34 22.10.2022
1329 Clear 1 1015 80 10000 2.57 140 00:31 22.10.2022
1330 Clear 1 1015 80 10000 2.57 170 22:50 21.10.2022
1331 Clear 4 1015 70 10000 2.57 350 21:32 21.10.2022
1332 Clear 5 1014 65 10000 3.09 320 20:26 21.10.2022
1333 Clear 5 1015 65 10000 1.54 290 17:50 21.10.2022
1334 Clear 6 1014 56 10000 0.51 0 14:38 21.10.2022
1335 Clear 3 1015 65 10000 2.57 150 13:39 21.10.2022
1336 Clear 1 1014 69 10000 1.03 0 11:46 21.10.2022
1337 Clear 0 1014 74 10000 0 0 10:23 21.10.2022
1338 Clear 2 1013 64 10000 2.06 130 08:44 21.10.2022
1339 Clear 2 1013 64 10000 2.06 130 08:19 21.10.2022
1340 Clear 4 1012 65 10000 3.6 50 03:52 21.10.2022
1341 Clear 6 1011 61 10000 3.6 70 23:18 20.10.2022
1342 Clear 5 1010 65 10000 2.06 120 20:57 20.10.2022
1343 Clear 7 1009 61 10000 3.6 70 19:43 20.10.2022
1344 Clouds 7 1009 61 10000 4.12 90 18:34 20.10.2022
1345 Clouds 7 1009 65 10000 6.17 70 17:38 20.10.2022
1346 Clouds 5 1009 81 10000 6.17 90 13:47 20.10.2022
1347 Clouds 5 1009 75 10000 5.14 110 12:32 20.10.2022
1348 Clouds 4 1010 87 10000 4.12 110 11:29 20.10.2022
1349 Drizzle 4 1010 93 10000 5.66 110 10:51 20.10.2022
1350 Drizzle 5 1010 87 10000 5.14 90 09:22 20.10.2022
1351 Clouds 5 1012 87 10000 4.63 130 06:24 20.10.2022
1352 Drizzle 4 1016 93 10000 4.12 140 01:59 20.10.2022
1353 Drizzle 5 1020 87 10000 3.09 160 22:53 19.10.2022
1354 Drizzle 5 1020 87 10000 3.09 160 22:23 19.10.2022
1355 Drizzle 5 1021 87 10000 2.57 180 21:20 19.10.2022
1356 Drizzle 6 1022 81 10000 4.12 200 19:55 19.10.2022
1357 Clouds 6 1023 81 10000 4.63 220 17:47 19.10.2022
1358 Clouds 6 1024 81 10000 4.63 220 16:24 19.10.2022
1359 Clouds 6 1026 81 10000 4.63 210 14:20 19.10.2022
1360 Drizzle 5 1027 93 8000 4.12 210 12:20 19.10.2022
1361 Drizzle 5 1028 87 3300 3.09 210 08:49 19.10.2022
1362 Clouds 5 1028 87 10000 3.6 210 07:23 19.10.2022
1363 Clouds 6 1030 81 10000 3.6 210 01:33 19.10.2022
1364 Clouds 7 1031 70 10000 4.63 250 23:22 18.10.2022
1365 Clouds 7 1031 70 10000 5.14 230 21:49 18.10.2022
1366 Clouds 7 1031 70 10000 5.14 230 21:24 18.10.2022
1367 Clouds 7 1031 70 10000 4.63 240 20:26 18.10.2022
1368 Clouds 7 1030 65 10000 6.17 250 18:58 18.10.2022
1369 Clouds 7 1031 70 10000 4.12 230 16:56 18.10.2022
1370 Clouds 6 1031 75 10000 3.6 210 14:59 18.10.2022
1371 Clouds 6 1030 75 10000 4.12 210 13:38 18.10.2022
1372 Clouds 6 1030 70 10000 4.12 260 11:47 18.10.2022
1373 Clouds 5 1029 75 10000 2.06 210 10:29 18.10.2022
1374 Clouds 4 1029 81 10000 2.57 200 09:25 18.10.2022
1375 Clouds 2 1028 80 10000 2.06 150 06:38 18.10.2022
1376 Clear 1 1027 80 10000 1.03 160 23:39 17.10.2022
1377 Clear 2 1025 75 10000 0.51 0 21:31 17.10.2022
1378 Clear 4 1025 70 10000 1.54 310 20:49 17.10.2022
1379 Clear 4 1025 70 10000 1.54 310 20:29 17.10.2022
1380 Clear 5 1024 65 10000 2.06 300 19:41 17.10.2022
1381 Clear 5 1024 65 10000 2.06 300 19:41 17.10.2022
1382 Clear 5 1024 65 10000 3.09 310 17:49 17.10.2022
1383 Clouds 5 1024 72 10000 2.03 318 15:55 17.10.2022
1384 Clouds 5 1024 70 10000 2.05 330 15:20 17.10.2022
1385 Clear 1 1021 80 10000 2.06 140 12:52 17.10.2022
1386 Clear -1 1019 86 10000 2.06 120 08:59 17.10.2022
1387 Clear 2 1017 79 10000 2.57 120 01:41 17.10.2022
1388 Clear 4 1015 70 10000 4.63 10 22:54 16.10.2022
1389 Clouds 5 1014 65 10000 6.17 20 21:22 16.10.2022
1390 Clouds 5 1014 65 10000 6.17 20 21:22 16.10.2022
1391 Clouds 3 1012 70 10000 14.4 20 19:52 16.10.2022
1392 Clouds 3 1012 70 10000 14.4 20 19:33 16.10.2022
1393 Clouds 4 1012 65 10000 11.32 30 17:46 16.10.2022
1394 Clouds 4 1011 60 10000 9.77 20 16:32 16.10.2022
1395 Clouds 4 1011 56 10000 15.43 10 15:55 16.10.2022
1396 Clouds 3 1010 60 10000 15.95 10 12:34 16.10.2022
1397 Clouds 3 1011 60 10000 14.4 20 11:38 16.10.2022
1398 Clouds 3 1010 60 10000 16.46 10 10:26 16.10.2022
1399 Clouds 2 1007 64 10000 24.69 10 07:20 16.10.2022
1400 Clouds 4 1005 70 10000 14.92 360 23:43 15.10.2022
1401 Clouds 5 1003 70 10000 13.38 30 21:54 15.10.2022
1402 Clouds 5 1003 70 10000 13.38 30 21:19 15.10.2022
1403 Clouds 5 1001 70 10000 9.77 10 19:34 15.10.2022
1404 Clouds 6 1000 61 10000 9.77 10 17:24 15.10.2022
1405 Clouds 5 1000 65 10000 11.83 10 15:45 15.10.2022
1406 Clear 3 1000 70 10000 8.18 13 13:37 15.10.2022
1407 Clouds 3 999 65 10000 10.8 20 11:50 15.10.2022
1408 Clouds 3 998 65 10000 11.83 10 09:57 15.10.2022
1409 Clear 2 997 75 10000 9.26 360 07:55 15.10.2022
1410 Clouds 2 997 80 10000 1.03 0 00:41 15.10.2022
1411 Clear 4 996 65 10000 4.12 30 22:59 14.10.2022
1412 Clear 4 996 65 10000 4.12 30 22:22 14.10.2022
1413 Clear 5 996 60 10000 5.66 20 21:24 14.10.2022
1414 Clear 6 995 52 10000 2.06 120 19:22 14.10.2022
1415 Clear 6 995 56 10000 2.06 200 16:19 14.10.2022
1416 Clear 3 994 70 10000 3.09 170 13:21 14.10.2022
1417 Clear 0 995 81 10000 1.79 133 11:36 14.10.2022
1418 Clear -1 993 80 10000 1.03 210 08:59 14.10.2022
1419 Clear 1 994 69 10000 1.03 0 06:53 14.10.2022
1420 Clear 1 994 69 10000 1.03 0 06:18 14.10.2022
1421 Clear 0 994 74 10000 2.06 130 05:42 14.10.2022
1422 Clear 2 994 60 10000 3.09 100 03:20 14.10.2022
1423 Clear 3 994 65 10000 1.54 70 23:43 13.10.2022
1424 Clear 5 995 60 10000 2.57 70 21:57 13.10.2022
1425 Clear 5 995 60 10000 2.57 70 21:20 13.10.2022
1426 Clear 5 996 70 10000 3.6 80 19:43 13.10.2022
1427 Clouds 6 996 65 10000 5.66 70 18:52 13.10.2022
1428 Clouds 6 996 65 10000 5.66 70 18:21 13.10.2022
1429 Clear 6 997 75 10000 5.14 70 15:58 13.10.2022
1430 Clear 6 997 75 10000 5.14 70 15:40 13.10.2022
1431 Clouds 5 998 75 10000 5.14 70 14:18 13.10.2022
1432 Clouds 3 998 81 10000 5.14 70 12:44 13.10.2022
1433 Clouds 2 998 87 10000 6.17 70 11:27 13.10.2022
1434 Clear 1 998 86 10000 1.54 90 08:50 13.10.2022
1435 Clouds 2 998 87 10000 3.6 130 07:38 13.10.2022
1436 Clear 2 998 87 10000 2.57 130 06:28 13.10.2022
1437 Clouds 3 997 87 6000 7.2 190 01:46 13.10.2022
1438 Rain 4 996 87 9000 2.06 130 00:41 13.10.2022
1439 Rain 6 996 81 10000 4.12 110 22:45 12.10.2022
1440 Rain 6 996 81 10000 2.57 150 21:51 12.10.2022
1441 Rain 6 996 81 10000 2.57 150 21:20 12.10.2022
1442 Clouds 7 996 76 10000 3.6 160 20:39 12.10.2022
1443 Clouds 7 996 76 10000 5.66 190 19:24 12.10.2022
1444 Clouds 8 996 71 10000 4.63 200 18:19 12.10.2022
1445 Clouds 8 996 71 10000 4.63 170 17:43 12.10.2022
1446 Clouds 7 996 70 10000 3.6 200 14:51 12.10.2022
1447 Clouds 7 996 65 10000 4.12 170 13:54 12.10.2022
1448 Clouds 5 995 75 10000 4.12 180 11:56 12.10.2022
1449 Clouds 5 995 81 10000 5.66 190 09:37 12.10.2022
1450 Clouds 4 995 81 10000 4.12 170 07:42 12.10.2022
1451 Clouds 5 995 81 10000 5.14 180 06:44 12.10.2022
1452 Clouds 4 996 87 10000 4.12 170 05:33 12.10.2022
1453 Clouds 7 995 65 10000 6.69 270 00:38 12.10.2022
1454 Rain 6 993 87 10000 8.75 280 21:26 11.10.2022
1455 Rain 7 993 76 10000 4.12 260 20:36 11.10.2022
1456 Rain 6 992 87 10000 6.17 260 18:28 11.10.2022
1457 Rain 7 992 87 1500 6.17 290 16:33 11.10.2022
1458 Mist 8 994 87 3500 8.23 120 14:00 11.10.2022
1459 Clouds 7 996 87 8000 7.72 110 11:45 11.10.2022
1460 Clouds 6 996 87 10000 8.23 100 10:28 11.10.2022
1461 Rain 6 997 87 10000 10.8 90 09:26 11.10.2022
1462 Clouds 4 1002 81 10000 9.26 80 05:36 11.10.2022
1463 Drizzle 3 1005 70 10000 7.2 80 02:19 11.10.2022
1464 Rain 3 1007 60 10000 6.69 80 00:27 11.10.2022
1465 Clear 3 1009 56 10000 5.14 110 21:23 10.10.2022
1466 Clouds 4 1010 56 10000 3.6 140 19:46 10.10.2022
1467 Clouds 4 1010 56 10000 3.6 140 19:46 10.10.2022
1468 Clouds 4 1010 56 10000 3.6 140 19:46 10.10.2022
1469 Rain 4 1010 56 10000 3.09 120 18:25 10.10.2022
1470 Clear 3 1010 56 10000 3.09 100 16:51 10.10.2022
1471 Clouds 3 1010 58 10000 2.67 60 15:20 10.10.2022
1472 Clouds 2 1009 60 10000 7.2 360 12:43 10.10.2022
1473 Clouds 2 1009 60 10000 5.14 360 11:26 10.10.2022
1474 Clouds 2 1007 69 10000 4.63 360 08:45 10.10.2022
1475 Clouds 2 1005 64 10000 7.72 340 05:42 10.10.2022
1476 Clouds 3 1002 65 10000 10.29 330 03:48 10.10.2022
1477 Clouds 3 1000 65 10000 11.32 350 00:31 10.10.2022
1478 Clouds 3 997 60 10000 14.4 340 22:37 09.10.2022
1479 Clouds 3 997 60 10000 14.4 340 22:18 09.10.2022
1480 Clouds 4 996 60 10000 12.86 340 21:21 09.10.2022
1481 Clouds 4 995 60 10000 11.83 340 20:20 09.10.2022
1482 Clouds 4 993 65 10000 13.38 340 19:37 09.10.2022
1483 Clouds 4 992 65 10000 12.86 340 18:43 09.10.2022
1484 Clouds 3 989 70 10000 14.4 340 16:56 09.10.2022
1485 Clouds 3 989 70 10000 14.4 340 16:33 09.10.2022
1486 Clouds 3 987 70 10000 15.95 340 15:38 09.10.2022
1487 Drizzle 3 986 75 10000 12.86 340 14:31 09.10.2022
1488 Clouds 4 984 65 10000 12.35 350 13:23 09.10.2022
1489 Drizzle 3 983 81 10000 9.26 350 12:29 09.10.2022
1490 Clouds 5 981 81 10000 8.23 340 10:48 09.10.2022
1491 Clouds 5 980 81 10000 4.12 320 08:30 09.10.2022
1492 Clouds 5 980 81 10000 4.12 320 08:30 09.10.2022
1493 Clouds 5 980 81 10000 4.12 320 08:30 09.10.2022
1494 Rain 4 982 87 10000 3.6 70 03:40 09.10.2022
1495 Rain 3 982 87 8000 5.14 110 02:52 09.10.2022
1496 Rain 5 984 81 10000 3.09 90 00:38 09.10.2022
1497 Clouds 5 985 81 10000 3.09 140 22:58 08.10.2022
1498 Clouds 5 985 81 10000 3.09 140 22:19 08.10.2022
1499 Rain 6 986 81 10000 4.12 170 20:29 08.10.2022
1500 Clouds 8 987 76 10000 4.12 160 18:56 08.10.2022
1501 Clouds 8 988 76 10000 4.63 170 16:52 08.10.2022
1502 Clouds 9 989 71 10000 5.14 200 14:55 08.10.2022
1503 Clouds 7 990 81 10000 4.63 180 13:31 08.10.2022
1504 Clouds 5 990 81 10000 8.23 80 10:48 08.10.2022
1505 Rain 5 990 81 10000 8.23 80 10:23 08.10.2022
1506 Rain 5 991 81 10000 7.72 90 08:49 08.10.2022
1507 Clouds 5 997 75 10000 4.63 90 04:46 08.10.2022
1508 Clouds 4 1001 81 10000 2.57 140 00:59 08.10.2022
1509 Clouds 4 1002 81 10000 2.06 160 23:39 07.10.2022
1510 Clouds 4 1002 81 10000 2.06 160 23:20 07.10.2022
1511 Clouds 6 1002 75 10000 2.06 150 21:48 07.10.2022
1512 Clear 7 1003 65 10000 2.06 260 19:51 07.10.2022
1513 Clear 8 1003 57 10000 2.06 320 17:54 07.10.2022
1514 Clear 8 1002 57 10000 2.06 60 16:50 07.10.2022
1515 Clear 8 1002 57 10000 2.06 40 15:26 07.10.2022
1516 Clear 5 1002 70 10000 6.17 360 13:55 07.10.2022
1517 Clouds 5 1001 65 10000 5.66 350 11:29 07.10.2022
1518 Clouds 5 999 60 10000 5.66 340 09:25 07.10.2022
1519 Clouds 4 998 70 10000 7.72 350 08:23 07.10.2022
1520 Clouds 4 994 70 10000 8.23 360 02:55 07.10.2022
1521 Clear 5 991 70 10000 10.29 360 23:21 06.10.2022
1522 Clouds 5 991 70 10000 7.72 360 22:48 06.10.2022
1523 Clouds 5 989 75 10000 9.77 360 21:37 06.10.2022
1524 Clouds 6 989 65 10000 9.77 10 20:39 06.10.2022
1525 Clouds 6 988 65 10000 7.72 360 18:57 06.10.2022
1526 Clouds 6 988 65 10000 7.72 360 18:32 06.10.2022
1527 Clouds 7 987 65 10000 5.14 360 15:40 06.10.2022
1528 Clear 6 987 70 10000 4.12 360 13:18 06.10.2022
1529 Clouds 4 986 87 10000 1.03 30 10:43 06.10.2022
1530 Clear 4 986 87 10000 1.03 140 05:20 06.10.2022
1531 Clouds 5 986 81 10000 1.54 130 02:22 06.10.2022
1532 Clouds 6 985 75 10000 7.2 300 22:29 05.10.2022
1533 Clouds 8 984 66 10000 5.66 310 19:54 05.10.2022
1534 Clouds 8 983 66 10000 10.29 300 17:48 05.10.2022
1535 Clouds 8 983 66 10000 10.29 300 17:27 05.10.2022
1536 Clouds 7 983 76 10000 4.63 320 15:37 05.10.2022
1537 Clouds 6 982 81 10000 3.6 350 14:38 05.10.2022
1538 Clouds 6 981 81 10000 4.63 340 13:39 05.10.2022
1539 Clouds 6 981 81 9000 5.14 350 12:19 05.10.2022
1540 Clouds 5 977 75 10000 10.8 340 08:31 05.10.2022
1541 Clouds 6 977 75 10000 9.26 350 07:22 05.10.2022
1542 Clouds 5 975 75 10000 11.83 340 05:35 05.10.2022
1543 Clouds 5 972 75 10000 11.32 340 02:40 05.10.2022
1544 Clouds 6 970 75 10000 13.38 340 00:41 05.10.2022
1545 Clouds 6 970 75 10000 13.38 340 00:23 05.10.2022
1546 Clouds 7 968 76 10000 11.83 340 21:48 04.10.2022
1547 Clouds 7 967 76 10000 10.8 340 20:22 04.10.2022
1548 Clouds 8 966 81 10000 6.17 350 18:56 04.10.2022
1549 Clouds 8 966 81 10000 6.17 350 18:34 04.10.2022
1550 Clouds 9 966 76 10000 7.72 10 16:58 04.10.2022
1551 Clouds 9 966 76 10000 7.72 10 16:20 04.10.2022
1552 Clouds 9 967 71 10000 9.77 360 11:25 04.10.2022
1553 Clouds 9 970 76 10000 9.77 10 08:28 04.10.2022
1554 Rain 11 973 62 10000 8 50 06:25 04.10.2022
1555 Clouds 10 982 76 10000 5.66 70 01:24 04.10.2022
1556 Clouds 9 986 81 10000 3.6 60 23:36 03.10.2022
1557 Clouds 8 990 81 7000 3.6 20 21:46 03.10.2022
1558 Clouds 9 992 81 10000 3.6 60 20:51 03.10.2022
1559 Clouds 10 994 66 10000 2.57 90 18:57 03.10.2022
1560 Clouds 10 995 62 10000 3.09 110 17:39 03.10.2022
1561 Clouds 10 996 66 10000 2.57 120 16:40 03.10.2022
1562 Clouds 9 997 71 10000 3.09 170 15:26 03.10.2022
1563 Clouds 9 997 71 10000 5.66 190 13:44 03.10.2022
1564 Clouds 7 997 76 10000 5.14 150 11:47 03.10.2022
1565 Clouds 6 996 81 10000 3.6 160 10:25 03.10.2022
1566 Clouds 6 996 87 10000 3.6 150 08:59 03.10.2022
1567 Clouds 9 995 76 10000 7.2 190 04:49 03.10.2022
1568 Clouds 10 993 87 9000 6.69 170 01:52 03.10.2022
1569 Rain 9 994 81 10000 7.2 120 22:24 02.10.2022
1570 Drizzle 9 994 81 10000 7.2 120 22:24 02.10.2022
1571 Drizzle 9 995 76 10000 5.14 100 20:32 02.10.2022
1572 Drizzle 9 996 71 10000 5.14 160 18:27 02.10.2022
1573 Clouds 9 996 71 10000 6.17 190 17:29 02.10.2022
1574 Clouds 10 996 71 10000 8.75 200 16:33 02.10.2022
1575 Clouds 10 996 76 10000 7.72 210 15:40 02.10.2022
1576 Clouds 9 994 71 10000 9.26 230 13:51 02.10.2022
1577 Clouds 9 992 81 10000 10.29 240 12:48 02.10.2022
1578 Clouds 9 992 81 10000 10.29 240 12:24 02.10.2022
1579 Clouds 9 991 76 10000 10.8 240 11:35 02.10.2022
1580 Clouds 8 989 87 6000 13.38 250 10:36 02.10.2022
1581 Clouds 8 986 87 10000 12.86 250 08:31 02.10.2022
1582 Clouds 8 986 87 10000 12.86 250 08:31 02.10.2022
1583 Clouds 8 982 93 6000 12.35 250 05:32 02.10.2022
1584 Clouds 8 978 93 5000 12.86 240 02:54 02.10.2022
1585 Rain 8 976 93 9000 11.32 240 00:45 02.10.2022
1586 Rain 8 976 93 7000 10.29 230 23:42 01.10.2022
1587 Clouds 8 976 87 5000 10.29 240 22:31 01.10.2022
1588 Clouds 9 973 87 9000 6.17 260 19:58 01.10.2022
1589 Clouds 10 972 76 10000 3.6 260 17:49 01.10.2022
1590 Clouds 9 972 81 10000 3.6 260 16:29 01.10.2022
1591 Rain 9 970 76 10000 9.26 320 14:19 01.10.2022
1592 Rain 8 969 81 10000 11.32 320 12:57 01.10.2022
1593 Clouds 8 969 81 10000 11.32 320 12:29 01.10.2022
1594 Clouds 8 969 81 10000 10.8 330 11:19 01.10.2022
1595 Clouds 8 969 81 10000 7.72 330 10:31 01.10.2022
1596 Rain 8 969 81 10000 8.23 330 09:27 01.10.2022
1597 Clouds 9 969 76 10000 9.77 340 08:41 01.10.2022
1598 Clouds 9 968 76 10000 6.69 350 03:55 01.10.2022
1599 Clouds 9 968 76 10000 6.69 350 03:28 01.10.2022
1600 Clouds 9 969 76 10000 5.14 330 23:33 30.09.2022
1601 Clouds 9 969 81 10000 6.17 340 22:19 30.09.2022
1602 Clouds 10 969 76 10000 7.72 360 21:22 30.09.2022
1603 Clouds 11 969 71 10000 4.63 360 20:43 30.09.2022
1604 Clouds 12 969 71 10000 6.17 10 19:32 30.09.2022
1605 Clouds 12 968 71 10000 4.12 340 17:27 30.09.2022
1606 Clouds 10 969 81 10000 3.09 350 15:26 30.09.2022
1607 Rain 10 968 76 10000 2.06 10 13:27 30.09.2022
1608 Rain 10 968 76 10000 2.06 40 11:56 30.09.2022
1609 Rain 9 968 81 10000 1.03 30 10:18 30.09.2022
1610 Clouds 9 968 81 10000 2.57 60 08:22 30.09.2022
1611 Rain 9 970 88 10000 3.6 60 04:55 30.09.2022
1612 Rain 9 971 81 10000 4.12 70 02:27 30.09.2022
1613 Clouds 9 975 87 10000 7.2 80 22:24 29.09.2022
1614 Clouds 10 976 81 10000 8.23 80 21:26 29.09.2022
1615 Drizzle 10 977 81 10000 9.77 90 20:31 29.09.2022
1616 Drizzle 10 979 81 10000 8.23 90 18:32 29.09.2022
1617 Drizzle 11 981 82 10000 8.23 100 17:22 29.09.2022
1618 Clouds 11 983 82 10000 7.72 120 16:28 29.09.2022
1619 Clouds 11 985 82 9000 7.72 120 15:35 29.09.2022
1620 Clouds 11 987 82 8000 7.72 120 14:24 29.09.2022
1621 Clouds 10 995 81 10000 6.17 120 09:45 29.09.2022
1622 Clouds 9 999 87 10000 3.09 100 06:45 29.09.2022
1623 Clouds 8 1003 81 10000 2.57 120 02:45 29.09.2022
1624 Clouds 8 1005 87 10000 4.12 180 23:54 28.09.2022
1625 Clouds 8 1005 87 10000 3.09 190 22:32 28.09.2022
1626 Drizzle 9 1005 87 10000 4.12 170 21:29 28.09.2022
1627 Clouds 9 1005 81 10000 4.12 200 20:22 28.09.2022
1628 Clouds 10 1005 71 10000 3.6 190 18:20 28.09.2022
1629 Clouds 9 1006 76 10000 4.12 90 14:51 28.09.2022
1630 Clouds 8 1007 76 10000 4.12 100 12:49 28.09.2022
1631 Clouds 7 1007 76 10000 3.6 80 10:51 28.09.2022
1632 Clouds 7 1007 76 10000 4.12 80 08:26 28.09.2022
1633 Clouds 7 1008 76 10000 3.09 70 06:50 28.09.2022
1634 Clouds 7 1010 70 10000 1.54 210 01:56 28.09.2022
1635 Clouds 7 1010 70 10000 1.54 210 01:31 28.09.2022
1636 Clouds 7 1010 70 10000 1.54 210 01:31 28.09.2022
1637 Clear 8 1010 57 10000 0.51 0 23:19 27.09.2022
1638 Clear 9 1010 49 10000 1.54 340 21:42 27.09.2022
1639 Clear 9 1010 53 10000 2.06 300 20:37 27.09.2022
1640 Clear 9 1010 46 10000 1.54 290 19:47 27.09.2022
1641 Clear 9 1011 46 10000 1.03 0 18:37 27.09.2022
1642 Clear 8 1011 46 10000 1.03 0 17:44 27.09.2022
1643 Clear 7 1011 42 10000 1.03 0 15:29 27.09.2022
1644 Clear 7 1011 39 10000 0.51 0 14:55 27.09.2022
1645 Clouds 5 1011 45 10000 1.03 110 12:42 27.09.2022
1646 Clear 4 1011 48 10000 2.06 110 10:58 27.09.2022
1647 Clear 4 1011 60 10000 1.54 180 08:49 27.09.2022
1648 Clear 3 1011 60 10000 0.51 90 06:39 27.09.2022
1649 Clear 4 1013 41 10000 1.03 0 01:57 27.09.2022
1650 Clear 4 1013 41 10000 1.03 0 01:27 27.09.2022
1651 Clear 4 1013 35 10000 4.12 110 23:26 26.09.2022
1652 Clear 5 1014 45 10000 2.06 100 22:34 26.09.2022
1653 Clear 7 1014 39 10000 6.17 10 20:45 26.09.2022
1654 Clear 8 1014 34 10000 5.14 10 19:31 26.09.2022
1655 Clear 9 1014 40 10000 4.12 350 18:32 26.09.2022
1656 Clear 9 1015 43 10000 7.2 360 16:34 26.09.2022
1657 Clear 7 1015 53 10000 2.06 0 14:28 26.09.2022
1658 Clear 4 1014 75 10000 1.03 0 11:29 26.09.2022
1659 Clear 3 1014 87 10000 0 0 10:38 26.09.2022
1660 Clear 3 1014 87 10000 0 0 10:20 26.09.2022
1661 Clear 3 1013 87 10000 1.03 0 09:54 26.09.2022
1662 Clear 3 1013 87 10000 1.03 0 09:24 26.09.2022
1663 Clouds 4 1012 81 10000 0.51 0 07:37 26.09.2022
1664 Clouds 5 1011 81 10000 4.12 160 02:54 26.09.2022
1665 Clouds 8 1010 66 10000 4.12 320 23:50 25.09.2022
1666 Clouds 8 1009 66 10000 1.54 340 22:29 25.09.2022
1667 Clouds 9 1008 61 10000 4.63 320 21:35 25.09.2022
1668 Clouds 9 1007 61 10000 6.17 320 20:47 25.09.2022
1669 Clouds 9 1006 61 10000 7.72 310 19:43 25.09.2022
1670 Clouds 9 1005 53 10000 8.75 300 18:43 25.09.2022
1671 Clouds 9 1005 53 10000 8.75 300 18:20 25.09.2022
1672 Clouds 9 1002 49 10000 6.69 320 16:36 25.09.2022
1673 Clouds 8 1000 53 10000 8.23 340 15:44 25.09.2022
1674 Clouds 7 998 49 10000 11.32 360 14:22 25.09.2022
1675 Clouds 8 992 66 10000 12.35 330 12:55 25.09.2022
1676 Clouds 9 987 53 10000 16.46 290 10:32 25.09.2022
1677 Clouds 9 985 66 6000 15.43 270 08:24 25.09.2022
1678 Clouds 11 985 66 7000 16.46 240 05:47 25.09.2022
1679 Clouds 12 991 87 5000 14.4 220 01:55 25.09.2022
1680 Drizzle 13 996 88 6000 16.46 200 22:35 24.09.2022
1681 Clouds 13 1002 82 9000 13.38 200 20:55 24.09.2022
1682 Clouds 12 1004 87 10000 12.35 200 19:23 24.09.2022
1683 Clouds 13 1008 82 10000 11.32 210 17:49 24.09.2022
1684 Clouds 12 1010 87 9000 9.26 220 16:25 24.09.2022
1685 Clouds 12 1011 87 10000 10.8 220 15:21 24.09.2022
1686 Drizzle 11 1012 93 8000 8.75 220 13:27 24.09.2022
1687 Drizzle 11 1012 93 10000 9.26 220 12:50 24.09.2022
1688 Mist 11 1013 87 5000 7.72 210 11:21 24.09.2022
1689 Drizzle 10 1014 93 2000 6.17 200 09:46 24.09.2022
1690 Drizzle 10 1014 87 4300 5.14 200 08:45 24.09.2022
1691 Drizzle 10 1015 93 4000 6.17 220 07:38 24.09.2022
1692 Drizzle 9 1015 94 4100 5.14 210 04:46 24.09.2022
1693 Drizzle 9 1016 87 8000 4.63 200 02:24 24.09.2022
1694 Clouds 9 1015 81 10000 3.6 200 22:29 23.09.2022
1695 Clouds 10 1015 76 10000 2.06 200 21:28 23.09.2022
1696 Clouds 10 1015 76 10000 4.63 240 20:56 23.09.2022
1697 Clouds 10 1015 76 10000 4.63 240 20:20 23.09.2022
1698 Clouds 10 1014 76 10000 1.54 240 18:50 23.09.2022
1699 Clouds 10 1013 71 10000 4.63 220 14:33 23.09.2022
1700 Clouds 6 1012 87 10000 2.57 130 10:55 23.09.2022
1701 Clouds 6 1012 93 10000 2.57 160 09:32 23.09.2022
1702 Clouds 7 1010 76 10000 4.12 310 05:20 23.09.2022
1703 Clouds 7 1008 81 10000 5.66 290 00:32 23.09.2022
1704 Clouds 8 1008 81 10000 5.14 290 23:21 22.09.2022
1705 Clouds 8 1007 81 10000 7.2 290 22:26 22.09.2022
1706 Clouds 9 1005 87 10000 6.69 290 20:51 22.09.2022
1707 Drizzle 10 1004 81 10000 4.12 240 19:37 22.09.2022
1708 Clouds 10 1003 87 10000 5.66 270 16:57 22.09.2022
1709 Clouds 9 1001 87 10000 3.6 290 12:46 22.09.2022
1710 Clouds 10 1000 87 10000 3.6 300 10:32 22.09.2022
1711 Clouds 9 999 81 10000 4.12 290 08:52 22.09.2022
1712 Clouds 9 998 76 10000 4.12 280 06:57 22.09.2022
1713 Clouds 9 997 93 10000 5.14 310 03:46 22.09.2022
1714 Clouds 10 996 87 10000 0 0 23:31 21.09.2022
1715 Clouds 10 995 93 10000 1.03 280 21:50 21.09.2022
1716 Clouds 11 995 87 10000 1.54 310 20:18 21.09.2022
1717 Clouds 12 995 82 10000 2.57 100 17:49 21.09.2022
1718 Clouds 11 996 87 10000 3.09 110 16:51 21.09.2022
1719 Clouds 10 996 87 10000 2.57 70 14:37 21.09.2022
1720 Clouds 11 997 82 10000 3.09 120 12:54 21.09.2022
1721 Clouds 10 997 87 10000 3.09 90 11:29 21.09.2022
1722 Clouds 9 997 93 10000 4.12 90 10:29 21.09.2022
1723 Clouds 9 997 81 10000 4.63 70 09:21 21.09.2022
1724 Clouds 9 998 81 10000 3.09 90 07:41 21.09.2022
1725 Clouds 8 1001 87 10000 2.57 120 02:48 21.09.2022
1726 Clouds 8 1001 87 10000 2.57 120 02:28 21.09.2022
1727 Clear 9 1001 87 10000 3.09 160 00:44 21.09.2022
1728 Clouds 10 1002 87 10000 2.06 200 23:18 20.09.2022
1729 Clouds 12 1001 82 10000 3.6 180 20:52 20.09.2022
1730 Rain 12 1001 87 10000 6.17 190 19:37 20.09.2022
1731 Rain 12 1003 82 10000 4.12 110 16:41 20.09.2022
1732 Clouds 12 1004 82 10000 4.12 130 14:51 20.09.2022
1733 Clouds 12 1004 76 10000 5.14 130 13:48 20.09.2022
1734 Clouds 10 1005 87 10000 2.06 150 10:33 20.09.2022
1735 Clouds 11 1005 87 10000 3.09 170 08:28 20.09.2022
1736 Clouds 10 1005 93 10000 4.12 190 05:48 20.09.2022
1737 Clouds 11 1005 87 10000 3.6 190 04:28 20.09.2022
1738 Clouds 13 1004 82 10000 2.06 100 23:32 19.09.2022
1739 Clouds 13 1004 82 10000 2.57 60 22:23 19.09.2022
1740 Clouds 13 1004 82 10000 2.06 100 20:58 19.09.2022
1741 Clouds 13 1004 82 10000 2.06 100 20:39 19.09.2022
1742 Clouds 12 1005 87 6000 4.63 90 17:55 19.09.2022
1743 Rain 12 1005 82 10000 3.6 80 15:53 19.09.2022
1744 Clouds 11 1007 82 10000 5.66 100 13:39 19.09.2022
1745 Clouds 11 1008 82 10000 6.17 100 11:30 19.09.2022
1746 Clouds 10 1009 81 10000 7.72 90 09:20 19.09.2022
1747 Clouds 10 1009 87 10000 6.69 80 08:19 19.09.2022
1748 Clouds 9 1013 87 10000 9.26 110 02:31 19.09.2022
1749 Clouds 9 1014 81 10000 9.77 110 23:24 18.09.2022
1750 Clouds 10 1014 76 10000 9.26 110 21:47 18.09.2022
1751 Clouds 10 1015 81 10000 7.2 110 20:34 18.09.2022
1752 Clouds 10 1016 76 7500 11.32 120 18:41 18.09.2022
1753 Rain 11 1016 71 6000 9.77 130 17:43 18.09.2022
1754 Clouds 12 1017 66 9000 10.29 120 15:56 18.09.2022
1755 Clouds 12 1017 66 10000 9.26 120 14:35 18.09.2022
1756 Clouds 10 1018 76 10000 8.23 110 12:55 18.09.2022
1757 Clouds 10 1017 76 10000 7.2 110 11:46 18.09.2022
1758 Clouds 10 1018 71 10000 6.17 110 06:30 18.09.2022
1759 Clouds 10 1019 66 10000 2.57 90 01:30 18.09.2022
1760 Clouds 10 1020 66 10000 2.57 110 00:48 18.09.2022
1761 Clouds 10 1020 71 10000 0 0 22:23 17.09.2022
1762 Clouds 11 1020 62 10000 2.57 290 20:48 17.09.2022
1763 Clouds 12 1020 62 10000 2.06 280 19:28 17.09.2022
1764 Clouds 11 1020 66 10000 1.54 10 17:19 17.09.2022
1765 Clouds 10 1021 71 10000 1.03 0 14:18 17.09.2022
1766 Clouds 9 1021 87 10000 0 0 12:33 17.09.2022
1767 Fog 7 1021 87 10000 1.03 0 10:47 17.09.2022
1768 Clouds 8 1021 87 10000 1.54 160 06:29 17.09.2022
1769 Clouds 8 1022 93 10000 2.06 170 03:34 17.09.2022
1770 Clouds 9 1022 81 10000 1.54 210 23:23 16.09.2022
1771 Clouds 10 1022 71 10000 2.57 260 21:46 16.09.2022
1772 Clouds 10 1022 76 10000 2.57 230 20:41 16.09.2022
1773 Drizzle 9 1022 87 10000 3.09 240 18:28 16.09.2022
1774 Clouds 10 1023 71 10000 2.06 180 16:18 16.09.2022
1775 Clouds 9 1023 71 10000 4.63 190 14:44 16.09.2022
1776 Clouds 8 1023 76 10000 2.57 140 12:35 16.09.2022
1777 Clouds 4 1024 81 10000 2.57 130 09:37 16.09.2022
1778 Clear 3 1024 87 10000 1.54 140 07:22 16.09.2022
1779 Clear 2 1024 93 10000 1.54 140 06:47 16.09.2022
1780 Clear 3 1024 87 10000 1.03 150 05:43 16.09.2022
1781 Clear 6 1024 81 10000 1.54 160 01:30 16.09.2022
1782 Clear 9 1024 71 10000 0.51 0 21:31 15.09.2022
1783 Clear 10 1024 62 10000 2.57 320 20:29 15.09.2022
1784 Clear 11 1024 58 10000 4.63 320 18:57 15.09.2022
1785 Clear 11 1023 58 10000 2.06 300 17:38 15.09.2022
1786 Clear 11 1023 58 10000 2.06 300 17:20 15.09.2022
1787 Clear 9 1023 71 10000 2.06 290 15:37 15.09.2022
1788 Clear 9 1023 57 10000 1.1 65 12:49 15.09.2022
1789 Clear 5 1021 93 10000 0.51 0 11:47 15.09.2022
1790 Clear 2 1020 93 10000 1.54 130 09:43 15.09.2022
1791 Clear 4 1018 93 10000 1.54 130 05:37 15.09.2022
1792 Clear 6 1017 87 10000 0 0 02:58 15.09.2022
1793 Clear 9 1016 71 10000 6.17 330 22:51 14.09.2022
1794 -273 0 0 0 0 0 20:30 14.09.2022
1795 Clear 10 1015 66 10000 5.66 320 19:32 14.09.2022
1796 Clear 10 1015 68 10000 3.09 340 17:35 14.09.2022
1797 Clear 9 1014 66 10000 3.6 300 16:36 14.09.2022
1798 Clear 8 1014 71 10000 0.51 0 14:50 14.09.2022
1799 Clear 6 1014 81 10000 1.03 0 12:34 14.09.2022
1800 Clear 4 1014 87 10000 1.03 190 09:51 14.09.2022
1801 Clear 3 1013 93 10000 1.54 170 08:21 14.09.2022
1802 Clear 4 1013 87 10000 1.54 140 06:49 14.09.2022
1803 Clear 4 1013 87 10000 1.54 140 06:25 14.09.2022
1804 Clear 8 1012 71 10000 5.14 360 02:19 14.09.2022
1805 Clear 9 1012 66 10000 4.12 360 01:32 14.09.2022
1806 Clear 9 1011 66 10000 5.14 10 00:52 14.09.2022
1807 Clear 10 1011 66 10000 5.14 360 23:54 13.09.2022
1808 Clear 10 1011 66 10000 5.14 360 23:36 13.09.2022
1809 Clear 10 1011 66 10000 5.14 360 23:18 13.09.2022
1810 Clouds 9 1010 81 10000 3.09 340 22:22 13.09.2022
1811 Clouds 9 1010 81 10000 3.09 340 22:22 13.09.2022
1812 Clouds 9 1009 76 10000 4.63 320 20:45 13.09.2022
1813 Clouds 9 1009 76 10000 3.6 290 18:43 13.09.2022
1814 Clouds 9 1008 76 10000 3.09 270 16:19 13.09.2022
1815 Clouds 9 1008 76 10000 3.6 260 15:18 13.09.2022
1816 Clouds 10 1008 76 10000 2.57 250 13:31 13.09.2022
1817 Clouds 10 1006 71 10000 2.57 280 09:58 13.09.2022
1818 Clouds 10 1005 81 10000 2.57 220 07:47 13.09.2022
1819 Drizzle 9 1005 87 9000 4.12 210 00:58 13.09.2022
1820 Clouds 10 1005 81 9000 5.14 210 23:21 12.09.2022
1821 Clouds 10 1005 81 9000 4.63 220 22:26 12.09.2022
1822 Drizzle 10 1005 81 9000 4.63 210 20:54 12.09.2022
1823 Drizzle 10 1005 87 9000 4.12 210 19:26 12.09.2022
1824 Clouds 11 1006 76 10000 4.63 220 17:47 12.09.2022
1825 Clouds 11 1007 82 10000 5.14 230 15:40 12.09.2022
1826 Clear 9 1008 57 10000 3.09 130 12:26 12.09.2022
1827 Clear 7 1009 87 10000 2.06 100 10:27 12.09.2022
1828 Clear 7 1010 87 10000 2.06 190 07:21 12.09.2022
1829 Clear 6 1012 87 10000 1.54 140 04:32 12.09.2022
1830 Clear 9 1013 81 10000 6.69 350 00:42 12.09.2022
1831 Clear 10 1013 76 10000 5.66 350 22:45 11.09.2022
1832 Clear 11 1013 66 10000 8.23 360 21:25 11.09.2022
1833 Clear 12 1012 66 10000 9.26 350 20:43 11.09.2022
1834 Clear 12 1012 66 10000 8.75 350 19:27 11.09.2022
1835 Clear 12 1012 66 10000 8.23 350 18:58 11.09.2022
1836 Clear 11 1012 71 10000 5.14 350 17:26 11.09.2022
1837 Clouds 10 1012 76 10000 10.8 350 15:46 11.09.2022
1838 Clouds 11 1012 71 10000 3.6 30 13:22 11.09.2022
1839 Clouds 9 1012 76 10000 6.69 340 11:25 11.09.2022
1840 Clouds 10 1011 71 10000 5.14 20 08:19 11.09.2022
1841 Clear 8 1011 87 10000 2.06 140 05:19 11.09.2022
1842 Rain 12 1010 76 10000 1.03 0 23:51 10.09.2022
1843 Clouds 12 1010 76 10000 6.69 360 22:22 10.09.2022
1844 Clouds 14 1010 77 10000 4.12 10 20:33 10.09.2022
1845 Rain 13 1010 82 10000 5.14 350 19:44 10.09.2022
1846 Clouds 13 1010 82 10000 5.14 350 19:25 10.09.2022
1847 Rain 15 1011 72 10000 2.06 360 17:49 10.09.2022
1848 Clouds 15 1011 72 10000 2.57 60 15:35 10.09.2022
1849 Clouds 14 1011 77 10000 3.09 90 13:41 10.09.2022
1850 Clouds 14 1011 77 10000 2.06 90 12:30 10.09.2022
1851 Clouds 14 1011 72 10000 4.12 80 10:31 10.09.2022
1852 Clouds 14 1010 72 10000 3.09 30 08:42 10.09.2022
1853 Clouds 14 1010 72 10000 3.09 30 08:20 10.09.2022
1854 Clouds 14 1010 72 10000 3.09 30 08:20 10.09.2022
1855 Clouds 14 1011 72 10000 2.57 60 04:30 10.09.2022
1856 Drizzle 12 1011 87 10000 2.57 60 23:37 09.09.2022
1857 Drizzle 13 1011 82 10000 6.17 90 22:36 09.09.2022
1858 Rain 12 1011 87 10000 3.09 70 20:57 09.09.2022
1859 Rain 12 1011 87 10000 3.09 70 20:19 09.09.2022
1860 Rain 12 1011 87 10000 3.6 80 19:22 09.09.2022
1861 Rain 11 1011 93 6000 1.03 0 17:29 09.09.2022
1862 Rain 11 1011 87 8000 1.54 360 15:19 09.09.2022
1863 Rain 11 1011 87 6000 1.54 50 13:33 09.09.2022
1864 Clouds 10 1011 93 6000 2.06 160 11:27 09.09.2022
1865 Clouds 12 1011 82 10000 3.6 90 07:57 09.09.2022
1866 Clouds 12 1013 82 10000 6.69 130 03:37 09.09.2022
1867 Clouds 11 1015 76 10000 6.17 140 00:21 09.09.2022
1868 Clear 13 1015 71 10000 8.23 140 21:52 08.09.2022
1869 Clear 14 1015 58 10000 6.69 140 20:49 08.09.2022
1870 Clear 14 1015 58 10000 6.69 140 20:49 08.09.2022
1871 Clear 14 1015 58 10000 6.69 140 20:27 08.09.2022
1872 Clear 15 1015 44 10000 6.17 130 19:18 08.09.2022
1873 Clear 17 1016 51 10000 6.69 140 17:29 08.09.2022
1874 Clear 15 1016 67 10000 7.72 140 15:53 08.09.2022
1875 Clear 15 1017 67 10000 2.57 100 13:30 08.09.2022
1876 Clear 14 1017 77 10000 3.09 120 12:41 08.09.2022
1877 Clouds 14 1017 72 10000 3.09 120 11:23 08.09.2022
1878 Clouds 13 1017 76 10000 2.57 120 09:46 08.09.2022
1879 Clouds 13 1017 71 10000 3.09 80 07:25 08.09.2022
1880 Clouds 12 1018 81 10000 2.06 110 04:44 08.09.2022
1881 Clouds 12 1019 82 10000 0.51 0 02:36 08.09.2022
1882 Clouds 12 1019 82 10000 0.51 0 02:18 08.09.2022
1883 Clear 12 1019 83 10000 2.06 270 22:58 07.09.2022
1884 Clear 12 1018 82 10000 1.54 290 21:46 07.09.2022
1885 Clear 12 1018 82 10000 1.54 290 21:21 07.09.2022
1886 Clear 13 1018 71 10000 1.03 0 20:28 07.09.2022
1887 Clear 13 1018 67 10000 2.57 290 18:54 07.09.2022
1888 Clear 12 1018 76 10000 1.54 270 16:24 07.09.2022
1889 Clear 6 1019 87 10000 2.06 150 10:52 07.09.2022
1890 Clear 6 1019 87 10000 2.06 150 10:32 07.09.2022
1891 Clear 6 1018 87 10000 0 0 08:26 07.09.2022
1892 Clear 7 1019 87 10000 0 0 05:46 07.09.2022
1893 Clear 10 1020 87 10000 3.09 180 00:31 07.09.2022
1894 Clear 12 1021 76 10000 2.57 240 21:51 06.09.2022
1895 Clear 12 1021 76 10000 2.57 240 21:51 06.09.2022
1896 Clear 12 1021 76 10000 2.57 240 21:32 06.09.2022
1897 Clear 12 1021 76 10000 2.57 250 19:38 06.09.2022
1898 Clear 13 1021 71 10000 3.6 280 18:39 06.09.2022
1899 Clear 12 1021 76 10000 3.09 290 17:39 06.09.2022
1900 Clear 13 1022 76 10000 2.57 250 16:47 06.09.2022
1901 Clear 12 1022 76 10000 2.57 280 15:58 06.09.2022
1902 Clear 11 1022 82 10000 1.54 270 13:48 06.09.2022
1903 Clear 11 1022 82 10000 1.54 270 13:27 06.09.2022
1904 Clear 10 1023 81 10000 1.03 0 12:57 06.09.2022
1905 Clear 7 1023 87 10000 0.51 170 10:55 06.09.2022
1906 Clear 7 1023 87 10000 1.03 170 09:18 06.09.2022
1907 Clear 7 1023 87 10000 1.03 0 07:53 06.09.2022
1908 Clear 7 1023 87 10000 0 0 06:19 06.09.2022
1909 Clear 11 1024 76 10000 1.03 0 00:54 06.09.2022
1910 Clear 12 1025 66 10000 1.54 0 22:49 05.09.2022
1911 Clear 13 1024 67 10000 0.51 0 21:38 05.09.2022
1912 Clear 14 1024 58 10000 4.12 330 20:20 05.09.2022
1913 Clear 14 1025 58 10000 3.6 330 18:53 05.09.2022
1914 Clear 14 1025 58 10000 3.6 330 18:24 05.09.2022
1915 Clear 14 1025 62 10000 3.6 360 17:50 05.09.2022
1916 Clear 13 1026 67 10000 2.06 350 15:54 05.09.2022
1917 Clear 13 1026 62 10000 2.06 340 14:40 05.09.2022
1918 Clear 11 1027 82 10000 1.54 240 12:51 05.09.2022
1919 Clear 9 1027 87 10000 0 0 10:37 05.09.2022
1920 Clear 9 1026 81 10000 1.54 100 08:45 05.09.2022
1921 Clouds 11 1026 82 10000 2.06 360 03:57 05.09.2022
1922 Clouds 10 1026 71 10000 1.03 340 00:30 05.09.2022
1923 Clouds 10 1025 81 10000 1.03 250 22:29 04.09.2022
1924 Clouds 11 1025 82 10000 2.06 260 21:57 04.09.2022
1925 Clouds 11 1024 82 10000 2.06 10 20:26 04.09.2022
1926 Clouds 13 1024 76 10000 2.06 300 18:35 04.09.2022
1927 Clouds 13 1024 76 10000 2.57 290 17:43 04.09.2022
1928 Clouds 11 1024 82 10000 2.06 290 16:24 04.09.2022
1929 Fog 10 1024 81 10000 2.57 20 14:25 04.09.2022
1930 Fog 10 1024 81 10000 1.03 0 12:52 04.09.2022
1931 Fog 9 1024 87 10000 1.03 0 11:28 04.09.2022
1932 Clouds 9 1025 87 10000 0 0 09:38 04.09.2022
1933 Mist 9 1025 87 9000 1.03 0 06:40 04.09.2022
1934 Fog 8 1025 93 5000 0.51 0 03:18 04.09.2022
1935 Mist 10 1027 87 9000 3.09 280 22:56 03.09.2022
1936 Fog 10 1026 87 800 3.6 270 22:18 03.09.2022
1937 Mist 10 1026 87 9000 2.06 250 21:22 03.09.2022
1938 Clouds 13 1027 71 10000 2.06 290 18:49 03.09.2022
1939 Clouds 14 1027 67 10000 1.54 250 17:22 03.09.2022
1940 Clouds 14 1027 67 10000 1.54 250 17:22 03.09.2022
1941 Clouds 13 1027 76 10000 2.06 260 15:54 03.09.2022
1942 Clouds 13 1028 76 10000 2.57 300 14:42 03.09.2022
1943 Clouds 12 1028 76 10000 1.54 270 13:50 03.09.2022
1944 Clear 10 1028 81 10000 1.03 0 11:34 03.09.2022
1945 Clear 6 1028 100 10000 1.03 0 09:37 03.09.2022
1946 Clear 8 1028 87 10000 1.54 150 07:54 03.09.2022
1947 Clear 9 1028 81 10000 0.51 0 04:56 03.09.2022
1948 Clear 10 1027 81 10000 2.06 360 03:29 03.09.2022
1949 Clear 13 1026 67 10000 5.66 10 23:49 02.09.2022
1950 Clear 13 1025 67 10000 6.17 20 22:27 02.09.2022
1951 Clouds 15 1023 58 10000 7.2 360 20:56 02.09.2022
1952 Clouds 15 1023 58 10000 7.2 360 20:22 02.09.2022
1953 Clouds 15 1021 58 10000 4.63 10 18:51 02.09.2022
1954 Clouds 15 1021 58 10000 4.63 10 18:26 02.09.2022
1955 Clouds 14 1021 58 10000 6.17 30 17:30 02.09.2022
1956 Clouds 12 1020 66 10000 8.75 20 16:44 02.09.2022
1957 Clouds 9 1018 76 10000 10.29 10 13:51 02.09.2022
1958 Clouds 8 1017 76 10000 7.2 20 11:36 02.09.2022
1959 Clouds 8 1017 76 10000 8.23 20 09:46 02.09.2022
1960 Clouds 8 1017 81 10000 6.69 360 08:49 02.09.2022
1961 Clear 6 1015 93 10000 1.03 0 06:50 02.09.2022
1962 Clear 6 1015 93 10000 1.03 0 06:24 02.09.2022
1963 Clouds 7 1015 93 10000 1.54 130 02:34 02.09.2022
1964 Clouds 10 1013 76 10000 2.06 300 22:24 01.09.2022
1965 Clouds 10 1013 76 10000 2.06 360 21:39 01.09.2022
1966 Clouds 10 1013 76 10000 2.06 360 21:20 01.09.2022
1967 Clouds 10 1013 76 10000 2.06 330 20:31 01.09.2022
1968 Clouds 12 1012 58 10000 1.54 220 18:37 01.09.2022
1969 Clouds 12 1012 58 10000 4.12 180 16:58 01.09.2022
1970 Clouds 12 1012 58 10000 4.12 180 15:29 01.09.2022
1971 Clouds 10 1013 66 10000 4.63 150 13:44 01.09.2022
1972 Clouds 10 1013 76 10000 3.09 160 12:56 01.09.2022
1973 Clouds 9 1013 76 10000 2.57 140 11:51 01.09.2022
1974 Clouds 9 1013 76 10000 2.57 140 11:29 01.09.2022
1975 Clouds 7 1012 81 10000 3.6 130 09:49 01.09.2022
1976 Clouds 6 1012 87 10000 3.09 150 07:50 01.09.2022
1977 Clouds 7 1013 87 10000 3.09 170 05:56 01.09.2022
1978 Clouds 9 1012 87 10000 4.63 200 01:31 01.09.2022
1979 Clouds 9 1011 87 8000 5.66 260 22:56 31.08.2022
1980 Clouds 9 1008 87 10000 7.72 270 20:48 31.08.2022
1981 Clouds 10 1006 87 8000 9.26 280 19:23 31.08.2022
1982 Clouds 13 1006 88 8500 11.32 170 16:49 31.08.2022
1983 Clouds 13 1007 88 7000 13.38 160 15:28 31.08.2022
1984 Clouds 13 1009 82 10000 10.29 150 13:38 31.08.2022
1985 Clouds 9 1012 87 6000 2.06 50 12:18 31.08.2022
1986 Clouds 11 1016 87 10000 3.6 170 09:36 31.08.2022
1987 Clouds 11 1016 87 10000 4.63 130 08:31 31.08.2022
1988 Clouds 9 1019 87 10000 0 0 02:59 31.08.2022
1989 Clouds 10 1018 87 10000 1.54 210 22:42 30.08.2022
1990 Clouds 10 1017 93 10000 1.03 0 21:31 30.08.2022
1991 Clouds 10 1017 87 9000 2.57 180 20:35 30.08.2022
1992 Rain 13 1015 88 9000 10.29 140 17:24 30.08.2022
1993 Clouds 13 1017 88 5000 12.35 120 14:19 30.08.2022
1994 Drizzle 14 1018 82 9000 13.38 130 12:25 30.08.2022
1995 Drizzle 13 1018 88 9000 13.38 140 11:20 30.08.2022
1996 Drizzle 13 1018 82 8000 12.86 140 10:20 30.08.2022
1997 Drizzle 13 1018 88 6000 11.32 130 06:49 30.08.2022
1998 Clouds 13 1019 82 10000 8.75 110 01:26 30.08.2022
1999 Clouds 15 1019 72 6000 10.29 120 22:44 29.08.2022
2000 Sand 15 1019 72 8000 10.8 120 21:55 29.08.2022
2001 Sand 15 1019 72 8000 10.8 120 21:23 29.08.2022
2002 Sand 15 1019 72 8000 10.8 120 21:23 29.08.2022
2003 Sand 16 1019 72 8000 11.32 120 19:41 29.08.2022
2004 Sand 14 1020 77 5000 12.35 120 17:39 29.08.2022
2005 Sand 14 1020 77 5000 12.35 120 17:18 29.08.2022
2006 Sand 15 1020 67 5000 12.35 120 15:38 29.08.2022
2007 Clouds 14 1020 62 10000 7.72 100 13:58 29.08.2022
2008 Clouds 13 1020 74 10000 10.8 120 12:32 29.08.2022
2009 Clouds 13 1020 67 10000 7.2 100 10:49 29.08.2022
2010 Clouds 11 1020 71 10000 7.2 90 09:30 29.08.2022
2011 Clouds 11 1021 71 10000 7.72 100 07:35 29.08.2022
2012 Clouds 11 1022 76 10000 6.69 120 02:34 29.08.2022
2013 Clouds 12 1023 71 10000 5.14 120 23:37 28.08.2022
2014 Clouds 12 1023 66 10000 5.66 150 21:57 28.08.2022
2015 Clouds 12 1023 66 10000 5.66 150 21:31 28.08.2022
2016 Clouds 13 1023 62 10000 7.2 130 20:24 28.08.2022
2017 Clouds 13 1023 62 10000 8.23 140 18:38 28.08.2022
2018 Clouds 13 1023 62 10000 8.23 140 18:18 28.08.2022
2019 Clouds 13 1023 62 10000 6.69 140 16:55 28.08.2022
2020 Clouds 13 1023 62 10000 8.75 150 15:42 28.08.2022
2021 Clouds 12 1023 66 10000 7.2 140 13:34 28.08.2022
2022 Clouds 12 1023 62 10000 7.2 130 12:20 28.08.2022
2023 Clouds 11 1023 66 10000 6.17 120 10:27 28.08.2022
2024 Clouds 10 1022 71 10000 5.66 110 09:38 28.08.2022
2025 Clouds 10 1022 76 10000 4.12 120 08:31 28.08.2022
2026 Clouds 11 1022 71 10000 5.14 120 07:34 28.08.2022
2027 Clear 11 1022 71 10000 4.12 120 01:28 28.08.2022
2028 Clear 11 1022 66 10000 3.6 120 00:20 28.08.2022
2029 Clear 12 1021 66 10000 3.6 170 22:27 27.08.2022
2030 Clear 15 1020 51 10000 5.14 160 20:53 27.08.2022
2031 Clear 15 1020 51 10000 5.14 190 19:38 27.08.2022
2032 Clear 16 1020 27 10000 4.12 140 16:37 27.08.2022
2033 Clear 16 1020 29 10000 3.6 120 15:31 27.08.2022
2034 Clear 15 1019 31 10000 3.6 100 14:18 27.08.2022
2035 Clear 12 1020 43 10000 3.6 30 12:22 27.08.2022
2036 Clear 8 1019 57 10000 2.06 80 10:33 27.08.2022
2037 Clear 5 1019 60 10000 2.06 110 09:40 27.08.2022
2038 Clear 5 1019 65 10000 0.51 0 06:55 27.08.2022
2039 Clear 6 1018 61 10000 1.54 220 02:31 27.08.2022
2040 Clear 11 1017 43 10000 6.69 10 23:51 26.08.2022
2041 Clear 11 1016 46 10000 8.23 360 22:24 26.08.2022
2042 Clear 13 1015 38 10000 7.72 360 20:25 26.08.2022
2043 Clear 14 1015 33 10000 8.75 20 18:59 26.08.2022
2044 Clear 13 1014 35 10000 9.77 20 16:46 26.08.2022
2045 Clear 13 1014 44 10000 9.26 10 15:27 26.08.2022
2046 Clear 12 1013 37 10000 9.26 10 13:44 26.08.2022
2047 Clear 11 1013 40 10000 11.32 10 12:35 26.08.2022
2048 Clear 10 1012 43 10000 11.83 20 11:22 26.08.2022
2049 Clear 9 1012 57 10000 7.72 350 10:25 26.08.2022
2050 Clear 7 1011 70 10000 3.6 10 06:50 26.08.2022
2051 Clouds 8 1010 71 10000 3.92 18 01:22 26.08.2022
2052 Clouds 11 1009 62 10000 4.12 10 23:29 25.08.2022
2053 Clouds 12 1009 62 10000 5.14 360 21:26 25.08.2022
2054 Clouds 12 1008 71 10000 5.66 330 20:21 25.08.2022
2055 Clouds 12 1008 66 10000 7.2 360 18:49 25.08.2022
2056 Clouds 13 1008 62 10000 7.2 360 17:32 25.08.2022
2057 Clouds 12 1008 66 10000 6.17 320 16:50 25.08.2022
2058 Clouds 12 1008 66 10000 6.17 320 16:50 25.08.2022
2059 Clouds 12 1008 66 10000 6.17 350 15:39 25.08.2022
2060 Clouds 12 1007 71 10000 6.69 350 14:31 25.08.2022
2061 Clouds 11 1007 71 10000 6.69 360 11:52 25.08.2022
2062 Clouds 10 1007 76 10000 6.17 350 10:46 25.08.2022
2063 Clouds 8 1007 87 10000 0.51 0 08:52 25.08.2022
2064 Clear 9 1007 81 10000 1.03 0 05:19 25.08.2022
2065 Clear 11 1007 87 10000 1.54 260 00:59 25.08.2022
2066 Clouds 12 1007 82 10000 2.57 200 23:26 24.08.2022
2067 Clouds 11 1008 87 10000 1.54 220 22:22 24.08.2022
2068 Clouds 12 1007 82 10000 2.06 270 21:34 24.08.2022
2069 Clouds 12 1007 76 10000 2.57 260 20:32 24.08.2022
2070 Clouds 13 1007 71 10000 2.57 280 18:46 24.08.2022
2071 Clouds 14 1007 67 10000 2.57 240 16:36 24.08.2022
2072 Clear 14 1007 58 10000 2.57 350 15:52 24.08.2022
2073 Clear 10 1007 76 10000 0.51 0 13:33 24.08.2022
2074 Clouds 8 1007 87 10000 1.03 0 11:24 24.08.2022
2075 Clear 5 1006 87 10000 1.54 180 09:33 24.08.2022
2076 Clouds 5 1006 87 10000 1.54 210 07:47 24.08.2022
2077 Clear 9 1008 76 10000 5.66 360 02:29 24.08.2022
2078 Clear 11 1008 71 10000 7.2 20 23:26 23.08.2022
2079 Clear 12 1008 66 10000 7.2 10 22:30 23.08.2022
2080 Clouds 13 1008 67 10000 7.72 10 21:29 23.08.2022
2081 Clouds 14 1008 58 10000 6.69 10 20:20 23.08.2022
2082 Clouds 15 1008 55 10000 7.2 20 18:44 23.08.2022
2083 Clouds 15 1009 55 10000 7.2 10 17:48 23.08.2022
2084 Clouds 15 1009 55 10000 4.63 360 16:53 23.08.2022
2085 Clouds 14 1009 67 10000 3.09 360 15:37 23.08.2022
2086 Clear 13 1010 67 10000 0 0 13:26 23.08.2022
2087 Clear 13 1010 67 10000 0 0 13:26 23.08.2022
2088 Clear 9 1010 87 10000 3.09 210 11:31 23.08.2022
2089 Clear 8 1010 93 10000 2.06 190 10:36 23.08.2022
2090 Clear 7 1010 93 10000 1.54 170 09:54 23.08.2022
2091 Clear 8 1010 87 10000 1.03 310 08:51 23.08.2022
2092 Clear 8 1010 87 10000 1.03 310 08:20 23.08.2022
2093 Clear 8 1010 87 10000 1.03 310 08:20 23.08.2022
2094 Clear 8 1010 93 10000 1.54 120 07:34 23.08.2022
2095 Clear 8 1010 93 10000 2.06 130 06:28 23.08.2022
2096 Clear 9 1010 90 10000 1.03 0 04:38 23.08.2022
2097 Clouds 11 1009 87 10000 1.03 0 00:28 23.08.2022
2098 Clouds 11 1008 87 10000 2.06 60 23:37 22.08.2022
2099 Rain 11 1008 82 10000 2.57 50 22:44 22.08.2022
2100 Clouds 12 1007 66 10000 1.03 0 21:29 22.08.2022
2101 Clouds 12 1007 66 10000 3.09 350 19:48 22.08.2022
2102 Clouds 13 1007 62 10000 2.57 130 18:50 22.08.2022
2103 Clouds 10 1008 78 10000 1.83 104 17:22 22.08.2022
2104 Clouds 13 1006 62 10000 3.09 110 15:39 22.08.2022
2105 Clouds 13 1006 58 10000 3.09 120 14:31 22.08.2022
2106 Clouds 10 1005 76 10000 3.09 80 10:43 22.08.2022
2107 Clouds 9 1005 81 10000 4.63 90 07:59 22.08.2022
2108 Clear 10 1005 71 10000 4.12 80 04:25 22.08.2022
2109 Clear 11 1005 62 10000 2.06 20 00:49 22.08.2022
2110 Clear 11 1005 62 10000 2.06 20 00:26 22.08.2022
2111 Clear 12 1005 54 10000 4.12 10 22:53 21.08.2022
2112 Clear 13 1005 50 10000 4.12 360 21:28 21.08.2022
2113 Clear 13 1005 50 10000 4.12 360 20:56 21.08.2022
2114 Clear 13 1005 47 10000 4.12 360 19:26 21.08.2022
2115 Clear 12 1006 59 10000 5.14 360 17:39 21.08.2022
2116 Clear 10 1007 57 10000 3.6 350 15:58 21.08.2022
2117 Clear 10 1007 57 10000 3.6 350 15:22 21.08.2022
2118 Clear 9 1007 66 10000 2.06 290 13:53 21.08.2022
2119 Clear 9 1007 66 10000 2.06 290 13:30 21.08.2022
2120 Clear 8 1007 66 10000 0.51 0 11:54 21.08.2022
2121 Clear 5 1008 75 10000 3.6 100 09:31 21.08.2022
2122 Clear 4 1008 81 10000 2.06 90 08:56 21.08.2022
2123 Clear 4 1008 81 10000 2.06 90 08:38 21.08.2022
2124 Clear 5 1007 81 10000 2.57 120 07:27 21.08.2022
2125 Clear 7 1007 76 10000 7.2 10 03:41 21.08.2022
2126 Clouds 8 1006 71 10000 10.8 360 00:24 21.08.2022
2127 Clouds 9 1006 66 10000 12.35 10 22:41 20.08.2022
2128 Clouds 10 1006 62 10000 10.8 10 21:38 20.08.2022
2129 Clouds 10 1005 62 10000 11.83 10 20:41 20.08.2022
2130 Clouds 10 1005 66 10000 12.86 360 19:41 20.08.2022
2131 Clouds 10 1004 66 10000 11.32 360 18:31 20.08.2022
2132 Clouds 11 1004 62 10000 9.26 10 17:51 20.08.2022
2133 Clouds 11 1004 62 10000 9.26 10 17:18 20.08.2022
2134 Clouds 10 1003 66 10000 6.69 320 15:37 20.08.2022
2135 Clouds 9 1002 66 10000 9.26 10 13:27 20.08.2022
2136 Clouds 9 1000 66 10000 9.77 10 11:52 20.08.2022
2137 Clouds 8 999 76 10000 7.72 360 09:43 20.08.2022
2138 Clouds 9 998 71 10000 11.32 360 08:50 20.08.2022
2139 Clouds 10 995 76 10000 7.2 350 05:57 20.08.2022
2140 Clouds 11 991 71 10000 7.72 20 01:46 20.08.2022
2141 Clouds 10 991 81 10000 7.72 10 00:35 20.08.2022
2142 Clouds 10 989 81 10000 10.29 10 23:19 19.08.2022
2143 Clouds 11 989 76 10000 9.77 10 22:33 19.08.2022
2144 Clouds 11 988 82 10000 6.69 20 20:28 19.08.2022
2145 Rain 11 987 87 10000 5.66 350 18:28 19.08.2022
2146 Clouds 13 986 67 10000 1.03 0 15:21 19.08.2022
2147 Clouds 10 986 76 10000 3.6 350 13:26 19.08.2022
2148 Clouds 9 986 87 10000 2.57 360 10:55 19.08.2022
2149 Clouds 9 986 87 10000 2.57 360 10:26 19.08.2022
2150 Clouds 10 986 76 10000 3.09 330 06:58 19.08.2022
2151 Clouds 11 987 76 10000 4.63 10 00:58 19.08.2022
2152 Clouds 11 987 76 10000 4.63 10 00:30 19.08.2022
2153 Rain 11 987 76 10000 1.54 10 23:44 18.08.2022
2154 Clouds 12 987 76 10000 5.14 350 22:50 18.08.2022
2155 Rain 12 986 71 10000 6.17 330 21:57 18.08.2022
2156 Clouds 12 986 71 10000 6.17 330 21:34 18.08.2022
2157 Clouds 13 986 71 10000 6.69 330 20:25 18.08.2022
2158 Clouds 12 987 76 10000 6.17 320 19:30 18.08.2022
2159 Clouds 13 987 67 10000 4.63 320 17:50 18.08.2022
2160 Clouds 13 988 62 10000 2.57 350 16:59 18.08.2022
2161 Clouds 13 988 62 10000 2.06 10 14:52 18.08.2022
2162 Clouds 13 988 62 10000 2.06 10 14:19 18.08.2022
2163 Clouds 12 989 62 10000 2.57 350 13:29 18.08.2022
2164 Clouds 11 989 71 10000 2.06 10 11:42 18.08.2022
2165 Clouds 8 990 87 10000 2.06 20 09:43 18.08.2022
2166 Clouds 8 990 81 10000 2.06 70 08:42 18.08.2022
2167 Clouds 8 990 87 10000 3.09 80 07:19 18.08.2022
2168 Clouds 9 991 87 10000 2.06 110 04:37 18.08.2022
2169 Clouds 10 993 81 10000 3.6 100 23:35 17.08.2022
2170 Clouds 10 993 81 10000 4.63 170 21:53 17.08.2022
2171 Rain 12 993 76 10000 6.69 150 20:20 17.08.2022
2172 Clouds 11 993 82 10000 5.14 150 19:29 17.08.2022
2173 Rain 11 993 87 3500 11.32 110 17:37 17.08.2022
2174 Mist 9 993 87 2500 11.32 90 16:39 17.08.2022
2175 Rain 10 993 81 10000 10.29 90 15:28 17.08.2022
2176 Clouds 10 996 81 10000 13.38 110 13:30 17.08.2022
2177 Clouds 10 999 87 10000 11.32 100 11:39 17.08.2022
2178 Clouds 10 1001 76 5000 10.29 100 09:59 17.08.2022
2179 Clouds 9 1003 81 6000 10.8 100 08:24 17.08.2022
2180 Clouds 11 1010 82 10000 4.12 110 03:39 17.08.2022
2181 Clouds 11 1013 76 10000 5.66 120 00:24 17.08.2022
2182 Clouds 11 1014 71 10000 4.12 120 22:42 16.08.2022
2183 Clouds 13 1014 47 10000 4.12 150 20:59 16.08.2022
2184 Clouds 13 1015 50 10000 2.06 0 19:54 16.08.2022
2185 Clouds 13 1015 50 10000 2.06 0 19:19 16.08.2022
2186 Clouds 13 1015 50 10000 2.06 320 17:54 16.08.2022
2187 Clouds 12 1016 58 10000 2.57 330 16:18 16.08.2022
2188 Clouds 12 1016 62 10000 2.57 290 15:39 16.08.2022
2189 Clouds 11 1017 66 10000 2.57 290 14:43 16.08.2022
2190 Clouds 11 1017 66 10000 2.57 290 14:25 16.08.2022
2191 Clear 10 1016 71 10000 1.03 0 11:39 16.08.2022
2192 Clear 6 1016 81 10000 2.06 140 09:58 16.08.2022
2193 Clouds 5 1016 87 10000 2.06 150 08:48 16.08.2022
2194 Clouds 5 1016 87 10000 2.06 150 08:19 16.08.2022
2195 Clear 5 1016 87 10000 2.06 150 05:28 16.08.2022
2196 Clouds 10 1015 66 10000 4.12 310 23:18 15.08.2022
2197 Clouds 10 1015 66 10000 5.66 310 22:18 15.08.2022
2198 Clouds 11 1015 62 10000 6.69 300 21:41 15.08.2022
2199 Clouds 11 1014 62 10000 6.69 300 20:30 15.08.2022
2200 Clouds 11 1014 62 10000 6.69 300 18:56 15.08.2022
2201 Clouds 10 1014 62 10000 5.66 330 17:59 15.08.2022
2202 Clouds 10 1014 62 10000 6.17 320 16:24 15.08.2022
2203 Clouds 10 1014 57 10000 5.66 350 14:49 15.08.2022
2204 Clouds 9 1014 57 10000 5.14 340 13:23 15.08.2022
2205 Clouds 8 1013 66 10000 5.66 10 10:37 15.08.2022
2206 Clouds 7 1013 70 10000 4.63 360 08:54 15.08.2022
2207 Clouds 7 1013 70 10000 4.12 360 06:49 15.08.2022
2208 Clear 8 1012 66 10000 5.66 350 03:56 15.08.2022
2209 Clear 10 1011 62 10000 5.14 360 23:38 14.08.2022
2210 Clear 10 1011 62 10000 5.14 360 23:38 14.08.2022
2211 Clouds 12 1010 54 10000 6.17 360 21:49 14.08.2022
2212 Clouds 13 1009 54 10000 6.69 360 20:54 14.08.2022
2213 Clouds 13 1009 54 10000 6.17 360 19:45 14.08.2022
2214 Clouds 13 1009 58 10000 5.66 330 18:32 14.08.2022
2215 Clouds 13 1008 58 10000 6.69 330 17:41 14.08.2022
2216 Clouds 13 1008 62 10000 6.17 310 16:26 14.08.2022
2217 Clouds 13 1008 54 10000 4.63 360 15:44 14.08.2022
2218 Clouds 11 1008 71 10000 5.14 330 13:52 14.08.2022
2219 Clouds 11 1008 71 10000 5.14 330 13:34 14.08.2022
2220 Clouds 11 1008 71 10000 4.12 320 12:54 14.08.2022
2221 Clouds 10 1008 76 10000 3.09 340 11:31 14.08.2022
2222 Clouds 9 1007 87 10000 0 0 10:18 14.08.2022
2223 Clouds 7 1007 87 10000 1.54 160 08:20 14.08.2022
2224 Clouds 9 1007 81 10000 0 0 06:18 14.08.2022
2225 Clouds 11 1008 66 10000 1.54 80 01:48 14.08.2022
2226 Clouds 11 1009 62 10000 2.57 130 23:23 13.08.2022
2227 Clouds 11 1009 66 10000 3.09 140 22:28 13.08.2022
2228 Clouds 12 1010 62 10000 5.14 160 20:58 13.08.2022
2229 Clouds 12 1010 58 10000 3.6 160 19:50 13.08.2022
2230 Clouds 12 1010 58 10000 3.6 160 19:19 13.08.2022
2231 Clouds 12 1011 58 10000 3.09 180 17:22 13.08.2022
2232 Clouds 12 1012 58 10000 3.09 180 15:18 13.08.2022
2233 Clouds 10 1013 62 10000 2.06 230 14:24 13.08.2022
2234 Clouds 10 1013 66 10000 1.54 200 13:37 13.08.2022
2235 Clouds 10 1013 66 10000 2.57 180 11:49 13.08.2022
2236 Clouds 9 1013 71 10000 1.54 150 09:43 13.08.2022
2237 Clouds 9 1013 71 10000 3.09 150 07:50 13.08.2022
2238 Clouds 9 1014 76 10000 1.54 280 02:33 13.08.2022
2239 Clouds 10 1013 76 10000 3.6 300 23:45 12.08.2022
2240 Clouds 11 1012 71 10000 4.63 270 21:40 12.08.2022
2241 Clouds 12 1012 66 10000 4.63 270 19:51 12.08.2022
2242 Clouds 12 1012 66 10000 4.63 270 19:26 12.08.2022
2243 Clouds 12 1011 71 10000 5.14 260 18:34 12.08.2022
2244 Clouds 12 1011 62 10000 3.09 250 16:28 12.08.2022
2245 Clouds 12 1010 66 10000 4.12 250 15:23 12.08.2022
2246 Clouds 11 1010 76 10000 4.63 250 14:27 12.08.2022
2247 Clouds 10 1009 87 10000 4.63 280 12:51 12.08.2022
2248 Clouds 10 1008 87 10000 3.09 210 09:50 12.08.2022
2249 Clouds 10 1007 93 10000 4.12 220 07:47 12.08.2022
2250 Clouds 10 1007 93 10000 5.66 210 06:28 12.08.2022
2251 Clouds 10 1007 81 10000 4.12 100 01:45 12.08.2022
2252 Clouds 10 1007 81 10000 4.12 90 00:20 12.08.2022
2253 Clouds 10 1008 76 10000 4.12 120 23:34 11.08.2022
2254 Rain 11 1008 71 10000 3.09 140 21:58 11.08.2022
2255 Clouds 11 1008 71 10000 3.09 140 21:35 11.08.2022
2256 Drizzle 10 1009 76 10000 4.63 160 20:32 11.08.2022
2257 Clouds 10 1009 76 10000 6.69 190 19:53 11.08.2022
2258 Clouds 10 1009 76 10000 6.69 190 19:30 11.08.2022
2259 Clouds 11 1009 76 10000 4.12 190 17:34 11.08.2022
2260 Clouds 11 1009 66 10000 5.14 200 16:32 11.08.2022
2261 Clouds 11 1009 71 10000 5.66 210 15:20 11.08.2022
2262 Clouds 11 1008 76 10000 3.6 210 12:39 11.08.2022
2263 Clouds 10 1008 81 10000 3.6 180 09:29 11.08.2022
2264 Clouds 9 1008 87 10000 3.6 200 06:59 11.08.2022
2265 Clouds 9 1007 87 10000 3.6 200 03:45 11.08.2022
2266 Clouds 10 1007 81 10000 5.14 200 00:35 11.08.2022
2267 Clouds 10 1006 87 10000 5.66 230 22:21 10.08.2022
2268 Clouds 10 1006 81 10000 3.6 230 21:20 10.08.2022
2269 Clouds 10 1005 81 10000 2.57 270 20:47 10.08.2022
2270 Clouds 11 1004 76 10000 4.12 230 18:55 10.08.2022
2271 Drizzle 10 1004 81 10000 5.14 250 17:37 10.08.2022
2272 Drizzle 10 1004 81 10000 5.14 250 16:33 10.08.2022
2273 Clouds 9 1001 81 10000 5.14 270 13:35 10.08.2022
2274 Drizzle 9 1001 81 10000 6.69 260 12:27 10.08.2022
2275 Clouds 9 999 81 10000 6.69 260 09:24 10.08.2022
2276 Clouds 9 998 87 10000 7.2 250 08:32 10.08.2022
2277 Clouds 9 997 92 10000 9.94 270 06:23 10.08.2022
2278 Drizzle 10 994 87 8000 9.77 260 03:24 10.08.2022
2279 Clouds 11 990 93 7000 9.26 190 23:34 09.08.2022
2280 Clouds 11 990 93 3000 7.72 190 22:56 09.08.2022
2281 Drizzle 12 990 87 2400 8.23 190 21:35 09.08.2022
2282 Clouds 12 990 87 10000 7.2 200 20:26 09.08.2022
2283 Clouds 13 991 82 10000 7.2 170 18:42 09.08.2022
2284 Clouds 12 991 89 10000 7.2 180 17:28 09.08.2022
2285 Clouds 12 991 89 10000 7.2 180 17:28 09.08.2022
2286 Drizzle 12 991 87 10000 6.17 180 16:40 09.08.2022
2287 Drizzle 12 991 87 10000 6.69 190 15:58 09.08.2022
2288 Clouds 13 990 88 10000 6.17 190 12:51 09.08.2022
2289 Clouds 12 991 87 9000 5.14 120 09:36 09.08.2022
2290 Clouds 12 992 87 9000 6.17 120 08:50 09.08.2022
2291 Clouds 12 992 82 10000 9.77 120 07:52 09.08.2022
2292 Clouds 11 997 87 10000 5.14 170 04:22 09.08.2022
2293 Drizzle 12 999 87 8000 6.69 180 23:27 08.08.2022
2294 Clouds 12 999 87 7000 6.69 190 22:54 08.08.2022
2295 Drizzle 12 999 87 5000 7.72 180 21:58 08.08.2022
2296 Drizzle 12 999 87 5000 7.72 180 21:18 08.08.2022
2297 Clouds 12 999 87 4000 10.29 180 19:51 08.08.2022
2298 Clouds 12 1000 87 4000 9.77 180 18:45 08.08.2022
2299 Clouds 12 1000 82 7000 8.75 170 16:44 08.08.2022
2300 Rain 11 1001 82 8000 7.72 160 15:40 08.08.2022
2301 Clouds 11 1002 76 10000 8.75 170 13:55 08.08.2022
2302 Clouds 11 1002 76 10000 8.75 170 12:19 08.08.2022
2303 Rain 10 1002 81 10000 6.69 170 09:48 08.08.2022
2304 Clouds 9 1001 87 10000 6.17 170 06:51 08.08.2022
2305 Clouds 11 1001 76 10000 6.69 190 02:56 08.08.2022
2306 Clouds 11 1000 82 10000 5.14 200 22:42 07.08.2022
2307 Clouds 11 1000 76 10000 4.63 220 21:40 07.08.2022
2308 Clouds 11 999 82 10000 6.17 240 20:26 07.08.2022
2309 Clouds 11 999 82 10000 7.2 240 19:57 07.08.2022
2310 Clouds 11 999 82 10000 7.2 240 19:39 07.08.2022
2311 Clouds 10 999 93 10000 7.2 230 18:35 07.08.2022
2312 Clouds 12 998 87 3500 5.66 220 16:54 07.08.2022
2313 Clouds 13 998 82 10000 7.72 150 16:35 07.08.2022
2314 Rain 13 998 76 10000 10.29 130 15:23 07.08.2022
2315 Clouds 12 999 76 10000 8.23 110 13:34 07.08.2022
2316 Rain 11 1002 82 10000 7.72 100 11:58 07.08.2022
2317 Clouds 11 1003 82 10000 5.14 110 10:34 07.08.2022
2318 Clouds 10 1005 81 10000 3.09 120 07:38 07.08.2022
2319 Clouds 10 1008 87 10000 2.57 180 03:32 07.08.2022
2320 Drizzle 10 1009 93 4500 5.14 230 01:45 07.08.2022
2321 Drizzle 11 1008 93 1000 3.09 240 22:25 06.08.2022
2322 Drizzle 12 1008 87 10000 3.6 250 21:18 06.08.2022
2323 Clouds 12 1007 87 10000 3.6 260 19:41 06.08.2022
2324 Clouds 13 1007 82 10000 3.09 280 18:33 06.08.2022
2325 Clouds 13 1006 82 10000 2.57 290 17:37 06.08.2022
2326 Clouds 13 1006 76 10000 1.03 0 14:52 06.08.2022
2327 Clouds 12 1006 87 10000 2.06 260 13:49 06.08.2022
2328 Clouds 12 1005 87 10000 2.06 280 12:19 06.08.2022
2329 Clouds 12 1004 87 10000 1.03 210 10:33 06.08.2022
2330 Clouds 11 1004 87 10000 2.06 230 09:21 06.08.2022
2331 Drizzle 12 1004 82 10000 6.17 90 03:55 06.08.2022
2332 Drizzle 12 1007 82 10000 4.63 110 23:56 05.08.2022
2333 Clouds 13 1008 71 10000 7.2 130 22:33 05.08.2022
2334 Clouds 13 1009 71 10000 8.23 150 20:30 05.08.2022
2335 Clouds 12 1010 82 10000 6.69 150 18:53 05.08.2022
2336 Clouds 12 1010 82 10000 6.69 150 18:35 05.08.2022
2337 Clouds 12 1012 76 10000 5.14 150 16:51 05.08.2022
2338 Clouds 12 1012 71 10000 4.12 180 15:23 05.08.2022
2339 Rain 13 1013 58 10000 4.12 180 14:34 05.08.2022
2340 Rain 13 1013 58 10000 4.12 180 14:34 05.08.2022
2341 Clear 12 1013 62 10000 3.09 220 13:26 05.08.2022
2342 Clouds 12 1014 66 10000 2.06 160 12:59 05.08.2022
2343 Clouds 10 1014 81 10000 2.57 120 11:20 05.08.2022
2344 Clouds 7 1015 87 10000 2.06 150 08:46 05.08.2022
2345 Clouds 7 1016 87 10000 2.06 130 07:34 05.08.2022
2346 Clear 10 1017 81 10000 3.6 300 02:33 05.08.2022
2347 Clear 12 1017 66 10000 4.63 320 23:18 04.08.2022
2348 Clouds 12 1018 71 10000 6.17 290 21:28 04.08.2022
2349 Clear 12 1018 66 10000 6.69 300 20:57 04.08.2022
2350 Clear 12 1018 66 10000 6.69 300 20:36 04.08.2022
2351 Clouds 12 1018 66 10000 6.69 300 18:59 04.08.2022
2352 Clouds 12 1018 66 10000 6.69 300 18:34 04.08.2022
2353 Clouds 11 1018 62 10000 6.17 320 15:53 04.08.2022
2354 Clouds 10 1018 62 10000 6.69 350 13:26 04.08.2022
2355 Clouds 10 1018 62 10000 6.69 350 13:26 04.08.2022
2356 Clouds 9 1017 66 10000 5.66 360 11:40 04.08.2022
2357 Clouds 8 1017 71 10000 6.69 360 10:22 04.08.2022
2358 Clouds 8 1017 71 10000 6.69 360 10:22 04.08.2022
2359 Clouds 8 1016 71 10000 5.66 10 07:47 04.08.2022
2360 Clouds 8 1014 71 10000 6.69 10 02:50 04.08.2022
2361 Clouds 9 1014 66 10000 4.63 10 00:52 04.08.2022
2362 Clouds 10 1013 66 10000 6.69 10 23:41 03.08.2022
2363 Clouds 11 1012 62 10000 4.12 360 21:34 03.08.2022
2364 Clouds 10 1012 76 10000 4.63 340 20:21 03.08.2022
2365 Clouds 11 1012 62 10000 4.63 360 19:27 03.08.2022
2366 Clouds 10 1011 68 10000 6.69 10 16:53 03.08.2022
2367 Clouds 10 1011 66 10000 6.69 10 16:23 03.08.2022
2368 Clouds 10 1010 62 10000 6.17 340 14:23 03.08.2022
2369 Clouds 10 1009 62 10000 6.69 350 11:46 03.08.2022
2370 Clouds 8 1008 71 10000 5.66 340 07:45 03.08.2022
2371 Clouds 9 1007 77 10000 5.14 360 04:22 03.08.2022
2372 Clouds 9 1007 71 10000 6.69 10 03:26 03.08.2022
2373 Clouds 9 1005 71 10000 6.17 360 00:58 03.08.2022
2374 Clouds 11 1005 66 10000 6.17 10 22:53 02.08.2022
2375 Clouds 11 1004 62 10000 9.26 360 21:53 02.08.2022
2376 Clouds 11 1004 62 10000 9.26 360 20:37 02.08.2022
2377 Clouds 12 1004 58 10000 7.72 360 18:42 02.08.2022
2378 Clouds 12 1004 66 10000 9.77 10 16:21 02.08.2022
2379 Clouds 10 1002 62 10000 7.72 20 11:45 02.08.2022
2380 Clouds 9 1002 66 10000 8.75 20 09:18 02.08.2022
2381 Clouds 8 1001 71 10000 10.29 10 07:53 02.08.2022
2382 Clouds 8 1002 71 10000 10.29 10 06:43 02.08.2022
2383 Clouds 8 1002 77 10000 5.14 350 04:55 02.08.2022
2384 Clouds 10 1003 66 10000 7.72 10 23:51 01.08.2022
2385 Clouds 11 1004 62 10000 7.72 10 22:25 01.08.2022
2386 Clouds 12 1004 58 10000 7.72 340 20:53 01.08.2022
2387 Clouds 11 1005 66 10000 7.72 330 19:32 01.08.2022
2388 Clouds 12 1005 54 10000 10.29 340 18:42 01.08.2022
2389 Clouds 11 1006 62 10000 8.75 340 16:54 01.08.2022
2390 Clouds 11 1006 62 10000 8.75 340 16:28 01.08.2022
2391 Clouds 11 1007 66 10000 7.72 340 15:30 01.08.2022
2392 Clouds 11 1007 62 10000 6.69 340 14:43 01.08.2022
2393 Clouds 11 1008 66 10000 7.2 340 12:47 01.08.2022
2394 Clouds 9 1008 71 10000 5.66 340 10:22 01.08.2022
2395 Clouds 9 1008 76 10000 7.2 340 08:34 01.08.2022
2396 Clouds 9 1008 83 10000 3.6 320 04:56 01.08.2022
2397 Clouds 9 1008 83 10000 3.6 320 04:20 01.08.2022
2398 Clouds 10 1008 76 10000 6.69 300 00:49 01.08.2022
2399 Clear 11 1008 71 10000 8.75 300 22:41 31.07.2022
2400 Clouds 11 1008 66 10000 8.75 300 21:33 31.07.2022
2401 Clouds 12 1007 71 10000 8.75 300 19:56 31.07.2022
2402 Clouds 12 1007 71 10000 7.72 290 18:36 31.07.2022
2403 Clouds 12 1007 66 10000 5.66 290 15:54 31.07.2022
2404 Clouds 10 1008 71 10000 5.14 290 13:51 31.07.2022
2405 Clouds 10 1007 76 10000 5.14 290 12:28 31.07.2022
2406 Clouds 10 1007 76 10000 4.12 280 09:55 31.07.2022
2407 Clouds 9 1008 81 10000 3.6 290 08:18 31.07.2022
2408 Clouds 9 1009 71 10000 6.69 310 03:49 31.07.2022
2409 Clouds 11 1008 66 10000 6.17 290 23:53 30.07.2022
2410 Clouds 11 1008 71 10000 6.17 280 22:19 30.07.2022
2411 Clouds 11 1008 71 10000 6.17 280 22:19 30.07.2022
2412 Clouds 11 1008 71 10000 6.17 290 21:50 30.07.2022
2413 Clouds 12 1008 66 10000 6.17 290 20:58 30.07.2022
2414 Clouds 11 1008 71 10000 5.66 280 19:59 30.07.2022
2415 Clouds 11 1008 71 10000 5.66 280 19:20 30.07.2022
2416 Clouds 11 1008 71 10000 6.17 280 17:45 30.07.2022
2417 Clouds 12 1008 62 10000 5.14 290 15:55 30.07.2022
2418 Clouds 12 1008 62 10000 5.14 290 15:25 30.07.2022
2419 Clouds 10 1008 66 10000 4.12 290 13:21 30.07.2022
2420 Clouds 10 1008 62 10000 4.12 310 12:20 30.07.2022
2421 Clouds 9 1007 61 10000 3.6 330 10:36 30.07.2022
2422 Clouds 9 1006 66 10000 4.12 360 09:57 30.07.2022
2423 Clouds 7 1006 70 10000 3.09 350 07:55 30.07.2022
2424 Clouds 7 1006 70 10000 5.66 360 05:29 30.07.2022
2425 Clouds 8 1004 75 10000 7.2 360 02:31 30.07.2022
2426 Clouds 12 1003 62 10000 8.23 360 22:57 29.07.2022
2427 Clouds 13 1002 58 10000 8.75 360 21:30 29.07.2022
2428 Clouds 13 1002 58 10000 8.75 340 20:50 29.07.2022
2429 Clouds 13 1002 58 10000 6.17 350 19:29 29.07.2022
2430 Clouds 12 1003 62 10000 6.17 360 16:44 29.07.2022
2431 Clouds 11 1003 62 10000 6.17 10 14:23 29.07.2022
2432 Clouds 10 1003 76 10000 1.54 360 12:32 29.07.2022
2433 Clouds 9 1003 87 10000 1.03 360 08:51 29.07.2022
2434 Clouds 9 1003 87 10000 1.03 360 08:22 29.07.2022
2435 Clouds 8 1003 87 10000 4.63 280 04:39 29.07.2022
2436 Clouds 9 1003 81 10000 5.14 250 23:46 28.07.2022
2437 Clouds 9 1003 87 10000 5.14 250 21:38 28.07.2022
2438 Clouds 9 1003 81 10000 4.12 250 20:50 28.07.2022
2439 Clouds 9 1003 81 10000 4.12 250 20:18 28.07.2022
2440 Clouds 9 1002 87 10000 4.12 250 19:40 28.07.2022
2441 Clouds 11 1002 71 10000 6.17 200 17:46 28.07.2022
2442 Clouds 11 1002 71 10000 6.17 200 17:23 28.07.2022
2443 Clouds 11 1002 71 10000 7.2 200 16:40 28.07.2022
2444 Clouds 10 1001 76 10000 7.72 200 13:57 28.07.2022
2445 Clouds 9 1001 81 10000 7.2 190 12:40 28.07.2022
2446 Clouds 9 999 81 10000 7.2 200 08:49 28.07.2022
2447 Clouds 10 1000 81 10000 7.2 200 05:41 28.07.2022
2448 Clouds 10 1000 81 10000 7.2 200 05:20 28.07.2022
2449 Clouds 11 999 87 10000 5.66 200 23:41 27.07.2022
2450 Clouds 12 998 82 10000 6.69 210 21:31 27.07.2022
2451 Clouds 12 998 82 10000 6.69 210 21:31 27.07.2022
2452 Clouds 12 998 87 10000 7.2 210 20:19 27.07.2022
2453 Clouds 12 997 87 10000 6.69 200 19:26 27.07.2022
2454 Clouds 12 998 87 8000 6.17 200 16:32 27.07.2022
2455 Drizzle 13 998 88 10000 7.2 200 15:51 27.07.2022
2456 Clouds 13 998 88 10000 6.69 190 14:42 27.07.2022
2457 Clouds 13 999 88 10000 7.2 180 13:57 27.07.2022
2458 Clouds 13 999 88 10000 6.69 170 11:18 27.07.2022
2459 Clouds 13 1001 88 5000 4.63 170 07:53 27.07.2022
2460 Drizzle 13 1003 88 10000 5.14 170 05:18 27.07.2022
2461 Clouds 12 1007 87 10000 5.14 100 23:29 26.07.2022
2462 Clouds 12 1007 87 6000 5.66 90 22:20 26.07.2022
2463 Rain 12 1008 82 7000 4.63 90 21:18 26.07.2022
2464 Rain 12 1009 87 9000 4.63 120 19:39 26.07.2022
2465 Rain 13 1010 71 10000 6.17 130 18:41 26.07.2022
2466 Clouds 13 1011 71 10000 6.17 130 17:55 26.07.2022
2467 Clouds 14 1011 62 10000 6.17 140 15:47 26.07.2022
2468 Clouds 13 1012 71 10000 4.12 130 14:43 26.07.2022
2469 Clouds 11 1012 87 10000 2.06 100 12:35 26.07.2022
2470 Clouds 11 1013 87 10000 2.57 120 10:35 26.07.2022
2471 Drizzle 10 1013 87 10000 3.09 110 08:29 26.07.2022
2472 Clouds 10 1014 81 10000 3.09 210 02:25 26.07.2022
2473 Clouds 11 1014 82 10000 4.63 240 00:22 26.07.2022
2474 Clouds 12 1014 66 10000 4.63 220 22:41 25.07.2022
2475 Clouds 12 1014 66 10000 4.63 220 22:21 25.07.2022
2476 Clouds 11 1013 82 10000 0 0 21:31 25.07.2022
2477 Clouds 11 1013 76 10000 1.54 340 20:39 25.07.2022
2478 Clouds 12 1013 71 10000 0 0 19:25 25.07.2022
2479 Clouds 11 1014 76 10000 3.09 300 18:18 25.07.2022
2480 Clouds 11 1014 76 10000 3.09 300 18:18 25.07.2022
2481 Clouds 11 1014 71 10000 1.54 300 17:24 25.07.2022
2482 Clouds 11 1014 76 10000 2.06 300 14:19 25.07.2022
2483 Clouds 10 1014 81 10000 3.09 230 10:56 25.07.2022
2484 Clouds 9 1013 93 10000 3.09 200 08:22 25.07.2022
2485 Clouds 11 1014 66 10000 1.54 270 01:49 25.07.2022
2486 Clouds 11 1014 66 10000 3.6 280 23:49 24.07.2022
2487 Clouds 11 1014 76 10000 4.12 280 22:51 24.07.2022
2488 Clouds 11 1014 76 10000 4.12 280 22:24 24.07.2022
2489 Clouds 12 1014 76 10000 4.12 280 21:18 24.07.2022
2490 Clouds 12 1014 71 10000 4.63 300 20:45 24.07.2022
2491 Clouds 12 1014 71 10000 5.14 290 19:37 24.07.2022
2492 Clouds 13 1014 71 10000 5.14 300 18:27 24.07.2022
2493 Clouds 14 1014 72 10000 2.06 270 15:57 24.07.2022
2494 Clouds 14 1014 72 10000 2.06 270 15:32 24.07.2022
2495 Clouds 12 1014 76 10000 2.57 190 13:51 24.07.2022
2496 Clouds 11 1014 82 10000 2.06 210 12:50 24.07.2022
2497 Clouds 11 1014 82 10000 1.03 0 11:35 24.07.2022
2498 Clouds 10 1014 87 10000 1.03 160 10:48 24.07.2022
2499 Clouds 10 1014 87 10000 1.54 220 08:30 24.07.2022
2500 Clouds 10 1014 87 10000 2.06 180 07:46 24.07.2022
2501 Clouds 9 1015 93 10000 0 0 03:57 24.07.2022
2502 Clouds 10 1015 87 10000 2.57 300 23:48 23.07.2022
2503 Clouds 13 1015 76 10000 5.66 300 20:51 23.07.2022
2504 Clouds 12 1015 82 10000 5.14 290 19:31 23.07.2022
2505 Clouds 13 1015 76 10000 4.12 290 18:50 23.07.2022
2506 Clouds 13 1016 82 10000 4.63 300 17:28 23.07.2022
2507 Clouds 12 1016 82 10000 3.6 300 16:30 23.07.2022
2508 Clouds 12 1016 82 10000 3.6 290 15:22 23.07.2022
2509 Clouds 12 1017 87 10000 3.09 270 14:56 23.07.2022
2510 Clouds 12 1017 87 10000 3.09 270 14:24 23.07.2022
2511 Clouds 12 1017 87 10000 3.09 270 14:24 23.07.2022
2512 Clouds 11 1017 93 10000 3.09 290 12:44 23.07.2022
2513 Clouds 11 1017 87 10000 2.57 250 10:45 23.07.2022
2514 Clouds 11 1017 93 10000 2.06 260 09:54 23.07.2022
2515 Clouds 11 1017 87 10000 2.57 270 08:30 23.07.2022
2516 Clouds 11 1018 87 10000 2.57 210 03:38 23.07.2022
2517 Drizzle 12 1018 87 3000 2.06 270 00:41 23.07.2022
2518 Clouds 13 1018 90 10000 1.54 280 22:19 22.07.2022
2519 Drizzle 13 1018 88 10000 2.06 300 20:39 22.07.2022
2520 Drizzle 12 1018 87 10000 2.57 40 19:32 22.07.2022
2521 Clouds 14 1018 87 10000 1.51 116 18:23 22.07.2022
2522 Drizzle 13 1018 82 10000 2.06 250 16:47 22.07.2022
2523 Clouds 14 1018 77 10000 1.03 0 14:40 22.07.2022
2524 Clouds 12 1018 82 10000 3.6 80 10:59 22.07.2022
2525 Clouds 12 1018 82 10000 3.09 70 09:25 22.07.2022
2526 Clouds 11 1018 87 10000 3.09 70 08:27 22.07.2022
2527 Clouds 12 1019 91 10000 1.03 0 04:48 22.07.2022
2528 Clouds 12 1020 82 10000 2.06 210 00:40 22.07.2022
2529 Clouds 13 1019 76 10000 3.09 230 22:25 21.07.2022
2530 Clouds 13 1019 76 10000 4.12 220 20:48 21.07.2022
2531 Clouds 14 1019 77 10000 4.63 220 19:26 21.07.2022
2532 Clouds 12 1020 87 10000 3.09 280 17:39 21.07.2022
2533 Clouds 12 1020 87 10000 3.09 280 17:19 21.07.2022
2534 Clouds 13 1020 71 10000 3.09 180 14:55 21.07.2022
2535 Clouds 13 1020 71 10000 3.09 180 14:29 21.07.2022
2536 Clear 12 1020 66 10000 2.57 150 12:28 21.07.2022
2537 Clouds 10 1020 81 10000 2.06 180 10:56 21.07.2022
2538 Clouds 10 1020 87 10000 2.06 200 09:33 21.07.2022
2539 Clouds 10 1020 81 10000 2.06 200 08:50 21.07.2022
2540 Clouds 10 1020 81 10000 2.57 230 07:42 21.07.2022
2541 Clouds 10 1020 86 10000 3.6 240 04:46 21.07.2022
2542 Clouds 11 1018 87 10000 3.6 240 00:36 21.07.2022
2543 Clouds 11 1018 87 10000 5.66 290 22:22 20.07.2022
2544 Clouds 12 1017 82 10000 8.23 300 20:55 20.07.2022
2545 Clear 13 1016 76 10000 8.23 300 19:52 20.07.2022
2546 Clear 13 1016 76 10000 8.23 300 19:24 20.07.2022
2547 Clear 14 1016 72 10000 7.72 300 18:34 20.07.2022
2548 Clouds 14 1016 67 10000 6.69 310 17:59 20.07.2022
2549 Clouds 14 1015 62 10000 5.66 340 16:45 20.07.2022
2550 Clouds 14 1015 62 10000 6.17 340 15:31 20.07.2022
2551 Clouds 13 1014 67 10000 7.2 350 14:20 20.07.2022
2552 Clouds 13 1014 67 10000 7.2 350 14:20 20.07.2022
2553 Clouds 12 1013 66 10000 7.72 10 11:34 20.07.2022
2554 Clear 11 1011 76 10000 3.6 20 08:50 20.07.2022
2555 Clear 12 1008 76 10000 5.14 350 03:49 20.07.2022
2556 Clear 14 1006 72 10000 3.09 340 00:51 20.07.2022
2557 Clear 13 1006 76 10000 4.12 300 23:41 19.07.2022
2558 Clouds 13 1006 71 10000 4.63 300 22:33 19.07.2022
2559 Clouds 13 1006 76 10000 2.57 290 21:35 19.07.2022
2560 Clouds 13 1006 71 10000 4.12 310 20:33 19.07.2022
2561 Clouds 13 1005 76 10000 5.66 300 18:58 19.07.2022
2562 Clouds 13 1005 76 10000 5.66 300 18:28 19.07.2022
2563 Clouds 13 1005 82 10000 4.63 290 17:46 19.07.2022
2564 Clouds 13 1005 71 10000 2.06 350 14:57 19.07.2022
2565 Clouds 12 1005 76 10000 3.09 350 11:44 19.07.2022
2566 Clouds 11 1006 89 10000 2.47 359 11:18 19.07.2022
2567 Clouds 11 1005 82 10000 1.03 0 09:26 19.07.2022
2568 Clouds 11 1005 76 10000 3.6 60 08:39 19.07.2022
2569 Rain 10 1005 81 10000 3.6 80 07:19 19.07.2022
2570 Drizzle 11 1006 82 10000 3.09 70 05:48 19.07.2022
2571 Clouds 10 1006 91 10000 2.06 50 04:58 19.07.2022
2572 Rain 12 1007 76 10000 1.03 0 01:58 19.07.2022
2573 Clouds 13 1007 62 10000 2.06 150 23:50 18.07.2022
2574 Clouds 13 1007 62 10000 2.06 150 23:19 18.07.2022
2575 Clouds 13 1007 67 10000 2.06 110 22:23 18.07.2022
2576 Clouds 12 1008 76 10000 2.06 320 20:57 18.07.2022
2577 Clouds 12 1008 76 10000 2.06 320 19:52 18.07.2022
2578 Clouds 13 1008 67 10000 2.57 350 17:53 18.07.2022
2579 Clouds 12 1009 71 10000 2.06 340 16:28 18.07.2022
2580 Clouds 12 1009 71 10000 3.09 340 15:19 18.07.2022
2581 Clouds 12 1009 71 10000 3.09 140 13:31 18.07.2022
2582 Clouds 11 1009 66 10000 1.03 0 11:31 18.07.2022
2583 Clouds 10 1008 76 10000 2.06 100 09:54 18.07.2022
2584 Clouds 10 1008 76 10000 1.54 180 07:49 18.07.2022
2585 Clouds 10 1008 81 10000 2.57 230 02:51 18.07.2022
2586 Clouds 11 1007 76 10000 2.06 260 22:56 17.07.2022
2587 Clouds 11 1007 76 10000 2.06 260 22:29 17.07.2022
2588 Clouds 11 1006 76 10000 1.54 280 21:35 17.07.2022
2589 Clouds 11 1006 76 10000 2.57 300 20:45 17.07.2022
2590 Clouds 11 1006 76 10000 3.6 270 19:49 17.07.2022
2591 Clouds 11 1006 76 10000 3.6 270 19:20 17.07.2022
2592 Clouds 12 1005 76 10000 5.14 290 17:43 17.07.2022
2593 Clouds 12 1005 76 10000 5.14 290 17:25 17.07.2022
2594 Clouds 12 1005 76 10000 4.63 290 16:32 17.07.2022
2595 Clouds 12 1005 76 10000 3.6 280 15:49 17.07.2022
2596 Clouds 11 1004 82 10000 2.57 290 13:51 17.07.2022
2597 Clouds 11 1004 82 10000 3.09 300 12:43 17.07.2022
2598 Clouds 10 1003 87 10000 4.12 300 10:20 17.07.2022
2599 Clouds 9 1001 93 10000 1.54 140 06:59 17.07.2022
2600 Clouds 10 1001 81 10000 1.54 100 02:35 17.07.2022
2601 Clouds 11 1000 76 10000 2.06 100 23:28 16.07.2022
2602 Clouds 11 1000 71 10000 3.09 150 22:33 16.07.2022
2603 Clouds 12 1000 66 10000 3.09 170 20:40 16.07.2022
2604 Clouds 13 1000 67 10000 5.66 110 18:58 16.07.2022
2605 Clouds 13 1000 62 10000 6.17 130 17:47 16.07.2022
2606 Clouds 12 1002 71 10000 5.66 150 15:54 16.07.2022
2607 Clouds 11 1002 82 10000 3.6 180 13:26 16.07.2022
2608 Clouds 12 1002 82 10000 5.66 120 10:29 16.07.2022
2609 Clouds 12 1002 82 10000 7.72 100 09:26 16.07.2022
2610 Clouds 11 1003 82 10000 5.14 80 08:41 16.07.2022
2611 Clouds 11 1003 82 10000 6.69 90 07:23 16.07.2022
2612 Clouds 11 1006 82 9000 6.17 90 03:35 16.07.2022
2613 Clouds 11 1008 82 10000 7.72 110 00:48 16.07.2022
2614 Clouds 11 1010 82 10000 6.17 110 22:57 15.07.2022
2615 Clouds 11 1010 82 10000 6.17 110 22:26 15.07.2022
2616 Clouds 11 1011 76 10000 5.66 90 20:44 15.07.2022
2617 Clouds 11 1012 82 10000 7.2 100 19:34 15.07.2022
2618 Clouds 12 1012 71 10000 7.2 100 18:23 15.07.2022
2619 Clouds 12 1013 76 10000 5.66 110 17:19 15.07.2022
2620 Clouds 12 1014 66 10000 6.17 130 14:19 15.07.2022
2621 Clouds 12 1015 62 10000 5.66 130 12:37 15.07.2022
2622 Clouds 10 1015 71 10000 1.03 0 10:52 15.07.2022
2623 Clear 8 1015 87 10000 2.06 100 07:55 15.07.2022
2624 Clouds 8 1015 81 10000 1.54 110 04:54 15.07.2022
2625 Clouds 10 1015 76 10000 1.54 350 00:43 15.07.2022
2626 Clouds 11 1014 71 10000 2.06 300 23:25 14.07.2022
2627 Clouds 11 1014 71 10000 3.09 290 22:32 14.07.2022
2628 Clouds 11 1014 71 10000 3.09 300 21:41 14.07.2022
2629 Clouds 11 1014 71 10000 3.09 300 21:22 14.07.2022
2630 Clouds 11 1013 71 10000 2.57 290 20:43 14.07.2022
2631 Clouds 11 1013 71 10000 2.57 290 20:19 14.07.2022
2632 Clouds 11 1013 71 10000 3.6 290 18:38 14.07.2022
2633 Clouds 11 1012 66 10000 3.09 300 16:20 14.07.2022
2634 Clouds 11 1012 71 10000 2.06 280 15:26 14.07.2022
2635 Clouds 10 1011 76 10000 3.09 280 13:52 14.07.2022
2636 Clouds 10 1011 76 10000 3.6 250 12:39 14.07.2022
2637 Clouds 10 1011 81 10000 4.12 220 11:28 14.07.2022
2638 Drizzle 9 1011 87 10000 3.09 220 10:58 14.07.2022
2639 Clouds 8 1010 93 10000 4.12 230 09:29 14.07.2022
2640 Clouds 8 1009 87 10000 3.09 190 05:18 14.07.2022
2641 Clouds 8 1009 87 10000 6.17 200 01:22 14.07.2022
2642 Clouds 8 1009 87 10000 6.17 200 01:22 14.07.2022
2643 Clouds 9 1009 81 3200 6.17 200 00:52 14.07.2022
2644 Clouds 10 1009 71 10000 4.12 240 22:32 13.07.2022
2645 Clouds 10 1009 76 10000 7.2 230 21:51 13.07.2022
2646 Clouds 11 1008 66 10000 6.69 230 20:44 13.07.2022
2647 Clouds 11 1009 71 10000 3.09 280 18:48 13.07.2022
2648 Clouds 11 1009 71 10000 2.06 290 17:35 13.07.2022
2649 Clouds 11 1009 71 10000 4.63 270 16:23 13.07.2022
2650 Clouds 11 1009 66 10000 3.6 270 15:24 13.07.2022
2651 Clouds 10 1009 62 10000 3.09 290 12:39 13.07.2022
2652 Clear 9 1009 61 10000 3.6 340 10:45 13.07.2022
2653 Clear 9 1008 66 10000 3.6 350 09:57 13.07.2022
2654 Clear 9 1008 66 10000 3.6 350 09:21 13.07.2022
2655 Clouds 8 1008 66 10000 3.09 330 05:52 13.07.2022
2656 Clouds 9 1005 66 10000 4.63 20 01:27 13.07.2022
2657 Clouds 11 1004 58 10000 5.14 10 23:42 12.07.2022
2658 Clouds 11 1002 66 10000 6.69 360 21:55 12.07.2022
2659 Clouds 11 1002 66 10000 6.69 360 21:19 12.07.2022
2660 Clouds 12 1001 62 10000 6.17 350 20:41 12.07.2022
2661 Clouds 13 1001 58 10000 6.69 360 19:25 12.07.2022
2662 Clouds 12 1000 62 10000 6.69 350 17:49 12.07.2022
2663 Clouds 11 999 66 10000 8.75 360 15:57 12.07.2022
2664 Clouds 11 998 66 10000 9.26 350 14:30 12.07.2022
2665 Clouds 11 997 66 10000 8.23 10 12:29 12.07.2022
2666 Clouds 10 996 71 10000 9.26 20 11:22 12.07.2022
2667 Clouds 10 994 76 10000 3.09 300 09:38 12.07.2022
2668 Clouds 9 993 81 10000 9.26 350 08:23 12.07.2022
2669 Clouds 11 992 76 10000 0.51 0 06:49 12.07.2022
2670 Clouds 11 992 82 10000 1.54 140 05:42 12.07.2022
2671 Clouds 13 991 76 10000 4.63 320 02:32 12.07.2022
2672 Clouds 13 990 82 10000 5.66 330 23:30 11.07.2022
2673 Clouds 12 991 82 10000 6.69 320 22:31 11.07.2022
2674 Clouds 12 992 82 10000 7.2 340 20:41 11.07.2022
2675 Clouds 12 993 82 10000 6.17 320 19:44 11.07.2022
2676 Clouds 12 993 82 10000 6.17 340 18:32 11.07.2022
2677 Clouds 13 994 76 10000 3.09 360 17:49 11.07.2022
2678 Clouds 14 995 62 10000 2.57 100 16:21 11.07.2022
2679 Clouds 13 996 71 10000 5.14 120 14:49 11.07.2022
2680 Clouds 11 998 82 10000 5.14 120 11:59 11.07.2022
2681 Clouds 11 998 82 10000 5.14 150 10:37 11.07.2022
2682 Clouds 11 998 82 10000 4.63 130 09:49 11.07.2022
2683 Clouds 10 999 87 10000 1.54 140 08:34 11.07.2022
2684 Drizzle 10 999 93 10000 2.57 170 07:24 11.07.2022
2685 Clouds 12 1000 76 10000 2.57 150 00:24 11.07.2022
2686 Clouds 11 1000 82 10000 4.63 180 23:48 10.07.2022
2687 Clouds 12 1000 76 10000 3.6 180 22:26 10.07.2022
2688 Clouds 12 1000 76 10000 4.12 190 20:55 10.07.2022
2689 Drizzle 12 1000 82 10000 5.66 200 19:55 10.07.2022
2690 Drizzle 12 1000 82 10000 5.66 200 19:20 10.07.2022
2691 Clouds 13 1000 76 10000 5.66 210 17:51 10.07.2022
2692 Clouds 12 1001 87 10000 3.09 310 16:59 10.07.2022
2693 Clouds 12 1001 87 10000 3.09 310 16:20 10.07.2022
2694 Clouds 14 1001 72 10000 6.17 160 14:43 10.07.2022
2695 Clouds 12 1003 76 10000 5.66 160 12:42 10.07.2022
2696 Clouds 11 1004 82 10000 4.63 160 11:36 10.07.2022
2697 Clouds 11 1005 82 10000 6.17 140 09:44 10.07.2022
2698 Clouds 10 1006 87 10000 4.12 170 08:43 10.07.2022
2699 Drizzle 10 1007 87 10000 5.14 160 06:36 10.07.2022
2700 Drizzle 13 1009 82 6000 8.23 170 23:44 09.07.2022
2701 Clouds 14 1009 77 10000 6.69 140 22:26 09.07.2022
2702 Clouds 14 1009 77 10000 6.17 140 21:40 09.07.2022
2703 Clouds 14 1010 77 10000 8.23 150 19:44 09.07.2022
2704 Clouds 14 1011 77 10000 8.23 140 18:26 09.07.2022
2705 Clouds 15 1011 72 10000 10.29 140 17:27 09.07.2022
2706 Clouds 13 1011 76 10000 7.72 130 16:25 09.07.2022
2707 Clouds 12 1012 87 10000 8.23 120 15:38 09.07.2022
2708 Clouds 13 1011 76 10000 9.26 110 14:22 09.07.2022
2709 Clouds 13 1012 71 10000 10.29 120 13:48 09.07.2022
2710 Drizzle 11 1013 82 10000 7.72 90 11:54 09.07.2022
2711 Drizzle 10 1014 81 10000 6.17 90 10:27 09.07.2022
2712 Clouds 9 1015 87 10000 5.66 90 09:56 09.07.2022
2713 Rain 9 1016 81 9000 4.63 90 07:44 09.07.2022
2714 Clouds 9 1019 82 10000 4.12 130 04:45 09.07.2022
2715 Clouds 11 1021 71 10000 1.54 270 23:43 08.07.2022
2716 Clouds 11 1021 66 10000 2.06 300 22:34 08.07.2022
2717 Clouds 11 1022 71 10000 2.57 290 21:27 08.07.2022
2718 Clouds 11 1021 71 10000 3.09 280 20:38 08.07.2022
2719 Clouds 11 1021 76 10000 3.6 280 19:38 08.07.2022
2720 Clouds 11 1021 71 10000 5.14 300 17:56 08.07.2022
2721 Clouds 12 1021 66 10000 5.66 290 16:33 08.07.2022
2722 Clouds 11 1019 71 10000 6.69 310 14:51 08.07.2022
2723 Drizzle 10 1018 81 10000 7.2 310 12:42 08.07.2022
2724 Clouds 9 1017 88 10000 8.23 290 10:52 08.07.2022
2725 Clouds 9 1016 81 10000 8.23 290 10:21 08.07.2022
2726 Clouds 9 1013 87 10000 7.2 270 07:55 08.07.2022
2727 Clouds 9 1013 93 10000 7.72 250 06:23 08.07.2022
2728 Drizzle 9 1012 93 4200 9.77 240 01:19 08.07.2022
2729 Mist 10 1012 81 10000 8.75 250 22:57 07.07.2022
2730 Clouds 10 1012 87 8000 9.26 230 21:57 07.07.2022
2731 Drizzle 10 1011 87 6000 10.8 240 19:47 07.07.2022
2732 Clouds 10 1010 93 6000 11.32 250 17:56 07.07.2022
2733 Clouds 11 1010 87 7000 12.86 240 16:32 07.07.2022
2734 Drizzle 10 1007 93 2000 14.4 230 14:21 07.07.2022
2735 Drizzle 11 1005 82 4500 14.4 230 12:46 07.07.2022
2736 Clouds 10 1006 92 10000 14.94 233 12:23 07.07.2022
2737 Clouds 10 1004 87 3000 14.92 230 11:34 07.07.2022
2738 Clouds 10 1003 93 2300 13.38 220 10:46 07.07.2022
2739 Clouds 10 1003 93 2300 13.38 220 10:28 07.07.2022
2740 Drizzle 10 1002 93 2000 12.35 210 09:32 07.07.2022
2741 Drizzle 10 1003 87 8000 9.77 190 06:31 07.07.2022
2742 Clouds 11 1010 93 3174 10.28 134 00:28 07.07.2022
2743 Rain 11 1010 93 3174 10.28 134 23:36 06.07.2022
2744 Clouds 11 1011 93 3384 8.86 131 23:18 06.07.2022
2745 Clouds 13 1012 82 10000 6.17 120 22:52 06.07.2022
2746 Clouds 13 1012 82 10000 6.17 120 22:33 06.07.2022
2747 Clouds 13 1015 76 10000 5.66 160 20:23 06.07.2022
2748 Clouds 15 1015 67 10000 5.66 190 19:22 06.07.2022
2749 Clouds 15 1016 72 10000 4.12 200 17:21 06.07.2022
2750 Drizzle 13 1016 82 10000 3.09 250 15:57 06.07.2022
2751 Clouds 13 1015 76 10000 3.09 260 12:44 06.07.2022
2752 Clouds 13 1015 76 10000 3.09 260 12:21 06.07.2022
2753 Clouds 12 1014 82 10000 3.6 200 10:55 06.07.2022
2754 Clouds 12 1013 87 10000 4.12 210 09:27 06.07.2022
2755 Clouds 12 1013 87 10000 4.12 210 09:27 06.07.2022
2756 Clouds 11 1011 93 10000 3.6 200 07:44 06.07.2022
2757 Clouds 11 1011 93 10000 3.09 220 06:49 06.07.2022
2758 Clouds 12 1006 87 10000 3.09 80 00:38 06.07.2022
2759 Clouds 12 1006 87 10000 3.09 70 22:43 05.07.2022
2760 Rain 14 1007 72 10000 2.06 260 20:57 05.07.2022
2761 Rain 14 1007 72 10000 2.06 260 20:33 05.07.2022
2762 Drizzle 14 1008 72 10000 2.06 310 19:39 05.07.2022
2763 Clouds 15 1009 63 10000 3.09 110 17:55 05.07.2022
2764 Clouds 15 1009 63 10000 3.09 110 17:25 05.07.2022
2765 Clouds 15 1009 58 10000 4.12 70 16:33 05.07.2022
2766 Clouds 13 1011 67 10000 3.6 70 14:55 05.07.2022
2767 Clouds 12 1011 66 10000 3.09 70 13:36 05.07.2022
2768 Drizzle 11 1012 76 10000 3.6 80 12:26 05.07.2022
2769 Clouds 10 1012 84 10000 3.6 100 10:46 05.07.2022
2770 Clouds 9 1012 76 10000 3.6 90 09:58 05.07.2022
2771 Clouds 7 1012 78 10000 2.25 86 08:23 05.07.2022
2772 Clouds 9 1013 76 10000 2.06 120 07:20 05.07.2022
2773 Clouds 9 1014 77 10000 2.06 210 04:40 05.07.2022
2774 Clouds 10 1014 66 10000 2.57 260 01:54 05.07.2022
2775 Clouds 10 1014 66 10000 3.09 270 23:40 04.07.2022
2776 Clouds 10 1014 71 10000 4.12 300 22:58 04.07.2022
2777 Clouds 10 1014 71 10000 4.12 300 22:19 04.07.2022
2778 Clouds 11 1014 71 10000 3.6 280 20:58 04.07.2022
2779 Clouds 11 1014 71 10000 3.6 280 20:37 04.07.2022
2780 Clouds 11 1014 66 10000 3.6 290 19:57 04.07.2022
2781 Clouds 11 1014 66 10000 3.6 290 19:37 04.07.2022
2782 Clouds 11 1014 66 10000 3.09 300 18:54 04.07.2022
2783 Clouds 11 1014 66 10000 4.12 290 17:23 04.07.2022
2784 Clouds 10 1014 71 10000 3.6 290 15:41 04.07.2022
2785 Clouds 10 1014 71 10000 4.12 290 14:21 04.07.2022
2786 Clouds 10 1014 76 10000 4.12 280 12:56 04.07.2022
2787 Clouds 10 1013 81 10000 3.6 290 11:32 04.07.2022
2788 Clouds 10 1013 71 10000 2.06 290 10:33 04.07.2022
2789 Clouds 10 1013 71 10000 2.06 300 09:33 04.07.2022
2790 Clouds 8 1012 76 10000 2.57 360 06:42 04.07.2022
2791 Clouds 10 1011 87 10000 6.69 300 02:59 04.07.2022
2792 Clouds 11 1010 82 10000 8.75 300 23:53 03.07.2022
2793 Clouds 12 1010 76 10000 7.72 290 22:48 03.07.2022
2794 Clouds 12 1009 66 10000 7.72 320 20:46 03.07.2022
2795 Clouds 12 1009 66 10000 7.72 320 19:59 03.07.2022
2796 Clouds 12 1009 66 10000 7.72 320 19:25 03.07.2022
2797 Clouds 12 1009 66 10000 8.23 320 18:30 03.07.2022
2798 Clouds 12 1008 66 10000 7.2 330 17:41 03.07.2022
2799 Clouds 11 1008 71 10000 5.14 360 15:28 03.07.2022
2800 Clouds 11 1008 71 10000 5.66 360 14:54 03.07.2022
2801 Clouds 11 1007 71 10000 5.14 340 13:50 03.07.2022
2802 Clouds 10 1007 76 10000 6.69 360 12:49 03.07.2022
2803 Clouds 10 1007 76 10000 6.69 360 12:21 03.07.2022
2804 Clouds 10 1007 76 10000 4.12 350 10:55 03.07.2022
2805 Clouds 10 1007 76 10000 4.12 350 10:36 03.07.2022
2806 Clouds 10 1006 76 10000 4.12 10 08:21 03.07.2022
2807 Clouds 10 1006 76 10000 4.63 350 07:34 03.07.2022
2808 Clouds 10 1009 81 10000 6.17 300 00:41 03.07.2022
2809 Clouds 10 1009 81 10000 5.66 300 23:38 02.07.2022
2810 Clouds 10 1010 81 10000 4.63 310 22:31 02.07.2022
2811 Clouds 9 1011 81 10000 4.63 290 20:36 02.07.2022
2812 Clouds 10 1011 76 10000 5.14 300 19:50 02.07.2022
2813 Clouds 10 1012 76 10000 5.66 300 18:48 02.07.2022
2814 Clouds 10 1012 76 10000 5.14 290 17:40 02.07.2022
2815 Clouds 10 1012 76 10000 5.66 310 16:32 02.07.2022
2816 Clouds 9 1013 87 10000 3.09 300 13:51 02.07.2022
2817 Clouds 8 1013 87 10000 3.09 310 11:51 02.07.2022
2818 Drizzle 8 1013 87 10000 3.6 300 10:52 02.07.2022
2819 Drizzle 8 1013 87 10000 3.6 300 10:28 02.07.2022
2820 Clouds 9 1013 81 10000 2.57 290 08:39 02.07.2022
2821 Clouds 9 1013 81 10000 2.57 290 08:19 02.07.2022
2822 Clouds 9 1013 81 10000 2.06 280 05:51 02.07.2022
2823 Clouds 10 1013 81 10000 3.09 300 00:47 02.07.2022
2824 Clouds 10 1012 87 10000 2.06 270 23:31 01.07.2022
2825 Clouds 10 1012 87 10000 3.6 280 22:35 01.07.2022
2826 Clouds 12 1011 82 10000 4.12 270 21:39 01.07.2022
2827 Clouds 12 1011 82 10000 5.14 290 20:59 01.07.2022
2828 Clouds 12 1011 82 10000 5.14 290 20:37 01.07.2022
2829 Clouds 13 1010 76 10000 4.63 290 19:41 01.07.2022
2830 Clouds 13 1009 82 10000 4.63 290 17:45 01.07.2022
2831 Clouds 14 1009 77 10000 5.14 290 15:21 01.07.2022
2832 Clouds 13 1008 82 10000 4.12 300 13:54 01.07.2022
2833 Mist 12 1007 87 10000 2.06 240 11:49 01.07.2022
2834 Clouds 11 1007 87 10000 2.06 260 10:19 01.07.2022
2835 Clouds 12 1006 82 10000 2.06 320 08:46 01.07.2022
2836 Clouds 12 1005 82 10000 1.03 110 02:49 01.07.2022
2837 Clouds 13 1005 76 10000 2.57 110 00:25 01.07.2022
2838 Clouds 14 1005 72 10000 4.12 120 22:54 30.06.2022
2839 Clouds 14 1005 72 10000 4.12 120 22:33 30.06.2022
2840 Rain 14 1005 72 10000 3.09 130 21:59 30.06.2022
2841 Clouds 14 1005 72 10000 3.09 130 21:35 30.06.2022
2842 Clouds 14 1004 67 10000 3.09 150 20:22 30.06.2022
2843 Clouds 13 1004 76 10000 2.57 240 19:53 30.06.2022
2844 Clouds 13 1004 76 10000 2.57 240 19:18 30.06.2022
2845 Clouds 13 1004 76 10000 2.06 0 18:42 30.06.2022
2846 Clouds 12 1004 87 10000 2.57 350 17:38 30.06.2022
2847 Clouds 11 1005 87 10000 2.06 350 16:48 30.06.2022
2848 Clouds 11 1005 87 10000 2.57 350 15:27 30.06.2022
2849 Clouds 13 1005 76 10000 3.6 150 13:34 30.06.2022
2850 Clouds 13 1005 76 10000 3.6 120 12:35 30.06.2022
2851 Clouds 11 1005 82 10000 1.54 20 11:37 30.06.2022
2852 Clouds 10 1005 87 10000 0.51 0 09:54 30.06.2022
2853 Clouds 10 1005 87 10000 0.51 0 09:34 30.06.2022
2854 Clouds 9 1005 87 10000 2.06 230 08:18 30.06.2022
2855 Fog 9 1006 93 10000 1.54 220 06:21 30.06.2022
2856 Clouds 12 1006 82 10000 3.09 200 01:29 30.06.2022
2857 Clouds 12 1006 78 10000 3.09 230 23:34 29.06.2022
2858 Clouds 13 1006 76 10000 3.09 240 22:39 29.06.2022
2859 Clouds 12 1007 82 10000 4.63 270 21:39 29.06.2022
2860 Clouds 14 1006 67 10000 6.17 310 20:34 29.06.2022
2861 Clouds 13 1007 76 10000 7.72 300 19:37 29.06.2022
2862 Clouds 15 1007 63 10000 6.17 330 17:45 29.06.2022
2863 Clouds 15 1008 63 10000 6.17 330 16:41 29.06.2022
2864 Clouds 15 1008 63 10000 6.17 320 15:19 29.06.2022
2865 Clouds 13 1009 67 10000 5.14 10 12:47 29.06.2022
2866 Clouds 13 1009 67 10000 3.6 360 11:32 29.06.2022
2867 Clear 11 1009 87 10000 1.03 0 09:33 29.06.2022
2868 Clear 10 1009 87 10000 2.06 210 08:26 29.06.2022
2869 Clouds 11 1009 89 10000 1.03 210 04:57 29.06.2022
2870 Clouds 12 1008 76 10000 1.03 210 01:41 29.06.2022
2871 Clouds 12 1008 82 10000 2.06 180 00:36 29.06.2022
2872 Clouds 12 1007 71 10000 6.69 330 22:55 28.06.2022
2873 Clouds 12 1007 71 10000 6.69 330 22:34 28.06.2022
2874 Clouds 13 1006 67 10000 6.69 320 21:55 28.06.2022
2875 Clouds 13 1006 67 10000 6.69 320 21:33 28.06.2022
2876 Clear 14 1006 62 10000 5.66 320 20:50 28.06.2022
2877 Clouds 14 1006 62 10000 5.14 330 19:34 28.06.2022
2878 Clouds 13 1006 67 10000 4.63 340 18:53 28.06.2022
2879 Clouds 13 1006 71 10000 4.63 340 17:44 28.06.2022
2880 Clouds 13 1005 67 10000 4.63 360 16:24 28.06.2022
2881 Clouds 13 1005 71 10000 2.06 0 15:53 28.06.2022
2882 Clouds 13 1005 67 10000 2.57 100 14:21 28.06.2022
2883 Clouds 12 1004 71 10000 2.57 90 13:54 28.06.2022
2884 Clouds 12 1004 71 10000 2.57 90 13:20 28.06.2022
2885 Clouds 12 1003 66 10000 3.09 100 11:21 28.06.2022
2886 Clear 11 1002 66 10000 4.12 90 09:41 28.06.2022
2887 Clear 11 1001 76 10000 0.51 0 08:45 28.06.2022
2888 Clear 10 1001 76 10000 1.03 100 07:58 28.06.2022
2889 Clear 10 1001 76 10000 1.03 100 07:19 28.06.2022
2890 Clouds 12 999 71 10000 1.03 0 01:36 28.06.2022
2891 Clouds 13 999 62 10000 1.54 310 23:45 27.06.2022
2892 Clouds 12 999 71 10000 3.09 350 22:55 27.06.2022
2893 Clouds 12 999 71 10000 3.6 350 21:38 27.06.2022
2894 Clouds 12 999 71 10000 3.6 350 21:38 27.06.2022
2895 Clouds 12 999 66 10000 5.66 20 20:54 27.06.2022
2896 Clouds 13 999 62 10000 3.6 360 19:44 27.06.2022
2897 Clouds 12 1000 66 10000 2.57 350 18:40 27.06.2022
2898 Clouds 11 1000 62 10000 4.63 300 16:44 27.06.2022
2899 Clouds 11 1001 62 10000 5.14 330 15:42 27.06.2022
2900 Clouds 10 1001 62 10000 3.09 350 13:40 27.06.2022
2901 Clouds 9 1002 71 10000 3.09 30 12:57 27.06.2022
2902 Clear 8 1002 76 10000 1.03 0 10:43 27.06.2022
2903 Clear 7 1002 81 10000 1.03 0 09:37 27.06.2022
2904 Clouds 5 1003 86 10000 1.54 120 08:32 27.06.2022
2905 Clouds 5 1003 81 10000 1.03 0 07:39 27.06.2022
2906 Clouds 6 1005 81 10000 1.54 130 04:40 27.06.2022
2907 Clouds 6 1006 81 10000 1.54 350 01:20 27.06.2022
2908 Clouds 7 1008 76 10000 1.54 350 22:47 26.06.2022
2909 Rain 8 1009 71 10000 5.14 10 20:55 26.06.2022
2910 Rain 7 1009 70 10000 7.2 360 19:59 26.06.2022
2911 Rain 8 1010 71 10000 7.72 10 18:33 26.06.2022
2912 Rain 9 1010 61 10000 6.17 10 17:37 26.06.2022
2913 Clouds 9 1010 66 10000 7.72 20 15:31 26.06.2022
2914 Clouds 9 1011 61 10000 7.72 10 13:55 26.06.2022
2915 Clouds 9 1011 61 10000 7.72 10 13:23 26.06.2022
2916 Clouds 8 1012 61 10000 10.8 10 11:31 26.06.2022
2917 Clouds 7 1012 65 10000 11.32 10 10:30 26.06.2022
2918 Clouds 6 1013 70 10000 10.29 10 09:45 26.06.2022
2919 Clouds 6 1013 70 10000 8.75 360 07:47 26.06.2022
2920 Clouds 5 1014 77 10000 8.23 10 04:29 26.06.2022
2921 Clouds 7 1015 65 10000 9.77 10 00:36 26.06.2022
2922 Clouds 7 1015 65 10000 9.77 10 00:18 26.06.2022
2923 Clouds 8 1015 57 10000 10.29 10 23:25 25.06.2022
2924 Clouds 8 1015 61 10000 10.8 360 22:28 25.06.2022
2925 Clouds 10 1015 53 10000 8.23 20 21:52 25.06.2022
2926 Clouds 10 1015 53 10000 8.23 20 21:20 25.06.2022
2927 Clouds 9 1015 61 10000 8.23 20 20:32 25.06.2022
2928 Clouds 11 1015 50 10000 10.8 10 19:55 25.06.2022
2929 Clouds 11 1015 50 10000 10.8 10 19:55 25.06.2022
2930 Clouds 12 1015 50 10000 7.72 10 18:22 25.06.2022
2931 Clouds 12 1016 54 10000 8.23 320 17:26 25.06.2022
2932 Clouds 11 1016 58 10000 8.75 320 16:25 25.06.2022
2933 Clouds 11 1017 54 10000 5.14 330 14:28 25.06.2022
2934 Clouds 9 1018 53 10000 6.17 350 12:43 25.06.2022
2935 Clouds 9 1018 57 10000 5.14 350 11:39 25.06.2022
2936 Clear 8 1019 53 10000 3.6 360 09:24 25.06.2022
2937 Clear 7 1019 57 10000 3.6 10 08:48 25.06.2022
2938 Clear 7 1019 57 10000 3.6 10 08:20 25.06.2022
2939 Clear 7 1019 57 10000 5.14 10 06:26 25.06.2022
2940 Clouds 10 1018 53 10000 5.66 20 00:44 25.06.2022
2941 Clouds 10 1018 53 10000 7.72 360 23:32 24.06.2022
2942 Clouds 11 1017 54 10000 6.17 30 21:59 24.06.2022
2943 Clouds 11 1017 54 10000 6.17 30 21:22 24.06.2022
2944 Clouds 10 1016 57 10000 6.69 20 20:23 24.06.2022
2945 Clouds 10 1016 57 10000 6.69 10 19:24 24.06.2022
2946 Clouds 11 1016 54 10000 7.2 10 18:50 24.06.2022
2947 Clouds 11 1016 54 10000 7.2 10 18:31 24.06.2022
2948 Clouds 11 1015 50 10000 8.23 10 17:46 24.06.2022
2949 Clouds 11 1015 54 10000 9.77 10 16:34 24.06.2022
2950 Clouds 9 1014 57 10000 8.23 10 14:30 24.06.2022
2951 Clouds 9 1014 57 10000 9.26 360 13:55 24.06.2022
2952 Clouds 8 1013 57 10000 9.26 10 12:28 24.06.2022
2953 Clouds 8 1013 61 10000 9.26 360 11:40 24.06.2022
2954 Clouds 7 1012 61 10000 6.69 360 10:34 24.06.2022
2955 Clouds 8 1012 75 10000 5.62 20 09:41 24.06.2022
2956 Clouds 7 1012 77 10000 5.85 21 08:53 24.06.2022
2957 Clouds 5 1011 78 10000 5.6 17 07:39 24.06.2022
2958 Clouds 5 1011 81 10000 5.61 16 06:42 24.06.2022
2959 Clouds 5 1010 81 10000 5.77 15 06:18 24.06.2022
2960 Clouds 6 1009 79 10000 5.83 15 03:47 24.06.2022
2961 Clouds 8 1006 57 10000 11.32 10 22:59 23.06.2022
2962 Clouds 8 1006 57 10000 11.32 10 22:40 23.06.2022
2963 Clouds 8 1005 61 10000 11.83 10 20:59 23.06.2022
2964 Clouds 8 1005 61 10000 11.83 10 20:35 23.06.2022
2965 Clouds 9 1004 57 10000 11.32 10 19:40 23.06.2022
2966 Clouds 10 1003 46 10000 11.83 10 17:53 23.06.2022
2967 Clouds 10 1003 46 10000 11.83 10 17:33 23.06.2022
2968 Clouds 9 1001 49 10000 12.86 10 15:57 23.06.2022
2969 Clouds 9 1001 49 10000 12.86 10 15:24 23.06.2022
2970 Clouds 9 1000 53 10000 10.8 10 13:45 23.06.2022
2971 Clouds 7 999 57 10000 6.69 20 11:27 23.06.2022
2972 Clouds 8 998 57 10000 3.09 50 10:40 23.06.2022
2973 Clouds 7 997 57 10000 4.12 50 09:18 23.06.2022
2974 Clouds 8 994 76 10000 2.57 60 03:40 23.06.2022
2975 Clouds 8 993 87 10000 1.03 0 00:27 23.06.2022
2976 Clouds 8 993 87 10000 1.03 0 23:43 22.06.2022
2977 Clouds 8 992 87 10000 1.03 0 22:50 22.06.2022
2978 Clouds 8 992 81 10000 2.06 170 21:27 22.06.2022
2979 Clouds 8 992 87 10000 1.03 0 20:48 22.06.2022
2980 Drizzle 8 991 87 10000 1.54 250 19:58 22.06.2022
2981 Clouds 8 991 81 10000 4.12 270 18:50 22.06.2022
2982 Clouds 8 991 76 10000 4.63 260 17:29 22.06.2022
2983 Clouds 9 991 71 10000 5.14 280 16:37 22.06.2022
2984 Clouds 8 990 76 10000 5.14 270 15:27 22.06.2022
2985 Clouds 8 990 81 10000 6.69 280 14:31 22.06.2022
2986 Clouds 9 989 71 10000 5.66 260 13:44 22.06.2022
2987 Clouds 9 989 71 10000 5.66 260 13:23 22.06.2022
2988 Clouds 8 989 87 10000 8.23 230 11:50 22.06.2022
2989 Clouds 8 989 81 10000 8.75 260 10:58 22.06.2022
2990 Clouds 8 989 81 10000 8.75 260 10:58 22.06.2022
2991 Rain 8 989 81 10000 8.75 260 10:20 22.06.2022
2992 Clouds 9 990 76 10000 11.32 230 08:48 22.06.2022
2993 Clouds 9 991 81 10000 9.77 230 06:21 22.06.2022
2994 Clouds 8 993 87 10000 8.23 260 01:50 22.06.2022
2995 Drizzle 8 993 87 6000 8.23 250 00:39 22.06.2022
2996 Drizzle 9 994 87 10000 8.75 240 22:40 21.06.2022
2997 Clouds 10 995 87 2000 9.26 220 20:40 21.06.2022
2998 Clouds 11 997 87 2500 8.75 200 18:53 21.06.2022
2999 Clouds 10 999 81 6000 10.29 170 17:44 21.06.2022
3000 Rain 10 1000 81 3000 7.72 180 16:34 21.06.2022
3001 Clouds 11 1009 71 10000 6.69 160 11:56 21.06.2022
3002 Clouds 11 1010 71 10000 4.12 180 10:27 21.06.2022
3003 Clouds 8 1011 87 10000 0 0 08:54 21.06.2022
3004 Clouds 7 1011 87 10000 2.57 170 07:35 21.06.2022
3005 Clouds 7 1011 90 10000 2.57 170 04:40 21.06.2022
3006 Clouds 11 1010 71 10000 3.6 280 23:45 20.06.2022
3007 Clouds 11 1009 76 10000 3.6 280 22:21 20.06.2022
3008 Clouds 11 1009 82 10000 3.6 280 21:32 20.06.2022
3009 Clouds 11 1008 82 10000 3.09 260 20:25 20.06.2022
3010 Clouds 11 1008 76 10000 3.6 270 19:23 20.06.2022
3011 Clouds 11 1008 71 10000 4.12 290 18:25 20.06.2022
3012 Clouds 11 1008 76 10000 4.63 290 17:44 20.06.2022
3013 Clouds 11 1007 82 10000 4.63 290 16:24 20.06.2022
3014 Clouds 10 1007 87 10000 4.12 290 14:41 20.06.2022
3015 Mist 9 1006 93 10000 4.12 270 11:47 20.06.2022
3016 Drizzle 9 1006 93 5000 3.6 260 09:55 20.06.2022
3017 Drizzle 9 1006 93 3800 4.12 280 08:46 20.06.2022
3018 Mist 9 1005 93 5000 4.12 270 07:36 20.06.2022
3019 Drizzle 9 1006 95 5000 7.2 250 04:56 20.06.2022
3020 Drizzle 9 1006 93 2500 5.66 250 01:32 20.06.2022
3021 Drizzle 10 1006 93 6000 7.72 230 23:48 19.06.2022
3022 Mist 10 1006 93 1900 8.23 230 22:25 19.06.2022
3023 Mist 10 1007 93 2500 7.72 220 21:42 19.06.2022
3024 Clouds 11 1007 87 2500 5.66 200 20:52 19.06.2022
3025 Clouds 11 1007 87 2500 5.66 200 20:25 19.06.2022
3026 Mist 11 1007 93 3500 8.23 210 19:45 19.06.2022
3027 Clouds 12 1008 87 8000 6.69 210 18:33 19.06.2022
3028 Clouds 12 1009 87 10000 4.12 170 17:48 19.06.2022
3029 Clouds 12 1009 87 10000 4.12 170 17:20 19.06.2022
3030 Mist 11 1010 93 6000 4.12 160 16:34 19.06.2022
3031 Mist 11 1011 93 5000 4.63 160 15:35 19.06.2022
3032 Drizzle 11 1012 93 3500 4.12 170 14:43 19.06.2022
3033 Mist 11 1013 87 3000 4.12 180 13:54 19.06.2022
3034 Mist 10 1014 93 3500 4.12 190 12:39 19.06.2022
3035 Clouds 11 1015 76 10000 4.63 230 10:53 19.06.2022
3036 Mist 10 1015 81 9000 6.17 220 09:34 19.06.2022
3037 Mist 10 1015 81 8000 5.66 200 08:43 19.06.2022
3038 Mist 9 1016 87 7000 5.66 200 07:36 19.06.2022
3039 Mist 9 1017 93 4000 5.66 210 04:41 19.06.2022
3040 Clear 11 1019 62 10000 3.6 220 01:28 19.06.2022
3041 Clear 11 1019 62 10000 3.6 220 01:28 19.06.2022
3042 Clouds 10 1019 71 10000 1.54 200 00:23 19.06.2022
3043 Clouds 10 1020 76 10000 2.06 230 23:35 18.06.2022
3044 Clouds 10 1021 81 10000 4.12 260 22:36 18.06.2022
3045 Clouds 11 1019 76 10000 7.2 290 20:55 18.06.2022
3046 Clouds 11 1019 76 10000 7.2 290 20:27 18.06.2022
3047 Clear 12 1019 71 10000 8.23 300 19:31 18.06.2022
3048 Clouds 13 1019 62 10000 7.72 310 18:44 18.06.2022
3049 Clouds 12 1019 71 10000 9.77 300 17:30 18.06.2022
3050 Clouds 12 1019 76 10000 8.23 300 16:37 18.06.2022
3051 Clouds 12 1018 66 10000 7.2 320 15:22 18.06.2022
3052 Clouds 12 1018 71 10000 7.72 330 14:42 18.06.2022
3053 Clouds 11 1017 71 10000 8.23 320 13:21 18.06.2022
3054 Clouds 10 1014 77 10000 10.8 320 11:34 18.06.2022
3055 Clouds 10 1014 77 10000 9.26 330 10:46 18.06.2022
3056 Clouds 9 1012 71 10000 9.26 330 09:20 18.06.2022
3057 Clouds 9 1012 71 10000 9.26 330 09:20 18.06.2022
3058 Clouds 9 1010 76 10000 9.77 330 08:19 18.06.2022
3059 Clouds 9 1007 76 10000 11.32 330 06:43 18.06.2022
3060 Clouds 9 1002 76 10000 11.32 330 03:24 18.06.2022
3061 Drizzle 9 998 76 10000 12.35 340 01:24 18.06.2022
3062 Drizzle 9 997 76 10000 11.32 340 00:45 18.06.2022
3063 Clouds 9 996 76 10000 10.8 340 23:52 17.06.2022
3064 Clouds 9 996 76 10000 10.8 340 23:52 17.06.2022
3065 Clouds 10 995 71 10000 7.72 320 22:56 17.06.2022
3066 Clouds 11 994 66 10000 9.26 320 20:42 17.06.2022
3067 Clouds 12 993 66 10000 9.77 320 19:30 17.06.2022
3068 Clouds 11 993 76 10000 8.75 320 18:34 17.06.2022
3069 Clouds 11 993 76 10000 7.72 320 17:43 17.06.2022
3070 Clouds 12 993 71 10000 8.23 320 16:43 17.06.2022
3071 Clouds 11 992 71 10000 6.17 320 15:43 17.06.2022
3072 Clouds 12 992 66 10000 4.12 330 14:58 17.06.2022
3073 Clouds 12 992 66 10000 4.12 330 14:20 17.06.2022
3074 Clouds 11 992 71 10000 5.14 310 13:45 17.06.2022
3075 Clouds 11 993 76 10000 3.6 10 12:53 17.06.2022
3076 Clouds 10 994 76 10000 4.63 350 11:57 17.06.2022
3077 Clouds 10 994 76 10000 4.63 350 11:36 17.06.2022
3078 Clouds 9 994 76 10000 2.06 340 10:48 17.06.2022
3079 Clouds 9 995 81 10000 4.63 70 08:30 17.06.2022
3080 Clouds 9 995 81 10000 4.63 70 07:47 17.06.2022
3081 Clear 9 997 81 10000 4.12 70 05:57 17.06.2022
3082 Clouds 9 999 81 10000 3.6 90 02:52 17.06.2022
3083 Clouds 11 1001 71 10000 5.14 100 00:42 17.06.2022
3084 Clouds 10 1003 66 10000 3.6 110 22:45 16.06.2022
3085 Clouds 10 1003 66 10000 3.6 110 22:20 16.06.2022
3086 Clouds 11 1003 62 10000 8.23 140 21:19 16.06.2022
3087 Clouds 11 1003 58 10000 8.23 140 20:50 16.06.2022
3088 Clouds 12 1004 60 10000 8.23 160 19:57 16.06.2022
3089 Clouds 12 1004 60 10000 9.26 150 18:44 16.06.2022
3090 Clouds 12 1004 62 10000 8.23 170 17:44 16.06.2022
3091 Clouds 12 1004 62 10000 8.23 170 17:44 16.06.2022
3092 Clouds 10 1004 76 10000 8.75 180 16:46 16.06.2022
3093 Clouds 12 1004 54 10000 9.26 170 15:37 16.06.2022
3094 Clouds 12 1004 54 10000 9.26 170 15:18 16.06.2022
3095 Clouds 11 1004 62 10000 8.75 170 13:49 16.06.2022
3096 Clouds 11 1004 71 10000 5.66 170 12:38 16.06.2022
3097 Clouds 11 1004 66 10000 4.12 160 11:55 16.06.2022
3098 Rain 11 1004 66 10000 4.12 160 11:19 16.06.2022
3099 Clouds 8 1004 81 10000 7.2 150 10:35 16.06.2022
3100 Clouds 9 1004 76 10000 5.14 140 09:37 16.06.2022
3101 Clouds 8 1004 81 10000 3.09 120 08:50 16.06.2022
3102 Clouds 7 1004 81 8000 3.09 150 07:38 16.06.2022
3103 Clouds 8 1004 76 10000 5.14 140 05:43 16.06.2022
3104 Clouds 9 1005 66 10000 4.12 140 03:44 16.06.2022
3105 Clouds 9 1004 71 10000 4.63 120 01:52 16.06.2022
3106 Clouds 9 1004 71 10000 4.63 120 01:52 16.06.2022
3107 Clouds 9 1004 71 10000 4.63 120 01:22 16.06.2022
3108 Clouds 11 1004 66 10000 7.2 150 23:58 15.06.2022
3109 Clouds 11 1004 58 10000 7.2 160 22:53 15.06.2022
3110 Clouds 12 1003 54 10000 6.69 160 21:34 15.06.2022
3111 Clouds 11 1003 58 10000 7.2 160 20:58 15.06.2022
3112 Clouds 11 1003 58 10000 7.2 160 20:36 15.06.2022
3113 Clouds 12 1003 66 10000 6.69 170 19:57 15.06.2022
3114 Clouds 13 1002 50 10000 7.2 160 18:37 15.06.2022
3115 Clouds 13 1002 50 10000 6.69 170 17:46 15.06.2022
3116 Clouds 12 1002 62 10000 6.69 140 16:23 15.06.2022
3117 Clouds 12 1002 58 10000 6.69 170 15:19 15.06.2022
3118 Clouds 11 1002 62 10000 6.17 140 13:29 15.06.2022
3119 Clouds 11 1002 62 10000 5.66 150 12:47 15.06.2022
3120 Clouds 10 1002 66 10000 6.17 140 11:25 15.06.2022
3121 Clouds 10 1002 66 10000 5.14 150 10:22 15.06.2022
3122 Clouds 10 1002 71 10000 6.69 140 09:34 15.06.2022
3123 Clouds 8 1002 81 10000 3.6 140 07:43 15.06.2022
3124 Clouds 8 1002 76 10000 4.12 110 05:57 15.06.2022
3125 Clouds 8 1002 76 10000 4.63 120 02:55 15.06.2022
3126 Clouds 8 1002 81 10000 2.57 140 01:37 15.06.2022
3127 Clouds 9 1002 75 10000 4.63 130 00:37 15.06.2022
3128 Clouds 8 1001 81 10000 5.14 190 23:38 14.06.2022
3129 Clouds 10 1001 71 10000 6.17 160 22:48 14.06.2022
3130 Clouds 10 1001 76 10000 6.69 160 21:44 14.06.2022
3131 Clouds 10 1001 76 10000 6.69 160 21:21 14.06.2022
3132 Clouds 11 1000 62 10000 7.72 160 20:40 14.06.2022
3133 Clouds 11 1000 62 10000 7.2 180 19:58 14.06.2022
3134 Clouds 11 999 62 10000 8.23 160 18:45 14.06.2022
3135 Clouds 10 999 81 10000 6.17 180 17:20 14.06.2022
3136 Clouds 11 999 66 10000 8.23 160 16:43 14.06.2022
3137 Clouds 12 998 58 10000 8.23 170 15:49 14.06.2022
3138 Clouds 11 998 62 10000 6.69 160 14:56 14.06.2022
3139 Clouds 11 998 62 10000 6.69 160 14:18 14.06.2022
3140 Clouds 11 998 62 10000 8.23 170 13:29 14.06.2022
3141 Clouds 11 997 62 10000 6.17 180 12:25 14.06.2022
3142 Clouds 9 997 76 10000 3.09 180 10:59 14.06.2022
3143 Clouds 9 997 76 10000 3.09 180 10:59 14.06.2022
3144 Clouds 9 997 76 10000 3.09 180 10:33 14.06.2022
3145 Clouds 9 996 76 10000 3.09 190 09:28 14.06.2022
3146 Clouds 9 996 76 10000 3.09 190 09:28 14.06.2022
3147 Clouds 8 996 87 10000 3.09 190 08:41 14.06.2022
3148 Clouds 8 994 87 8000 6.69 230 06:54 14.06.2022
3149 Clouds 10 993 87 10000 5.66 190 04:28 14.06.2022
3150 Drizzle 11 992 82 10000 5.66 140 01:50 14.06.2022
3151 Drizzle 12 992 76 10000 6.17 140 00:27 14.06.2022
3152 Clouds 12 992 76 10000 5.66 120 23:18 13.06.2022
3153 Clouds 12 992 76 10000 5.14 120 22:24 13.06.2022
3154 Clouds 12 993 76 10000 6.69 130 21:41 13.06.2022
3155 Clouds 12 994 82 10000 7.2 120 19:59 13.06.2022
3156 Clouds 12 994 82 10000 7.2 120 19:26 13.06.2022
3157 Clouds 11 995 82 10000 6.69 150 17:57 13.06.2022
3158 Rain 11 995 82 10000 6.69 150 17:35 13.06.2022
3159 Clouds 12 996 76 10000 7.72 150 16:32 13.06.2022
3160 Clouds 12 997 76 10000 8.23 150 14:53 13.06.2022
3161 Clouds 12 997 76 10000 8.23 150 14:33 13.06.2022
3162 Clouds 12 997 76 10000 6.17 150 13:41 13.06.2022
3163 Clouds 11 998 82 10000 6.69 140 12:25 13.06.2022
3164 Clouds 11 998 82 10000 3.09 130 11:25 13.06.2022
3165 Clouds 11 998 82 10000 3.6 140 10:26 13.06.2022
3166 Rain 10 999 87 10000 2.06 150 09:23 13.06.2022
3167 Rain 10 999 81 10000 4.12 100 07:34 13.06.2022
3168 Clouds 9 1000 81 10000 6.17 110 05:39 13.06.2022
3169 Clouds 9 1002 76 10000 3.6 100 02:47 13.06.2022
3170 Clouds 9 1002 71 10000 4.12 120 01:37 13.06.2022
3171 Rain 9 1004 76 10000 1.03 0 23:52 12.06.2022
3172 Rain 9 1004 76 10000 1.03 0 23:24 12.06.2022
3173 Clouds 9 1004 76 10000 1.54 280 22:22 12.06.2022
3174 Clouds 9 1004 76 10000 2.57 290 21:20 12.06.2022
3175 Clouds 9 1005 76 10000 2.57 270 20:27 12.06.2022
3176 Clouds 10 1005 76 10000 3.6 280 19:30 12.06.2022
3177 Clouds 10 1005 76 10000 3.6 280 19:30 12.06.2022
3178 Clouds 11 1005 71 10000 5.14 260 17:51 12.06.2022
3179 Clouds 11 1005 71 10000 5.14 270 16:24 12.06.2022
3180 Clouds 11 1005 66 10000 4.12 290 14:58 12.06.2022
3181 Clouds 11 1005 66 10000 4.12 290 14:23 12.06.2022
3182 Clouds 11 1005 66 10000 5.66 320 13:55 12.06.2022
3183 Clouds 11 1005 66 10000 4.63 290 12:40 12.06.2022
3184 Clear 10 1005 66 10000 3.09 310 11:39 12.06.2022
3185 Clear 10 1004 71 10000 4.12 330 10:38 12.06.2022
3186 Clouds 9 1004 79 10000 2.9 338 09:19 12.06.2022
3187 Clouds 9 1003 76 10000 4.12 340 08:45 12.06.2022
3188 Clouds 9 1002 76 10000 4.12 340 07:33 12.06.2022
3189 Clouds 10 1001 82 10000 2.57 330 04:52 12.06.2022
3190 Clouds 10 1000 81 10000 5.14 300 03:24 12.06.2022
3191 Drizzle 10 999 76 10000 6.69 310 01:42 12.06.2022
3192 Clouds 10 999 81 10000 6.69 300 00:58 12.06.2022
3193 Clouds 10 999 81 10000 6.69 300 00:21 12.06.2022
3194 Clouds 11 998 71 10000 6.17 310 23:44 11.06.2022
3195 Clouds 11 998 71 10000 8.23 300 22:39 11.06.2022
3196 Clouds 11 998 71 10000 8.75 300 21:53 11.06.2022
3197 Clouds 12 997 66 10000 7.72 320 20:38 11.06.2022
3198 Clouds 13 997 62 10000 8.75 320 19:59 11.06.2022
3199 Clouds 13 997 62 10000 8.75 320 19:26 11.06.2022
3200 Clouds 13 996 62 10000 8.23 320 18:34 11.06.2022
3201 Clouds 12 996 66 10000 8.75 320 17:51 11.06.2022
3202 Clouds 12 996 66 10000 8.75 320 17:28 11.06.2022
3203 Clouds 13 996 58 10000 6.17 330 16:57 11.06.2022
3204 Clouds 13 996 58 10000 6.17 330 16:30 11.06.2022
3205 Clouds 13 995 62 10000 7.2 350 15:43 11.06.2022
3206 Clouds 11 995 66 10000 7.72 350 13:53 11.06.2022
3207 Clear 13 995 58 10000 2.06 300 12:57 11.06.2022
3208 Clear 11 994 66 10000 2.57 330 10:55 11.06.2022
3209 Clear 11 994 66 10000 2.57 330 10:19 11.06.2022
3210 Clear 11 994 66 10000 1.03 0 09:19 11.06.2022
3211 Clear 9 994 81 10000 2.57 70 07:43 11.06.2022
3212 Clouds 9 993 81 10000 1.54 60 06:30 11.06.2022
3213 Clear 9 993 81 10000 2.06 120 05:19 11.06.2022
3214 Clear 14 993 51 10000 2.57 70 01:53 11.06.2022
3215 Clear 14 993 51 10000 2.57 70 01:33 11.06.2022
3216 Clouds 11 993 68 10000 2.99 3 00:21 11.06.2022
3217 Clouds 16 992 44 10000 5.14 360 22:32 10.06.2022
3218 Clouds 16 992 44 10000 6.69 10 21:52 10.06.2022
3219 Clouds 16 992 44 10000 7.2 20 20:42 10.06.2022
3220 Clouds 16 992 44 10000 7.2 20 20:22 10.06.2022
3221 Clouds 17 992 45 10000 5.14 10 19:48 10.06.2022
3222 Clouds 17 992 45 10000 5.14 10 19:18 10.06.2022
3223 Clouds 17 992 42 10000 5.66 10 18:19 10.06.2022
3224 Clouds 17 992 42 10000 5.66 340 17:36 10.06.2022
3225 Clear 15 993 47 10000 5.14 330 16:55 10.06.2022
3226 Clear 16 993 53 10000 5.14 350 15:47 10.06.2022
3227 Clear 15 994 47 10000 4.63 360 14:57 10.06.2022
3228 Clear 13 994 50 10000 4.12 340 13:41 10.06.2022
3229 Clear 11 994 66 10000 3.09 360 12:28 10.06.2022
3230 Clear 12 995 62 10000 1.03 0 11:40 10.06.2022
3231 Clouds 10 995 76 10000 1.03 0 10:37 10.06.2022
3232 Clear 10 995 81 10000 0.51 0 09:43 10.06.2022
3233 Clouds 9 996 81 10000 0.51 0 08:23 10.06.2022
3234 Haze 9 997 81 7000 1.54 140 06:52 10.06.2022
3235 Haze 9 997 81 7000 1.54 140 06:32 10.06.2022
3236 Haze 9 998 87 8000 2.57 250 05:45 10.06.2022
3237 Haze 10 1000 76 9000 3.09 280 02:55 10.06.2022
3238 Clear 10 1001 76 10000 2.06 240 01:38 10.06.2022
3239 Clouds 10 1001 72 10000 3.57 24 00:25 10.06.2022
3240 Clear 12 1002 71 10000 3.09 270 23:25 09.06.2022
3241 Clouds 12 1003 76 10000 5.14 250 21:47 09.06.2022
3242 Clouds 12 1003 76 10000 5.14 250 21:29 09.06.2022
3243 Haze 13 1004 71 10000 5.14 290 20:54 09.06.2022
3244 Haze 14 1004 58 10000 2.57 260 19:55 09.06.2022
3245 Clouds 17 1005 27 10000 5.66 110 18:49 09.06.2022
3246 Clouds 17 1005 27 10000 5.66 110 18:21 09.06.2022
3247 Clear 17 1006 25 10000 5.66 90 16:46 09.06.2022
3248 Clear 17 1007 22 10000 6.17 90 15:47 09.06.2022
3249 Clear 16 1007 21 10000 5.14 110 14:35 09.06.2022
3250 Clear 15 1008 31 10000 5.14 80 13:47 09.06.2022
3251 Clear 15 1008 31 10000 5.14 80 13:26 09.06.2022
3252 Clear 12 1009 40 10000 4.12 80 11:54 09.06.2022
3253 Clear 11 1009 43 10000 4.12 90 10:53 09.06.2022
3254 Clear 10 1010 76 10000 1.54 190 09:42 09.06.2022
3255 Clear 10 1010 76 10000 1.54 190 09:23 09.06.2022
3256 Clear 10 1010 71 10000 1.03 0 07:44 09.06.2022
3257 Clouds 10 1011 71 10000 2.06 40 05:47 09.06.2022
3258 Clouds 11 1011 66 10000 2.06 140 01:59 09.06.2022
3259 Clouds 11 1011 71 10000 3.6 230 23:34 08.06.2022
3260 Clouds 12 1011 71 10000 3.6 240 22:56 08.06.2022
3261 Clouds 12 1011 71 10000 3.6 240 22:26 08.06.2022
3262 Clouds 13 1011 71 10000 2.57 260 21:52 08.06.2022
3263 Drizzle 12 1011 76 10000 3.6 340 20:57 08.06.2022
3264 Clouds 13 1011 71 10000 4.63 340 19:55 08.06.2022
3265 Clouds 13 1011 71 10000 4.63 340 19:27 08.06.2022
3266 Rain 12 1011 71 10000 3.6 330 18:42 08.06.2022
3267 Rain 13 1011 58 10000 3.09 340 16:39 08.06.2022
3268 Clouds 12 1011 58 10000 1.03 0 15:27 08.06.2022
3269 Clouds 12 1011 62 10000 3.09 120 13:37 08.06.2022
3270 Clouds 12 1011 62 10000 4.63 100 11:51 08.06.2022
3271 Clouds 12 1011 62 10000 4.63 100 11:25 08.06.2022
3272 Clouds 9 1011 76 10000 2.57 100 09:48 08.06.2022
3273 Clouds 9 1011 76 10000 2.57 100 09:20 08.06.2022
3274 Clear 9 1011 76 10000 3.6 90 08:18 08.06.2022
3275 Clouds 10 1011 81 10000 1.54 90 05:47 08.06.2022
3276 Drizzle 11 1011 71 10000 1.03 100 03:20 08.06.2022
3277 Clouds 12 1012 72 10000 3.09 120 00:28 08.06.2022
3278 Clouds 12 1011 66 10000 3.6 130 23:25 07.06.2022
3279 Clouds 13 1012 58 10000 3.6 110 22:42 07.06.2022
3280 Clouds 13 1012 58 10000 3.6 110 22:20 07.06.2022
3281 Clouds 13 1011 62 10000 5.66 120 21:28 07.06.2022
3282 Clouds 14 1011 54 10000 6.17 150 20:53 07.06.2022
3283 Clouds 14 1011 54 10000 6.17 150 20:31 07.06.2022
3284 Clouds 14 1012 54 10000 7.72 140 19:27 07.06.2022
3285 Clouds 14 1012 54 10000 6.69 130 18:19 07.06.2022
3286 Clouds 15 1012 51 10000 7.72 140 17:21 07.06.2022
3287 Clouds 14 1012 58 10000 7.72 140 16:41 07.06.2022
3288 Clouds 14 1012 58 10000 6.69 140 15:44 07.06.2022
3289 Clouds 14 1012 58 10000 6.69 140 15:24 07.06.2022
3290 Clouds 13 1013 62 10000 8.23 140 14:46 07.06.2022
3291 Clouds 13 1013 62 10000 8.23 140 14:27 07.06.2022
3292 Clouds 12 1013 66 10000 5.14 120 13:30 07.06.2022
3293 Clouds 12 1013 66 10000 6.17 120 12:45 07.06.2022
3294 Clouds 12 1013 66 10000 5.66 130 11:37 07.06.2022
3295 Clouds 11 1013 76 10000 7.2 120 10:26 07.06.2022
3296 Clouds 11 1012 76 10000 8.75 120 08:49 07.06.2022
3297 Clouds 11 1012 76 10000 8.75 120 08:49 07.06.2022
3298 Clouds 11 1012 76 10000 8.75 120 08:49 07.06.2022
3299 Clouds 11 1012 76 10000 8.75 120 08:49 07.06.2022
3300 Clouds 10 1012 81 10000 7.2 120 07:32 07.06.2022
3301 Clouds 11 1013 76 10000 7.72 140 05:56 07.06.2022
3302 Drizzle 11 1013 82 10000 5.14 140 03:22 07.06.2022
3303 Drizzle 11 1013 82 10000 5.66 140 00:44 07.06.2022
3304 Clouds 12 1013 71 10000 4.63 150 23:35 06.06.2022
3305 Drizzle 12 1013 71 10000 4.12 150 22:47 06.06.2022
3306 Clouds 12 1013 71 10000 4.63 140 21:49 06.06.2022
3307 Clouds 12 1013 71 10000 5.66 150 20:35 06.06.2022
3308 Clouds 12 1013 66 10000 3.09 130 19:24 06.06.2022
3309 Clouds 12 1013 66 10000 2.57 120 18:47 06.06.2022
3310 Clouds 11 1013 71 10000 2.06 140 17:55 06.06.2022
3311 Clouds 12 1014 62 10000 3.09 150 16:51 06.06.2022
3312 Clouds 12 1013 47 10000 3.09 90 15:44 06.06.2022
3313 Clouds 11 1013 40 10000 3.09 90 14:57 06.06.2022
3314 Clear 11 1013 35 10000 4.12 90 13:40 06.06.2022
3315 Clear 11 1013 35 10000 4.12 90 13:19 06.06.2022
3316 Clear 9 1014 46 10000 4.63 90 12:33 06.06.2022
3317 Clear 8 1014 49 10000 4.63 70 11:45 06.06.2022
3318 Clear 7 1014 49 10000 3.09 90 09:51 06.06.2022
3319 Clear 6 1013 61 10000 3.09 110 08:44 06.06.2022
3320 Clear 6 1013 56 10000 2.57 110 07:44 06.06.2022
3321 Clear 6 1013 61 10000 1.54 110 06:49 06.06.2022
3322 Clear 7 1013 75 10000 4.12 90 04:38 06.06.2022
3323 Clouds 8 1013 61 10000 2.57 320 01:53 06.06.2022
3324 Clouds 8 1013 76 10000 2.57 310 00:57 06.06.2022
3325 Clouds 8 1013 76 10000 2.57 310 00:34 06.06.2022
3326 Rain 8 1012 87 10000 4.63 300 22:59 05.06.2022
3327 Rain 8 1012 87 10000 4.63 300 22:19 05.06.2022
3328 Rain 9 1011 87 5000 4.12 300 20:23 05.06.2022
3329 Rain 10 1011 93 3000 5.66 230 18:57 05.06.2022
3330 Rain 10 1011 93 3000 5.66 230 18:18 05.06.2022
3331 Rain 9 1011 87 2000 1.54 120 17:38 05.06.2022
3332 Rain 9 1011 87 2000 1.54 120 17:20 05.06.2022
3333 Drizzle 8 1012 81 3000 3.09 90 16:47 05.06.2022
3334 Clouds 10 1012 57 10000 5.66 150 15:25 05.06.2022
3335 Clouds 11 1013 35 10000 4.12 180 14:21 05.06.2022
3336 Clear 9 1015 57 10000 1.03 0 11:59 05.06.2022
3337 Clear 7 1016 70 10000 1.03 0 10:45 05.06.2022
3338 Clear 7 1016 70 10000 1.03 0 10:24 05.06.2022
3339 Clear 7 1016 70 10000 1.54 120 09:42 05.06.2022
3340 Clear 6 1016 81 10000 0.51 0 08:25 05.06.2022
3341 Clear 3 1017 87 10000 1.54 120 06:25 05.06.2022
3342 Clear 5 1018 66 10000 0.8 336 05:19 05.06.2022
3343 Clear 7 1018 70 10000 1.03 340 02:57 05.06.2022
3344 Clear 7 1019 70 10000 2.06 320 01:24 05.06.2022
3345 Clear 7 1019 70 10000 2.06 320 01:24 05.06.2022
3346 Clear 8 1020 75 10000 3.09 290 23:36 04.06.2022
3347 Clouds 8 1020 76 10000 3.6 290 21:31 04.06.2022
3348 Clear 8 1020 71 10000 3.6 290 19:46 04.06.2022
3349 Clear 8 1021 66 10000 4.63 290 17:28 04.06.2022
3350 Clear 8 1021 66 10000 3.6 280 16:22 04.06.2022
3351 Clear 8 1021 66 10000 3.6 270 15:51 04.06.2022
3352 Clear 8 1022 66 10000 3.09 300 14:22 04.06.2022
3353 Clouds 7 1022 65 10000 2.06 310 11:45 04.06.2022
3354 Clouds 7 1022 65 10000 3.09 330 10:55 04.06.2022
3355 Clouds 7 1022 65 10000 3.09 330 10:19 04.06.2022
3356 Clouds 6 1022 70 10000 3.6 340 09:39 04.06.2022
3357 Clouds 6 1022 70 10000 4.12 310 08:39 04.06.2022
3358 Clouds 6 1021 70 10000 4.63 300 07:27 04.06.2022
3359 Clouds 6 1022 77 10000 5.14 280 04:33 04.06.2022
3360 Clouds 6 1022 77 10000 5.14 280 04:33 04.06.2022
3361 Clouds 6 1022 77 10000 5.14 280 04:33 04.06.2022
3362 Clouds 6 1022 77 10000 5.14 280 04:33 04.06.2022
3363 Clouds 8 1021 71 10000 5.66 260 00:48 04.06.2022
3364 Clouds 8 1021 71 10000 5.66 260 23:31 03.06.2022
3365 Clouds 8 1020 71 10000 5.66 260 22:28 03.06.2022
3366 Clouds 9 1020 76 10000 5.66 250 20:42 03.06.2022
3367 Clouds 9 1020 76 10000 5.66 250 20:42 03.06.2022
3368 Clouds 9 1020 76 10000 5.66 250 20:18 03.06.2022
3369 Clouds 8 1020 76 10000 2.57 280 17:39 03.06.2022
3370 Rain 8 1020 76 10000 3.6 280 16:37 03.06.2022
3371 Rain 8 1020 82 10000 3.09 240 14:53 03.06.2022
3372 Rain 8 1020 81 10000 2.57 240 12:52 03.06.2022
3373 Rain 8 1020 87 10000 3.6 280 10:54 03.06.2022
3374 Rain 9 1019 81 10000 7.2 230 09:37 03.06.2022
3375 Clouds 9 1019 87 10000 3.6 180 08:32 03.06.2022
3376 Rain 8 1019 87 3300 4.12 180 07:26 03.06.2022
3377 Rain 9 1019 87 10000 3.09 200 06:32 03.06.2022
3378 Rain 9 1020 87 10000 3.6 160 05:19 03.06.2022
3379 Clouds 9 1020 71 10000 4.12 170 00:25 03.06.2022
3380 Clouds 9 1020 66 10000 5.14 220 22:41 02.06.2022
3381 Clouds 9 1020 66 10000 4.12 210 21:38 02.06.2022
3382 Clouds 9 1020 66 10000 6.17 230 20:22 02.06.2022
3383 Clouds 9 1020 71 10000 5.66 240 19:43 02.06.2022
3384 Clouds 9 1020 71 10000 5.66 240 19:23 02.06.2022
3385 Drizzle 9 1019 76 10000 4.12 240 16:47 02.06.2022
3386 Drizzle 9 1019 76 10000 4.12 240 16:27 02.06.2022
3387 Clouds 9 1019 76 10000 4.12 230 14:19 02.06.2022
3388 Clouds 9 1018 76 10000 3.6 220 13:29 02.06.2022
3389 Clouds 9 1018 76 10000 4.63 220 11:24 02.06.2022
3390 Drizzle 8 1018 87 10000 5.14 230 10:20 02.06.2022
3391 Drizzle 8 1018 87 10000 3.6 210 09:27 02.06.2022
3392 Clouds 8 1018 87 10000 2.57 180 08:26 02.06.2022
3393 Drizzle 8 1018 93 10000 3.09 210 07:21 02.06.2022
3394 Clouds 11 1018 71 10000 3.6 140 04:52 02.06.2022
3395 Clouds 11 1018 76 10000 2.57 150 02:38 02.06.2022
3396 Clouds 11 1019 76 10000 0 0 23:47 01.06.2022
3397 Clouds 11 1019 76 10000 2.06 280 22:32 01.06.2022
3398 Clouds 11 1019 76 10000 2.57 300 21:35 01.06.2022
3399 Clouds 11 1019 82 10000 2.06 290 20:58 01.06.2022
3400 Clouds 11 1019 82 10000 2.06 290 20:37 01.06.2022
3401 Clouds 11 1019 76 10000 2.57 290 19:25 01.06.2022
3402 Clouds 11 1019 76 10000 2.57 350 17:46 01.06.2022
3403 Drizzle 10 1019 81 10000 2.57 290 16:38 01.06.2022
3404 Clouds 11 1019 82 10000 3.6 290 14:59 01.06.2022
3405 Clouds 11 1018 82 10000 3.6 290 13:53 01.06.2022
3406 Clouds 11 1018 76 10000 3.6 330 12:26 01.06.2022
3407 Clouds 11 1018 76 10000 3.6 330 12:26 01.06.2022
3408 Clouds 10 1017 76 10000 3.09 60 09:48 01.06.2022
3409 Clouds 9 1017 76 10000 2.06 100 08:53 01.06.2022
3410 Clouds 9 1017 76 10000 2.57 90 07:24 01.06.2022
3411 Clouds 9 1017 81 10000 2.57 90 05:52 01.06.2022
3412 Drizzle 10 1016 87 3500 3.6 90 00:40 01.06.2022
3413 Drizzle 10 1015 87 10000 2.06 130 23:30 31.05.2022
3414 Drizzle 10 1015 87 10000 2.06 130 23:30 31.05.2022
3415 Clouds 11 1015 82 10000 2.57 110 22:37 31.05.2022
3416 Clouds 10 1015 87 10000 1.54 360 21:46 31.05.2022
3417 Clouds 10 1014 87 10000 2.57 310 20:45 31.05.2022
3418 Clouds 10 1014 87 10000 2.57 310 20:20 31.05.2022
3419 Clouds 10 1014 87 10000 2.57 290 18:53 31.05.2022
3420 Clouds 10 1014 87 10000 4.12 300 17:50 31.05.2022
3421 Clouds 11 1014 82 10000 2.57 0 16:57 31.05.2022
3422 Clouds 13 1014 71 10000 5.14 150 15:41 31.05.2022
3423 Clouds 11 1013 87 10000 1.54 220 14:18 31.05.2022
3424 Drizzle 10 1013 93 4000 1.54 280 12:20 31.05.2022
3425 Drizzle 10 1013 87 800 2.06 260 10:55 31.05.2022
3426 Drizzle 10 1013 87 800 2.06 260 10:55 31.05.2022
3427 Drizzle 9 1013 93 4000 2.06 240 09:31 31.05.2022
3428 Fog 9 1013 93 1000 1.54 170 07:25 31.05.2022
3429 Drizzle 9 1014 93 2000 1.03 260 05:20 31.05.2022
3430 Mist 9 1016 87 2000 1.54 250 00:52 31.05.2022
3431 Fog 9 1016 93 1000 2.57 280 23:27 30.05.2022
3432 Fog 9 1017 87 1000 1.54 240 22:56 30.05.2022
3433 Fog 9 1017 87 200 2.57 230 21:59 30.05.2022
3434 Clouds 10 1017 81 10000 2.06 240 21:33 30.05.2022
3435 Clouds 9 1018 87 10000 3.09 260 20:20 30.05.2022
3436 Fog 9 1019 87 500 2.57 250 18:41 30.05.2022
3437 Fog 9 1019 87 1000 3.09 280 17:38 30.05.2022
3438 Fog 10 1020 87 9000 2.57 270 16:44 30.05.2022
3439 Clouds 10 1021 81 10000 2.57 290 14:51 30.05.2022
3440 Clouds 9 1022 93 10000 1.03 0 12:29 30.05.2022
3441 Fog 7 1023 100 800 1.54 230 10:46 30.05.2022
3442 Fog 7 1024 93 900 1.54 180 09:38 30.05.2022
3443 Fog 7 1025 93 300 2.06 250 07:22 30.05.2022
3444 Fog 8 1026 93 800 1.03 0 05:49 30.05.2022
3445 Fog 8 1028 93 800 1.54 230 01:48 30.05.2022
3446 Fog 9 1029 87 700 1.54 260 23:21 29.05.2022
3447 Fog 9 1029 93 900 1.54 240 22:38 29.05.2022
3448 Fog 10 1030 87 800 4.12 290 20:57 29.05.2022
3449 Clear 12 1030 76 10000 4.63 290 19:34 29.05.2022
3450 Clear 13 1030 71 10000 4.63 330 18:59 29.05.2022
3451 Clear 13 1030 71 10000 5.66 290 17:31 29.05.2022
3452 Clear 13 1031 54 10000 4.63 330 15:49 29.05.2022
3453 Clear 13 1031 54 10000 4.63 330 15:23 29.05.2022
3454 Clear 14 1031 58 10000 3.09 330 14:18 29.05.2022
3455 Clear 13 1031 58 10000 1.54 240 11:48 29.05.2022
3456 Clear 12 1031 66 10000 2.06 80 10:40 29.05.2022
3457 Clear 10 1031 71 10000 3.09 90 09:31 29.05.2022
3458 Clear 8 1031 81 10000 4.12 90 06:51 29.05.2022
3459 Clear 8 1032 79 10000 4.63 80 04:47 29.05.2022
3460 Clouds 8 1033 83 10000 2.24 134 04:19 29.05.2022
3461 Clear 13 1030 54 10000 3.6 140 23:53 28.05.2022
3462 Clear 13 1030 54 10000 3.6 140 23:34 28.05.2022
3463 Clear 13 1030 54 10000 4.63 150 22:40 28.05.2022
3464 Clear 13 1030 54 10000 5.66 150 21:40 28.05.2022
3465 Clear 14 1030 51 10000 6.69 160 19:51 28.05.2022
3466 Clear 14 1030 51 10000 7.2 160 18:58 28.05.2022
3467 Clear 14 1030 51 10000 7.72 140 17:38 28.05.2022
3468 Clear 14 1030 55 10000 7.2 130 16:50 28.05.2022
3469 Clear 14 1029 51 10000 8.75 150 15:44 28.05.2022
3470 Clouds 13 1029 54 10000 6.69 130 14:35 28.05.2022
3471 Clouds 13 1029 54 10000 8.23 140 13:21 28.05.2022
3472 Clouds 12 1029 58 10000 7.2 120 12:40 28.05.2022
3473 Clouds 11 1029 62 10000 7.72 120 11:26 28.05.2022
3474 Clouds 11 1028 62 10000 6.69 120 10:25 28.05.2022
3475 Clouds 10 1028 66 10000 6.17 110 09:22 28.05.2022
3476 Clear 9 1027 76 10000 4.12 80 07:23 28.05.2022
3477 Clouds 8 1027 81 10000 3.6 100 06:32 28.05.2022
3478 Clear 9 1026 71 10000 3.09 110 03:53 28.05.2022
3479 Clouds 11 1025 62 10000 6.17 140 00:33 28.05.2022
3480 Clouds 12 1024 54 10000 5.66 150 23:34 27.05.2022
3481 Clouds 13 1024 47 10000 2.06 260 22:24 27.05.2022
3482 Clouds 14 1023 47 10000 3.6 290 20:58 27.05.2022
3483 Clouds 14 1023 47 10000 3.6 290 20:31 27.05.2022
3484 Clouds 14 1023 51 10000 4.63 320 19:55 27.05.2022
3485 Clouds 14 1023 51 10000 4.63 320 19:33 27.05.2022
3486 Clouds 14 1022 47 10000 4.63 330 18:37 27.05.2022
3487 Clouds 13 1022 47 10000 4.63 350 16:42 27.05.2022
3488 Clouds 12 1022 50 10000 4.63 360 15:44 27.05.2022
3489 Clouds 12 1021 54 10000 4.12 330 14:45 27.05.2022
3490 Clouds 11 1021 62 10000 3.09 340 13:30 27.05.2022
3491 Clouds 10 1019 62 10000 1.54 0 11:41 27.05.2022
3492 Clouds 10 1019 62 10000 1.54 0 11:23 27.05.2022
3493 Clear 9 1018 71 10000 1.03 0 10:35 27.05.2022
3494 Clouds 8 1018 71 10000 1.54 30 09:42 27.05.2022
3495 Clouds 7 1017 76 10000 1.03 0 08:24 27.05.2022
3496 Clouds 6 1015 81 10000 2.57 190 06:50 27.05.2022
3497 Clear 7 1011 70 10000 1.54 120 02:56 27.05.2022
3498 Clear 8 1009 71 10000 7.2 350 00:53 27.05.2022
3499 Clouds 10 1007 57 10000 5.14 360 22:50 26.05.2022
3500 Clouds 11 1006 54 10000 4.12 10 21:43 26.05.2022
3501 Clouds 12 1005 50 10000 6.69 10 20:59 26.05.2022
3502 Clouds 12 1003 50 10000 6.17 10 19:29 26.05.2022
3503 Clouds 12 1002 50 10000 7.2 10 18:24 26.05.2022
3504 Clouds 12 1000 54 10000 5.66 360 16:58 26.05.2022
3505 Clouds 10 999 66 10000 4.63 340 15:52 26.05.2022
3506 Clouds 10 999 66 10000 4.63 340 15:18 26.05.2022
3507 Clouds 9 997 71 10000 7.72 330 13:45 26.05.2022
3508 Clouds 8 995 71 10000 7.72 350 11:38 26.05.2022
3509 Clouds 7 994 70 10000 4.12 60 10:37 26.05.2022
3510 Clouds 6 993 81 10000 0.51 0 09:37 26.05.2022
3511 Clouds 6 992 81 10000 1.54 30 08:38 26.05.2022
3512 Drizzle 6 990 81 10000 0.51 0 05:25 26.05.2022
3513 Clear 7 989 81 10000 1.03 0 01:26 26.05.2022
3514 Clouds 8 989 76 10000 3.09 310 23:41 25.05.2022
3515 Clouds 9 989 66 10000 2.57 320 22:51 25.05.2022
3516 Clouds 9 989 71 10000 3.09 320 21:39 25.05.2022
3517 Clouds 9 988 66 10000 3.09 340 20:43 25.05.2022
3518 Clouds 9 988 66 10000 3.09 10 19:32 25.05.2022
3519 Clouds 8 988 66 10000 0 0 18:23 25.05.2022
3520 Clouds 8 988 71 10000 2.57 20 16:53 25.05.2022
3521 Clouds 8 988 71 10000 2.57 20 16:25 25.05.2022
3522 Clouds 8 988 71 10000 2.06 300 15:36 25.05.2022
3523 Clouds 7 988 76 10000 0.51 0 14:42 25.05.2022
3524 Clouds 7 988 76 10000 0.51 0 14:24 25.05.2022
3525 Clouds 7 988 76 10000 1.54 340 13:21 25.05.2022
3526 Clouds 7 988 78 10000 0.75 119 11:32 25.05.2022
3527 Clouds 7 987 76 10000 1.03 0 10:23 25.05.2022
3528 Clouds 5 987 83 10000 1.66 139 08:53 25.05.2022
3529 Clouds 5 987 91 10000 1.96 112 07:26 25.05.2022
3530 Clouds 5 987 87 10000 1.54 150 05:27 25.05.2022
3531 Clouds 5 988 92 3534 1.4 180 01:51 25.05.2022
3532 Clouds 7 988 81 10000 3.6 210 23:48 24.05.2022
3533 Clouds 8 988 76 10000 0 0 22:58 24.05.2022
3534 Rain 8 988 81 10000 0.51 0 21:47 24.05.2022
3535 Rain 8 988 81 10000 0.51 0 21:23 24.05.2022
3536 Clouds 7 988 87 10000 1.54 280 20:59 24.05.2022
3537 Rain 8 988 81 9000 2.06 230 19:20 24.05.2022
3538 Rain 8 989 81 9000 2.06 100 18:29 24.05.2022
3539 Rain 8 989 81 10000 7.2 120 16:39 24.05.2022
3540 Rain 9 990 76 10000 5.66 110 15:31 24.05.2022
3541 Clouds 9 991 71 10000 5.66 100 14:38 24.05.2022
3542 Rain 9 991 66 10000 6.17 110 13:46 24.05.2022
3543 Clouds 8 992 76 10000 5.66 110 12:24 24.05.2022
3544 Clouds 7 994 70 10000 2.57 130 09:52 24.05.2022
3545 Clouds 7 994 70 10000 2.06 120 08:52 24.05.2022
3546 Clouds 7 995 76 10000 2.57 140 07:56 24.05.2022
3547 Clouds 7 996 76 10000 2.06 160 06:39 24.05.2022
3548 Clouds 7 997 76 10000 2.06 260 03:38 24.05.2022
3549 Clouds 7 998 76 10000 2.57 260 01:46 24.05.2022
3550 Clouds 7 998 81 10000 3.09 290 00:34 24.05.2022
3551 Clouds 9 998 76 10000 3.6 290 22:24 23.05.2022
3552 Clouds 10 999 66 10000 4.12 290 21:53 23.05.2022
3553 Clouds 10 999 66 10000 3.6 280 20:49 23.05.2022
3554 Clouds 10 1000 71 10000 0.91 306 19:56 23.05.2022
3555 Clouds 10 1000 71 10000 1.11 18 19:27 23.05.2022
3556 Clouds 10 999 66 10000 5.14 290 18:41 23.05.2022
3557 Clouds 10 1000 62 10000 5.66 290 17:56 23.05.2022
3558 Clouds 11 1000 58 10000 4.12 320 16:40 23.05.2022
3559 Clouds 10 1001 62 10000 5.14 290 14:20 23.05.2022
3560 Clear 10 1002 66 10000 2.57 260 11:57 23.05.2022
3561 Clear 9 1003 61 10000 1.54 140 10:58 23.05.2022
3562 Clear 8 1004 71 10000 1.54 120 09:48 23.05.2022
3563 Clear 7 1004 70 10000 0.51 0 08:50 23.05.2022
3564 Clouds 6 1004 70 10000 1.03 0 07:41 23.05.2022
3565 Clear 4 1004 77 10000 2.44 54 06:41 23.05.2022
3566 Clear 6 1006 72 10000 3.09 110 04:40 23.05.2022
3567 Clear 9 1007 57 10000 4.63 90 02:19 23.05.2022
3568 Clear 9 1007 66 10000 3.6 50 01:33 23.05.2022
3569 Clear 11 1007 62 10000 3.09 360 23:22 22.05.2022
3570 Clear 11 1007 58 10000 5.14 360 22:34 22.05.2022
3571 Clouds 13 1006 50 10000 5.14 360 21:54 22.05.2022
3572 Clouds 13 1007 54 10000 5.66 360 20:51 22.05.2022
3573 Clouds 13 1007 54 10000 5.66 360 20:23 22.05.2022
3574 Clouds 12 1007 54 10000 6.17 350 19:54 22.05.2022
3575 Clouds 13 1007 54 10000 6.69 350 18:53 22.05.2022
3576 Clouds 13 1007 54 10000 6.69 350 18:24 22.05.2022
3577 Clouds 13 1007 54 10000 5.66 350 17:28 22.05.2022
3578 Clouds 13 1007 44 10000 2.57 20 15:59 22.05.2022
3579 Clouds 12 1007 54 10000 2.57 310 14:48 22.05.2022
3580 Clouds 11 1006 54 10000 3.09 290 13:38 22.05.2022
3581 Clouds 10 1006 62 10000 2.57 300 12:50 22.05.2022
3582 Clouds 10 1006 57 10000 1.54 190 11:37 22.05.2022
3583 Clear 8 1006 66 10000 1.03 0 09:42 22.05.2022
3584 Clouds 7 1005 76 10000 4.12 190 08:31 22.05.2022
3585 Clouds 5 1005 75 10000 1.03 0 07:21 22.05.2022
3586 Clouds 6 1004 75 10000 1.54 130 05:31 22.05.2022
3587 Clouds 9 1003 71 10000 2.57 360 01:41 22.05.2022
3588 Clouds 10 1002 66 10000 2.57 20 00:43 22.05.2022
3589 Clouds 10 1002 66 10000 7.2 360 23:54 21.05.2022
3590 Clouds 11 1001 66 10000 5.14 350 22:57 21.05.2022
3591 Clouds 12 1000 62 10000 7.72 360 21:42 21.05.2022
3592 Clouds 14 1000 54 10000 7.72 10 20:59 21.05.2022
3593 Clouds 14 1000 54 10000 7.72 10 20:22 21.05.2022
3594 Clouds 14 999 54 10000 7.2 360 19:30 21.05.2022
3595 Clouds 13 999 62 10000 8.75 360 17:51 21.05.2022
3596 Clouds 13 998 62 10000 7.72 350 16:43 21.05.2022
3597 Clouds 12 998 66 10000 6.69 350 14:37 21.05.2022
3598 Clouds 13 998 58 10000 5.66 360 13:42 21.05.2022
3599 Clear 11 997 62 10000 5.66 30 12:50 21.05.2022
3600 Clear 11 997 62 10000 5.66 30 12:25 21.05.2022
3601 Clear 10 997 76 10000 1.03 0 10:34 21.05.2022
3602 Clear 9 997 81 10000 1.03 0 09:43 21.05.2022
3603 Clear 8 996 93 10000 0.51 0 08:57 21.05.2022
3604 Clear 6 996 93 10000 1.03 300 07:54 21.05.2022
3605 Clouds 9 997 88 10000 1.91 352 04:29 21.05.2022
3606 Clouds 13 995 67 10000 2.57 0 23:54 20.05.2022
3607 Clouds 12 994 66 10000 3.09 350 22:57 20.05.2022
3608 Clouds 12 994 66 10000 3.09 350 22:24 20.05.2022
3609 Clouds 12 994 66 10000 3.09 50 21:43 20.05.2022
3610 Clouds 12 994 66 10000 5.14 360 20:56 20.05.2022
3611 Clouds 12 994 66 10000 5.14 360 20:25 20.05.2022
3612 Clouds 13 994 62 10000 3.6 90 19:26 20.05.2022
3613 Clouds 12 994 71 10000 4.63 80 18:46 20.05.2022
3614 Clouds 13 994 62 10000 5.14 90 17:24 20.05.2022
3615 Clouds 13 993 58 10000 6.69 90 16:20 20.05.2022
3616 Clouds 13 993 58 10000 4.63 70 15:53 20.05.2022
3617 Clouds 13 993 58 10000 4.63 80 14:31 20.05.2022
3618 Clouds 13 993 62 10000 6.17 70 13:55 20.05.2022
3619 Clouds 12 993 70 10000 4.47 115 11:38 20.05.2022
3620 Rain 11 993 66 10000 4.12 80 10:19 20.05.2022
3621 Rain 10 993 71 10000 3.6 60 08:45 20.05.2022
3622 Clouds 9 993 76 10000 4.12 80 07:18 20.05.2022
3623 Clouds 9 993 76 10000 2.57 90 06:34 20.05.2022
3624 Clouds 9 993 87 10000 4.12 90 04:59 20.05.2022
3625 Rain 11 993 71 10000 6.17 90 00:54 20.05.2022
3626 Clouds 12 993 62 10000 5.66 100 22:57 19.05.2022
3627 Clouds 12 993 62 10000 5.66 100 22:25 19.05.2022
3628 Clouds 10 993 76 10000 3.6 350 21:48 19.05.2022
3629 Clouds 10 993 76 10000 3.6 350 21:23 19.05.2022
3630 Clouds 12 992 62 10000 2.06 330 20:39 19.05.2022
3631 Clouds 13 992 58 10000 3.09 120 19:53 19.05.2022
3632 Clouds 12 992 71 10000 6.69 130 18:34 19.05.2022
3633 Rain 13 992 67 10000 6.17 110 17:31 19.05.2022
3634 Clouds 12 993 62 10000 4.12 40 15:33 19.05.2022
3635 Rain 11 993 66 10000 3.6 50 14:29 19.05.2022
3636 Rain 12 993 58 10000 4.12 60 13:50 19.05.2022
3637 Clouds 11 994 66 10000 4.63 90 11:46 19.05.2022
3638 Clouds 9 994 76 10000 4.12 70 09:35 19.05.2022
3639 Clouds 8 994 81 10000 4.63 70 08:27 19.05.2022
3640 Clouds 8 994 87 10000 3.09 40 06:31 19.05.2022
3641 Clouds 9 994 87 8000 2.06 50 02:54 19.05.2022
3642 Clouds 9 994 87 7000 2.06 80 00:47 19.05.2022
3643 Clouds 10 994 81 5000 3.09 110 22:53 18.05.2022
3644 Clouds 10 994 76 10000 1.54 270 22:35 18.05.2022
3645 Clouds 10 994 81 10000 2.06 250 21:31 18.05.2022
3646 Clouds 11 995 76 10000 3.6 250 20:55 18.05.2022
3647 Clouds 11 995 76 10000 3.6 250 20:19 18.05.2022
3648 Clear 10 996 76 10000 3.6 270 18:43 18.05.2022
3649 Clear 10 996 81 10000 5.14 300 17:41 18.05.2022
3650 Clear 10 996 81 10000 5.14 300 17:23 18.05.2022
3651 Clear 13 997 58 10000 4.63 300 16:35 18.05.2022
3652 Clear 14 997 54 10000 3.6 280 15:42 18.05.2022
3653 Clear 14 997 54 10000 3.6 280 15:19 18.05.2022
3654 Clear 14 999 51 10000 3.6 80 13:48 18.05.2022
3655 Clear 13 999 50 10000 4.63 70 12:53 18.05.2022
3656 Clear 13 999 50 10000 4.63 80 11:41 18.05.2022
3657 Clear 13 999 50 10000 4.63 80 11:23 18.05.2022
3658 Clear 11 999 58 10000 5.66 40 09:57 18.05.2022
3659 Clear 10 1000 66 10000 4.63 70 07:56 18.05.2022
3660 Clear 10 1000 66 10000 4.63 80 06:50 18.05.2022
3661 Clear 10 1001 71 10000 7.72 70 02:44 18.05.2022
3662 Clear 12 1001 62 10000 9.26 90 00:31 18.05.2022
3663 Clouds 12 1001 66 10000 6.17 90 22:57 17.05.2022
3664 Rain 13 1002 58 10000 7.72 90 21:21 17.05.2022
3665 Clouds 14 1002 54 10000 7.72 80 20:30 17.05.2022
3666 Clear 14 1002 51 10000 8.23 80 19:29 17.05.2022
3667 Clear 15 1003 47 10000 8.23 90 18:22 17.05.2022
3668 Clouds 14 1004 54 10000 6.17 80 17:28 17.05.2022
3669 Clouds 13 1005 54 10000 7.2 100 16:36 17.05.2022
3670 Clear 11 1006 66 10000 3.6 80 15:43 17.05.2022
3671 Clouds 11 1007 62 10000 6.17 100 14:48 17.05.2022
3672 Rain 11 1007 62 10000 6.17 100 14:23 17.05.2022
3673 Clouds 14 1008 35 10000 8.23 90 12:36 17.05.2022
3674 Clear 13 1010 41 10000 5.66 80 10:23 17.05.2022
3675 Clear 11 1011 54 10000 4.63 90 08:45 17.05.2022
3676 Clear 11 1012 50 10000 5.66 70 07:41 17.05.2022
3677 Clear 11 1013 54 10000 8.75 80 05:58 17.05.2022
3678 Clear 13 1015 54 10000 7.2 90 00:47 17.05.2022
3679 Clear 16 1014 44 10000 6.69 90 22:51 16.05.2022
3680 Clear 16 1014 44 10000 6.69 90 22:30 16.05.2022
3681 Clouds 16 1015 51 10000 8.75 80 20:56 16.05.2022
3682 Clouds 16 1015 51 10000 8.75 80 20:33 16.05.2022
3683 Clouds 16 1015 44 10000 6.17 80 18:41 16.05.2022
3684 Clouds 15 1016 47 10000 5.14 120 16:41 16.05.2022
3685 Clouds 14 1017 54 10000 6.17 100 14:58 16.05.2022
3686 Clouds 13 1017 54 10000 4.63 80 13:34 16.05.2022
3687 Clouds 13 1018 50 10000 5.66 80 12:34 16.05.2022
3688 Clouds 11 1018 62 10000 4.63 100 10:34 16.05.2022
3689 Clouds 10 1017 71 10000 4.63 110 07:47 16.05.2022
3690 Clouds 10 1017 76 10000 6.17 120 05:44 16.05.2022
3691 Clouds 10 1015 81 10000 8.23 150 00:44 16.05.2022
3692 Clouds 11 1014 82 10000 10.29 140 22:42 15.05.2022
3693 Clouds 11 1014 76 10000 7.72 140 21:57 15.05.2022
3694 Clouds 11 1014 76 10000 7.72 140 21:36 15.05.2022
3695 Clouds 11 1013 82 10000 8.23 150 20:38 15.05.2022
3696 Clouds 13 1013 67 10000 9.26 160 18:39 15.05.2022
3697 Clouds 13 1012 71 10000 8.75 160 16:54 15.05.2022
3698 Drizzle 11 1010 87 3800 7.2 170 14:29 15.05.2022
3699 Clouds 11 1009 82 10000 6.17 160 13:45 15.05.2022
3700 Rain 11 1008 82 10000 6.69 140 11:59 15.05.2022
3701 Clouds 10 1007 81 10000 4.12 150 10:47 15.05.2022
3702 Clouds 9 1007 87 10000 4.63 110 09:46 15.05.2022
3703 Rain 8 1005 81 10000 5.14 110 07:22 15.05.2022
3704 Clouds 8 1005 81 10000 5.14 90 06:42 15.05.2022
3705 Drizzle 7 1004 76 10000 7.72 90 02:55 15.05.2022
3706 Rain 7 1004 76 10000 7.2 90 00:24 15.05.2022
3707 Drizzle 8 1004 76 10000 5.66 100 23:37 14.05.2022
3708 Clouds 8 1004 71 10000 5.66 90 21:50 14.05.2022
3709 Clouds 8 1004 71 10000 5.66 90 21:26 14.05.2022
3710 Clouds 7 1005 76 10000 4.63 80 20:27 14.05.2022
3711 Rain 7 1005 76 10000 6.17 110 19:20 14.05.2022
3712 Rain 8 1005 71 10000 5.66 120 18:57 14.05.2022
3713 Clouds 9 1005 53 10000 6.17 130 17:44 14.05.2022
3714 Clouds 9 1005 46 10000 5.14 150 15:58 14.05.2022
3715 Clouds 9 1004 37 10000 2.57 140 14:38 14.05.2022
3716 Clouds 9 1004 37 10000 2.57 140 14:18 14.05.2022
3717 Clear 6 1004 49 10000 3.6 80 11:46 14.05.2022
3718 Clear 4 1004 52 10000 2.06 70 10:44 14.05.2022
3719 Clear 4 1004 52 10000 2.06 70 10:18 14.05.2022
3720 Clear 2 1004 64 10000 1.54 100 09:23 14.05.2022
3721 Clear 0 1003 69 10000 1.54 100 07:32 14.05.2022
3722 Clear 0 1003 69 10000 1.03 0 04:43 14.05.2022
3723 Clouds 5 1002 56 10000 3.6 10 00:43 14.05.2022
3724 Clouds 5 1001 60 10000 6.69 360 23:28 13.05.2022
3725 Clouds 5 1001 56 10000 7.72 360 22:55 13.05.2022
3726 Clouds 5 1001 56 10000 7.72 360 22:21 13.05.2022
3727 Clouds 6 1000 45 10000 7.72 360 20:59 13.05.2022
3728 Clouds 6 1000 45 10000 7.72 360 20:38 13.05.2022
3729 Clouds 6 1000 45 10000 7.72 360 20:20 13.05.2022
3730 Clouds 6 1001 45 10000 8.23 360 19:18 13.05.2022
3731 Clouds 6 1000 49 10000 7.2 10 17:47 13.05.2022
3732 Clouds 6 1000 49 10000 7.2 10 17:23 13.05.2022
3733 Clouds 6 1000 49 10000 6.69 10 15:47 13.05.2022
3734 Clouds 6 999 45 10000 5.14 10 14:39 13.05.2022
3735 Clear 4 999 56 10000 5.14 350 12:53 13.05.2022
3736 Clear 4 999 56 10000 1.54 230 11:56 13.05.2022
3737 Clear 3 998 60 10000 2.06 210 10:19 13.05.2022
3738 Clear 2 998 69 10000 2.57 160 09:29 13.05.2022
3739 Clear 0 997 74 10000 3.09 170 07:52 13.05.2022
3740 Clear 0 997 74 10000 3.09 170 07:18 13.05.2022
3741 Clear 0 997 69 10000 1.03 0 05:31 13.05.2022
3742 Clouds 4 996 56 10000 2.06 50 01:21 13.05.2022
3743 Clouds 5 996 60 10000 7.72 10 23:24 12.05.2022
3744 Clouds 6 996 56 10000 6.17 30 22:34 12.05.2022
3745 Clouds 6 995 52 10000 7.72 20 21:26 12.05.2022
3746 Clouds 7 995 53 10000 7.72 10 19:55 12.05.2022
3747 Clouds 5 993 66 10000 6.14 354 18:29 12.05.2022
3748 Clouds 6 994 61 10000 8.75 10 16:48 12.05.2022
3749 Clouds 6 994 65 10000 8.75 10 15:22 12.05.2022
3750 Clouds 4 993 70 10000 6.17 340 13:52 12.05.2022
3751 Clouds 3 993 75 10000 7.72 360 12:29 12.05.2022
3752 Clouds 2 992 87 10000 3.6 10 10:34 12.05.2022
3753 Clouds 2 992 80 10000 3.09 310 08:58 12.05.2022
3754 Clouds 2 992 80 10000 3.09 310 08:35 12.05.2022
3755 Clouds 2 993 87 10000 2.06 320 07:25 12.05.2022
3756 Clouds 2 994 93 10000 5.14 210 04:50 12.05.2022
3757 Clouds 3 995 81 10000 4.12 300 01:55 12.05.2022
3758 Clouds 4 996 75 10000 3.09 270 23:42 11.05.2022
3759 Clouds 5 996 70 10000 2.57 290 22:29 11.05.2022
3760 Clouds 5 996 70 10000 3.09 310 21:27 11.05.2022
3761 Clouds 5 997 60 10000 4.12 300 20:48 11.05.2022
3762 Clouds 5 998 60 10000 3.6 280 17:54 11.05.2022
3763 Clouds 5 998 65 10000 3.6 270 16:47 11.05.2022
3764 Clouds 5 998 60 10000 4.12 290 14:49 11.05.2022
3765 Clouds 5 998 60 10000 4.12 290 14:25 11.05.2022
3766 Clouds 4 998 65 10000 4.63 300 13:44 11.05.2022
3767 Clouds 4 998 70 10000 5.66 340 11:50 11.05.2022
3768 Clouds 3 997 75 10000 4.63 320 09:39 11.05.2022
3769 Clouds 2 997 80 10000 5.14 340 07:52 11.05.2022
3770 Clouds 3 996 81 10000 4.63 340 04:43 11.05.2022
3771 Clouds 6 995 65 10000 5.14 360 23:48 10.05.2022
3772 Clouds 7 995 61 10000 4.63 360 22:30 10.05.2022
3773 Clouds 8 994 57 10000 4.12 10 21:45 10.05.2022
3774 Clouds 8 994 57 10000 5.66 10 20:48 10.05.2022
3775 Clouds 9 993 53 10000 7.72 20 19:25 10.05.2022
3776 Clouds 9 994 53 10000 7.2 360 17:47 10.05.2022
3777 Clouds 9 994 49 10000 3.6 20 16:41 10.05.2022
3778 Clouds 8 995 57 10000 2.06 360 13:59 10.05.2022
3779 Clear 7 995 61 10000 3.09 290 12:37 10.05.2022
3780 Clear 6 995 65 10000 1.03 0 11:49 10.05.2022
3781 Clear 6 995 65 10000 1.03 0 11:18 10.05.2022
3782 Clear 6 995 65 10000 1.03 0 11:18 10.05.2022
3783 Clear 4 995 75 10000 2.06 170 09:57 10.05.2022
3784 Clear 4 995 75 10000 2.06 170 09:25 10.05.2022
3785 Clear 2 995 80 10000 1.54 180 06:44 10.05.2022
3786 Clear 5 995 81 10000 4.63 190 02:59 10.05.2022
3787 Clouds 8 995 66 10000 2.57 350 00:24 10.05.2022
3788 Clouds 10 995 66 10000 4.63 10 22:43 09.05.2022
3789 Clouds 11 995 66 10000 6.17 360 21:48 09.05.2022
3790 Clouds 9 995 71 10000 6.17 320 20:25 09.05.2022
3791 Clouds 10 996 71 10000 5.14 340 18:43 09.05.2022
3792 Clouds 11 996 58 10000 5.66 340 17:39 09.05.2022
3793 Clouds 11 996 62 10000 4.12 330 16:29 09.05.2022
3794 Clouds 11 997 66 10000 3.09 360 15:49 09.05.2022
3795 Clouds 10 997 66 10000 2.57 360 14:47 09.05.2022
3796 Clouds 10 997 66 10000 2.57 360 14:22 09.05.2022
3797 Clouds 9 997 66 10000 1.54 220 13:36 09.05.2022
3798 Clouds 9 997 66 10000 1.54 220 13:36 09.05.2022
3799 Clouds 10 997 62 10000 3.6 130 11:57 09.05.2022
3800 Clouds 9 997 71 10000 2.57 120 10:55 09.05.2022
3801 Clouds 9 997 71 10000 2.57 120 10:36 09.05.2022
3802 Clouds 8 996 76 10000 4.63 140 08:31 09.05.2022
3803 Clouds 8 996 76 10000 4.12 130 07:49 09.05.2022
3804 Clouds 9 996 87 8000 5.66 100 02:55 09.05.2022
3805 Rain 10 996 81 10000 7.72 100 23:34 08.05.2022
3806 Drizzle 11 997 82 10000 6.69 100 22:52 08.05.2022
3807 Clouds 11 997 82 5000 8.75 100 21:48 08.05.2022
3808 Clouds 11 997 82 5000 8.75 100 21:48 08.05.2022
3809 Rain 14 998 62 10000 8.75 80 20:35 08.05.2022
3810 Clouds 13 999 67 10000 9.26 70 19:43 08.05.2022
3811 Clouds 14 1000 58 10000 9.77 90 18:53 08.05.2022
3812 Clouds 14 1002 62 10000 7.2 70 17:57 08.05.2022
3813 Clouds 13 1003 67 10000 6.69 90 16:42 08.05.2022
3814 Clouds 13 1004 67 10000 6.69 90 15:26 08.05.2022
3815 Clouds 12 1005 76 10000 6.17 100 14:44 08.05.2022
3816 Clouds 10 1007 81 10000 7.2 90 12:25 08.05.2022
3817 Clouds 9 1008 81 10000 7.72 110 10:31 08.05.2022
3818 Clouds 9 1008 81 10000 6.69 100 09:56 08.05.2022
3819 Clouds 9 1008 81 10000 6.69 100 09:56 08.05.2022
3820 Clouds 9 1009 81 10000 7.2 120 08:55 08.05.2022
3821 Clouds 8 1009 87 10000 8.23 110 06:58 08.05.2022
3822 Clouds 7 1011 81 10000 7.2 100 03:35 08.05.2022
3823 Clouds 6 1012 81 10000 7.2 90 02:45 08.05.2022
3824 Drizzle 7 1014 81 10000 6.69 100 00:24 08.05.2022
3825 Rain 7 1014 76 10000 8.75 120 23:49 07.05.2022
3826 Rain 8 1015 71 10000 6.69 110 22:46 07.05.2022
3827 Clouds 8 1016 66 10000 7.2 130 21:58 07.05.2022
3828 Clouds 8 1016 66 10000 7.2 130 21:33 07.05.2022
3829 Clouds 9 1016 61 10000 8.75 140 20:28 07.05.2022
3830 Clouds 9 1017 61 10000 8.75 150 19:23 07.05.2022
3831 Clouds 10 1018 50 10000 8.75 160 17:35 07.05.2022
3832 Clouds 8 1019 57 10000 7.2 150 15:46 07.05.2022
3833 Clouds 8 1019 57 10000 6.17 160 13:39 07.05.2022
3834 Clouds 6 1020 65 10000 4.12 160 10:41 07.05.2022
3835 Clouds 5 1020 70 10000 3.6 150 09:19 07.05.2022
3836 Clouds 4 1020 75 10000 3.09 140 07:50 07.05.2022
3837 Clouds 4 1020 75 10000 3.09 170 06:43 07.05.2022
3838 Clouds 4 1021 86 10000 4.63 210 04:41 07.05.2022
3839 Clouds 4 1020 81 10000 6.17 210 01:24 07.05.2022
3840 Clouds 4 1019 81 10000 6.17 290 23:37 06.05.2022
3841 Snow 4 1019 81 10000 5.66 230 22:27 06.05.2022
3842 Clouds 5 1018 81 10000 6.17 260 21:43 06.05.2022
3843 Rain 5 1018 70 10000 8.23 240 20:33 06.05.2022
3844 Clouds 5 1017 52 10000 6.17 260 19:30 06.05.2022
3845 Clouds 5 1017 48 10000 5.66 260 18:57 06.05.2022
3846 Clouds 5 1017 48 10000 5.66 260 18:18 06.05.2022
3847 Clouds 5 1016 56 10000 7.2 290 16:39 06.05.2022
3848 Clouds 5 1015 52 10000 7.2 270 15:39 06.05.2022
3849 Clouds 5 1014 65 10000 6.69 280 14:46 06.05.2022
3850 Clouds 5 1012 60 10000 3.6 230 12:54 06.05.2022
3851 Rain 5 1012 60 10000 3.6 230 12:33 06.05.2022
3852 Clouds 4 1012 67 10000 2.06 180 11:41 06.05.2022
3853 Clouds 3 1011 67 10000 0.89 229 10:27 06.05.2022
3854 Clouds 2 1010 69 10000 1.54 10 09:45 06.05.2022
3855 Clouds 1 1009 75 10000 4.12 350 08:27 06.05.2022
3856 Clouds 2 1007 75 10000 6.69 330 06:42 06.05.2022
3857 Clouds 3 1004 79 10000 7.2 330 04:53 06.05.2022
3858 Clouds 4 1001 65 10000 7.2 310 02:45 06.05.2022
3859 Clouds 4 997 70 10000 8.75 280 23:45 05.05.2022
3860 Clouds 4 995 70 10000 9.77 250 21:56 05.05.2022
3861 Clouds 4 995 70 10000 9.77 250 21:19 05.05.2022
3862 Clouds 4 995 70 10000 10.29 230 19:53 05.05.2022
3863 Clouds 3 995 87 10000 12.35 240 18:26 05.05.2022
3864 Clouds 3 996 87 8000 7.2 180 16:20 05.05.2022
3865 Clouds 5 997 60 10000 8.23 130 14:49 05.05.2022
3866 Clouds 4 998 65 10000 7.2 120 13:22 05.05.2022
3867 Clouds 5 999 56 10000 6.17 140 12:25 05.05.2022
3868 Clear 3 1001 65 10000 3.6 100 10:37 05.05.2022
3869 Clear 1 1002 82 10000 3.09 120 09:39 05.05.2022
3870 Clouds 0 1003 74 10000 2.57 110 07:35 05.05.2022
3871 Clouds 1 1005 75 10000 2.06 160 04:28 05.05.2022
3872 Clouds 3 1006 65 10000 2.57 270 01:53 05.05.2022
3873 Clouds 3 1006 65 10000 2.57 270 01:24 05.05.2022
3874 Clouds 3 1007 65 10000 3.09 310 23:47 04.05.2022
3875 Clouds 3 1007 65 10000 3.09 290 22:30 04.05.2022
3876 Clouds 4 1007 60 10000 4.12 290 21:49 04.05.2022
3877 Clouds 4 1007 60 10000 4.12 290 21:26 04.05.2022
3878 Clouds 4 1007 60 10000 4.63 300 20:24 04.05.2022
3879 Clouds 4 1008 60 10000 4.63 290 19:53 04.05.2022
3880 Clouds 4 1008 56 10000 5.14 300 18:54 04.05.2022
3881 Clouds 4 1008 56 10000 5.14 300 18:22 04.05.2022
3882 Clouds 4 1008 60 10000 4.63 290 17:38 04.05.2022
3883 Clouds 4 1009 56 10000 5.66 320 15:41 04.05.2022
3884 Clouds 4 1009 56 10000 5.66 320 15:23 04.05.2022
3885 Clouds 3 1009 60 10000 4.63 320 14:21 04.05.2022
3886 Clouds 3 1009 56 10000 4.63 310 13:33 04.05.2022
3887 Clouds 2 1010 60 10000 3.09 330 12:33 04.05.2022
3888 Clouds 2 1009 60 10000 4.63 350 10:41 04.05.2022
3889 Clouds 1 1009 69 10000 6.17 330 09:43 04.05.2022
3890 Clouds 1 1009 75 10000 6.69 340 08:46 04.05.2022
3891 Clouds 1 1009 75 10000 7.2 340 06:41 04.05.2022
3892 Clouds 2 1007 75 10000 4.63 360 02:58 04.05.2022
3893 Clouds 3 1005 81 10000 6.17 350 00:33 04.05.2022
3894 Clouds 5 1004 70 10000 8.23 350 22:37 03.05.2022
3895 Clouds 6 1002 75 10000 10.29 350 21:46 03.05.2022
3896 Clouds 6 1002 87 10000 7.72 350 20:54 03.05.2022
3897 Clouds 6 1001 87 10000 6.17 350 19:57 03.05.2022
3898 Clouds 8 1001 87 8000 4.63 360 18:54 03.05.2022
3899 Clouds 8 1001 87 8000 4.63 360 18:21 03.05.2022
3900 Clouds 9 1002 81 10000 3.09 90 16:44 03.05.2022
3901 Clouds 9 1002 81 10000 3.09 90 15:38 03.05.2022
3902 Clouds 7 1004 87 10000 5.66 90 12:47 03.05.2022
3903 Clouds 7 1004 87 10000 5.66 90 12:27 03.05.2022
3904 Clouds 6 1005 87 10000 4.12 60 10:57 03.05.2022
3905 Clouds 6 1005 87 10000 3.6 60 09:35 03.05.2022
3906 Drizzle 6 1007 81 10000 3.09 50 07:33 03.05.2022
3907 Clouds 6 1007 81 10000 3.6 70 06:45 03.05.2022
3908 Clouds 5 1011 81 10000 8.75 90 01:47 03.05.2022
3909 Clouds 5 1014 75 10000 8.23 80 22:39 02.05.2022
3910 Clouds 5 1014 75 10000 7.72 80 21:54 02.05.2022
3911 Clouds 6 1015 70 10000 7.72 90 20:51 02.05.2022
3912 Clouds 7 1017 70 10000 7.2 90 18:46 02.05.2022
3913 Clouds 7 1017 70 10000 7.2 90 18:25 02.05.2022
3914 Rain 8 1019 71 10000 6.69 110 17:37 02.05.2022
3915 Drizzle 7 1019 76 10000 7.2 100 16:23 02.05.2022
3916 Clouds 7 1020 76 10000 6.69 100 15:31 02.05.2022
3917 Clouds 7 1021 61 10000 5.14 100 13:58 02.05.2022
3918 Clouds 7 1021 61 10000 4.63 100 12:27 02.05.2022
3919 Clear 5 1022 60 10000 5.14 80 10:52 02.05.2022
3920 Clear 3 1022 60 10000 5.66 70 09:30 02.05.2022
3921 Clear 3 1022 56 10000 5.14 70 07:57 02.05.2022
3922 Clear 3 1023 60 10000 2.06 60 04:44 02.05.2022
3923 Clear 4 1024 70 10000 0.51 0 00:25 02.05.2022
3924 Clear 5 1023 70 10000 3.09 210 23:52 01.05.2022
3925 Clear 6 1023 65 10000 2.57 230 22:45 01.05.2022
3926 Clear 6 1023 61 10000 3.09 290 21:30 01.05.2022
3927 Clear 5 1023 56 10000 4.12 290 20:19 01.05.2022
3928 Clear 6 1023 56 10000 4.12 290 19:18 01.05.2022
3929 Clear 6 1023 61 10000 4.12 290 18:46 01.05.2022
3930 Clear 7 1023 57 10000 4.63 300 17:47 01.05.2022
3931 Clouds 7 1023 53 10000 5.14 300 16:24 01.05.2022
3932 Clouds 7 1023 70 10000 5.14 290 15:43 01.05.2022
3933 Clouds 7 1023 70 10000 5.14 310 14:22 01.05.2022
3934 Clouds 6 1022 87 10000 3.6 290 11:53 01.05.2022
3935 Clouds 7 1022 81 10000 4.63 270 09:33 01.05.2022
3936 Clouds 6 1022 81 10000 6.17 260 08:49 01.05.2022
3937 Clouds 7 1022 81 10000 5.14 250 05:31 01.05.2022
3938 Clouds 7 1023 76 10000 4.63 250 00:43 01.05.2022
3939 Clouds 7 1023 76 10000 5.66 260 21:52 30.04.2022
3940 Clouds 7 1023 76 10000 5.66 260 21:30 30.04.2022
3941 Clouds 7 1023 76 10000 5.66 260 21:30 30.04.2022
3942 Clouds 7 1023 76 10000 5.66 260 21:30 30.04.2022
3943 Clouds 7 1023 81 10000 2.57 230 19:47 30.04.2022
3944 Clouds 7 1024 76 10000 3.09 250 18:50 30.04.2022
3945 Clouds 7 1025 70 10000 2.57 250 17:20 30.04.2022
3946 Clouds 7 1025 76 10000 4.12 290 15:50 30.04.2022
3947 Clouds 7 1026 76 10000 2.57 270 14:54 30.04.2022
3948 Clouds 7 1026 76 10000 4.12 280 13:41 30.04.2022
3949 Drizzle 6 1027 87 10000 4.12 280 11:35 30.04.2022
3950 Clouds 7 1027 81 10000 2.57 270 10:55 30.04.2022
3951 Clouds 6 1027 81 10000 2.57 280 09:54 30.04.2022
3952 Clouds 6 1027 81 10000 2.57 290 07:35 30.04.2022
3953 Fog 6 1028 93 750 1.03 0 03:45 30.04.2022
3954 Clear 8 1029 71 10000 1.54 290 23:54 29.04.2022
3955 Clear 10 1029 62 10000 1.54 260 22:35 29.04.2022
3956 Clear 10 1028 57 10000 2.57 290 21:54 29.04.2022
3957 Clear 10 1028 57 10000 2.57 290 21:19 29.04.2022
3958 Clouds 10 1029 76 10000 4.63 310 19:48 29.04.2022
3959 Clouds 9 1029 81 10000 5.14 300 18:47 29.04.2022
3960 Clouds 11 1029 71 10000 4.12 300 17:33 29.04.2022
3961 Clouds 11 1029 66 10000 0 0 15:58 29.04.2022
3962 Clouds 10 1029 76 10000 1.54 120 14:34 29.04.2022
3963 Clouds 9 1029 81 10000 1.03 0 13:27 29.04.2022
3964 Clouds 9 1030 81 10000 1.03 190 12:26 29.04.2022
3965 Drizzle 8 1029 81 10000 1.03 150 09:48 29.04.2022
3966 Clouds 8 1029 81 10000 2.57 120 07:42 29.04.2022
3967 Clouds 8 1029 81 10000 2.57 120 07:42 29.04.2022
3968 Clouds 8 1029 81 10000 2.57 120 07:23 29.04.2022
3969 Clouds 9 1029 81 10000 2.06 150 05:57 29.04.2022
3970 Clouds 9 1029 71 10000 3.09 170 00:51 29.04.2022
3971 Clear 8 1029 81 10000 4.12 210 23:49 28.04.2022
3972 Clouds 10 1029 71 10000 2.57 220 22:45 28.04.2022
3973 Clouds 10 1029 71 10000 2.06 20 21:55 28.04.2022
3974 Clouds 10 1029 71 10000 2.06 20 21:29 28.04.2022
3975 Clouds 9 1029 76 10000 2.57 40 20:41 28.04.2022
3976 Clouds 10 1029 71 10000 1.03 0 19:46 28.04.2022
3977 Clouds 10 1029 71 10000 1.03 0 19:23 28.04.2022
3978 Clouds 10 1029 66 10000 1.54 320 18:38 28.04.2022
3979 Clouds 9 1029 71 10000 3.6 300 17:32 28.04.2022
3980 Clouds 10 1029 62 10000 2.57 310 16:49 28.04.2022
3981 Clouds 10 1029 62 10000 2.57 310 16:19 28.04.2022
3982 Clouds 10 1029 57 10000 2.06 290 15:41 28.04.2022
3983 Clouds 10 1029 50 10000 1.54 250 14:47 28.04.2022
3984 Clouds 10 1029 53 10000 0.51 0 13:20 28.04.2022
3985 Clouds 8 1029 57 10000 1.03 0 12:28 28.04.2022
3986 Clear 6 1029 70 10000 1.03 140 10:51 28.04.2022
3987 Clear 6 1029 70 10000 1.03 140 10:26 28.04.2022
3988 Clear 5 1029 81 10000 1.03 0 09:41 28.04.2022
3989 Clouds 5 1028 87 10000 1.54 130 07:38 28.04.2022
3990 Clouds 5 1029 87 10000 2.06 180 06:38 28.04.2022
3991 Clouds 5 1029 87 10000 1.03 0 05:40 28.04.2022
3992 Clouds 6 1029 87 10000 3.09 220 04:42 28.04.2022
3993 Clouds 7 1028 81 10000 1.54 230 00:51 28.04.2022
3994 Clouds 7 1028 76 10000 3.6 330 22:52 27.04.2022
3995 Clouds 7 1028 76 10000 3.6 310 21:58 27.04.2022
3996 Clouds 7 1028 76 10000 3.6 310 21:29 27.04.2022
3997 Clouds 7 1028 76 10000 3.6 320 20:44 27.04.2022
3998 Clouds 7 1028 76 10000 3.6 320 19:41 27.04.2022
3999 Clouds 7 1028 76 10000 3.6 320 19:22 27.04.2022
4000 Clouds 7 1028 76 10000 3.6 320 19:22 27.04.2022
4001 Clouds 8 1028 66 10000 3.6 330 18:38 27.04.2022
4002 Clouds 8 1027 66 10000 3.6 340 17:26 27.04.2022
4003 Clouds 8 1028 61 10000 3.6 320 15:56 27.04.2022
4004 Clear 7 1027 65 10000 1.54 20 12:34 27.04.2022
4005 Clear 7 1027 65 10000 0.51 0 11:23 27.04.2022
4006 Clear 6 1027 75 10000 0.51 0 10:26 27.04.2022
4007 Clear 5 1026 87 10000 1.03 180 07:41 27.04.2022
4008 Clouds 5 1027 87 10000 1.03 210 06:36 27.04.2022
4009 Clouds 6 1027 75 10000 2.06 350 02:25 27.04.2022
4010 Clouds 6 1027 75 10000 2.06 330 01:18 27.04.2022
4011 Clouds 6 1027 75 10000 2.06 310 00:27 27.04.2022
4012 Clear 7 1026 65 10000 1.03 0 23:23 26.04.2022
4013 Clear 7 1026 65 10000 2.06 290 22:43 26.04.2022
4014 Clouds 8 1026 61 10000 2.06 240 21:57 26.04.2022
4015 Clouds 8 1027 57 10000 1.54 240 20:58 26.04.2022
4016 Clouds 8 1027 57 10000 1.54 240 20:36 26.04.2022
4017 Clouds 7 1027 61 10000 1.54 210 19:35 26.04.2022
4018 Clouds 7 1027 70 10000 1.54 220 18:53 26.04.2022
4019 Clouds 7 1027 70 10000 1.54 220 18:19 26.04.2022
4020 Clouds 7 1027 70 10000 2.57 260 17:33 26.04.2022
4021 Clouds 7 1028 76 10000 2.06 290 14:46 26.04.2022
4022 Clouds 7 1028 70 10000 1.54 260 13:34 26.04.2022
4023 Clouds 6 1028 81 10000 2.06 300 12:34 26.04.2022
4024 Clouds 6 1028 87 10000 2.57 220 10:46 26.04.2022
4025 Clouds 5 1028 87 10000 2.06 180 09:50 26.04.2022
4026 Clouds 5 1028 87 10000 2.06 170 08:28 26.04.2022
4027 Drizzle 6 1029 89 10000 2.06 220 04:38 26.04.2022
4028 Clouds 6 1029 81 10000 0 0 02:40 26.04.2022
4029 Clouds 6 1030 84 10000 0.51 240 00:39 26.04.2022
4030 Clouds 6 1029 81 10000 1.03 290 23:43 25.04.2022
4031 Clouds 7 1029 81 10000 1.54 280 21:44 25.04.2022
4032 Clouds 7 1029 81 10000 1.54 280 21:44 25.04.2022
4033 Clouds 7 1029 81 10000 3.09 290 20:49 25.04.2022
4034 Clouds 7 1029 76 10000 4.12 310 19:39 25.04.2022
4035 Clouds 7 1029 81 10000 5.14 330 18:25 25.04.2022
4036 Clouds 8 1029 71 10000 4.12 340 17:39 25.04.2022
4037 Clouds 8 1030 61 10000 3.6 340 15:51 25.04.2022
4038 Clouds 8 1030 61 10000 3.6 340 15:18 25.04.2022
4039 Clouds 8 1030 66 10000 2.57 350 13:59 25.04.2022
4040 Clouds 7 1030 70 10000 2.57 280 12:22 25.04.2022
4041 Clear 5 1030 81 10000 0.51 0 10:29 25.04.2022
4042 Clear 3 1030 93 10000 1.03 0 09:36 25.04.2022
4043 Clear 5 1030 81 10000 2.06 340 07:34 25.04.2022
4044 Clouds 5 1030 81 10000 2.57 340 05:53 25.04.2022
4045 Clouds 6 1031 87 10000 4.63 330 01:24 25.04.2022
4046 Clouds 6 1031 87 10000 5.66 320 23:54 24.04.2022
4047 Clouds 6 1031 87 10000 5.66 320 23:20 24.04.2022
4048 Clouds 6 1031 81 10000 5.66 320 22:37 24.04.2022
4049 Clouds 7 1031 76 10000 6.69 300 21:54 24.04.2022
4050 Clouds 7 1031 76 10000 6.69 300 21:20 24.04.2022
4051 Clouds 7 1031 76 10000 6.17 290 20:39 24.04.2022
4052 Clouds 8 1031 66 10000 5.66 300 19:51 24.04.2022
4053 Clouds 7 1032 70 10000 5.14 320 18:33 24.04.2022
4054 Clouds 7 1032 70 10000 4.63 320 17:40 24.04.2022
4055 Clouds 7 1032 70 10000 4.63 320 17:20 24.04.2022
4056 Clouds 7 1033 70 10000 4.63 330 16:51 24.04.2022
4057 Clouds 7 1033 70 10000 4.63 330 16:22 24.04.2022
4058 Clouds 6 1033 75 10000 5.14 340 15:36 24.04.2022
4059 Clouds 6 1033 75 10000 4.12 330 14:30 24.04.2022
4060 Clouds 6 1033 75 10000 3.6 340 13:26 24.04.2022
4061 Clouds 6 1033 75 10000 3.6 340 12:44 24.04.2022
4062 Clouds 6 1033 75 10000 3.09 330 11:44 24.04.2022
4063 Clouds 6 1033 75 10000 1.54 310 10:33 24.04.2022
4064 Clouds 6 1033 70 10000 2.06 310 09:41 24.04.2022
4065 Clouds 6 1033 70 10000 1.03 0 07:39 24.04.2022
4066 Clouds 6 1033 70 10000 3.09 310 05:32 24.04.2022
4067 Clouds 6 1033 75 10000 1.54 330 01:50 24.04.2022
4068 Clouds 7 1033 76 10000 2.57 330 00:38 24.04.2022
4069 Clouds 7 1033 76 10000 3.09 310 23:45 23.04.2022
4070 Clouds 7 1033 76 10000 3.09 310 23:22 23.04.2022
4071 Clouds 8 1032 71 10000 3.6 300 21:55 23.04.2022
4072 Clouds 8 1032 71 10000 3.6 300 21:35 23.04.2022
4073 Clouds 8 1032 66 10000 4.12 310 20:58 23.04.2022
4074 Clouds 8 1032 71 10000 3.6 310 19:54 23.04.2022
4075 Clouds 8 1032 71 10000 3.6 310 19:19 23.04.2022
4076 Clouds 8 1032 66 10000 3.6 300 18:53 23.04.2022
4077 Clouds 8 1032 66 10000 3.6 300 18:24 23.04.2022
4078 Clouds 8 1032 71 10000 4.63 300 17:43 23.04.2022
4079 Haze 8 1032 71 9000 4.63 300 16:43 23.04.2022
4080 Clouds 8 1033 66 10000 4.12 300 15:32 23.04.2022
4081 Clouds 7 1033 76 10000 0 0 12:50 23.04.2022
4082 Clouds 7 1033 76 10000 1.54 30 10:50 23.04.2022
4083 Clouds 7 1033 70 10000 1.03 0 09:38 23.04.2022
4084 Clouds 7 1032 76 10000 1.54 90 07:21 23.04.2022
4085 Clouds 7 1033 81 10000 1.54 70 03:54 23.04.2022
4086 Clouds 7 1032 76 10000 2.57 160 01:32 23.04.2022
4087 Clouds 7 1032 76 10000 3.6 140 23:32 22.04.2022
4088 Clouds 8 1032 76 10000 3.6 140 22:22 22.04.2022
4089 Clouds 9 1032 71 10000 4.63 140 21:44 22.04.2022
4090 Clouds 9 1032 66 10000 5.14 130 20:54 22.04.2022
4091 Clouds 9 1032 66 10000 5.14 130 20:27 22.04.2022
4092 Clouds 10 1032 71 10000 4.12 150 19:21 22.04.2022
4093 Clouds 10 1032 66 10000 5.14 140 18:46 22.04.2022
4094 Clouds 10 1032 71 10000 6.17 140 17:50 22.04.2022
4095 Clouds 10 1032 71 10000 5.66 140 16:46 22.04.2022
4096 Clouds 9 1032 71 10000 6.69 120 15:45 22.04.2022
4097 Clouds 9 1032 71 10000 6.69 120 15:21 22.04.2022
4098 Clouds 8 1032 76 10000 2.06 190 13:54 22.04.2022
4099 Clouds 8 1032 76 10000 3.09 120 12:59 22.04.2022
4100 Clouds 8 1032 76 10000 3.09 120 12:28 22.04.2022
4101 Clouds 7 1032 81 10000 2.57 70 11:22 22.04.2022
4102 Clouds 7 1032 76 10000 2.06 70 10:51 22.04.2022
4103 Clouds 7 1032 76 10000 2.06 70 10:31 22.04.2022
4104 Clouds 7 1032 76 10000 3.09 90 09:53 22.04.2022
4105 Rain 7 1031 76 10000 3.6 90 08:51 22.04.2022
4106 Rain 7 1031 81 10000 3.6 110 07:44 22.04.2022
4107 Clouds 7 1032 85 10000 1.54 130 04:24 22.04.2022
4108 Clouds 9 1031 76 10000 2.06 100 00:52 22.04.2022
4109 Rain 10 1031 66 10000 2.57 90 23:26 21.04.2022
4110 Clouds 10 1030 66 10000 3.6 140 22:29 21.04.2022
4111 Clouds 10 1030 71 10000 5.66 130 20:46 21.04.2022
4112 Clouds 10 1030 71 10000 5.66 130 20:26 21.04.2022
4113 Clouds 10 1029 76 10000 4.63 120 18:47 21.04.2022
4114 Clouds 10 1029 76 10000 4.63 120 18:19 21.04.2022
4115 Rain 10 1028 81 10000 6.17 140 16:47 21.04.2022
4116 Clouds 12 1027 71 10000 5.14 140 15:22 21.04.2022
4117 Clouds 13 1026 62 10000 4.63 90 14:50 21.04.2022
4118 Clouds 12 1025 66 10000 5.14 100 13:44 21.04.2022
4119 Clouds 12 1025 66 10000 5.14 100 13:18 21.04.2022
4120 Clouds 10 1024 76 10000 3.09 70 11:19 21.04.2022
4121 Clouds 8 1020 81 10000 2.57 100 08:57 21.04.2022
4122 Drizzle 8 1019 81 10000 3.6 80 07:49 21.04.2022
4123 Clouds 8 1018 87 10000 2.57 100 06:21 21.04.2022
4124 Clouds 8 1014 81 10000 3.6 80 03:33 21.04.2022
4125 Clouds 8 1013 81 10000 3.6 80 02:48 21.04.2022
4126 Clouds 8 1013 81 10000 3.6 80 02:48 21.04.2022
4127 Clouds 8 1012 76 10000 3.09 110 01:50 21.04.2022
4128 Clouds 8 1009 76 10000 4.12 110 23:53 20.04.2022
4129 Clouds 8 1009 76 10000 4.12 110 23:23 20.04.2022
4130 Clouds 8 1007 81 10000 4.63 130 22:51 20.04.2022
4131 Clouds 8 1007 81 10000 4.63 130 22:32 20.04.2022
4132 Clouds 9 1005 81 10000 4.12 140 21:33 20.04.2022
4133 Clouds 9 1004 81 10000 2.57 140 20:42 20.04.2022
4134 Clouds 9 1003 87 10000 5.14 110 19:53 20.04.2022
4135 Clouds 9 1003 87 10000 5.14 110 19:25 20.04.2022
4136 Rain 9 1002 81 10000 6.69 100 18:26 20.04.2022
4137 Rain 9 1001 81 10000 8.23 110 16:57 20.04.2022
4138 Rain 9 1001 81 10000 8.23 110 16:38 20.04.2022
4139 Rain 8 1000 81 10000 7.2 80 14:26 20.04.2022
4140 Rain 7 999 76 10000 10.29 80 11:56 20.04.2022
4141 Rain 7 999 76 10000 10.29 80 11:29 20.04.2022
4142 Rain 6 999 81 10000 8.75 80 10:27 20.04.2022
4143 Rain 6 999 75 10000 8.23 90 09:27 20.04.2022
4144 Rain 6 1000 75 8000 7.72 90 08:24 20.04.2022
4145 Rain 6 1000 75 8000 7.72 90 08:24 20.04.2022
4146 Rain 5 1000 81 10000 8.75 90 07:43 20.04.2022
4147 Drizzle 6 1002 77 10000 10.29 100 04:37 20.04.2022
4148 Clouds 6 1006 65 10000 5.66 140 00:55 20.04.2022
4149 Clouds 6 1006 65 10000 5.66 140 00:20 20.04.2022
4150 Clouds 7 1006 65 10000 5.14 140 22:40 19.04.2022
4151 Clouds 7 1006 65 10000 5.14 140 22:19 19.04.2022
4152 Clouds 8 1006 57 10000 4.63 170 21:38 19.04.2022
4153 Clouds 8 1006 57 10000 2.06 300 20:56 19.04.2022
4154 Clouds 8 1006 57 10000 2.06 300 20:34 19.04.2022
4155 Clouds 9 1007 53 10000 2.57 290 19:25 19.04.2022
4156 Clear 9 1007 49 10000 2.57 360 18:18 19.04.2022
4157 Clouds 9 1008 49 10000 1.54 0 16:46 19.04.2022
4158 Clouds 9 1008 49 10000 1.54 0 16:24 19.04.2022
4159 Clouds 8 1008 49 10000 2.57 270 15:20 19.04.2022
4160 Clear 8 1008 61 10000 1.54 200 14:32 19.04.2022
4161 Clear 6 1008 75 10000 1.03 0 12:52 19.04.2022
4162 Clear 6 1008 75 10000 1.03 0 12:26 19.04.2022
4163 Clear 5 1008 75 10000 1.03 0 11:23 19.04.2022
4164 Clear 1 1008 93 10000 1.54 150 09:27 19.04.2022
4165 Clear 1 1008 86 10000 1.54 100 07:37 19.04.2022
4166 Clear 3 1007 86 10000 3.6 340 04:23 19.04.2022
4167 Clouds 6 1007 70 10000 5.66 340 01:18 19.04.2022
4168 Clouds 6 1007 75 10000 6.17 320 23:40 18.04.2022
4169 Clouds 7 1007 65 10000 8.23 320 21:57 18.04.2022
4170 Clouds 7 1007 65 10000 8.23 320 21:25 18.04.2022
4171 Clouds 7 1007 65 10000 7.72 310 20:38 18.04.2022
4172 Clouds 7 1007 65 10000 8.23 300 19:59 18.04.2022
4173 Clouds 7 1007 65 10000 8.23 300 19:30 18.04.2022
4174 Clouds 7 1008 65 10000 8.23 300 18:37 18.04.2022
4175 Clear 7 1008 65 10000 7.72 290 17:39 18.04.2022
4176 Clear 7 1008 65 10000 7.72 290 17:19 18.04.2022
4177 Clouds 7 1008 65 10000 5.66 290 16:38 18.04.2022
4178 Clear 7 1008 57 10000 5.66 290 15:30 18.04.2022
4179 Clouds 7 1009 53 10000 3.6 10 14:22 18.04.2022
4180 Clear 7 1010 53 10000 1.54 30 12:54 18.04.2022
4181 Clear 7 1010 53 10000 1.54 30 12:23 18.04.2022
4182 Clear 5 1010 60 10000 1.54 80 10:46 18.04.2022
4183 Clouds 4 1010 60 10000 2.06 90 09:32 18.04.2022
4184 Clouds 4 1010 60 10000 2.57 90 08:39 18.04.2022
4185 Clouds 4 1010 70 10000 2.57 110 06:44 18.04.2022
4186 Clouds 5 1011 70 10000 2.57 160 02:28 18.04.2022
4187 Clouds 6 1010 70 10000 3.6 180 23:21 17.04.2022
4188 Clouds 6 1010 56 10000 3.09 180 22:36 17.04.2022
4189 Clouds 7 1010 65 10000 4.12 190 21:34 17.04.2022
4190 Clouds 7 1009 57 10000 4.63 220 20:51 17.04.2022
4191 Clouds 7 1009 57 10000 4.63 220 20:19 17.04.2022
4192 Clouds 7 1009 61 10000 2.57 310 18:45 17.04.2022
4193 Clouds 6 1009 70 10000 2.06 290 17:26 17.04.2022
4194 Clouds 6 1009 75 10000 2.57 260 15:34 17.04.2022
4195 Clouds 6 1008 81 10000 4.12 250 14:45 17.04.2022
4196 Clouds 6 1008 81 10000 2.06 250 13:29 17.04.2022
4197 Drizzle 5 1007 93 3500 5.66 250 12:45 17.04.2022
4198 Clouds 6 1006 93 8000 2.57 210 10:58 17.04.2022
4199 Clouds 6 1006 93 8000 2.57 210 10:29 17.04.2022
4200 Drizzle 6 1006 93 5000 3.6 230 09:51 17.04.2022
4201 Drizzle 6 1006 93 1500 5.14 220 09:21 17.04.2022
4202 Drizzle 7 1005 87 10000 3.6 200 08:41 17.04.2022
4203 Clouds 6 1004 87 10000 4.12 150 06:29 17.04.2022
4204 Clouds 8 1003 81 10000 5.14 170 02:26 17.04.2022
4205 Rain 8 1003 87 10000 4.63 130 00:41 17.04.2022
4206 Drizzle 9 1003 81 10000 6.17 140 23:38 16.04.2022
4207 Clouds 10 1002 76 10000 5.14 140 21:49 16.04.2022
4208 Clouds 11 1002 76 10000 6.17 150 20:54 16.04.2022
4209 Clouds 10 1002 81 10000 5.66 160 19:28 16.04.2022
4210 Rain 10 1003 81 10000 4.12 140 18:43 16.04.2022
4211 Rain 9 1003 87 10000 3.6 120 17:21 16.04.2022
4212 Rain 9 1003 87 5000 4.63 150 16:19 16.04.2022
4213 Clouds 10 1003 81 10000 6.69 150 14:59 16.04.2022
4214 Clouds 10 1003 81 10000 6.69 150 14:41 16.04.2022
4215 Clouds 10 1003 81 10000 9.77 130 13:50 16.04.2022
4216 Clouds 10 1003 81 10000 9.77 130 13:18 16.04.2022
4217 Rain 9 1003 81 9000 10.29 120 11:50 16.04.2022
4218 Drizzle 9 1004 81 5000 11.32 120 10:35 16.04.2022
4219 Drizzle 9 1004 81 7000 10.29 110 09:38 16.04.2022
4220 Drizzle 9 1004 81 4000 11.83 110 08:52 16.04.2022
4221 Drizzle 8 1004 87 9000 14.4 120 07:23 16.04.2022
4222 Clouds 8 1004 87 10000 14 127 05:45 16.04.2022
4223 Drizzle 8 1007 87 8000 14.92 130 01:49 16.04.2022
4224 Drizzle 9 1006 81 10000 14.4 140 23:53 15.04.2022
4225 Drizzle 9 1008 81 7000 12.86 120 22:51 15.04.2022
4226 Drizzle 9 1008 81 7000 12.86 120 22:31 15.04.2022
4227 Drizzle 9 1007 81 8000 12.86 130 21:34 15.04.2022
4228 Drizzle 9 1007 81 10000 13.89 130 20:44 15.04.2022
4229 Clouds 10 1007 76 10000 12.86 130 19:49 15.04.2022
4230 Clouds 10 1007 76 10000 12.86 130 19:30 15.04.2022
4231 Clouds 10 1008 76 10000 13.38 140 18:45 15.04.2022
4232 Clouds 10 1008 76 10000 13.38 140 18:23 15.04.2022
4233 Clouds 9 1008 81 10000 12.35 140 17:28 15.04.2022
4234 Drizzle 9 1008 81 10000 10.8 140 16:25 15.04.2022
4235 Drizzle 9 1008 81 10000 10.8 140 16:25 15.04.2022
4236 Drizzle 9 1008 81 10000 12.35 140 15:52 15.04.2022
4237 Drizzle 9 1008 81 10000 10.8 140 14:22 15.04.2022
4238 Rain 8 1007 81 10000 10.29 140 12:53 15.04.2022
4239 Rain 8 1007 81 10000 10.29 140 12:28 15.04.2022
4240 Clouds 8 1006 81 10000 7.2 150 11:54 15.04.2022
4241 Clouds 8 1006 76 10000 8.23 170 10:48 15.04.2022
4242 Clouds 8 1006 76 10000 8.23 170 10:21 15.04.2022
4243 Clouds 8 1004 71 10000 7.2 170 09:23 15.04.2022
4244 Clouds 7 1003 81 10000 6.17 160 08:57 15.04.2022
4245 Drizzle 7 1001 81 10000 8.75 180 06:52 15.04.2022
4246 Drizzle 7 999 87 10000 9.77 200 05:56 15.04.2022
4247 Rain 10 992 81 10000 10.8 140 01:33 15.04.2022
4248 Rain 10 992 81 10000 13.38 120 23:30 14.04.2022
4249 Rain 10 993 81 10000 14.92 130 22:46 14.04.2022
4250 Rain 10 993 81 10000 14.92 130 22:27 14.04.2022
4251 Rain 10 993 81 5000 11.83 130 21:53 14.04.2022
4252 Mist 11 995 76 5000 10.29 120 19:57 14.04.2022
4253 Mist 11 995 76 5000 10.29 120 19:22 14.04.2022
4254 Drizzle 10 996 81 8000 10.29 120 17:56 14.04.2022
4255 Drizzle 10 996 81 8000 10.29 120 17:27 14.04.2022
4256 Drizzle 10 997 81 4000 13.89 120 16:32 14.04.2022
4257 Drizzle 9 997 81 8000 9.77 100 14:20 14.04.2022
4258 Rain 9 998 81 7000 10.29 100 13:26 14.04.2022
4259 Drizzle 9 998 76 9000 7.72 100 12:42 14.04.2022
4260 Drizzle 9 998 76 9000 7.72 100 12:22 14.04.2022
4261 Clouds 8 999 76 10000 5.14 90 11:21 14.04.2022
4262 Rain 8 1000 76 10000 6.69 100 10:36 14.04.2022
4263 Drizzle 7 1000 76 10000 7.2 100 09:54 14.04.2022
4264 Clouds 8 1000 71 10000 9.77 110 08:39 14.04.2022
4265 Clouds 7 1002 70 10000 7.72 100 06:50 14.04.2022
4266 Clouds 6 1006 70 10000 7.72 100 02:45 14.04.2022
4267 Rain 7 1008 61 10000 4.63 90 22:52 13.04.2022
4268 Clouds 8 1008 53 10000 4.63 70 21:44 13.04.2022
4269 Clouds 9 1008 49 10000 6.17 80 20:53 13.04.2022
4270 Clouds 9 1008 49 10000 6.17 80 20:22 13.04.2022
4271 Clouds 9 1009 53 10000 5.66 80 19:24 13.04.2022
4272 Clouds 10 1009 46 10000 5.66 110 18:19 13.04.2022
4273 Clear 10 1010 50 10000 6.17 90 17:23 13.04.2022
4274 Clouds 9 1010 53 10000 5.66 80 16:33 13.04.2022
4275 Rain 8 1010 57 10000 6.17 80 15:35 13.04.2022
4276 Clear 8 1011 57 10000 7.2 80 14:50 13.04.2022
4277 Clear 8 1011 57 10000 7.2 80 14:19 13.04.2022
4278 Clear 8 1010 53 10000 6.69 80 13:19 13.04.2022
4279 Clear 7 1011 53 10000 8.75 80 12:25 13.04.2022
4280 Clear 6 1011 49 10000 5.14 80 10:47 13.04.2022
4281 Clear 5 1011 52 10000 3.09 90 09:41 13.04.2022
4282 Clear 5 1011 52 10000 3.09 90 08:41 13.04.2022
4283 Clear 3 1012 60 10000 4.12 90 06:51 13.04.2022
4284 Clear 3 1012 60 10000 4.12 90 06:25 13.04.2022
4285 Clear 3 1012 60 10000 4.63 100 05:20 13.04.2022
4286 Clouds 5 1013 60 10000 4.63 70 00:21 13.04.2022
4287 Clouds 6 1013 56 10000 4.63 90 23:29 12.04.2022
4288 Clear 8 1013 49 10000 5.66 90 21:58 12.04.2022
4289 Clear 8 1013 49 10000 5.66 90 21:18 12.04.2022
4290 Clear 8 1012 46 10000 6.17 70 20:41 12.04.2022
4291 Clear 9 1012 51 10000 5.14 70 19:48 12.04.2022
4292 Clear 9 1012 43 10000 5.14 70 19:30 12.04.2022
4293 Clear 10 1012 40 10000 6.17 70 18:26 12.04.2022
4294 Clouds 10 1012 40 10000 5.66 80 17:23 12.04.2022
4295 Clear 9 1012 43 10000 5.66 70 16:22 12.04.2022
4296 Clear 8 1012 42 10000 7.2 80 15:33 12.04.2022
4297 Clear 7 1012 49 10000 6.69 90 14:26 12.04.2022
4298 Clear 6 1012 49 10000 7.2 90 13:36 12.04.2022
4299 Clear 7 1012 49 10000 7.2 80 12:52 12.04.2022
4300 Clear 6 1012 52 10000 6.17 90 11:46 12.04.2022
4301 Clear 5 1012 56 10000 6.17 90 10:47 12.04.2022
4302 Clouds 4 1012 65 10000 5.14 90 09:21 12.04.2022
4303 Rain 4 1011 65 10000 6.69 80 07:56 12.04.2022
4304 Clear 5 1011 56 10000 6.69 80 06:24 12.04.2022
4305 Clear 5 1012 56 10000 5.14 70 05:31 12.04.2022
4306 Clear 5 1012 48 10000 5.66 80 23:59 11.04.2022
4307 Clear 6 1012 45 10000 6.17 70 22:47 11.04.2022
4308 Clear 6 1012 45 10000 7.72 80 21:41 11.04.2022
4309 Clear 7 1012 42 10000 7.72 70 20:57 11.04.2022
4310 Clear 7 1012 42 10000 7.72 70 20:29 11.04.2022
4311 Clear 7 1012 45 10000 8.23 70 19:54 11.04.2022
4312 Clear 7 1012 45 10000 8.23 70 19:18 11.04.2022
4313 Clear 7 1012 42 10000 8.75 70 18:47 11.04.2022
4314 Clear 7 1012 42 10000 7.72 80 17:57 11.04.2022
4315 Clouds 7 1013 49 10000 7.72 70 16:54 11.04.2022
4316 Clear 7 1013 45 10000 7.72 70 15:56 11.04.2022
4317 Clear 6 1013 45 10000 7.72 70 14:24 11.04.2022
4318 Clear 5 1013 45 10000 7.72 70 12:52 11.04.2022
4319 Clear 5 1013 45 10000 7.72 70 12:31 11.04.2022
4320 Clear 4 1013 48 10000 7.2 70 11:31 11.04.2022
4321 Clear 3 1013 52 10000 6.69 80 10:24 11.04.2022
4322 Clear 3 1013 56 10000 5.66 80 09:20 11.04.2022
4323 Clear 3 1014 60 10000 6.17 90 06:24 11.04.2022
4324 Clouds 3 1015 60 10000 6.69 80 01:53 11.04.2022
4325 Clouds 4 1014 60 10000 5.66 90 22:37 10.04.2022
4326 Clouds 5 1014 52 10000 5.66 120 21:55 10.04.2022
4327 Clouds 5 1014 52 10000 5.66 120 21:28 10.04.2022
4328 Clouds 5 1013 56 10000 7.72 120 20:30 10.04.2022
4329 Clouds 5 1013 52 10000 7.72 120 19:43 10.04.2022
4330 Clouds 5 1013 52 10000 7.72 120 19:20 10.04.2022
4331 Clouds 6 1013 49 10000 9.26 120 18:42 10.04.2022
4332 Clouds 6 1014 49 10000 9.77 110 17:52 10.04.2022
4333 Clouds 6 1014 49 10000 9.77 110 17:33 10.04.2022
4334 Drizzle 6 1014 52 10000 10.29 120 16:21 10.04.2022
4335 Clouds 5 1014 52 10000 10.29 120 14:59 10.04.2022
4336 Clouds 5 1013 48 10000 10.29 120 13:58 10.04.2022
4337 Clouds 4 1013 48 10000 9.77 110 12:33 10.04.2022
4338 Clouds 3 1013 56 10000 9.77 120 11:46 10.04.2022
4339 Clouds 3 1013 56 10000 9.77 120 11:28 10.04.2022
4340 Clouds 3 1013 60 10000 9.77 120 10:43 10.04.2022
4341 Clouds 3 1013 65 10000 10.29 130 09:55 10.04.2022
4342 Clouds 3 1013 65 10000 10.29 130 09:21 10.04.2022
4343 Clouds 3 1013 65 10000 10.29 110 08:21 10.04.2022
4344 Clouds 3 1012 60 10000 9.77 110 07:18 10.04.2022
4345 Clouds 3 1013 56 10000 9.77 100 05:19 10.04.2022
4346 Clouds 2 1014 60 10000 12.35 120 02:20 10.04.2022
4347 Clouds 3 1013 75 10000 8.75 120 23:54 09.04.2022
4348 Clouds 3 1013 75 10000 8.75 120 23:35 09.04.2022
4349 Mist 3 1013 81 9000 7.72 130 22:43 09.04.2022
4350 Drizzle 4 1013 70 10000 8.75 130 21:32 09.04.2022
4351 Clouds 4 1013 70 10000 8.75 130 20:39 09.04.2022
4352 Clouds 4 1013 70 10000 8.75 130 20:19 09.04.2022
4353 Clouds 5 1012 65 10000 11.83 140 19:41 09.04.2022
4354 Clouds 4 1012 70 10000 10.8 140 18:54 09.04.2022
4355 Clouds 4 1012 70 10000 10.8 140 18:18 09.04.2022
4356 Clouds 4 1012 65 10000 9.26 120 17:32 09.04.2022
4357 Clouds 3 1012 65 10000 9.26 110 16:43 09.04.2022
4358 Clouds 3 1012 60 10000 9.26 110 15:53 09.04.2022
4359 Clouds 3 1012 60 10000 9.26 110 15:27 09.04.2022
4360 Clouds 2 1013 64 10000 8.23 100 14:26 09.04.2022
4361 Clouds 1 1013 64 10000 7.2 100 13:38 09.04.2022
4362 Clouds 1 1012 64 10000 7.72 90 12:59 09.04.2022
4363 Clouds 1 1012 64 10000 7.72 90 12:59 09.04.2022
4364 Clouds 1 1012 64 10000 6.69 90 11:56 09.04.2022
4365 Clouds 0 1012 69 10000 5.66 80 10:55 09.04.2022
4366 Clouds 0 1012 69 10000 5.66 80 10:19 09.04.2022
4367 Clouds -1 1012 80 10000 6.17 90 09:36 09.04.2022
4368 Clouds -2 1012 74 10000 6.17 80 08:50 09.04.2022
4369 Clear -2 1012 69 10000 5.66 80 05:58 09.04.2022
4370 Clear 0 1012 47 10000 3.6 110 00:38 09.04.2022
4371 Clear 1 1012 47 10000 2.57 110 23:25 08.04.2022
4372 Clear 3 1011 35 10000 4.12 360 21:58 08.04.2022
4373 Clear 3 1011 32 10000 2.57 300 20:47 08.04.2022
4374 Clear 2 1011 35 10000 3.6 330 19:58 08.04.2022
4375 Clear 2 1011 35 10000 3.6 330 19:18 08.04.2022
4376 Clear 2 1011 38 10000 3.6 330 18:28 08.04.2022
4377 Clear 3 1011 35 10000 3.09 320 17:45 08.04.2022
4378 Clear 3 1011 35 10000 3.09 320 17:22 08.04.2022
4379 Clear 2 1011 35 10000 2.57 300 16:38 08.04.2022
4380 Clear 1 1011 44 10000 2.06 270 15:56 08.04.2022
4381 Clear 1 1011 44 10000 2.06 270 15:25 08.04.2022
4382 Clear 1 1011 40 10000 2.57 270 14:26 08.04.2022
4383 Clear 0 1011 43 10000 2.57 240 13:44 08.04.2022
4384 Clear 0 1011 43 10000 2.57 240 13:25 08.04.2022
4385 Clouds -2 1011 54 10000 2.57 120 11:54 08.04.2022
4386 Clear -3 1011 63 10000 2.06 100 10:33 08.04.2022
4387 Clear -4 1011 74 10000 1.03 110 09:37 08.04.2022
4388 Clear -4 1011 74 10000 2.06 120 08:34 08.04.2022
4389 Clear -4 1011 68 10000 1.03 120 06:54 08.04.2022
4390 Clear -4 1012 71 10000 2.57 60 04:58 08.04.2022
4391 Clear -1 1012 55 10000 3.09 350 01:26 08.04.2022
4392 Clear -1 1012 55 10000 3.6 350 00:22 08.04.2022
4393 Clear 0 1012 51 10000 5.14 350 22:59 07.04.2022
4394 Clear 0 1012 51 10000 5.14 350 22:39 07.04.2022
4395 Clear 0 1012 51 10000 5.14 350 22:20 07.04.2022
4396 Clear 0 1012 43 10000 4.63 360 21:51 07.04.2022
4397 Clouds 0 1012 58 10000 3.64 5 21:19 07.04.2022
4398 Clear 1 1011 40 10000 5.66 350 20:31 07.04.2022
4399 Clear 1 1011 37 10000 4.12 340 18:34 07.04.2022
4400 Clear 1 1011 40 10000 5.66 350 17:26 07.04.2022
4401 Clear 1 1011 37 10000 5.14 360 16:44 07.04.2022
4402 Clear 1 1011 37 10000 5.14 360 16:21 07.04.2022
4403 Clear 0 1011 40 10000 3.09 300 14:42 07.04.2022
4404 Clear -1 1011 51 10000 1.54 230 13:43 07.04.2022
4405 Clear -2 1011 54 10000 1.54 200 12:46 07.04.2022
4406 Clear -3 1011 54 10000 2.06 140 11:30 07.04.2022
4407 Clear -6 1010 68 10000 1.54 160 09:37 07.04.2022
4408 Clear -6 1010 68 10000 2.06 100 08:38 07.04.2022
4409 Clear -6 1010 68 10000 2.57 130 06:42 07.04.2022
4410 Clouds -3 1010 63 10000 2.06 70 02:51 07.04.2022
4411 Clouds -3 1010 63 10000 2.06 70 02:25 07.04.2022
4412 Clouds -2 1010 64 10000 2.57 20 00:27 07.04.2022
4413 Clouds -1 1010 59 10000 9.26 10 22:51 06.04.2022
4414 Clouds -1 1010 59 10000 9.26 10 22:27 06.04.2022
4415 Clouds 0 1009 51 10000 6.69 20 21:44 06.04.2022
4416 Clouds 1 1009 47 10000 7.2 10 20:40 06.04.2022
4417 Clouds 1 1009 51 10000 8.75 10 19:54 06.04.2022
4418 Clouds 1 1009 47 10000 9.77 10 18:52 06.04.2022
4419 Clouds 1 1009 47 10000 9.77 10 18:32 06.04.2022
4420 Clouds 1 1009 44 10000 5.66 30 17:35 06.04.2022
4421 Clouds 1 1009 51 10000 9.26 360 16:38 06.04.2022
4422 Clouds 1 1009 51 10000 5.66 330 15:48 06.04.2022
4423 Clouds 1 1009 51 10000 5.66 330 15:21 06.04.2022
4424 Clouds -1 1009 64 10000 11.83 10 13:28 06.04.2022
4425 Clouds -1 1010 59 10000 8.23 20 12:27 06.04.2022
4426 Clouds -2 1010 64 10000 8.23 10 10:52 06.04.2022
4427 Clouds -2 1010 64 10000 8.23 10 10:30 06.04.2022
4428 Clouds -2 1009 69 10000 11.32 10 09:41 06.04.2022
4429 Clouds -2 1010 69 10000 7.72 40 08:36 06.04.2022
4430 Clouds -2 1009 69 10000 6.69 50 07:54 06.04.2022
4431 Clouds -2 1009 69 10000 14.4 20 04:31 06.04.2022
4432 Clouds -3 1009 68 10000 10.8 30 23:56 05.04.2022
4433 Clouds -3 1009 68 10000 10.8 30 23:22 05.04.2022
4434 Clouds -2 1009 59 10000 10.8 30 21:31 05.04.2022
4435 Clouds -1 1008 55 10000 10.8 30 20:44 05.04.2022
4436 Clouds -1 1008 55 10000 10.8 30 20:19 05.04.2022
4437 Clouds 0 1008 55 10000 9.26 40 18:26 05.04.2022
4438 Clouds -1 1008 55 10000 10.29 40 17:20 05.04.2022
4439 Clouds -1 1008 55 10000 8.75 40 16:41 05.04.2022
4440 Clouds -1 1008 55 10000 8.75 40 15:49 05.04.2022
4441 Clouds -1 1008 55 10000 8.75 40 15:29 05.04.2022
4442 Clouds -3 1009 59 10000 8.23 30 13:42 05.04.2022
4443 Clouds -3 1009 63 10000 4.12 80 11:51 05.04.2022
4444 Clouds -3 1009 63 10000 4.12 80 11:33 05.04.2022
4445 Clouds -4 1009 80 10000 3.6 90 10:57 05.04.2022
4446 Clouds -4 1009 86 3000 4.12 100 09:31 05.04.2022
4447 Snow -3 1009 80 10000 4.12 100 08:22 05.04.2022
4448 Clouds -1 1009 74 9000 5.14 80 03:37 05.04.2022
4449 Snow 1 1008 86 8000 3.6 90 23:38 04.04.2022
4450 Snow 1 1008 86 7000 3.6 80 22:37 04.04.2022
4451 Snow 2 1007 80 7000 3.6 80 21:46 04.04.2022
4452 Clouds 2 1007 80 7000 3.6 80 21:18 04.04.2022
4453 Drizzle 3 1007 81 7000 3.09 80 20:47 04.04.2022
4454 Drizzle 3 1007 81 10000 2.06 360 19:28 04.04.2022
4455 Drizzle 3 1007 87 10000 3.6 10 18:40 04.04.2022
4456 Drizzle 3 1007 81 10000 4.63 350 17:19 04.04.2022
4457 Clouds 3 1007 81 10000 3.09 350 16:28 04.04.2022
4458 Drizzle 3 1007 81 10000 2.06 30 15:33 04.04.2022
4459 Clouds 3 1007 75 10000 2.57 70 14:46 04.04.2022
4460 Clouds 3 1007 75 10000 2.57 70 14:27 04.04.2022
4461 Clouds 3 1007 75 10000 1.54 240 12:58 04.04.2022
4462 Clouds 3 1007 75 10000 1.03 0 11:29 04.04.2022
4463 Clouds 2 1007 80 10000 1.54 210 10:29 04.04.2022
4464 Clouds 3 1006 75 10000 2.06 90 06:58 04.04.2022
4465 Clouds 3 1006 93 10000 2.57 180 03:18 04.04.2022
4466 Drizzle 4 1006 93 2500 4.12 280 23:42 03.04.2022
4467 Drizzle 4 1006 93 2000 4.12 280 22:18 03.04.2022
4468 Drizzle 5 1007 93 2000 4.12 280 21:31 03.04.2022
4469 Drizzle 5 1007 100 8000 4.63 290 20:35 03.04.2022
4470 Clouds 6 1007 87 10000 4.12 290 18:51 03.04.2022
4471 Clouds 6 1007 87 10000 4.12 290 18:26 03.04.2022
4472 Clouds 6 1007 93 10000 3.6 280 17:41 03.04.2022
4473 Drizzle 6 1008 93 8000 4.63 290 16:50 03.04.2022
4474 Clouds 6 1008 93 10000 4.12 260 15:59 03.04.2022
4475 Drizzle 6 1008 93 10000 6.17 270 14:27 03.04.2022
4476 Drizzle 6 1008 100 300 4.63 270 13:38 03.04.2022
4477 Drizzle 6 1009 100 500 4.63 250 11:59 03.04.2022
4478 Mist 6 1009 100 500 5.14 240 10:32 03.04.2022
4479 Mist 6 1009 93 4000 4.12 220 09:23 03.04.2022
4480 Drizzle 6 1010 93 4500 3.6 210 07:24 03.04.2022
4481 Drizzle 7 1012 93 4000 3.6 180 03:46 03.04.2022
4482 Rain 7 1014 87 6000 1.54 90 00:36 03.04.2022
4483 Rain 8 1015 87 10000 4.12 120 22:54 02.04.2022
4484 Rain 8 1016 93 6000 2.06 110 21:57 02.04.2022
4485 Rain 8 1016 93 6000 2.06 110 21:28 02.04.2022
4486 Drizzle 8 1016 93 8000 5.14 130 20:51 02.04.2022
4487 Drizzle 8 1017 87 8000 4.63 110 19:28 02.04.2022
4488 Rain 7 1018 93 10000 5.66 110 18:21 02.04.2022
4489 Rain 7 1019 87 10000 6.17 90 17:47 02.04.2022
4490 Rain 6 1020 93 10000 6.69 90 16:22 02.04.2022
4491 Rain 7 1021 87 10000 4.63 90 15:21 02.04.2022
4492 Rain 8 1022 76 10000 4.63 110 14:47 02.04.2022
4493 Rain 7 1022 81 10000 4.63 80 13:35 02.04.2022
4494 Clouds 7 1022 81 10000 4.12 90 12:37 02.04.2022
4495 Clear 5 1023 81 10000 4.12 100 10:58 02.04.2022
4496 Clouds 4 1023 87 10000 3.6 100 08:50 02.04.2022
4497 Clouds 5 1024 81 10000 2.06 140 06:50 02.04.2022
4498 Clouds 5 1024 75 10000 2.57 110 03:52 02.04.2022
4499 Clouds 5 1024 75 10000 2.06 170 23:57 01.04.2022
4500 Clouds 5 1024 75 10000 2.06 170 23:22 01.04.2022
4501 Clouds 8 1023 66 10000 3.6 120 21:34 01.04.2022
4502 Clouds 8 1023 71 10000 2.57 110 20:51 01.04.2022
4503 Clouds 8 1023 71 10000 2.57 110 20:25 01.04.2022
4504 Clouds 8 1023 71 10000 2.06 70 19:32 01.04.2022
4505 Clouds 7 1024 76 10000 1.54 60 18:45 01.04.2022
4506 Clouds 8 1023 76 10000 0.51 0 17:47 01.04.2022
4507 Clouds 7 1024 76 10000 0.51 0 16:53 01.04.2022
4508 Clouds 7 1024 76 10000 1.03 0 15:41 01.04.2022
4509 Clouds 7 1024 70 10000 2.06 200 14:25 01.04.2022
4510 Clouds 7 1023 65 10000 1.54 140 13:34 01.04.2022
4511 Clouds 5 1023 70 10000 1.54 100 12:32 01.04.2022
4512 Clouds 4 1023 70 10000 1.54 110 11:41 01.04.2022
4513 Clouds 2 1023 80 10000 1.03 90 10:19 01.04.2022
4514 Clouds 1 1023 75 10000 2.06 100 08:58 01.04.2022
4515 Clouds 1 1023 75 10000 0.51 0 06:54 01.04.2022
4516 Clouds 1 1024 82 10000 1.54 120 04:51 01.04.2022
4517 Clouds 1 1024 82 10000 1.54 120 04:33 01.04.2022
4518 Clouds 3 1024 70 10000 1.54 140 01:57 01.04.2022
4519 Clear 4 1024 60 10000 0.51 120 23:58 31.03.2022
4520 Clear 5 1024 52 10000 2.57 40 21:53 31.03.2022
4521 Clear 5 1024 52 10000 2.57 40 21:32 31.03.2022
4522 Clear 5 1024 52 10000 2.06 360 20:29 31.03.2022
4523 Clear 6 1024 49 10000 2.57 350 19:50 31.03.2022
4524 Clear 6 1024 49 10000 1.03 0 18:46 31.03.2022
4525 Clear 6 1024 45 10000 2.57 360 17:50 31.03.2022
4526 Clear 5 1024 48 10000 2.06 330 16:39 31.03.2022
4527 Clear 5 1025 52 10000 2.57 290 15:46 31.03.2022
4528 Clear 5 1025 52 10000 2.57 290 15:20 31.03.2022
4529 Clear 5 1025 52 10000 2.06 290 14:37 31.03.2022
4530 Clear 3 1025 60 10000 1.03 0 12:30 31.03.2022
4531 Clear 2 1025 64 10000 1.54 110 11:28 31.03.2022
4532 Clear 0 1025 69 10000 1.03 0 09:50 31.03.2022
4533 Clear 0 1025 74 10000 1.03 90 08:29 31.03.2022
4534 Clear 1 1025 64 10000 2.57 100 06:21 31.03.2022
4535 Clouds 3 1026 56 10000 3.6 90 00:46 31.03.2022
4536 Clouds 3 1026 60 10000 3.6 100 23:23 30.03.2022
4537 Clouds 4 1026 56 10000 3.09 90 21:43 30.03.2022
4538 Clouds 4 1026 56 10000 3.09 90 21:25 30.03.2022
4539 Clouds 4 1026 56 10000 2.57 100 20:21 30.03.2022
4540 Clouds 4 1026 56 10000 3.6 90 19:36 30.03.2022
4541 Clouds 4 1026 56 10000 3.6 90 18:34 30.03.2022
4542 Clouds 4 1026 56 10000 3.09 90 17:48 30.03.2022
4543 Clouds 4 1026 56 10000 2.06 90 16:57 30.03.2022
4544 Clouds 4 1026 56 10000 2.06 90 16:38 30.03.2022
4545 Clouds 4 1026 52 10000 3.09 120 15:24 30.03.2022
4546 Clouds 2 1026 60 10000 5.66 100 13:57 30.03.2022
4547 Clouds 2 1027 67 10000 3.83 120 13:18 30.03.2022
4548 Clouds 1 1026 64 10000 5.14 70 11:36 30.03.2022
4549 Clouds 1 1026 69 10000 4.12 70 10:31 30.03.2022
4550 Clouds 1 1025 64 10000 5.66 80 09:25 30.03.2022
4551 Clouds 1 1025 69 10000 3.09 70 07:41 30.03.2022
4552 Clouds 1 1025 75 10000 4.12 70 05:41 30.03.2022
4553 Clouds 1 1025 79 10000 3.6 80 04:19 30.03.2022
4554 Clouds 2 1024 69 10000 6.17 100 00:42 30.03.2022
4555 Clouds 3 1024 75 10000 4.63 100 22:34 29.03.2022
4556 Clouds 4 1024 70 10000 4.63 100 21:45 29.03.2022
4557 Clouds 4 1024 65 10000 4.12 120 20:54 29.03.2022
4558 Clouds 4 1024 65 10000 4.12 120 20:20 29.03.2022
4559 Clouds 4 1024 65 10000 5.14 120 18:56 29.03.2022
4560 Clouds 4 1024 65 10000 5.14 120 18:31 29.03.2022
4561 Clouds 4 1024 65 10000 6.17 110 17:36 29.03.2022
4562 Clouds 4 1024 60 10000 6.17 110 16:58 29.03.2022
4563 Clouds 4 1024 60 10000 6.69 100 15:58 29.03.2022
4564 Clouds 4 1024 60 10000 5.66 100 14:53 29.03.2022
4565 Clouds 4 1024 60 10000 5.66 100 14:18 29.03.2022
4566 Clouds 3 1024 60 10000 6.69 100 12:53 29.03.2022
4567 Clouds 2 1024 64 10000 4.63 70 11:44 29.03.2022
4568 Clouds 2 1024 69 10000 4.63 100 10:55 29.03.2022
4569 Clouds 2 1023 69 10000 6.17 90 09:49 29.03.2022
4570 Clouds 3 1023 65 10000 4.12 90 07:57 29.03.2022
4571 Clouds 2 1024 75 10000 5.66 70 04:47 29.03.2022
4572 Clouds 3 1023 70 10000 4.12 100 00:36 29.03.2022
4573 Clear 4 1022 70 10000 5.66 80 23:24 28.03.2022
4574 Clouds 4 1023 70 10000 5.66 90 22:53 28.03.2022
4575 Clouds 4 1023 70 10000 5.66 90 22:26 28.03.2022
4576 Clouds 4 1022 70 10000 5.14 70 20:58 28.03.2022
4577 Clouds 4 1022 70 10000 5.14 70 20:23 28.03.2022
4578 Clouds 4 1022 70 10000 7.2 80 19:44 28.03.2022
4579 Clouds 4 1022 70 10000 7.2 80 19:25 28.03.2022
4580 Clouds 4 1022 70 10000 7.2 80 18:40 28.03.2022
4581 Rain 4 1022 70 10000 7.72 90 17:39 28.03.2022
4582 Rain 3 1022 75 10000 8.23 90 16:21 28.03.2022
4583 Clouds 4 1022 70 10000 8.75 90 14:47 28.03.2022
4584 Clouds 4 1022 70 10000 8.75 90 14:21 28.03.2022
4585 Rain 4 1022 65 10000 5.14 80 12:24 28.03.2022
4586 Clouds 4 1022 65 10000 6.69 80 11:31 28.03.2022
4587 Clouds 4 1022 70 10000 6.17 80 09:43 28.03.2022
4588 Clouds 4 1022 70 10000 6.17 80 09:19 28.03.2022
4589 Clouds 4 1021 65 10000 7.72 90 08:22 28.03.2022
4590 Clouds 4 1021 70 10000 8.75 80 07:34 28.03.2022
4591 Clouds 5 1021 75 10000 6.69 80 03:52 28.03.2022
4592 Clouds 4 1020 75 10000 3.6 80 23:30 27.03.2022
4593 Clouds 4 1020 70 10000 5.66 70 22:24 27.03.2022
4594 Clouds 4 1020 75 10000 7.2 70 21:42 27.03.2022
4595 Clouds 4 1020 75 10000 7.72 70 20:57 27.03.2022
4596 Clouds 4 1019 81 10000 7.2 80 19:48 27.03.2022
4597 Clouds 4 1019 81 10000 7.2 80 19:24 27.03.2022
4598 Clouds 4 1020 81 10000 6.17 80 18:27 27.03.2022
4599 Clouds 4 1020 81 10000 6.17 70 17:39 27.03.2022
4600 Clouds 4 1020 81 10000 3.09 70 16:28 27.03.2022
4601 Clouds 4 1020 81 10000 3.09 30 15:21 27.03.2022
4602 Clouds 2 1020 93 10000 1.54 10 13:55 27.03.2022
4603 Clouds 1 1019 93 10000 1.54 30 12:31 27.03.2022
4604 Clouds 1 1019 93 10000 0.51 0 10:57 27.03.2022
4605 Clouds 0 1018 93 10000 1.03 0 08:51 27.03.2022
4606 Snow 1 1018 86 9000 3.09 340 05:54 27.03.2022
4607 Rain 4 1016 93 8000 3.6 220 00:48 27.03.2022
4608 Drizzle 5 1015 87 9000 3.6 220 23:42 26.03.2022
4609 Rain 5 1015 87 10000 6.69 240 22:36 26.03.2022
4610 Rain 6 1014 87 10000 7.72 240 21:34 26.03.2022
4611 Drizzle 7 1013 93 3600 7.72 210 20:52 26.03.2022
4612 Clouds 7 1013 93 5000 8.75 200 19:21 26.03.2022
4613 Rain 7 1013 93 6000 10.29 200 17:53 26.03.2022
4614 Rain 7 1013 93 6000 10.29 200 17:32 26.03.2022
4615 Drizzle 8 1013 87 4500 11.32 200 16:27 26.03.2022
4616 Rain 8 1013 87 10000 10.8 190 14:57 26.03.2022
4617 Drizzle 8 1014 87 10000 8.75 190 13:52 26.03.2022
4618 Drizzle 8 1014 87 9000 8.75 180 12:51 26.03.2022
4619 Drizzle 8 1014 87 5000 9.77 190 11:33 26.03.2022
4620 Clouds 8 1013 87 3600 8.75 180 10:18 26.03.2022
4621 Clouds 8 1014 87 8000 9.26 180 08:33 26.03.2022
4622 Rain 7 1015 87 7000 9.77 160 05:54 26.03.2022
4623 Drizzle 7 1016 87 10000 9.26 140 04:21 26.03.2022
4624 Clouds 5 1018 81 10000 10.29 120 23:51 25.03.2022
4625 Clouds 5 1018 75 10000 11.32 130 21:41 25.03.2022
4626 Clouds 6 1018 70 10000 10.8 120 20:46 25.03.2022
4627 Clouds 6 1018 75 10000 7.72 90 19:28 25.03.2022
4628 Clouds 6 1018 75 10000 9.77 120 18:47 25.03.2022
4629 Rain 6 1018 75 10000 12.86 130 17:37 25.03.2022
4630 Clouds 6 1018 82 10000 13.38 130 16:50 25.03.2022
4631 Clouds 6 1018 82 10000 13.38 130 16:18 25.03.2022
4632 Rain 5 1018 81 10000 7.72 80 14:22 25.03.2022
4633 Rain 5 1017 81 10000 10.29 80 12:33 25.03.2022
4634 Rain 3 1017 87 10000 5.66 70 09:55 25.03.2022
4635 Rain 3 1017 87 10000 5.66 70 09:27 25.03.2022
4636 Snow 2 1018 80 9000 7.72 70 07:53 25.03.2022
4637 Snow 2 1018 80 9000 7.72 70 07:26 25.03.2022
4638 Clouds 4 1019 60 9000 4.12 80 05:35 25.03.2022
4639 Clouds 3 1017 87 10000 3.6 30 00:42 25.03.2022
4640 Fog 3 1017 87 10000 1.54 310 22:30 24.03.2022
4641 Clouds 3 1017 87 10000 1.54 150 21:35 24.03.2022
4642 Clouds 3 1016 93 10000 3.09 330 19:51 24.03.2022
4643 Fog 4 1015 93 3000 3.09 300 18:58 24.03.2022
4644 Clouds 6 1015 81 10000 2.06 260 17:46 24.03.2022
4645 Clouds 6 1014 87 10000 2.57 250 16:54 24.03.2022
4646 Clouds 6 1014 81 10000 4.63 250 15:21 24.03.2022
4647 Clouds 6 1014 75 10000 4.12 240 14:42 24.03.2022
4648 Drizzle 5 1013 87 10000 4.63 230 13:59 24.03.2022
4649 Drizzle 4 1013 93 10000 2.57 250 12:47 24.03.2022
4650 Clouds 4 1011 87 10000 5.14 240 11:33 24.03.2022
4651 Clouds 4 1010 93 10000 6.17 230 09:51 24.03.2022
4652 Drizzle 5 1008 87 10000 5.66 210 08:40 24.03.2022
4653 Clouds 5 1007 93 10000 6.17 200 06:48 24.03.2022
4654 Rain 7 1009 81 10000 6.17 170 02:18 24.03.2022
4655 Clouds 6 1012 87 10000 8.75 150 23:18 23.03.2022
4656 Clouds 6 1013 81 10000 7.2 140 21:25 23.03.2022
4657 Clouds 6 1013 81 10000 7.2 140 21:25 23.03.2022
4658 Clouds 6 1014 87 10000 7.2 150 20:49 23.03.2022
4659 Clouds 7 1014 81 10000 6.69 140 19:45 23.03.2022
4660 Clouds 7 1015 76 10000 5.14 130 18:30 23.03.2022
4661 Clouds 8 1015 76 10000 7.2 140 17:36 23.03.2022
4662 Clouds 8 1015 76 10000 6.69 140 16:21 23.03.2022
4663 Clouds 6 1016 75 10000 5.66 90 14:50 23.03.2022
4664 Clouds 6 1016 75 10000 5.66 90 14:24 23.03.2022
4665 Clouds 5 1016 75 10000 4.63 80 12:45 23.03.2022
4666 Clouds 4 1015 81 10000 5.14 80 09:38 23.03.2022
4667 Clouds 4 1014 81 10000 5.66 80 06:41 23.03.2022
4668 Clouds 4 1014 93 10000 5.14 90 04:31 23.03.2022
4669 Snow 1 1012 97 1687 2.92 100 00:29 23.03.2022
4670 Drizzle 5 1012 87 7000 2.57 70 22:33 22.03.2022
4671 Clouds 6 1012 81 10000 2.57 80 21:29 22.03.2022
4672 Clouds 6 1011 81 10000 3.6 80 20:40 22.03.2022
4673 Clouds 7 1011 81 10000 0 0 19:41 22.03.2022
4674 Clouds 7 1011 81 10000 0 0 19:18 22.03.2022
4675 Clouds 7 1010 81 10000 2.06 120 18:22 22.03.2022
4676 Clouds 7 1010 81 10000 2.57 150 17:29 22.03.2022
4677 Clouds 7 1010 87 10000 2.06 130 15:59 22.03.2022
4678 Clouds 7 1010 87 10000 2.06 130 15:22 22.03.2022
4679 Clouds 6 1009 87 10000 1.54 190 14:46 22.03.2022
4680 Clouds 6 1009 87 10000 1.54 190 14:27 22.03.2022
4681 Drizzle 5 1008 93 2000 2.57 200 13:27 22.03.2022
4682 Rain 5 1007 93 10000 1.03 0 11:52 22.03.2022
4683 Rain 5 1007 93 10000 3.09 130 10:35 22.03.2022
4684 Rain 6 1006 87 10000 3.6 130 08:29 22.03.2022
4685 Rain 6 1007 87 10000 6.17 120 05:25 22.03.2022
4686 Rain 6 1008 87 10000 5.14 100 03:47 22.03.2022
4687 Clouds 5 1009 87 10000 4.63 140 00:22 22.03.2022
4688 Clouds 6 1008 75 10000 7.72 140 22:29 21.03.2022
4689 Drizzle 5 1008 81 10000 7.72 110 20:57 21.03.2022
4690 Drizzle 5 1008 81 10000 7.72 110 20:38 21.03.2022
4691 Clouds 4 1009 75 10000 4.63 70 19:58 21.03.2022
4692 Clouds 4 1009 75 10000 4.63 70 19:33 21.03.2022
4693 Clouds 3 1009 87 10000 6.17 60 18:22 21.03.2022
4694 Drizzle 3 1010 87 10000 6.17 70 17:19 21.03.2022
4695 Clouds 3 1011 75 10000 5.66 60 16:44 21.03.2022
4696 Clouds 1 1013 80 10000 5.14 60 15:55 21.03.2022
4697 Clouds 1 1013 80 10000 5.14 60 15:19 21.03.2022
4698 Snow 1 1014 75 7000 5.66 70 14:25 21.03.2022
4699 Clouds 2 1016 64 10000 4.12 90 12:40 21.03.2022
4700 Clouds 2 1017 69 10000 4.12 80 11:52 21.03.2022
4701 Clouds 2 1017 69 10000 3.6 90 10:40 21.03.2022
4702 Clouds 1 1017 75 10000 3.6 70 08:55 21.03.2022
4703 Clouds 0 1018 74 10000 3.6 80 06:54 21.03.2022
4704 Clouds 0 1019 80 10000 1.54 130 02:53 21.03.2022
4705 Clouds 0 1019 86 10000 3.09 150 00:19 21.03.2022
4706 Clouds 1 1017 80 10000 3.6 180 22:54 20.03.2022
4707 Clouds 1 1016 86 10000 5.14 200 21:56 20.03.2022
4708 Clouds 1 1016 86 10000 5.14 200 21:29 20.03.2022
4709 Clouds 2 1015 75 10000 4.63 210 20:43 20.03.2022
4710 Clouds 2 1015 75 10000 4.63 210 19:59 20.03.2022
4711 Clouds 2 1015 75 10000 4.63 210 19:34 20.03.2022
4712 Clouds 2 1014 75 10000 4.12 200 18:40 20.03.2022
4713 Clouds 2 1013 75 10000 4.63 210 17:35 20.03.2022
4714 Clouds 3 1013 75 10000 3.6 230 16:57 20.03.2022
4715 Clouds 1 1012 86 10000 6.17 240 15:43 20.03.2022
4716 Clouds 3 1010 75 10000 4.12 260 14:35 20.03.2022
4717 Clouds 2 1009 75 10000 2.06 250 13:18 20.03.2022
4718 Clouds 1 1006 86 10000 2.57 310 11:32 20.03.2022
4719 Clouds 1 1003 86 10000 3.6 320 09:40 20.03.2022
4720 Clouds 2 1001 80 10000 5.14 280 07:50 20.03.2022
4721 Clouds 1 1000 93 10000 5.66 280 05:49 20.03.2022
4722 Clouds 0 999 93 10000 2.57 240 02:53 20.03.2022
4723 Drizzle 1 999 93 4000 3.09 310 00:48 20.03.2022
4724 Drizzle 1 999 93 4400 3.6 300 23:21 19.03.2022
4725 Mist 2 998 93 4300 1.54 220 21:41 19.03.2022
4726 Mist 2 998 93 4300 1.54 220 21:18 19.03.2022
4727 Mist 2 998 93 2800 2.06 190 19:21 19.03.2022
4728 Snow 1 1000 97 2466 3.99 178 18:25 19.03.2022
4729 Clouds 3 1000 97 2466 3.99 178 17:41 19.03.2022
4730 Drizzle 0 1001 93 2200 2.06 170 16:40 19.03.2022
4731 Drizzle 0 1001 93 700 1.03 230 15:21 19.03.2022
4732 Clouds 0 1002 93 3500 0 0 13:39 19.03.2022
4733 Snow 0 1004 96 1670 3.27 18 12:42 19.03.2022
4734 Snow 1 1004 96 341 3.59 33 12:19 19.03.2022
4735 Snow 0 1003 93 1400 2.06 170 11:42 19.03.2022
4736 Clouds -1 1004 93 2800 2.57 160 08:34 19.03.2022
4737 Clouds 0 1006 80 10000 2.06 80 04:24 19.03.2022
4738 Clear 0 1006 80 10000 3.6 80 02:32 19.03.2022
4739 Clouds 1 1005 75 10000 2.06 100 23:50 18.03.2022
4740 Clouds 1 1005 80 10000 2.57 90 22:43 18.03.2022
4741 Clouds 1 1005 80 10000 2.57 90 22:20 18.03.2022
4742 Clouds 1 1004 80 10000 2.06 120 20:25 18.03.2022
4743 Clouds 1 1004 80 10000 2.06 120 20:25 18.03.2022
4744 Clouds 1 1004 80 10000 2.06 120 20:25 18.03.2022
4745 Clouds 1 1002 80 10000 1.03 0 19:24 18.03.2022
4746 Clouds 1 1002 86 10000 0 0 18:35 18.03.2022
4747 Clouds 0 1002 93 10000 3.09 170 16:53 18.03.2022
4748 Clouds 0 1002 93 10000 3.09 170 16:23 18.03.2022
4749 Clouds 0 1003 86 10000 3.09 190 14:26 18.03.2022
4750 Clouds 0 1002 86 10000 4.63 180 13:36 18.03.2022
4751 Snow -1 1002 80 10000 9.26 230 11:35 18.03.2022
4752 Snow -1 1002 80 9000 6.17 200 10:21 18.03.2022
4753 Clouds -2 1000 80 10000 11.83 210 08:46 18.03.2022
4754 Clouds -1 997 80 10000 11.83 210 06:45 18.03.2022
4755 Clouds -2 996 86 3000 10.29 210 04:55 18.03.2022
4756 Clouds -2 992 93 10000 15.43 220 00:55 18.03.2022
4757 Snow -1 992 86 2000 17.49 230 23:52 17.03.2022
4758 Clouds -2 991 93 8000 11.83 210 22:45 17.03.2022
4759 Snow -1 991 86 8000 11.83 230 22:19 17.03.2022
4760 Clouds -2 991 86 2000 12.86 220 21:27 17.03.2022
4761 Snow -2 990 80 10000 11.32 210 20:53 17.03.2022
4762 Clouds -2 990 80 10000 11.32 210 20:19 17.03.2022
4763 Snow 0 990 69 10000 11.83 220 19:38 17.03.2022
4764 Clouds -1 989 80 10000 13.38 220 18:52 17.03.2022
4765 Clouds -2 989 86 10000 11.83 230 17:29 17.03.2022
4766 Clouds -2 989 86 400 13.38 230 16:20 17.03.2022
4767 Clouds -2 988 80 10000 12.86 230 15:43 17.03.2022
4768 Clouds -3 987 93 10000 12.86 240 14:59 17.03.2022
4769 Snow -2 985 86 2000 16.46 240 13:45 17.03.2022
4770 Clouds -1 983 86 9000 15.95 240 12:46 17.03.2022
4771 Clouds -1 979 93 6000 18.01 240 11:33 17.03.2022
4772 Snow 0 975 86 200 20.06 230 10:43 17.03.2022
4773 Snow 1 975 75 2000 12.86 150 09:37 17.03.2022
4774 Clouds 0 975 93 8000 11.32 110 08:19 17.03.2022
4775 Clouds -2 982 86 3500 11.83 90 05:51 17.03.2022
4776 Snow -1 987 74 10000 9.26 90 04:40 17.03.2022
4777 Clouds -3 992 93 10000 3.09 120 00:27 17.03.2022
4778 Clouds -3 992 93 10000 4.12 190 22:56 16.03.2022
4779 Snow -3 992 93 10000 4.12 190 22:36 16.03.2022
4780 Clouds -3 992 93 10000 4.12 170 21:56 16.03.2022
4781 Snow -2 991 86 10000 3.6 120 20:40 16.03.2022
4782 Clouds -3 991 93 10000 4.63 180 19:23 16.03.2022
4783 Clouds -3 991 93 10000 6.69 230 18:42 16.03.2022
4784 Clouds -2 990 86 4200 6.17 190 17:49 16.03.2022
4785 Snow -2 990 86 4200 6.17 190 17:31 16.03.2022
4786 Clouds -2 990 93 10000 7.2 190 16:35 16.03.2022
4787 Snow -2 990 93 2500 5.14 220 14:58 16.03.2022
4788 Clouds -2 989 86 1100 8.75 200 13:36 16.03.2022
4789 Snow -2 989 86 10000 6.17 180 12:55 16.03.2022
4790 Clouds -3 989 86 10000 4.63 140 11:23 16.03.2022
4791 Clouds -3 989 93 8000 6.69 220 10:32 16.03.2022
4792 Clouds -3 988 93 10000 7.2 210 09:57 16.03.2022
4793 Snow -3 987 93 10000 5.66 190 08:24 16.03.2022
4794 Snow -2 985 86 10000 5.66 160 02:46 16.03.2022
4795 Clouds -1 985 86 4500 7.2 210 22:56 15.03.2022
4796 Clouds -1 984 86 10000 9.26 190 22:36 15.03.2022
4797 Clouds -1 984 86 800 10.8 200 20:59 15.03.2022
4798 Clouds -1 984 86 1000 10.8 200 19:46 15.03.2022
4799 Snow -1 983 80 1000 11.32 220 17:47 15.03.2022
4800 Clouds -1 983 86 10000 8.75 220 16:41 15.03.2022
4801 Clouds 0 982 74 10000 11.32 210 15:42 15.03.2022
4802 Clouds 0 981 74 10000 13.38 200 14:54 15.03.2022
4803 Snow 1 980 75 10000 11.83 200 13:56 15.03.2022
4804 Snow 1 980 75 10000 11.83 200 13:23 15.03.2022
4805 Clouds -1 979 86 10000 12.35 210 11:34 15.03.2022
4806 Clouds 0 979 80 10000 8.75 190 10:53 15.03.2022
4807 Clouds -1 978 80 10000 12.35 190 09:29 15.03.2022
4808 Clouds 0 978 86 10000 12.35 210 08:27 15.03.2022
4809 Clouds 0 977 86 10000 7.72 190 07:38 15.03.2022
4810 Snow 0 976 93 10000 5.66 180 06:32 15.03.2022
4811 Clouds 3 974 70 10000 10.29 180 00:58 15.03.2022
4812 Clouds 3 973 75 6500 12.86 190 23:30 14.03.2022
4813 Clouds 3 973 75 10000 13.89 180 22:52 14.03.2022
4814 Clouds 5 972 60 10000 13.38 190 21:55 14.03.2022
4815 Clouds 5 972 70 10000 11.83 180 20:59 14.03.2022
4816 Clouds 5 972 70 10000 11.83 180 20:28 14.03.2022
4817 Clouds 5 971 75 10000 13.38 180 19:32 14.03.2022
4818 Drizzle 6 970 93 1700 18.52 150 17:59 14.03.2022
4819 Drizzle 6 970 93 1700 18.52 150 17:41 14.03.2022
4820 Rain 4 973 93 3200 18.52 140 16:33 14.03.2022
4821 Rain 3 978 87 4300 17.49 140 14:52 14.03.2022
4822 Rain 3 981 87 3600 15.43 140 13:57 14.03.2022
4823 Snow 2 985 87 4200 17.49 140 11:26 14.03.2022
4824 Clouds 2 990 80 10000 15.43 150 09:57 14.03.2022
4825 Drizzle 2 990 80 10000 15.43 150 09:35 14.03.2022
4826 Clouds 3 993 70 10000 13.89 140 08:58 14.03.2022
4827 Clouds 3 993 70 10000 13.89 140 08:30 14.03.2022
4828 Clouds 3 997 65 10000 10.8 150 06:47 14.03.2022
4829 Clouds 3 1002 60 10000 7.2 150 03:27 14.03.2022
4830 Clouds 1 1004 75 10000 3.6 130 01:39 14.03.2022
4831 Clouds 1 1005 80 10000 4.63 140 00:29 14.03.2022
4832 Clouds 2 1005 69 10000 4.12 160 21:51 13.03.2022
4833 Clouds 2 1005 69 10000 4.12 160 21:22 13.03.2022
4834 Clouds 2 1004 75 10000 4.63 160 20:46 13.03.2022
4835 Clouds 2 1004 75 10000 4.63 160 20:22 13.03.2022
4836 Clouds 1 1004 80 10000 6.17 140 19:42 13.03.2022
4837 Clouds 1 1004 80 10000 6.17 140 19:22 13.03.2022
4838 Clouds 2 1004 75 2500 7.72 130 18:45 13.03.2022
4839 Rain 3 1004 70 10000 7.2 130 18:26 13.03.2022
4840 Rain 3 1003 70 10000 6.69 110 17:38 13.03.2022
4841 Clouds 3 1003 70 10000 7.72 110 16:45 13.03.2022
4842 Clouds 3 1003 70 10000 7.72 110 16:23 13.03.2022
4843 Clouds 3 1003 70 10000 7.72 110 15:42 13.03.2022
4844 Clouds 2 1003 69 10000 7.2 110 14:37 13.03.2022
4845 Clouds 1 1003 80 10000 6.69 100 13:28 13.03.2022
4846 Clouds 1 1003 75 10000 4.12 120 12:23 13.03.2022
4847 Snow 0 1002 86 6500 6.17 90 11:39 13.03.2022
4848 Clouds 0 1001 69 9000 5.66 80 10:50 13.03.2022
4849 Clouds 0 1001 69 9000 5.66 80 10:28 13.03.2022
4850 Clouds -1 1000 86 8000 5.14 80 09:42 13.03.2022
4851 Clouds -1 999 74 10000 4.63 80 08:50 13.03.2022
4852 Snow -1 999 74 10000 4.63 80 08:29 13.03.2022
4853 Clouds -1 998 80 10000 4.63 90 07:19 13.03.2022
4854 Clouds 1 995 80 10000 3.6 100 04:57 13.03.2022
4855 Clouds 0 993 80 10000 3.6 110 01:47 13.03.2022
4856 Snow 1 992 75 10000 2.57 130 23:26 12.03.2022
4857 Clouds 2 990 69 10000 3.6 140 21:32 12.03.2022
4858 Clouds 3 989 65 10000 4.12 160 20:19 12.03.2022
4859 Clouds 3 988 70 10000 5.14 170 19:46 12.03.2022
4860 Clouds 2 988 69 10000 5.14 150 18:40 12.03.2022
4861 Clouds 2 987 75 10000 7.2 180 17:49 12.03.2022
4862 Clouds 4 987 65 10000 8.23 180 16:28 12.03.2022
4863 Clouds 1 987 80 3500 9.77 180 15:48 12.03.2022
4864 Clouds 1 987 80 3500 9.77 180 15:19 12.03.2022
4865 Clouds 2 986 69 3000 10.29 160 13:53 12.03.2022
4866 Clouds 3 985 65 10000 6.69 170 12:27 12.03.2022
4867 Clouds 2 985 60 10000 4.63 160 11:52 12.03.2022
4868 Clouds 2 985 60 10000 4.63 160 11:32 12.03.2022
4869 Clouds 2 985 75 10000 4.63 130 10:24 12.03.2022
4870 Clouds 1 984 80 10000 6.17 140 09:43 12.03.2022
4871 Snow 1 984 75 10000 4.12 160 07:52 12.03.2022
4872 Clouds 1 984 80 10000 1.54 120 06:30 12.03.2022
4873 Clouds 4 983 70 10000 3.6 130 00:31 12.03.2022
4874 Rain 4 983 81 10000 4.63 150 23:41 11.03.2022
4875 Clouds 5 982 75 10000 4.12 140 22:32 11.03.2022
4876 Drizzle 5 982 75 10000 4.63 130 21:24 11.03.2022
4877 Drizzle 5 982 75 10000 4.63 130 21:24 11.03.2022
4878 Clouds 4 981 81 10000 5.66 170 20:46 11.03.2022
4879 Clouds 4 981 81 10000 5.66 170 20:26 11.03.2022
4880 Clouds 5 979 70 10000 7.2 160 19:32 11.03.2022
4881 Clouds 6 976 75 10000 9.26 180 17:53 11.03.2022
4882 Clouds 6 976 75 10000 9.26 180 17:24 11.03.2022
4883 Clouds 6 973 75 10000 11.83 140 15:58 11.03.2022
4884 Clouds 6 973 75 10000 11.83 140 15:32 11.03.2022
4885 Clouds 6 972 70 10000 13.89 140 13:42 11.03.2022
4886 Clouds 5 972 81 10000 10.8 140 12:37 11.03.2022
4887 Clouds 5 972 75 2500 13.38 140 12:19 11.03.2022
4888 Clouds 6 970 75 10000 10.29 130 10:44 11.03.2022
4889 Clouds 6 970 81 8000 10.8 110 09:34 11.03.2022
4890 Clouds 7 972 70 10000 9.77 110 08:28 11.03.2022
4891 Clouds 6 972 84 10000 10.29 120 07:48 11.03.2022
4892 Clouds 6 973 81 10000 5.66 100 06:42 11.03.2022
4893 Clouds 6 974 81 10000 6.69 120 04:37 11.03.2022
4894 Clear 6 975 81 10000 4.63 110 01:29 11.03.2022
4895 Clouds 5 975 87 10000 6.69 120 22:32 10.03.2022
4896 Drizzle 6 975 87 10000 5.14 130 21:53 10.03.2022
4897 Drizzle 6 975 87 10000 5.14 130 21:25 10.03.2022
4898 Clouds 5 974 87 10000 2.06 60 20:34 10.03.2022
4899 Clouds 5 974 81 10000 4.12 50 19:20 10.03.2022
4900 Clouds 4 975 87 10000 4.63 60 17:50 10.03.2022
4901 Clouds 4 976 87 10000 6.69 60 16:52 10.03.2022
4902 Clouds 3 976 87 10000 7.72 70 15:28 10.03.2022
4903 Clouds 5 977 81 10000 7.2 80 13:42 10.03.2022
4904 Clouds 4 978 81 10000 9.26 100 12:41 10.03.2022
4905 Clouds 2 978 87 8000 10.8 100 11:28 10.03.2022
4906 Clouds 1 978 86 2300 13.89 90 09:42 10.03.2022
4907 Clouds 1 982 60 10000 11.32 80 07:48 10.03.2022
4908 Clear 0 986 69 10000 5.66 60 05:30 10.03.2022
4909 Clouds 0 987 69 10000 2.57 130 01:59 10.03.2022
4910 Clouds 1 986 64 10000 4.63 210 23:32 09.03.2022
4911 Clouds 1 985 64 10000 8.23 230 22:22 09.03.2022
4912 Clouds 1 984 55 10000 10.29 240 21:44 09.03.2022
4913 Clouds 1 982 69 10000 10.8 240 20:36 09.03.2022
4914 Snow 1 979 86 3000 11.32 250 18:50 09.03.2022
4915 Clouds 1 977 93 1700 10.29 260 17:28 09.03.2022
4916 Snow 1 976 93 4000 7.2 260 16:39 09.03.2022
4917 Rain 2 974 87 10000 4.63 240 15:32 09.03.2022
4918 Clouds 3 972 81 10000 4.12 260 14:19 09.03.2022
4919 Clouds 3 971 81 10000 3.6 260 13:25 09.03.2022
4920 Clouds 3 970 81 10000 3.6 240 12:20 09.03.2022
4921 Clear 2 969 87 10000 2.57 240 11:45 09.03.2022
4922 Clear 2 968 87 10000 3.09 180 10:50 09.03.2022
4923 Clouds 2 968 93 10000 1.54 280 09:22 09.03.2022
4924 Clouds 2 967 93 10000 2.06 240 08:42 09.03.2022
4925 Clouds 4 967 81 10000 4.12 20 05:36 09.03.2022
4926 Clouds 4 972 75 10000 4.63 90 00:56 09.03.2022
4927 Clouds 4 974 75 10000 4.63 100 23:37 08.03.2022
4928 Clouds 5 975 81 7000 7.72 130 22:45 08.03.2022
4929 Clouds 5 976 81 7000 6.69 120 21:43 08.03.2022
4930 Clouds 5 976 81 7000 6.69 120 21:18 08.03.2022
4931 Clouds 5 975 79 10000 13.38 130 19:59 08.03.2022
4932 Clouds 5 975 70 10000 14.92 120 18:53 08.03.2022
4933 Clouds 5 977 75 10000 13.89 130 17:51 08.03.2022
4934 Clouds 6 977 70 10000 15.43 130 16:35 08.03.2022
4935 Clouds 5 979 81 8000 12.35 130 14:24 08.03.2022
4936 Mist 5 978 87 5500 13.89 140 13:22 08.03.2022
4937 Rain 5 979 87 3000 14.4 140 12:19 08.03.2022
4938 Mist 6 979 81 5000 13.89 130 11:41 08.03.2022
4939 Mist 5 980 81 7000 11.32 130 10:27 08.03.2022
4940 Rain 3 983 87 9000 5.14 110 08:30 08.03.2022
4941 Snow 0 990 86 3000 3.09 20 05:48 08.03.2022
4942 Clouds 0 997 93 8000 2.57 70 01:48 08.03.2022
4943 Clouds 0 1000 93 6000 3.09 100 22:24 07.03.2022
4944 Clouds 0 1001 93 6000 2.06 130 21:35 07.03.2022
4945 Clouds 0 1001 93 5000 2.06 160 20:55 07.03.2022
4946 Clouds 0 1001 93 5000 2.06 160 20:26 07.03.2022
4947 Clouds 0 1001 93 10000 3.09 120 19:41 07.03.2022
4948 Clouds 0 1001 93 10000 2.06 120 18:47 07.03.2022
4949 Clouds 0 1001 93 10000 2.06 120 18:25 07.03.2022
4950 Clouds 0 1002 93 500 4.63 210 16:56 07.03.2022
4951 Snow 1 1002 80 2000 6.17 210 16:34 07.03.2022
4952 Snow 1 1004 75 10000 3.6 90 14:40 07.03.2022
4953 Clouds 1 1005 75 10000 3.09 130 12:34 07.03.2022
4954 Clouds -2 1006 86 10000 1.03 0 10:48 07.03.2022
4955 Clouds -2 1006 86 10000 1.03 0 10:25 07.03.2022
4956 Clouds -1 1006 80 10000 3.6 170 07:42 07.03.2022
4957 Clouds -1 1009 93 10000 4.12 170 00:37 07.03.2022
4958 Clouds -1 1009 93 10000 4.12 170 00:19 07.03.2022
4959 Clouds 0 1009 86 10000 6.17 210 23:19 06.03.2022
4960 Clouds 0 1009 86 10000 7.2 170 22:25 06.03.2022
4961 Snow 1 1009 75 3000 7.2 180 21:22 06.03.2022
4962 Clouds 1 1009 69 10000 5.66 180 20:29 06.03.2022
4963 Clouds 0 1009 80 10000 6.69 230 19:35 06.03.2022
4964 Clouds 1 1009 75 10000 6.17 200 18:40 06.03.2022
4965 Clouds 1 1009 75 10000 6.17 190 17:36 06.03.2022
4966 Clouds 1 1009 75 10000 6.17 190 17:18 06.03.2022
4967 Clouds 1 1010 80 10000 5.66 220 16:26 06.03.2022
4968 Clouds 1 1010 75 10000 7.2 190 15:23 06.03.2022
4969 Clouds 0 1010 80 10000 8.75 220 14:41 06.03.2022
4970 Clouds 0 1010 74 10000 4.63 170 13:48 06.03.2022
4971 Clouds 0 1009 80 10000 7.2 180 12:39 06.03.2022
4972 Clouds 0 1009 74 10000 7.2 190 11:39 06.03.2022
4973 Clouds 1 1006 69 10000 7.72 210 10:33 06.03.2022
4974 Clouds 0 1006 86 10000 4.12 190 09:18 06.03.2022
4975 Clouds 0 1008 86 10000 5.14 220 08:27 06.03.2022
4976 Clouds 0 1007 86 10000 4.12 160 07:23 06.03.2022
4977 Snow 0 1005 93 3000 1.54 220 01:54 06.03.2022
4978 Snow -1 1005 100 2000 1.03 210 00:34 06.03.2022
4979 Snow -1 1005 100 2000 1.54 220 23:57 05.03.2022
4980 Clouds 0 1005 98 2000 1.54 220 23:18 05.03.2022
4981 Snow 0 1005 94 1500 1.54 280 22:32 05.03.2022
4982 Clouds 1 1004 93 4000 5.14 290 21:29 05.03.2022
4983 Rain 7 1003 87 3500 10.8 160 20:27 05.03.2022
4984 Clouds 6 1004 93 5000 12.35 150 19:18 05.03.2022
4985 Rain 6 1006 87 6000 11.32 140 18:37 05.03.2022
4986 Rain 5 1005 94 1954 17.5 137 17:31 05.03.2022
4987 Clouds 4 1009 96 367 17.43 137 16:18 05.03.2022
4988 Clouds 5 1012 81 10000 10.8 140 14:54 05.03.2022
4989 Rain 5 1012 81 10000 10.8 140 14:35 05.03.2022
4990 Rain 3 1013 92 4239 15.77 137 13:39 05.03.2022
4991 Rain 3 1015 85 10000 13.72 139 12:35 05.03.2022
4992 Clouds 5 1017 75 10000 6.17 110 11:20 05.03.2022
4993 Clouds 4 1017 81 10000 6.69 110 10:52 05.03.2022
4994 Clouds 2 1017 85 10000 9.05 126 09:31 05.03.2022
4995 Clouds 3 1018 81 10000 6.17 120 08:24 05.03.2022
4996 Clouds 3 1019 75 10000 4.63 130 07:21 05.03.2022
4997 Clouds 2 1020 75 10000 3.6 100 05:22 05.03.2022
4998 Clouds 1 1019 86 10000 2.57 150 00:32 05.03.2022
4999 Clouds 1 1019 86 10000 4.63 200 22:45 04.03.2022
5000 Clouds 1 1019 86 10000 4.63 200 22:25 04.03.2022
5001 Clouds 1 1018 86 10000 4.12 200 21:43 04.03.2022
5002 Snow 1 1018 86 10000 3.6 190 20:42 04.03.2022
5003 Clouds 1 1017 93 10000 2.57 150 19:37 04.03.2022
5004 Clouds 0 1017 93 10000 2.06 240 18:56 04.03.2022
5005 Snow 1 1017 80 800 5.66 240 18:33 04.03.2022
5006 Clouds 2 1016 87 10000 5.14 250 17:29 04.03.2022
5007 Snow 2 1015 69 10000 5.66 270 15:54 04.03.2022
5008 Clouds 2 1015 69 10000 5.66 270 15:25 04.03.2022
5009 Clouds 2 1013 87 10000 3.09 230 13:36 04.03.2022
5010 Clouds 2 1013 87 10000 2.57 310 12:47 04.03.2022
5011 Clouds 2 1011 75 10000 5.66 260 11:37 04.03.2022
5012 Clouds 2 1011 75 10000 5.66 260 11:37 04.03.2022
5013 Clouds 2 1010 80 10000 4.63 270 10:25 04.03.2022
5014 Clouds 2 1010 87 10000 5.14 270 09:28 04.03.2022
5015 Clouds 0 1008 93 5000 3.09 210 07:48 04.03.2022
5016 Clouds -2 1007 93 10000 2.57 140 06:21 04.03.2022
5017 Clouds 0 1006 80 10000 2.06 150 01:46 04.03.2022
5018 Clouds 1 1005 86 10000 2.57 130 23:41 03.03.2022
5019 Clouds 2 1005 80 10000 3.6 170 22:18 03.03.2022
5020 Clouds 2 1004 87 10000 2.06 130 21:36 03.03.2022
5021 Clouds 1 1003 86 10000 5.66 200 20:48 03.03.2022
5022 Clouds 2 1003 75 10000 4.63 140 19:29 03.03.2022
5023 Clouds 2 1002 75 10000 5.66 140 18:33 03.03.2022
5024 Clouds 3 1003 70 10000 5.14 140 17:39 03.03.2022
5025 Clouds 3 1003 70 10000 5.14 140 17:18 03.03.2022
5026 Clouds 1 1003 86 10000 5.14 170 15:46 03.03.2022
5027 Snow 2 1002 75 10000 4.63 120 14:45 03.03.2022
5028 Snow 2 1002 75 10000 4.63 120 14:27 03.03.2022
5029 Snow 2 1002 80 10000 4.63 110 12:43 03.03.2022
5030 Clouds 2 1002 80 10000 3.6 110 11:31 03.03.2022
5031 Clouds 2 1001 75 5000 4.12 130 10:39 03.03.2022
5032 Clouds 2 1000 75 10000 3.6 90 08:44 03.03.2022
5033 Clouds 2 1000 75 10000 3.6 150 06:58 03.03.2022
5034 Clouds 2 1000 75 10000 3.6 150 06:23 03.03.2022
5035 Clouds 4 998 70 10000 5.66 150 00:40 03.03.2022
5036 Clouds 4 997 75 10000 5.66 160 23:28 02.03.2022
5037 Clouds 4 996 75 10000 5.14 150 22:48 02.03.2022
5038 Clouds 5 996 65 10000 5.14 150 21:23 02.03.2022
5039 Clouds 5 996 75 10000 6.17 150 20:30 02.03.2022
5040 Clouds 2 995 80 10000 6.69 100 19:49 02.03.2022
5041 Clouds 2 995 80 10000 6.69 100 19:30 02.03.2022
5042 Rain 3 995 81 10000 4.12 120 18:44 02.03.2022
5043 Rain 3 994 87 10000 5.14 140 17:50 02.03.2022
5044 Rain 3 994 87 10000 5.14 140 17:21 02.03.2022
5045 Rain 3 995 87 10000 3.09 150 16:42 02.03.2022
5046 Rain 3 995 87 8000 4.63 160 14:43 02.03.2022
5047 Mist 6 994 81 6000 13.38 130 13:24 02.03.2022
5048 Rain 4 993 87 6000 13.89 130 12:42 02.03.2022
5049 Rain 4 994 87 4500 12.86 110 11:40 02.03.2022
5050 Rain 4 994 87 4500 12.86 110 11:21 02.03.2022
5051 Rain 5 996 87 6000 13.38 110 09:41 02.03.2022
5052 Drizzle 5 996 87 9000 12.86 110 08:54 02.03.2022
5053 Rain 5 996 81 5000 13.38 120 07:28 02.03.2022
5054 Rain 5 997 75 10000 18.01 130 06:51 02.03.2022
5055 Clouds 2 1007 69 10000 7.72 100 01:33 02.03.2022
5056 Clear 1 1008 60 10000 6.17 90 23:49 01.03.2022
5057 Clear 0 1009 69 10000 7.72 80 22:45 01.03.2022
5058 Clear 0 1009 69 10000 7.72 80 22:19 01.03.2022
5059 Clear 0 1010 69 10000 5.66 80 21:25 01.03.2022
5060 Clear -1 1011 74 10000 4.63 90 20:30 01.03.2022
5061 Clear -1 1011 74 10000 4.63 90 20:30 01.03.2022
5062 Clear -1 1011 74 10000 4.63 90 20:30 01.03.2022
5063 Clear 0 1012 69 10000 4.63 90 19:38 01.03.2022
5064 Clear 1 1012 69 10000 3.6 110 18:49 01.03.2022
5065 Clear 1 1012 69 10000 3.6 110 18:20 01.03.2022
5066 Clouds 2 1012 64 10000 2.06 180 17:22 01.03.2022
5067 Clouds 2 1013 69 10000 2.57 200 16:33 01.03.2022
5068 Clouds 2 1012 75 10000 2.57 190 15:38 01.03.2022
5069 Clouds 2 1011 80 10000 2.57 260 14:35 01.03.2022
5070 Clouds 0 1010 86 10000 8.75 290 13:58 01.03.2022
5071 Clouds 0 1010 86 10000 8.75 290 13:25 01.03.2022
5072 Clouds 0 1009 86 10000 7.2 240 12:32 01.03.2022
5073 Snow 0 1006 86 300 9.26 250 10:36 01.03.2022
5074 Clouds 0 1004 86 400 9.26 250 08:45 01.03.2022
5075 Clouds 1 999 86 10000 8.75 230 07:53 01.03.2022
5076 Clouds 1 998 93 10000 9.77 240 06:20 01.03.2022
5077 Clouds 2 991 75 10000 13.38 260 02:44 01.03.2022
5078 Clouds 2 988 87 10000 7.72 270 00:36 01.03.2022
5079 Snow 1 986 93 4800 11.32 270 23:31 28.02.2022
5080 Snow 1 985 93 1800 8.75 270 22:18 28.02.2022
5081 Snow 1 983 93 10000 11.32 280 21:39 28.02.2022
5082 Snow 1 978 100 1500 8.75 270 19:59 28.02.2022
5083 Snow 1 978 100 1500 8.75 270 19:40 28.02.2022
5084 Snow 1 978 93 900 7.2 280 18:44 28.02.2022
5085 Snow 1 975 93 800 6.17 290 17:33 28.02.2022
5086 Snow 0 973 93 1800 6.17 300 16:53 28.02.2022
5087 Snow 1 972 93 1500 7.2 330 15:31 28.02.2022
5088 Snow 1 971 93 2200 1.54 210 14:32 28.02.2022
5089 Snow 2 970 87 8000 5.66 10 13:48 28.02.2022
5090 Snow 2 969 80 2500 7.2 20 12:53 28.02.2022
5091 Snow 2 968 80 9000 8.75 10 11:59 28.02.2022
5092 Mist 2 968 80 9000 8.75 10 11:18 28.02.2022
5093 Clouds 1 967 86 10000 11.83 10 10:22 28.02.2022
5094 Drizzle 1 968 86 8000 9.26 40 09:43 28.02.2022
5095 Snow 2 968 75 10000 7.2 20 08:51 28.02.2022
5096 Snow 3 968 65 10000 8.75 50 07:57 28.02.2022
5097 Snow 3 971 65 10000 10.8 30 05:53 28.02.2022
5098 Clouds 2 973 69 10000 7.72 20 04:30 28.02.2022
5099 Clear 2 983 55 10000 10.8 70 00:42 28.02.2022
5100 Snow 2 988 60 10000 12.86 90 22:44 27.02.2022
5101 Clouds 2 988 60 10000 12.86 90 22:26 27.02.2022
5102 Clouds 1 990 69 10000 13.38 90 21:37 27.02.2022
5103 Snow 2 993 75 10000 7.2 80 20:43 27.02.2022
5104 Snow 2 993 75 10000 7.2 80 20:18 27.02.2022
5105 Snow 2 994 69 10000 6.17 90 19:43 27.02.2022
5106 Snow 2 994 69 10000 6.17 90 19:18 27.02.2022
5107 Snow 2 995 75 10000 5.66 80 18:24 27.02.2022
5108 Clouds 2 996 75 2000 5.66 90 17:45 27.02.2022
5109 Snow 2 997 80 10000 4.63 100 16:23 27.02.2022
5110 Clouds 1 997 86 10000 3.6 120 14:29 27.02.2022
5111 Snow -1 997 93 10000 1.54 120 12:36 27.02.2022
5112 Snow 0 997 86 1000 6.17 130 11:46 27.02.2022
5113 Clouds 0 996 74 10000 7.2 170 10:37 27.02.2022
5114 Clouds -1 995 80 10000 2.57 120 09:58 27.02.2022
5115 Clouds -1 995 80 10000 2.57 120 09:23 27.02.2022
5116 Clouds -2 993 80 10000 4.63 150 08:45 27.02.2022
5117 Clouds -2 993 80 10000 4.63 150 08:45 27.02.2022
5118 Snow -2 992 86 1500 3.09 130 06:26 27.02.2022
5119 Snow -2 990 80 10000 4.63 110 03:35 27.02.2022
5120 Snow 0 986 80 10000 5.14 180 23:57 26.02.2022
5121 Clouds 0 985 86 10000 3.09 210 22:43 26.02.2022
5122 Clouds 0 984 86 5000 9.77 210 21:29 26.02.2022
5123 Clouds 0 982 93 800 8.23 180 20:43 26.02.2022
5124 Snow 2 982 80 2000 8.75 200 19:57 26.02.2022
5125 Snow 1 981 86 10000 8.23 200 19:33 26.02.2022
5126 Snow 1 981 86 10000 8.23 200 19:33 26.02.2022
5127 Clouds 2 979 75 10000 5.66 180 18:33 26.02.2022
5128 Clouds 3 979 75 4000 9.26 200 17:37 26.02.2022
5129 Clouds 3 977 75 10000 8.23 210 16:39 26.02.2022
5130 Clouds 3 975 70 10000 9.77 200 15:42 26.02.2022
5131 Clouds 3 975 70 10000 9.77 200 15:19 26.02.2022
5132 Clouds 3 974 75 10000 7.72 210 14:44 26.02.2022
5133 Clouds 3 974 75 10000 7.72 210 14:19 26.02.2022
5134 Clouds 2 971 87 1000 12.86 170 12:53 26.02.2022
5135 Rain 4 971 70 10000 10.8 160 11:53 26.02.2022
5136 Rain 4 971 70 10000 10.8 160 11:26 26.02.2022
5137 Clouds 4 971 70 10000 9.26 170 10:19 26.02.2022
5138 Clouds 3 969 65 10000 10.29 160 08:35 26.02.2022
5139 Clouds 1 970 86 10000 6.69 160 06:40 26.02.2022
5140 Clouds 3 969 75 10000 10.29 180 00:26 26.02.2022
5141 Snow 2 969 80 4000 7.72 200 22:44 25.02.2022
5142 Clouds 4 968 70 10000 10.8 170 21:33 25.02.2022
5143 Clouds 4 968 75 10000 10.29 150 20:57 25.02.2022
5144 Clouds 4 968 75 10000 10.29 150 20:28 25.02.2022
5145 Clouds 3 969 87 10000 5.66 150 18:18 25.02.2022
5146 Rain 4 970 87 10000 8.23 150 17:20 25.02.2022
5147 Rain 4 968 81 7000 17.49 110 16:20 25.02.2022
5148 Mist 3 970 87 5000 19.03 110 15:42 25.02.2022
5149 Mist 3 970 87 5000 19.03 110 15:18 25.02.2022
5150 Snow 2 975 93 6000 15.43 100 14:39 25.02.2022
5151 Snow 1 977 100 3500 14.92 100 13:36 25.02.2022
5152 Snow 1 981 93 2500 14.92 110 12:42 25.02.2022
5153 Snow 1 985 93 2500 15.95 110 11:23 25.02.2022
5154 Snow 2 986 87 1500 14.4 110 10:28 25.02.2022
5155 Rain 3 990 81 10000 14.4 110 09:53 25.02.2022
5156 Clouds 1 993 86 9000 13.89 110 08:46 25.02.2022
5157 Clouds 0 995 86 5000 8.75 90 07:37 25.02.2022
5158 Clouds -1 999 80 10000 7.72 70 05:47 25.02.2022
5159 Clouds -2 1002 76 10000 6.17 80 03:34 25.02.2022
5160 Clear -4 1004 58 10000 5.66 90 23:42 24.02.2022
5161 Clear -4 1004 63 10000 5.14 80 21:56 24.02.2022
5162 Clear -4 1004 63 10000 5.14 80 21:37 24.02.2022
5163 Clear -4 1004 63 10000 5.14 80 21:18 24.02.2022
5164 Clear -3 1003 63 10000 2.57 120 19:38 24.02.2022
5165 Clear -2 1003 63 10000 2.06 150 18:43 24.02.2022
5166 Clear -2 1003 63 10000 2.06 150 18:18 24.02.2022
5167 Clear 0 1002 59 10000 2.06 270 17:33 24.02.2022
5168 Clear 0 1002 59 10000 2.06 270 17:33 24.02.2022
5169 Clear 1 1001 55 10000 1.03 320 16:49 24.02.2022
5170 Clear 1 1001 55 10000 1.03 320 16:23 24.02.2022
5171 Clear -1 999 64 10000 2.57 210 14:54 24.02.2022
5172 Clear -1 999 64 10000 2.57 210 14:35 24.02.2022
5173 Clear -2 998 64 10000 2.57 120 13:39 24.02.2022
5174 Clouds -2 997 69 10000 8.75 30 12:54 24.02.2022
5175 Clouds -2 994 69 10000 8.75 0 10:41 24.02.2022
5176 Clouds -2 994 69 10000 8.75 0 10:41 24.02.2022
5177 Clouds -2 991 69 10000 9.26 20 09:18 24.02.2022
5178 Clouds -2 991 69 10000 7.72 30 08:40 24.02.2022
5179 Clouds -1 986 69 10000 11.83 30 05:58 24.02.2022
5180 Clouds 0 980 80 10000 11.83 10 01:58 24.02.2022
5181 Clouds 0 977 74 10000 10.29 40 23:40 23.02.2022
5182 Clouds 0 975 59 10000 2.57 40 21:43 23.02.2022
5183 Clouds 0 974 64 10000 6.69 20 20:31 23.02.2022
5184 Clouds 0 973 69 10000 9.77 20 19:49 23.02.2022
5185 Clouds 0 973 59 10000 7.2 40 18:42 23.02.2022
5186 Clouds -1 972 69 10000 6.17 0 17:45 23.02.2022
5187 Clear 0 971 55 10000 3.6 60 15:26 23.02.2022
5188 Clouds -2 970 64 10000 3.09 100 13:28 23.02.2022
5189 Clouds -1 970 64 10000 2.57 80 12:26 23.02.2022
5190 Clouds -1 969 64 10000 3.6 360 10:45 23.02.2022
5191 Snow -2 969 74 10000 2.06 100 09:24 23.02.2022
5192 Snow -2 970 74 10000 3.6 330 08:27 23.02.2022
5193 Snow -2 969 86 10000 7.2 340 07:18 23.02.2022
5194 Snow -3 972 93 2000 2.06 180 01:22 23.02.2022
5195 Snow -2 970 74 10000 3.6 150 23:40 22.02.2022
5196 Snow -1 970 69 10000 2.57 140 22:59 22.02.2022
5197 Clouds -1 971 64 10000 3.6 150 21:56 22.02.2022
5198 Clouds -1 971 64 10000 3.6 150 21:37 22.02.2022
5199 Clouds -1 971 64 10000 3.6 150 21:18 22.02.2022
5200 Clouds -1 970 69 10000 7.2 210 20:31 22.02.2022
5201 Clouds -1 969 64 10000 8.23 210 19:53 22.02.2022
5202 Clouds -1 969 64 10000 8.23 210 19:33 22.02.2022
5203 Clouds 0 969 69 10000 10.8 220 18:27 22.02.2022
5204 Snow -1 969 80 700 15.43 220 17:26 22.02.2022
5205 Clouds 0 969 64 10000 14.4 230 16:42 22.02.2022
5206 Clouds 1 967 69 10000 16.46 240 15:59 22.02.2022
5207 Snow 0 967 74 10000 17.49 230 14:52 22.02.2022
5208 Snow 0 963 93 3400 18.01 240 12:52 22.02.2022
5209 Snow 1 958 86 6000 20.58 240 10:54 22.02.2022
5210 Rain 2 951 93 3000 21.61 240 08:56 22.02.2022
5211 Clouds 2 950 93 3000 19.55 240 07:28 22.02.2022
5212 Clouds 2 950 93 8000 9.77 220 06:53 22.02.2022
5213 Clouds 2 947 93 10000 7.2 80 02:48 22.02.2022
5214 Clouds 1 953 100 2500 16.46 110 23:18 21.02.2022
5215 Snow 1 958 100 1500 19.03 100 21:56 21.02.2022
5216 Snow 1 964 100 1500 14.92 110 20:38 21.02.2022
5217 Snow 2 976 93 3200 14.4 110 18:47 21.02.2022
5218 Snow 2 976 93 3200 14.4 110 18:18 21.02.2022
5219 Snow 3 989 87 10000 11.32 150 15:36 21.02.2022
5220 Clouds 3 992 86 10000 7.2 130 14:22 21.02.2022
5221 Clouds 2 994 93 10000 7.72 120 13:30 21.02.2022
5222 Clouds 3 995 87 7000 7.72 110 12:25 21.02.2022
5223 Snow 2 996 75 10000 6.17 100 11:31 21.02.2022
5224 Clouds 2 999 77 10000 8.47 126 10:26 21.02.2022
5225 Clear -2 999 64 10000 4.63 90 05:40 21.02.2022
5226 Clear -3 995 74 10000 2.06 120 00:30 21.02.2022
5227 Clear 0 992 64 10000 1.03 0 22:31 20.02.2022
5228 Clear 1 989 55 10000 5.14 60 21:43 20.02.2022
5229 Clear 1 989 55 10000 5.14 60 21:19 20.02.2022
5230 Clear 1 987 60 10000 2.57 140 20:42 20.02.2022
5231 Clouds 2 985 60 10000 4.63 20 19:48 20.02.2022
5232 Clouds 3 982 56 10000 9.26 30 18:55 20.02.2022
5233 Clouds 3 982 56 10000 9.26 30 18:34 20.02.2022
5234 Clouds 2 981 64 10000 10.8 0 17:55 20.02.2022
5235 Clouds 2 978 60 10000 8.75 40 16:18 20.02.2022
5236 Clouds 2 973 51 10000 6.69 30 14:53 20.02.2022
5237 Clouds 3 971 38 10000 8.23 30 13:58 20.02.2022
5238 Clouds 3 970 48 10000 8.23 60 12:35 20.02.2022
5239 Clouds 1 968 60 10000 7.2 60 10:52 20.02.2022
5240 Clouds 1 968 60 10000 7.2 60 10:20 20.02.2022
5241 Clouds 2 967 51 10000 10.29 80 08:58 20.02.2022
5242 Clouds 1 969 55 10000 12.35 90 02:54 20.02.2022
5243 Snow 0 971 64 9000 12.35 90 00:31 20.02.2022
5244 Snow 0 973 64 10000 12.35 90 23:30 19.02.2022
5245 Snow -1 975 69 10000 12.35 90 22:23 19.02.2022
5246 Clouds -1 975 74 10000 13.38 100 21:45 19.02.2022
5247 Snow -1 975 69 10000 13.38 90 20:23 19.02.2022
5248 Clouds -1 977 74 10000 12.35 90 19:34 19.02.2022
5249 Clouds -1 979 69 10000 11.32 90 18:38 19.02.2022
5250 Snow -1 981 69 10000 10.29 80 17:37 19.02.2022
5251 Clouds -1 983 64 10000 12.35 90 16:44 19.02.2022
5252 Clouds -1 985 64 10000 10.29 70 15:20 19.02.2022
5253 Clouds -2 986 64 10000 11.32 80 14:53 19.02.2022
5254 Clouds -2 987 64 10000 10.29 90 13:50 19.02.2022
5255 Clouds -2 989 64 10000 9.77 80 11:40 19.02.2022
5256 Clouds -2 990 59 10000 7.72 80 10:30 19.02.2022
5257 Clouds -3 992 59 10000 8.75 80 08:54 19.02.2022
5258 Clear -3 992 59 10000 7.72 70 06:45 19.02.2022
5259 Clouds -3 994 59 10000 6.69 80 23:55 18.02.2022
5260 Clear -3 995 63 10000 5.14 70 22:24 18.02.2022
5261 Clear -2 995 59 10000 6.69 90 20:57 18.02.2022
5262 Clear -2 995 59 10000 5.66 80 19:56 18.02.2022
5263 Clouds -2 996 59 10000 5.14 80 18:51 18.02.2022
5264 Clouds -2 996 59 10000 5.14 80 18:25 18.02.2022
5265 Clouds -2 996 59 10000 4.63 80 17:56 18.02.2022
5266 Clouds -2 996 54 10000 6.17 100 15:35 18.02.2022
5267 Clear -3 996 63 10000 3.6 100 13:56 18.02.2022
5268 Clear -3 996 63 10000 3.6 100 13:28 18.02.2022
5269 Clear -4 996 63 10000 4.63 90 12:41 18.02.2022
5270 Clear -4 995 63 10000 5.14 100 11:55 18.02.2022
5271 Clear -4 995 58 10000 3.6 90 10:24 18.02.2022
5272 Clear -5 994 68 10000 3.6 110 06:58 18.02.2022
5273 Clear -4 994 63 10000 5.14 110 05:41 18.02.2022
5274 Clouds -4 995 80 10000 1.54 0 23:43 17.02.2022
5275 Clouds -4 995 86 10000 2.06 100 21:50 17.02.2022
5276 Clouds -4 995 86 10000 2.06 100 21:26 17.02.2022
5277 Clouds -3 995 93 10000 2.06 90 20:40 17.02.2022
5278 Clouds -2 995 80 10000 3.09 110 19:52 17.02.2022
5279 Clouds -2 995 86 10000 2.57 110 18:54 17.02.2022
5280 Clouds -3 995 93 10000 2.06 110 17:55 17.02.2022
5281 Clouds -2 995 86 10000 2.06 130 16:43 17.02.2022
5282 Clouds -1 995 86 10000 1.54 100 15:40 17.02.2022
5283 Clouds -1 995 86 10000 2.57 140 14:28 17.02.2022
5284 Clouds -3 994 100 10000 2.57 150 12:50 17.02.2022
5285 Clouds -3 993 93 10000 1.54 130 11:27 17.02.2022
5286 Clouds -2 993 93 10000 4.12 20 09:18 17.02.2022
5287 Snow -1 990 100 2500 5.66 300 04:41 17.02.2022
5288 Clouds -1 987 93 3500 2.06 140 23:21 16.02.2022
5289 Clouds -1 986 93 5000 1.03 0 21:45 16.02.2022
5290 Snow -1 984 69 10000 1.54 150 19:57 16.02.2022
5291 Snow -1 983 69 10000 3.09 90 18:43 16.02.2022
5292 Clouds 0 982 69 10000 2.57 90 17:53 16.02.2022
5293 Snow -1 981 69 10000 4.63 90 15:55 16.02.2022
5294 Clouds -1 981 69 10000 4.63 90 15:19 16.02.2022
5295 Clouds -1 980 69 10000 5.14 90 13:31 16.02.2022
5296 Clouds -2 980 74 10000 4.63 90 12:20 16.02.2022
5297 Clouds -2 979 74 10000 4.12 90 11:31 16.02.2022
5298 Clouds -2 979 74 10000 4.63 100 10:34 16.02.2022
5299 Clouds -3 978 74 10000 6.69 90 08:24 16.02.2022
5300 Clouds -3 978 74 10000 5.14 70 06:43 16.02.2022
5301 Snow -3 979 93 10000 5.14 100 23:45 15.02.2022
5302 Clouds -3 979 93 10000 4.12 100 22:33 15.02.2022
5303 Clouds -3 979 100 10000 4.12 80 21:48 15.02.2022
5304 Clouds -3 979 100 10000 4.12 80 21:29 15.02.2022
5305 Clouds -2 979 93 5000 3.6 60 20:56 15.02.2022
5306 Snow -2 979 93 700 3.6 90 19:59 15.02.2022
5307 Snow -2 979 93 3000 5.14 200 19:26 15.02.2022
5308 Clouds -2 978 86 10000 3.6 110 18:24 15.02.2022
5309 Clouds -1 979 86 10000 5.14 120 17:52 15.02.2022
5310 Clouds -1 979 86 10000 5.14 120 17:21 15.02.2022
5311 Clouds -1 979 86 10000 3.09 140 15:32 15.02.2022
5312 Clouds 0 978 86 10000 1.54 160 13:28 15.02.2022
5313 Clouds 0 978 93 10000 6.69 230 12:53 15.02.2022
5314 Clouds 0 977 93 500 9.77 230 11:40 15.02.2022
5315 Snow 0 976 100 2500 6.69 220 09:52 15.02.2022
5316 Snow 2 975 80 10000 3.6 100 06:59 15.02.2022
5317 Clouds 2 975 80 10000 7.72 140 05:32 15.02.2022
5318 Snow 2 977 69 10000 14.92 110 23:34 14.02.2022
5319 Clouds 1 979 75 10000 12.86 110 21:55 14.02.2022
5320 Clouds 1 981 75 10000 10.29 90 20:50 14.02.2022
5321 Clouds 1 983 75 10000 13.89 100 19:45 14.02.2022
5322 Clouds 1 983 75 10000 13.89 100 19:45 14.02.2022
5323 Clouds 1 983 75 10000 13.89 100 19:26 14.02.2022
5324 Clouds 2 984 75 10000 13.89 120 18:23 14.02.2022
5325 Clouds 2 985 80 10000 14.4 110 17:27 14.02.2022
5326 Clouds 2 987 80 1900 10.29 100 16:26 14.02.2022
5327 Clouds 1 990 93 1300 10.8 110 14:43 14.02.2022
5328 Snow -1 992 93 1000 11.83 100 13:34 14.02.2022
5329 Clouds 0 993 86 800 12.35 120 12:56 14.02.2022
5330 Snow -1 994 93 700 11.83 110 11:55 14.02.2022
5331 Clouds -1 994 93 700 11.83 110 11:18 14.02.2022
5332 Snow 0 997 93 1700 9.26 120 09:19 14.02.2022
5333 Clouds -1 999 93 800 7.72 120 07:33 14.02.2022
5334 Clouds -1 999 93 800 7.72 120 07:33 14.02.2022
5335 Clouds 0 999 93 2500 5.66 120 06:54 14.02.2022
5336 Clouds -2 1004 93 10000 4.12 100 22:44 13.02.2022
5337 Clouds -2 1004 93 10000 4.12 100 22:26 13.02.2022
5338 Clouds -2 1004 100 5000 2.57 100 21:48 13.02.2022
5339 Clouds -2 1004 93 900 5.66 120 20:42 13.02.2022
5340 Clouds -2 1004 93 700 6.69 120 19:51 13.02.2022
5341 Clouds -2 1004 93 2000 5.14 130 18:57 13.02.2022
5342 Clouds -2 1004 93 2000 5.14 130 18:38 13.02.2022
5343 Clouds -1 1004 80 1000 5.14 110 16:40 13.02.2022
5344 Clouds -2 1004 86 2000 4.12 90 15:50 13.02.2022
5345 Clouds -3 1004 93 500 4.63 90 14:38 13.02.2022
5346 Clouds -2 1004 69 8000 3.09 100 13:26 13.02.2022
5347 Clouds -3 1004 68 10000 4.12 80 12:40 13.02.2022
5348 Clouds -3 1004 63 10000 3.6 80 10:40 13.02.2022
5349 Clouds -3 1004 63 10000 2.06 80 09:49 13.02.2022
5350 Clouds -3 1003 54 10000 3.09 70 08:33 13.02.2022
5351 Clear -6 1002 53 10000 4.12 60 01:24 13.02.2022
5352 Clear -10 1002 79 10000 1.54 350 00:21 13.02.2022
5353 Clear -6 1001 58 10000 3.09 100 22:34 12.02.2022
5354 Clear -6 1000 58 10000 3.09 100 21:59 12.02.2022
5355 Clear -6 1000 63 10000 4.12 90 20:55 12.02.2022
5356 Clouds -9 1001 71 10000 2.85 54 19:56 12.02.2022
5357 Clear -4 999 54 10000 3.6 50 18:54 12.02.2022
5358 Clear -4 999 54 10000 3.6 50 18:36 12.02.2022
5359 Clear -3 999 59 10000 2.57 20 17:39 12.02.2022
5360 Clear -3 999 63 10000 1.03 210 16:46 12.02.2022
5361 Clear -3 998 54 10000 1.54 0 15:53 12.02.2022
5362 Clear -3 998 54 10000 1.54 0 15:21 12.02.2022
5363 Clear -2 999 54 10000 0.51 0 14:29 12.02.2022
5364 Clear -6 998 73 10000 2.57 140 11:33 12.02.2022
5365 Clear -8 998 79 10000 1.03 0 10:33 12.02.2022
5366 Clear -8 998 79 10000 1.03 170 09:38 12.02.2022
5367 Clear -7 998 79 10000 1.03 0 08:47 12.02.2022
5368 Clear -7 998 86 10000 2.06 120 07:45 12.02.2022
5369 Clear -5 998 80 10000 0.51 0 05:31 12.02.2022
5370 Clear -1 1000 59 10000 3.6 80 02:19 12.02.2022
5371 Clear -2 1001 67 10000 1.34 80 23:56 11.02.2022
5372 Clear -2 1002 64 10000 3.09 40 22:23 11.02.2022
5373 Clear -1 1002 55 10000 4.63 70 21:37 11.02.2022
5374 Clear -1 1003 55 10000 5.14 70 20:29 11.02.2022
5375 Clear -1 1003 59 10000 5.14 70 19:29 11.02.2022
5376 Clear 0 1004 51 10000 5.14 70 18:47 11.02.2022
5377 Clouds 0 1005 55 10000 4.63 60 17:27 11.02.2022
5378 Clouds 0 1006 59 10000 3.6 80 16:56 11.02.2022
5379 Clouds 0 1006 59 10000 3.6 90 15:26 11.02.2022
5380 Clouds -1 1007 64 10000 5.14 60 14:38 11.02.2022
5381 Clouds -1 1007 64 10000 5.14 60 14:20 11.02.2022
5382 Clouds -1 1008 69 10000 4.63 60 13:47 11.02.2022
5383 Clouds -1 1008 69 10000 4.63 60 13:28 11.02.2022
5384 Clouds -1 1009 69 10000 4.63 80 11:26 11.02.2022
5385 Clouds -2 1009 74 10000 3.09 90 09:38 11.02.2022
5386 Clouds -2 1009 69 10000 3.09 100 08:36 11.02.2022
5387 Clouds -2 1010 69 10000 3.09 110 07:47 11.02.2022
5388 Clouds -2 1010 69 10000 3.6 100 06:30 11.02.2022
5389 Clouds -3 1011 80 10000 3.6 170 02:24 11.02.2022
5390 Snow -1 1012 86 10000 4.63 220 00:44 11.02.2022
5391 Snow -1 1012 86 5000 8.23 250 22:39 10.02.2022
5392 Snow -1 1012 86 10000 5.14 250 21:43 10.02.2022
5393 Clouds -2 1013 93 10000 7.72 280 20:52 10.02.2022
5394 Clouds -2 1013 93 10000 7.72 280 20:24 10.02.2022
5395 Clouds -2 1012 93 10000 4.12 190 19:24 10.02.2022
5396 Snow -1 1012 86 2600 5.66 230 18:33 10.02.2022
5397 Clouds 0 1012 69 10000 7.72 270 17:25 10.02.2022
5398 Clouds 0 1013 64 10000 7.2 250 16:47 10.02.2022
5399 Clouds -2 1013 86 9000 6.17 270 15:45 10.02.2022
5400 Clouds -1 1013 86 10000 7.72 240 15:25 10.02.2022
5401 Clouds -2 1013 93 500 7.2 250 14:44 10.02.2022
5402 Clouds -2 1013 93 500 7.2 250 14:22 10.02.2022
5403 Clouds -3 1013 93 800 6.17 200 13:20 10.02.2022
5404 Clouds -5 1013 93 10000 3.09 110 11:58 10.02.2022
5405 Clouds -5 1013 93 10000 3.09 110 11:32 10.02.2022
5406 Clouds -5 1013 86 10000 3.6 100 10:32 10.02.2022
5407 Clouds -6 1013 86 2500 2.06 80 09:49 10.02.2022
5408 Clouds -5 1013 80 800 2.06 130 08:53 10.02.2022
5409 Clear -9 1013 67 10000 2.57 110 06:42 10.02.2022
5410 Clear -9 1013 72 10000 2.06 120 03:39 10.02.2022
5411 Clear -7 1011 79 10000 1.03 0 01:19 10.02.2022
5412 Clear -6 1010 73 10000 0.51 0 00:42 10.02.2022
5413 Clear -6 1010 73 10000 0.51 0 00:23 10.02.2022
5414 Clear -4 1008 63 10000 5.66 20 22:58 09.02.2022
5415 Clear -4 1008 63 10000 5.66 20 22:33 09.02.2022
5416 Clear -4 1007 68 10000 6.69 10 21:49 09.02.2022
5417 Clear -4 1007 68 10000 6.69 10 21:28 09.02.2022
5418 Clouds -3 1005 68 10000 6.69 20 20:45 09.02.2022
5419 Clouds -3 1005 68 10000 6.69 20 20:23 09.02.2022
5420 Clouds -2 1003 64 10000 8.75 10 19:43 09.02.2022
5421 Clear -2 1001 69 10000 9.77 10 18:55 09.02.2022
5422 Clear -1 1000 64 10000 8.75 30 17:24 09.02.2022
5423 Clouds -1 998 64 10000 8.23 10 16:26 09.02.2022
5424 Clear 0 997 59 10000 7.72 10 15:32 09.02.2022
5425 Clouds 0 993 47 10000 3.09 0 13:56 09.02.2022
5426 Clouds 0 992 51 10000 4.63 80 12:25 09.02.2022
5427 Clouds -1 989 64 10000 4.12 30 10:37 09.02.2022
5428 Clear -1 987 69 10000 6.69 20 09:57 09.02.2022
5429 Clear -1 987 69 10000 6.69 20 09:23 09.02.2022
5430 Clear -1 985 59 10000 4.12 30 08:51 09.02.2022
5431 Clouds -2 984 80 10000 6.95 35 07:28 09.02.2022
5432 Clear -2 982 59 10000 6.69 80 05:29 09.02.2022
5433 Clear -1 980 64 10000 7.72 80 03:49 09.02.2022
5434 Snow -1 979 80 10000 7.72 80 00:21 09.02.2022
5435 Snow -2 978 86 10000 6.69 90 23:29 08.02.2022
5436 Clouds -1 977 86 10000 4.63 80 22:43 08.02.2022
5437 Clouds -1 977 86 10000 4.63 80 22:20 08.02.2022
5438 Clouds -1 976 86 10000 5.14 80 21:38 08.02.2022
5439 Clouds -1 976 86 10000 5.14 80 21:19 08.02.2022
5440 Clouds 0 975 80 10000 5.14 90 20:41 08.02.2022
5441 Clouds 0 974 86 10000 4.63 90 19:41 08.02.2022
5442 Clouds -1 973 93 10000 4.63 90 18:24 08.02.2022
5443 Clouds 0 973 86 10000 3.6 100 17:33 08.02.2022
5444 Clouds 1 973 86 2500 3.09 140 15:52 08.02.2022
5445 Clouds 0 972 86 6000 3.09 140 15:28 08.02.2022
5446 Clouds 0 971 86 9000 8.75 200 13:54 08.02.2022
5447 Snow 1 971 80 6000 7.72 220 12:39 08.02.2022
5448 Snow 0 969 86 8000 10.29 210 10:55 08.02.2022
5449 Snow -1 969 100 1200 9.26 200 09:51 08.02.2022
5450 Snow -1 969 86 800 13.38 200 08:54 08.02.2022
5451 Snow -2 969 93 2000 11.83 200 07:27 08.02.2022
5452 Snow -2 969 93 1100 13.89 210 04:40 08.02.2022
5453 Snow -2 969 93 1100 13.89 210 04:22 08.02.2022
5454 Snow -2 969 93 1200 13.89 190 03:36 08.02.2022
5455 Snow -2 969 86 6000 15.95 200 03:18 08.02.2022
5456 Snow -1 968 80 10000 14.92 200 02:59 08.02.2022
5457 Snow -1 968 80 10000 14.92 200 02:37 08.02.2022
5458 Snow -1 968 80 10000 14.92 200 02:18 08.02.2022
5459 Clouds -1 968 80 9000 16.46 220 01:45 08.02.2022
5460 Clouds -1 968 80 9000 16.46 220 01:25 08.02.2022
5461 Snow 0 967 80 8000 16.98 210 00:55 08.02.2022
5462 Snow 0 967 80 8000 16.98 210 00:36 08.02.2022
5463 Rain 1 965 75 8000 15.95 230 23:45 07.02.2022
5464 Rain 1 965 75 8000 15.95 230 23:18 07.02.2022
5465 Snow 2 961 75 7000 15.95 220 22:59 07.02.2022
5466 Snow 2 961 75 7000 15.95 220 22:19 07.02.2022
5467 Clouds 2 960 87 8000 15.95 220 21:51 07.02.2022
5468 Snow 2 960 87 8000 15.95 220 21:28 07.02.2022
5469 Snow -1 959 93 500 11.83 140 20:52 07.02.2022
5470 Clouds -1 959 93 500 11.83 140 20:34 07.02.2022
5471 Snow -1 961 86 800 11.32 150 19:47 07.02.2022
5472 Snow -1 961 86 800 11.32 150 19:47 07.02.2022
5473 Clouds -1 965 86 5000 8.23 150 18:58 07.02.2022
5474 Snow -1 967 80 700 10.8 180 17:38 07.02.2022
5475 Snow -1 967 80 1000 11.83 170 16:52 07.02.2022
5476 Clouds -1 969 74 10000 11.32 210 15:48 07.02.2022
5477 Clouds 0 970 69 10000 13.38 210 14:30 07.02.2022
5478 Clouds -1 970 86 3000 14.92 220 13:27 07.02.2022
5479 Snow 1 969 80 10000 12.35 200 12:37 07.02.2022
5480 Snow 1 968 86 2500 9.26 200 11:52 07.02.2022
5481 Snow 1 968 86 2500 9.26 200 11:24 07.02.2022
5482 Clouds 1 968 80 1500 10.8 210 10:43 07.02.2022
5483 Snow 1 968 80 1500 10.8 210 10:24 07.02.2022
5484 Clouds 1 967 86 2500 14.4 190 09:52 07.02.2022
5485 Rain 2 966 80 9000 13.89 200 09:18 07.02.2022
5486 Snow 2 966 87 1500 18.01 130 07:59 07.02.2022
5487 Snow 1 967 93 800 24.69 120 06:35 07.02.2022
5488 Snow 1 970 93 400 18.52 120 05:26 07.02.2022
5489 Snow -1 991 59 10000 8.75 90 02:56 07.02.2022
5490 Snow -2 997 59 10000 9.26 80 00:33 07.02.2022
5491 Clouds -2 1001 59 10000 9.26 90 23:40 06.02.2022
5492 Clouds -2 1003 64 10000 7.2 90 22:46 06.02.2022
5493 Clear -3 1004 63 10000 5.14 80 21:51 06.02.2022
5494 Clear -3 1004 63 10000 5.14 80 21:21 06.02.2022
5495 Clear -3 1005 63 10000 4.63 80 20:52 06.02.2022
5496 Clear -3 1005 63 10000 4.63 80 20:24 06.02.2022
5497 Clouds -3 1005 68 10000 3.6 100 19:30 06.02.2022
5498 Clouds -3 1006 68 10000 1.54 110 18:35 06.02.2022
5499 Clouds -2 1006 69 10000 2.06 130 17:54 06.02.2022
5500 Clear -1 1005 69 10000 1.54 0 16:52 06.02.2022
5501 Clear -1 1005 69 10000 1.54 0 16:32 06.02.2022
5502 Clear -1 1005 69 10000 2.06 170 15:47 06.02.2022
5503 Clear -1 1005 69 10000 2.06 170 15:26 06.02.2022
5504 Clouds 0 1003 64 10000 5.14 20 14:27 06.02.2022
5505 Clouds 0 1002 64 10000 5.66 20 13:24 06.02.2022
5506 Clouds -1 1001 74 10000 6.69 10 12:45 06.02.2022
5507 Clouds -1 1000 74 10000 6.17 10 11:19 06.02.2022
5508 Clouds 0 996 64 10000 6.69 30 09:56 06.02.2022
5509 Clouds 0 994 64 10000 4.63 20 08:47 06.02.2022
5510 Clouds -1 992 74 10000 6.69 360 07:36 06.02.2022
5511 Clouds 0 989 69 10000 3.6 30 05:29 06.02.2022
5512 Clouds -2 984 80 10000 3.09 340 02:26 06.02.2022
5513 Snow -4 984 80 10000 1.03 0 01:32 06.02.2022
5514 Snow -6 983 86 10000 0 0 00:24 06.02.2022
5515 Clouds -5 981 79 10000 2.63 46 22:19 05.02.2022
5516 Clouds -4 980 80 10000 4.12 70 20:59 05.02.2022
5517 Clouds -4 980 80 10000 4.12 70 20:24 05.02.2022
5518 Clouds -3 979 80 10000 3.09 80 19:45 05.02.2022
5519 Clouds -2 979 80 10000 4.63 100 18:52 05.02.2022
5520 Clouds -2 979 86 10000 4.63 80 17:38 05.02.2022
5521 Snow -2 978 80 10000 4.12 80 16:48 05.02.2022
5522 Clouds -2 978 86 10000 2.57 80 15:33 05.02.2022
5523 Clouds -2 977 86 800 4.12 180 14:53 05.02.2022
5524 Clouds -4 973 86 10000 13.38 80 12:47 05.02.2022
5525 Clouds -4 973 86 5000 14.4 70 11:49 05.02.2022
5526 Clouds -4 973 86 1800 11.83 80 10:47 05.02.2022
5527 Clouds -4 975 93 1500 9.77 70 09:53 05.02.2022
5528 Clouds -4 975 93 1500 9.77 70 09:29 05.02.2022
5529 Clouds -3 977 80 8000 9.77 80 07:38 05.02.2022
5530 Snow -2 979 64 10000 8.75 80 06:56 05.02.2022
5531 Snow -2 981 50 10000 8.75 90 04:28 05.02.2022
5532 Clouds -3 986 59 10000 9.77 80 01:19 05.02.2022
5533 Clouds -3 989 59 10000 8.75 70 00:51 05.02.2022
5534 Clouds -4 992 68 10000 4.63 90 23:38 04.02.2022
5535 Clouds -4 992 68 10000 4.63 90 23:20 04.02.2022
5536 Clouds -5 995 80 10000 3.09 80 21:54 04.02.2022
5537 Clouds -5 995 80 10000 3.09 80 21:36 04.02.2022
5538 Clouds -5 995 80 10000 3.09 80 21:18 04.02.2022
5539 Clouds -4 998 80 10000 2.06 110 19:36 04.02.2022
5540 Clouds -2 1000 69 10000 2.06 60 17:28 04.02.2022
5541 Clouds -1 1002 69 10000 4.12 350 15:39 04.02.2022
5542 Clouds -1 1002 69 10000 5.66 340 14:52 04.02.2022
5543 Clouds -2 1002 69 10000 5.66 330 13:24 04.02.2022
5544 Clouds -2 1001 69 10000 6.69 340 12:42 04.02.2022
5545 Clouds -1 1002 64 10000 6.69 330 11:41 04.02.2022
5546 Clouds -1 1002 59 10000 6.69 340 10:34 04.02.2022
5547 Clouds -3 1001 74 10000 8.75 340 08:34 04.02.2022
5548 Clouds -3 999 68 10000 10.29 340 05:23 04.02.2022
5549 Clouds -3 998 68 10000 9.26 350 02:40 04.02.2022
5550 Clouds -4 998 80 10000 5.14 340 01:22 04.02.2022
5551 Clouds -5 996 74 10000 7.72 350 23:29 03.02.2022
5552 Clouds -4 996 74 10000 8.23 340 22:31 03.02.2022
5553 Clouds -5 995 80 10000 9.26 350 21:48 03.02.2022
5554 Clouds -4 995 74 10000 7.2 350 20:36 03.02.2022
5555 Clouds -4 995 74 10000 7.2 350 20:18 03.02.2022
5556 Clouds -4 994 68 10000 7.72 350 19:30 03.02.2022
5557 Clouds -4 993 74 10000 7.2 340 18:34 03.02.2022
5558 Clouds -3 993 74 10000 5.66 340 17:32 03.02.2022
5559 Clouds -4 993 80 10000 6.17 340 16:24 03.02.2022
5560 Clouds -4 993 74 10000 3.6 350 14:37 03.02.2022
5561 Clear -4 992 74 10000 5.14 360 12:51 03.02.2022
5562 Clear -9 992 92 10000 0.51 0 10:45 03.02.2022
5563 Clear -9 992 92 10000 0.51 0 08:35 03.02.2022
5564 Clear -8 993 86 10000 1.03 0 04:27 03.02.2022
5565 Clear -5 995 80 10000 4.12 100 00:31 03.02.2022
5566 Clear -5 996 80 10000 3.09 90 23:36 02.02.2022
5567 Clouds -4 997 74 10000 2.06 80 21:54 02.02.2022
5568 Clouds -4 997 74 10000 2.06 80 21:30 02.02.2022
5569 Clouds -3 997 80 10000 2.06 100 20:38 02.02.2022
5570 Clouds -2 997 74 10000 2.57 110 19:55 02.02.2022
5571 Clouds -2 997 74 10000 2.57 110 19:26 02.02.2022
5572 Clouds -1 998 74 10000 2.06 130 18:39 02.02.2022
5573 Clouds 0 998 64 10000 2.06 200 17:44 02.02.2022
5574 Clouds 0 998 64 10000 2.06 200 17:19 02.02.2022
5575 Snow -1 998 74 10000 2.57 160 16:31 02.02.2022
5576 Clouds -3 1000 93 10000 3.09 150 12:55 02.02.2022
5577 Clouds -3 1000 93 10000 3.09 150 12:20 02.02.2022
5578 Clouds -1 1000 86 10000 4.12 260 11:32 02.02.2022
5579 Clouds -1 1000 93 10000 4.12 190 09:47 02.02.2022
5580 Snow -1 1000 93 1000 5.66 220 07:33 02.02.2022
5581 Clouds 0 1003 86 10000 5.14 200 22:51 01.02.2022
5582 Clouds -1 1003 93 10000 2.06 170 21:40 01.02.2022
5583 Clouds -2 1003 93 10000 3.6 80 19:58 01.02.2022
5584 Snow -2 1004 86 1600 5.66 90 17:43 01.02.2022
5585 Clouds -1 1005 74 10000 4.63 90 16:39 01.02.2022
5586 Clouds -1 1005 74 10000 4.63 90 16:39 01.02.2022
5587 Clouds -1 1006 74 10000 3.6 90 14:24 01.02.2022
5588 Clouds -2 1007 80 10000 1.54 90 12:43 01.02.2022
5589 Clouds -2 1007 74 10000 1.03 330 11:20 01.02.2022
5590 Clouds -1 1000 74 10000 5.66 330 04:53 01.02.2022
5591 Clouds 3 990 87 10000 7.72 240 23:41 31.01.2022
5592 Clouds 3 990 87 9000 9.26 230 22:57 31.01.2022
5593 Clouds 3 990 87 9000 9.26 240 21:40 31.01.2022
5594 Rain 3 990 87 9000 9.26 240 21:19 31.01.2022
5595 Clouds 3 990 87 10000 8.75 220 20:29 31.01.2022
5596 Clouds 3 990 81 10000 6.69 210 19:29 31.01.2022
5597 Clouds 3 991 87 10000 6.69 200 18:26 31.01.2022
5598 Clouds 2 991 80 10000 3.09 80 17:32 31.01.2022
5599 Drizzle 1 992 80 10000 6.17 100 16:29 31.01.2022
5600 Clouds -3 996 93 1700 9.77 100 14:54 31.01.2022
5601 Snow -3 996 93 1200 13.38 90 13:52 31.01.2022
5602 Clouds -3 1004 86 10000 5.14 80 12:39 31.01.2022
5603 Clouds -4 1006 93 6000 4.12 110 11:55 31.01.2022
5604 Snow -3 1008 86 9000 2.57 110 10:50 31.01.2022
5605 Snow -3 1008 86 9000 2.57 110 10:50 31.01.2022
5606 Snow -3 1008 86 9000 2.57 110 10:25 31.01.2022
5607 Snow -3 1009 86 4000 2.57 120 09:23 31.01.2022
5608 Snow -2 1010 69 10000 1.54 280 08:47 31.01.2022
5609 Snow -2 1010 69 10000 1.54 280 08:20 31.01.2022
5610 Clouds -2 1011 69 10000 6.17 310 06:18 31.01.2022
5611 Clouds -4 1010 86 10000 12.35 280 00:55 31.01.2022
5612 Clouds -3 1009 80 10000 11.83 270 22:55 30.01.2022
5613 Clouds -4 1009 86 800 13.38 280 22:25 30.01.2022
5614 Clouds -3 1009 80 4500 13.89 280 21:40 30.01.2022
5615 Snow -3 1008 80 10000 11.32 270 21:18 30.01.2022
5616 Snow -3 1008 80 2500 11.83 270 20:46 30.01.2022
5617 Clouds -4 1008 86 3000 13.89 280 20:27 30.01.2022
5618 Snow -4 1008 86 800 12.86 270 19:45 30.01.2022
5619 Clouds -3 1006 74 9000 12.35 280 18:43 30.01.2022
5620 Clouds -3 1006 74 9000 12.35 280 18:20 30.01.2022
5621 Clouds -2 1006 64 10000 14.4 280 17:22 30.01.2022
5622 Clouds -2 1005 69 9000 14.92 280 16:40 30.01.2022
5623 Clouds -3 1005 80 10000 15.95 270 16:22 30.01.2022
5624 Clouds -2 1005 80 9000 15.43 270 15:50 30.01.2022
5625 Clouds -2 1005 80 8000 15.95 260 15:31 30.01.2022
5626 Clouds -2 1004 86 8000 14.92 260 14:46 30.01.2022
5627 Snow -1 1005 80 400 13.89 260 12:47 30.01.2022
5628 Clouds 0 1005 93 9000 13.89 250 11:59 30.01.2022
5629 Snow 1 1005 86 2000 10.29 220 10:36 30.01.2022
5630 Clouds 2 1005 80 8000 8.23 190 09:56 30.01.2022
5631 Clouds 1 1007 86 10000 4.63 180 08:56 30.01.2022
5632 Clouds 1 1010 86 10000 5.14 170 07:55 30.01.2022
5633 Clouds 0 1018 86 10000 3.09 160 02:29 30.01.2022
5634 Clouds 0 1020 86 10000 2.57 210 00:41 30.01.2022
5635 Clouds 0 1020 86 10000 6.17 200 23:20 29.01.2022
5636 Clouds 0 1021 86 10000 4.63 170 21:59 29.01.2022
5637 Clouds 0 1021 86 10000 4.63 170 21:26 29.01.2022
5638 Clouds 0 1021 93 10000 4.12 190 20:36 29.01.2022
5639 Clouds 0 1021 93 10000 4.63 190 19:36 29.01.2022
5640 Clouds 0 1021 86 10000 6.17 180 18:58 29.01.2022
5641 Clouds 0 1021 86 10000 6.17 180 18:30 29.01.2022
5642 Clouds 1 1021 80 10000 5.66 180 17:41 29.01.2022
5643 Snow 0 1022 86 8000 6.17 190 16:38 29.01.2022
5644 Snow -3 1022 63 10000 3.6 100 14:24 29.01.2022
5645 Clear -4 1022 58 10000 3.09 120 13:45 29.01.2022
5646 Clear -4 1022 58 10000 3.09 120 13:24 29.01.2022
5647 Clear -5 1021 63 10000 1.54 130 12:36 29.01.2022
5648 Clear -4 1020 54 10000 1.03 350 11:38 29.01.2022
5649 Clear -4 1017 54 10000 2.06 330 09:49 29.01.2022
5650 Clouds -4 1012 63 10000 7.72 340 06:57 29.01.2022
5651 Clouds -5 1001 58 10000 10.29 360 00:50 29.01.2022
5652 Clouds -5 1001 58 10000 10.29 360 00:31 29.01.2022
5653 Clouds -3 998 74 10000 7.2 340 22:52 28.01.2022
5654 Clouds -3 998 74 10000 7.2 340 22:27 28.01.2022
5655 Clouds -2 997 74 10000 7.2 320 21:52 28.01.2022
5656 Clouds -2 996 74 10000 10.29 300 20:31 28.01.2022
5657 Clouds -1 996 69 10000 10.29 280 19:44 28.01.2022
5658 Clouds -1 995 74 10000 10.8 280 18:48 28.01.2022
5659 Clouds -1 995 69 10000 10.29 280 17:43 28.01.2022
5660 Clouds -1 995 74 10000 12.35 290 15:28 28.01.2022
5661 Drizzle -1 993 74 9000 13.38 280 14:18 28.01.2022
5662 Clouds 1 991 64 10000 10.8 260 12:33 28.01.2022
5663 Clouds 1 990 86 10000 10.8 230 11:38 28.01.2022
5664 Clouds 1 990 60 10000 10.8 240 10:21 28.01.2022
5665 Clouds 2 990 60 10000 10.29 250 09:44 28.01.2022
5666 Drizzle 2 990 87 9000 8.75 260 07:39 28.01.2022
5667 Clouds 5 990 81 9000 11.32 210 05:24 28.01.2022
5668 Clouds 4 995 90 10000 9.77 190 03:47 28.01.2022
5669 Clouds 4 996 87 10000 9.26 190 02:23 28.01.2022
5670 Clouds 4 998 87 10000 8.75 180 01:34 28.01.2022
5671 Clouds 3 1002 87 10000 7.2 180 23:33 27.01.2022
5672 Clouds 3 1006 87 10000 4.63 150 21:54 27.01.2022
5673 Clouds 3 1006 87 10000 4.63 150 21:32 27.01.2022
5674 Clouds 2 1008 87 10000 4.63 150 20:53 27.01.2022
5675 Rain 2 1009 87 10000 3.09 130 19:30 27.01.2022
5676 Snow 1 1012 86 10000 4.12 160 17:56 27.01.2022
5677 Clouds 2 1014 80 10000 6.17 210 15:31 27.01.2022
5678 Snow 2 1014 75 10000 7.2 240 13:39 27.01.2022
5679 Clouds 2 1014 75 10000 6.17 200 12:46 27.01.2022
5680 Clouds 1 1013 80 10000 5.14 200 10:57 27.01.2022
5681 Clouds 1 1013 86 10000 4.63 180 09:20 27.01.2022
5682 Clouds -1 1013 93 10000 3.09 140 08:38 27.01.2022
5683 Snow -1 1012 80 10000 4.63 90 07:22 27.01.2022
5684 Clouds -2 1011 93 10000 2.06 110 02:57 27.01.2022
5685 Clouds -1 1009 93 10000 2.06 160 23:45 26.01.2022
5686 Clouds -2 1009 93 10000 2.57 160 22:26 26.01.2022
5687 Clouds -1 1009 93 10000 3.09 160 21:37 26.01.2022
5688 Clouds -1 1008 93 10000 2.57 140 20:41 26.01.2022
5689 Clouds -1 1008 93 10000 2.57 140 20:23 26.01.2022
5690 Clouds -1 1008 93 10000 1.03 0 19:27 26.01.2022
5691 Clouds -1 1007 93 7000 2.06 150 18:45 26.01.2022
5692 Snow -1 1007 93 6000 1.54 110 17:51 26.01.2022
5693 Snow -1 1007 93 6000 1.54 110 17:24 26.01.2022
5694 Snow -1 1007 86 6000 1.54 120 16:35 26.01.2022
5695 Snow -1 1006 86 6000 1.03 100 15:49 26.01.2022
5696 Snow -1 1006 88 5654 0.23 345 14:21 26.01.2022
5697 Snow -1 1005 86 6000 3.09 90 11:54 26.01.2022
5698 Snow -1 1006 80 10000 3.6 80 10:43 26.01.2022
5699 Snow 0 1006 74 10000 2.57 80 09:48 26.01.2022
5700 Snow 0 1007 69 10000 3.6 100 08:27 26.01.2022
5701 Clear 0 1010 74 10000 2.06 100 05:42 26.01.2022
5702 Clouds 1 1012 69 10000 8.75 310 23:59 25.01.2022
5703 Clouds 1 1012 69 10000 8.75 310 23:20 25.01.2022
5704 Clouds 1 1012 75 10000 10.8 300 22:26 25.01.2022
5705 Clouds 1 1011 75 10000 12.35 290 21:59 25.01.2022
5706 Clouds 1 1010 69 10000 14.92 290 20:59 25.01.2022
5707 Clouds 1 1010 69 10000 14.92 290 20:40 25.01.2022
5708 Clouds 2 1009 77 10000 15.95 280 19:53 25.01.2022
5709 Clouds 1 1007 75 10000 16.98 280 18:43 25.01.2022
5710 Clouds 1 1004 75 9000 16.46 280 17:45 25.01.2022
5711 Clouds 1 1001 80 7000 17.49 270 16:47 25.01.2022
5712 Clouds 1 1001 80 7000 17.49 270 16:21 25.01.2022
5713 Clouds 2 997 87 2500 18.52 260 15:38 25.01.2022
5714 Clouds 3 993 87 2500 19.03 250 14:58 25.01.2022
5715 Rain 3 991 87 2500 16.98 240 13:46 25.01.2022
5716 Rain 3 987 87 4600 14.92 220 10:58 25.01.2022
5717 Clouds 3 988 87 9000 15.95 210 09:20 25.01.2022
5718 Mist 5 989 81 10000 16.46 200 07:30 25.01.2022
5719 Rain 5 990 81 9000 12.35 180 06:51 25.01.2022
5720 Clouds 6 992 75 8000 12.86 180 05:22 25.01.2022
5721 Rain 4 1006 75 8000 8.23 120 23:37 24.01.2022
5722 Rain 4 1006 75 8000 8.23 120 23:19 24.01.2022
5723 Rain 3 1008 81 10000 7.2 130 22:59 24.01.2022
5724 Rain 3 1008 81 10000 7.2 130 22:41 24.01.2022
5725 Rain 3 1010 81 10000 6.69 130 21:55 24.01.2022
5726 Rain 3 1010 81 10000 6.69 130 21:32 24.01.2022
5727 Rain 3 1011 81 10000 5.14 110 20:33 24.01.2022
5728 Clouds 2 1012 80 10000 6.69 120 19:57 24.01.2022
5729 Clouds 2 1012 80 10000 6.69 120 19:35 24.01.2022
5730 Clear 2 1013 80 10000 5.14 110 18:35 24.01.2022
5731 Clouds 2 1014 80 10000 5.66 130 17:24 24.01.2022
5732 Clouds 2 1014 75 10000 4.12 130 16:55 24.01.2022
5733 Clouds 2 1014 75 10000 4.12 130 16:29 24.01.2022
5734 Clouds 2 1015 64 10000 3.6 150 14:49 24.01.2022
5735 Clouds 1 1015 69 10000 3.09 160 13:38 24.01.2022
5736 Clear 1 1015 69 10000 3.09 180 12:32 24.01.2022
5737 Clouds 1 1015 69 10000 5.14 200 11:20 24.01.2022
5738 Clouds 2 1014 64 10000 7.2 280 09:49 24.01.2022
5739 Clouds 2 1014 64 10000 7.2 280 09:20 24.01.2022
5740 Clouds 2 1012 64 10000 8.23 260 07:20 24.01.2022
5741 Snow -1 1007 74 10000 4.12 280 01:32 24.01.2022
5742 Clouds -1 1005 69 10000 4.63 300 00:46 24.01.2022
5743 Snow -1 1005 69 10000 4.63 300 00:27 24.01.2022
5744 Clouds -1 1002 64 10000 7.2 290 22:46 23.01.2022
5745 Clouds -1 1000 74 10000 9.77 290 21:51 23.01.2022
5746 Clouds -1 1000 74 10000 9.77 290 21:27 23.01.2022
5747 Clouds -1 999 80 10000 10.8 280 20:54 23.01.2022
5748 Clouds -1 997 86 800 10.8 270 19:55 23.01.2022
5749 Snow 0 996 80 1200 13.38 260 18:52 23.01.2022
5750 Clouds -1 994 86 8000 14.4 240 17:54 23.01.2022
5751 Clouds -1 993 74 6000 13.89 250 16:52 23.01.2022
5752 Snow -1 992 80 9000 13.89 250 15:45 23.01.2022
5753 Clouds -2 991 86 700 13.38 240 14:33 23.01.2022
5754 Snow 0 990 55 10000 14.92 250 13:43 23.01.2022
5755 Snow -1 989 80 10000 14.92 250 12:40 23.01.2022
5756 Clouds -1 989 80 10000 14.92 250 12:18 23.01.2022
5757 Clouds -1 988 69 10000 15.95 240 11:25 23.01.2022
5758 Clouds 0 987 59 10000 14.4 240 10:57 23.01.2022
5759 Snow 0 987 59 10000 14.4 240 10:23 23.01.2022
5760 Clouds -1 986 80 10000 12.35 250 09:25 23.01.2022
5761 Snow 1 985 69 5000 8.23 240 05:59 23.01.2022
5762 Snow 0 986 93 4500 7.2 230 03:20 23.01.2022
5763 Snow 1 987 86 10000 6.69 220 01:36 23.01.2022
5764 Snow 1 987 86 10000 8.23 210 00:46 23.01.2022
5765 Snow 1 988 86 9000 7.2 210 23:58 22.01.2022
5766 Snow 0 989 93 6000 7.72 210 22:48 22.01.2022
5767 Snow 0 989 93 6000 7.72 210 22:19 22.01.2022
5768 Snow 1 991 86 10000 7.2 190 20:33 22.01.2022
5769 Snow 1 992 86 10000 8.23 210 19:41 22.01.2022
5770 Clouds 1 993 80 4000 10.29 220 18:37 22.01.2022
5771 Snow 2 993 64 10000 11.32 230 17:45 22.01.2022
5772 Clouds 2 993 64 10000 11.32 230 17:19 22.01.2022
5773 Clouds 1 994 75 10000 12.35 240 16:54 22.01.2022
5774 Clouds 1 994 80 10000 13.38 240 15:45 22.01.2022
5775 Clouds 1 993 80 10000 14.4 230 14:42 22.01.2022
5776 Snow 1 994 77 10000 16.98 230 13:30 22.01.2022
5777 Clouds 1 993 81 500 17.49 240 12:37 22.01.2022
5778 Snow 1 992 86 10000 13.38 250 12:19 22.01.2022
5779 Clouds 2 991 69 10000 13.38 230 10:54 22.01.2022
5780 Clouds 2 991 69 10000 13.38 230 10:23 22.01.2022
5781 Clouds 1 991 86 3500 12.86 230 08:56 22.01.2022
5782 Clouds 1 991 86 3500 12.86 230 08:38 22.01.2022
5783 Clouds 2 993 80 10000 9.77 220 06:46 22.01.2022
5784 Clouds 4 995 76 10000 16.46 230 02:40 22.01.2022
5785 Clouds 5 993 87 8000 18.52 190 23:50 21.01.2022
5786 Rain 5 993 87 8000 18.52 190 23:21 21.01.2022
5787 Rain 5 999 77 10000 11.32 190 21:34 21.01.2022
5788 Clouds 4 1003 70 10000 10.8 220 19:48 21.01.2022
5789 Clouds 3 1005 87 10000 11.83 220 17:53 21.01.2022
5790 Rain 4 1007 73 10000 10.8 210 16:37 21.01.2022
5791 Clouds 3 1007 70 10000 9.77 220 15:23 21.01.2022
5792 Rain 3 1006 81 10000 10.29 220 12:50 21.01.2022
5793 Clouds 4 1006 80 10000 10.29 210 11:29 21.01.2022
5794 Clouds 5 1006 80 10000 9.26 210 10:51 21.01.2022
5795 Clouds 5 1005 81 10000 12.35 220 09:24 21.01.2022
5796 Clouds 7 1004 81 10000 13.38 210 08:20 21.01.2022
5797 Clouds 7 1010 87 10000 11.32 170 04:36 21.01.2022
5798 Clouds 7 1017 81 10000 9.77 190 22:52 20.01.2022
5799 Clouds 7 1018 93 10000 8.75 190 21:49 20.01.2022
5800 Clouds 7 1018 93 10000 8.75 190 21:27 20.01.2022
5801 Clouds 8 1018 87 9000 9.26 180 19:55 20.01.2022
5802 Clouds 8 1018 87 9000 9.26 180 19:18 20.01.2022
5803 Drizzle 7 1019 87 9000 7.72 180 17:37 20.01.2022
5804 Clouds 7 1020 87 10000 6.17 180 16:32 20.01.2022
5805 Clouds 7 1021 87 8000 7.72 190 15:32 20.01.2022
5806 Drizzle 7 1022 87 7000 6.17 180 14:39 20.01.2022
5807 Clouds 7 1022 87 10000 6.17 170 13:18 20.01.2022
5808 Drizzle 7 1022 81 10000 7.2 160 12:30 20.01.2022
5809 Clouds 6 1023 87 10000 8.75 170 11:20 20.01.2022
5810 Clouds 5 1024 81 10000 3.6 130 10:19 20.01.2022
5811 Clouds 4 1025 87 10000 3.6 110 09:19 20.01.2022
5812 Rain 2 1027 87 10000 4.63 100 07:24 20.01.2022
5813 Clouds 0 1031 85 10000 3.6 100 00:41 20.01.2022
5814 Clouds -2 1032 74 10000 4.12 90 22:40 19.01.2022
5815 Clear -2 1032 74 10000 3.6 90 21:44 19.01.2022
5816 Clear -2 1032 74 10000 3.6 90 21:22 19.01.2022
5817 Clear -2 1032 74 10000 3.09 90 20:45 19.01.2022
5818 Clear -2 1031 74 10000 2.57 110 19:26 19.01.2022
5819 Clouds -1 1031 74 10000 2.57 140 17:51 19.01.2022
5820 Clouds -1 1031 74 10000 2.57 140 17:32 19.01.2022
5821 Clouds -2 1031 74 10000 2.57 130 15:44 19.01.2022
5822 Clouds -2 1030 69 10000 0.51 0 13:38 19.01.2022
5823 Clouds -2 1028 69 10000 1.54 10 12:24 19.01.2022
5824 Clouds -2 1028 74 10000 3.09 340 11:38 19.01.2022
5825 Clouds -1 1027 69 10000 3.6 350 10:20 19.01.2022
5826 Clouds -1 1026 64 10000 3.6 350 09:33 19.01.2022
5827 Clouds -1 1022 64 10000 4.63 340 06:34 19.01.2022
5828 Clouds 0 1014 59 10000 10.8 300 01:55 19.01.2022
5829 Clouds 0 1010 86 10000 7.2 310 23:19 18.01.2022
5830 Clouds 2 1007 60 10000 10.29 270 21:56 18.01.2022
5831 Clouds 3 1005 56 10000 9.26 270 20:55 18.01.2022
5832 Clouds 2 1005 75 10000 8.23 250 19:54 18.01.2022
5833 Clouds 2 1005 75 10000 8.23 250 19:35 18.01.2022
5834 Clouds 2 1003 80 10000 5.66 240 18:36 18.01.2022
5835 Clouds 2 1003 69 10000 7.2 260 17:51 18.01.2022
5836 Clouds 1 1003 86 10000 7.72 250 16:35 18.01.2022
5837 Rain 3 1002 65 10000 5.66 260 15:39 18.01.2022
5838 Clouds 3 1002 65 10000 5.66 260 15:19 18.01.2022
5839 Snow 1 999 93 10000 3.6 260 11:53 18.01.2022
5840 Clouds 3 998 81 10000 5.66 260 10:43 18.01.2022
5841 Clouds 4 996 75 10000 9.26 230 08:49 18.01.2022
5842 Clouds 3 996 81 10000 8.23 210 07:46 18.01.2022
5843 Rain 4 998 87 9000 7.2 230 02:31 18.01.2022
5844 Drizzle 5 1000 93 7000 6.69 200 23:22 17.01.2022
5845 Clouds 6 1001 94 3000 6.17 220 22:23 17.01.2022
5846 Drizzle 6 1001 91 8000 10.8 190 21:33 17.01.2022
5847 Clouds 6 1002 91 7000 10.29 190 19:56 17.01.2022
5848 Clouds 6 1004 91 6000 10.8 190 18:29 17.01.2022
5849 Clouds 6 1004 91 4500 11.83 190 17:24 17.01.2022
5850 Drizzle 6 1006 91 5000 11.83 190 16:27 17.01.2022
5851 Drizzle 6 1007 90 8000 12.35 180 14:59 17.01.2022
5852 Drizzle 6 1007 91 8000 12.35 180 14:33 17.01.2022
5853 Clouds 6 1008 91 4700 10.8 190 13:20 17.01.2022
5854 Drizzle 6 1009 90 10000 10.29 190 12:54 17.01.2022
5855 Drizzle 6 1009 90 6000 9.26 190 11:48 17.01.2022
5856 Clouds 6 1010 90 6000 10.8 190 10:21 17.01.2022
5857 Drizzle 6 1010 87 7000 10.29 190 08:51 17.01.2022
5858 Drizzle 6 1010 87 10000 10.29 190 07:22 17.01.2022
5859 Clouds 6 1011 87 9000 10.29 210 02:23 17.01.2022
5860 Clouds 6 1010 87 5000 9.26 210 00:54 17.01.2022
5861 Clouds 5 1009 87 9000 10.29 210 21:44 16.01.2022
5862 Clouds 5 1008 87 10000 10.8 210 20:33 16.01.2022
5863 Clouds 5 1008 87 10000 10.8 210 20:33 16.01.2022
5864 Rain 5 1007 87 8000 7.2 200 18:50 16.01.2022
5865 Rain 4 1007 93 10000 8.23 210 17:55 16.01.2022
5866 Snow 2 1006 87 10000 3.6 110 16:59 16.01.2022
5867 Snow 2 1006 87 10000 3.6 110 16:20 16.01.2022
5868 Snow -2 1006 86 8000 5.14 60 14:30 16.01.2022
5869 Clouds -2 1006 93 10000 4.63 70 13:34 16.01.2022
5870 Snow -2 1007 93 3000 3.09 70 12:27 16.01.2022
5871 Snow -2 1006 86 7000 2.06 100 11:38 16.01.2022
5872 Snow -2 1007 80 10000 1.54 350 10:46 16.01.2022
5873 Snow -2 1007 80 10000 2.06 20 09:59 16.01.2022
5874 Snow -2 1007 80 10000 2.06 20 09:40 16.01.2022
5875 Snow -2 1007 80 10000 2.06 20 09:21 16.01.2022
5876 Snow -1 1007 80 10000 3.6 350 07:23 16.01.2022
5877 Snow 0 1007 93 3000 7.2 200 00:38 16.01.2022
5878 Snow 1 1009 79 10000 6.17 200 23:22 15.01.2022
5879 Clouds 1 1011 75 10000 6.17 280 21:23 15.01.2022
5880 Clouds 0 1011 81 10000 10.29 260 20:56 15.01.2022
5881 Clouds 0 1011 81 10000 10.29 260 20:36 15.01.2022
5882 Clouds 1 1010 64 10000 8.75 280 19:28 15.01.2022
5883 Clouds 1 1010 64 10000 8.75 280 18:28 15.01.2022
5884 Clouds 2 1010 51 10000 9.26 300 16:49 15.01.2022
5885 Clouds -1 1010 69 10000 1.03 0 15:38 15.01.2022
5886 Clouds -2 1009 69 10000 4.63 350 13:35 15.01.2022
5887 Clouds -2 1008 74 10000 7.2 340 11:33 15.01.2022
5888 Clouds -1 1007 80 10000 9.77 330 09:49 15.01.2022
5889 Clouds 1 1006 75 10000 7.72 320 05:26 15.01.2022
5890 Drizzle 3 1005 93 6000 4.12 270 23:40 14.01.2022
5891 Drizzle 7 1005 91 10000 9.77 190 21:29 14.01.2022
5892 Mist 7 1006 91 8000 7.72 170 20:37 14.01.2022
5893 Drizzle 7 1006 91 8000 7.72 180 19:56 14.01.2022
5894 Mist 7 1007 87 4500 8.23 180 18:43 14.01.2022
5895 Mist 7 1007 87 3000 8.23 180 17:52 14.01.2022
5896 Mist 5 1009 81 7000 7.2 130 16:43 14.01.2022
5897 Rain 4 1010 75 10000 9.77 130 15:33 14.01.2022
5898 Rain 3 1011 81 10000 10.29 110 14:29 14.01.2022
5899 Snow 1 1016 90 10000 5.14 90 12:59 14.01.2022
5900 Rain 1 1018 90 9000 4.12 90 11:59 14.01.2022
5901 Rain 1 1019 86 10000 2.57 80 10:40 14.01.2022
5902 Snow 1 1021 88 7000 2.06 150 08:53 14.01.2022
5903 Rain 2 1022 83 10000 3.6 140 07:46 14.01.2022
5904 Clouds 1 1023 81 10000 3.09 170 03:19 14.01.2022
5905 Clouds 1 1021 80 10000 3.6 230 00:35 14.01.2022
5906 Clouds 3 1019 65 10000 5.66 260 21:55 13.01.2022
5907 Clouds 3 1019 65 10000 5.66 260 21:30 13.01.2022
5908 Clouds 3 1019 65 10000 5.66 260 21:30 13.01.2022
5909 Clouds 2 1018 75 10000 8.23 240 20:33 13.01.2022
5910 Clouds 3 1016 60 10000 9.26 250 19:32 13.01.2022
5911 Clouds 2 1015 75 10000 7.72 270 18:50 13.01.2022
5912 Rain 3 1012 65 10000 12.35 260 16:58 13.01.2022
5913 Clouds 0 1011 80 700 10.8 270 15:49 13.01.2022
5914 Clouds 0 1011 80 700 10.8 270 15:26 13.01.2022
5915 Clouds 1 1007 75 10000 14.92 250 13:42 13.01.2022
5916 Clouds 1 1004 69 10000 14.92 240 11:43 13.01.2022
5917 Clouds 1 1002 75 10000 14.92 230 09:38 13.01.2022
5918 Clouds 0 1003 85 10000 13.38 240 08:54 13.01.2022
5919 Clouds 0 1003 85 1500 18.01 240 08:22 13.01.2022
5920 Clouds 0 1001 86 5000 12.86 230 07:21 13.01.2022
5921 Clouds 0 1000 86 10000 10.29 220 05:56 13.01.2022
5922 Clouds 0 1000 86 10000 10.29 220 05:18 13.01.2022
5923 Clouds 0 1000 85 9000 11.32 240 01:46 13.01.2022
5924 Clouds 0 998 93 1000 14.92 250 23:54 12.01.2022
5925 Clouds 0 998 93 1000 14.92 250 23:35 12.01.2022
5926 Clouds 2 996 69 10000 11.83 230 22:56 12.01.2022
5927 Clouds 2 996 75 5000 10.29 220 21:56 12.01.2022
5928 Clouds 2 996 75 5000 10.29 220 21:21 12.01.2022
5929 Clouds 2 995 60 10000 13.38 230 20:56 12.01.2022
5930 Clouds 2 995 75 10000 11.83 220 19:28 12.01.2022
5931 Snow 1 994 86 10000 8.75 220 18:29 12.01.2022
5932 Clouds 3 994 65 10000 11.32 220 16:59 12.01.2022
5933 Snow 2 994 69 10000 9.77 220 15:58 12.01.2022
5934 Clouds 1 994 80 10000 11.83 220 14:47 12.01.2022
5935 Snow 1 993 80 10000 10.29 220 12:58 12.01.2022
5936 Clouds 2 991 75 10000 10.8 240 09:59 12.01.2022
5937 Snow 2 990 80 10000 8.23 210 08:36 12.01.2022
5938 Clouds 1 990 86 10000 9.77 210 07:34 12.01.2022
5939 Snow 1 990 86 3500 9.26 220 06:21 12.01.2022
5940 Snow 2 985 87 10000 10.29 220 23:31 11.01.2022
5941 Clouds 2 984 80 10000 7.72 170 22:49 11.01.2022
5942 Rain 2 984 80 10000 7.72 170 22:21 11.01.2022
5943 Snow 2 987 69 10000 5.66 200 20:51 11.01.2022
5944 Clouds 3 986 60 10000 12.35 240 19:45 11.01.2022
5945 Clouds 2 985 75 10000 11.83 230 18:31 11.01.2022
5946 Clouds 2 984 69 10000 13.38 230 17:19 11.01.2022
5947 Clouds 3 983 65 10000 16.46 230 16:37 11.01.2022
5948 Clouds 3 981 75 10000 13.38 240 15:34 11.01.2022
5949 Clouds 3 980 87 8000 11.83 220 14:41 11.01.2022
5950 Clouds 4 980 87 3200 8.75 150 13:54 11.01.2022
5951 Drizzle 2 982 87 10000 5.14 120 13:32 11.01.2022
5952 Clouds 3 984 81 10000 6.17 170 12:42 11.01.2022
5953 Rain 3 985 75 10000 8.23 200 11:40 11.01.2022
5954 Clouds 3 984 87 10000 9.77 230 09:28 11.01.2022
5955 Clouds 4 979 75 10000 8.75 230 06:36 11.01.2022
5956 Clouds 3 967 87 10000 3.6 70 00:30 11.01.2022
5957 Drizzle 3 968 86 10000 5.14 100 23:41 10.01.2022
5958 Rain 3 969 86 10000 6.17 120 22:51 10.01.2022
5959 Clouds 3 969 86 10000 6.17 120 22:19 10.01.2022
5960 Drizzle 2 970 89 10000 6.69 170 21:52 10.01.2022
5961 Drizzle 2 970 89 10000 6.69 170 21:19 10.01.2022
5962 Rain 3 970 86 10000 5.66 140 20:56 10.01.2022
5963 Rain 3 970 86 10000 5.66 140 20:27 10.01.2022
5964 Rain 2 970 89 10000 4.63 140 19:41 10.01.2022
5965 Rain 2 970 89 10000 4.63 140 19:20 10.01.2022
5966 Clouds 2 970 86 4500 7.72 160 18:48 10.01.2022
5967 Rain 2 970 81 10000 5.14 160 17:41 10.01.2022
5968 Clouds 1 971 88 10000 6.69 160 16:42 10.01.2022
5969 Clouds 2 971 82 1500 10.29 180 15:45 10.01.2022
5970 Clouds 2 970 80 10000 5.66 170 14:26 10.01.2022
5971 Clouds 2 969 80 10000 4.63 180 11:58 10.01.2022
5972 Clouds 2 969 80 10000 4.63 180 11:25 10.01.2022
5973 Clouds 3 967 81 10000 4.63 180 09:50 10.01.2022
5974 Rain 4 966 81 10000 5.66 180 07:18 10.01.2022
5975 Clouds 2 966 87 10000 8.75 110 05:49 10.01.2022
5976 Clouds 2 966 87 10000 8.75 110 05:49 10.01.2022
5977 Rain 5 971 75 5000 16.98 120 01:30 10.01.2022
5978 Rain 5 972 75 5000 18.52 110 00:25 10.01.2022
5979 Rain 5 975 75 7000 12.86 110 23:33 09.01.2022
5980 Rain 5 978 81 6000 18.01 120 22:37 09.01.2022
5981 Rain 6 980 70 10000 14.92 120 21:46 09.01.2022
5982 Rain 6 980 70 10000 14.92 120 21:46 09.01.2022
5983 Rain 6 980 70 10000 14.92 120 21:23 09.01.2022
5984 Rain 6 981 65 10000 15.95 120 20:51 09.01.2022
5985 Rain 6 981 65 10000 15.95 120 20:33 09.01.2022
5986 Clouds 5 981 65 10000 11.83 110 19:44 09.01.2022
5987 Clouds 5 981 65 10000 11.83 110 19:23 09.01.2022
5988 Clouds 5 983 65 10000 11.32 100 18:52 09.01.2022
5989 Clouds 5 983 65 10000 11.32 100 18:33 09.01.2022
5990 Clouds 4 985 65 10000 8.75 100 17:31 09.01.2022
5991 Clouds 4 985 65 10000 8.75 100 17:31 09.01.2022
5992 Clouds 3 988 60 10000 7.2 90 16:53 09.01.2022
5993 Clear 3 988 60 10000 6.69 100 15:58 09.01.2022
5994 Clear 3 988 60 10000 6.69 100 15:35 09.01.2022
5995 Clear 3 989 56 10000 7.2 90 14:40 09.01.2022
5996 Clear 3 990 56 10000 8.23 90 13:51 09.01.2022
5997 Clear 3 990 56 10000 8.23 90 13:22 09.01.2022
5998 Clear 3 992 56 10000 5.66 70 11:54 09.01.2022
5999 Clear 1 992 69 10000 3.6 130 10:53 09.01.2022
6000 Clear 2 991 64 10000 4.12 60 09:47 09.01.2022
6001 Clear 2 991 64 10000 5.14 90 08:52 09.01.2022
6002 Clear 2 990 55 10000 2.57 50 05:38 09.01.2022
6003 Clear 2 987 60 10000 2.06 50 01:24 09.01.2022
6004 Clear 3 985 60 10000 2.06 110 23:47 08.01.2022
6005 Clear 3 985 60 10000 2.06 110 23:26 08.01.2022
6006 Clear 3 984 65 10000 2.57 10 22:30 08.01.2022
6007 Clouds 6 982 39 10000 4.63 60 21:25 08.01.2022
6008 Clouds 6 981 42 10000 4.12 80 20:42 08.01.2022
6009 Clouds 6 981 42 10000 4.12 80 20:21 08.01.2022
6010 Rain 6 980 54 10000 3.09 20 18:45 08.01.2022
6011 Clouds 5 978 60 10000 6.17 70 17:22 08.01.2022
6012 Clouds 5 976 56 10000 4.63 50 15:56 08.01.2022
6013 Clouds 6 973 49 10000 9.77 80 14:46 08.01.2022
6014 Clouds 6 972 45 10000 6.69 70 13:29 08.01.2022
6015 Clouds 5 970 56 10000 12.86 90 11:28 08.01.2022
6016 Clouds 5 971 56 10000 5.66 60 10:30 08.01.2022
6017 Clouds 5 969 56 10000 10.29 80 09:48 08.01.2022
6018 Clouds 4 967 65 10000 16.46 100 08:22 08.01.2022
6019 Rain 3 969 65 10000 12.35 80 03:44 08.01.2022
6020 Clouds 2 973 69 10000 11.83 90 00:57 08.01.2022
6021 Clouds 2 977 64 10000 8.75 100 22:54 07.01.2022
6022 Clouds 1 978 86 10000 10.29 100 21:21 07.01.2022
6023 Clouds 1 980 86 10000 8.23 110 20:23 07.01.2022
6024 Clouds 1 981 80 10000 8.23 100 19:26 07.01.2022
6025 Clouds 1 982 86 10000 7.2 100 18:45 07.01.2022
6026 Clouds 1 983 86 10000 6.17 100 17:28 07.01.2022
6027 Snow 1 984 86 10000 6.69 110 16:41 07.01.2022
6028 Clouds 1 985 86 10000 5.66 110 14:50 07.01.2022
6029 Clouds 1 985 80 10000 5.66 100 13:50 07.01.2022
6030 Snow 2 984 75 10000 6.69 110 12:50 07.01.2022
6031 Clouds 2 982 75 10000 5.66 140 09:48 07.01.2022
6032 Clouds 2 975 75 10000 5.66 150 02:58 07.01.2022
6033 Clouds 2 975 75 10000 5.66 150 02:19 07.01.2022
6034 Clouds 2 974 75 10000 4.12 140 01:41 07.01.2022
6035 Snow 2 974 75 10000 4.12 140 01:20 07.01.2022
6036 Clouds 2 973 69 10000 5.66 160 00:28 07.01.2022
6037 Clouds 3 969 75 10000 6.69 190 21:40 06.01.2022
6038 Clouds 3 967 75 10000 7.72 180 20:37 06.01.2022
6039 Clouds 2 965 87 10000 10.29 190 19:54 06.01.2022
6040 Rain 2 965 87 10000 10.29 190 19:29 06.01.2022
6041 Rain 4 962 75 10000 11.83 160 17:51 06.01.2022
6042 Rain 4 962 75 10000 11.83 160 17:51 06.01.2022
6043 Rain 4 962 75 10000 11.83 160 17:19 06.01.2022
6044 Rain 4 961 75 10000 12.86 150 16:22 06.01.2022
6045 Rain 4 961 75 10000 12.35 140 15:41 06.01.2022
6046 Clouds 4 961 75 10000 12.35 140 15:20 06.01.2022
6047 Clouds 4 960 81 10000 15.43 140 14:19 06.01.2022
6048 Clouds 4 960 70 10000 14.4 140 12:59 06.01.2022
6049 Clouds 4 960 70 10000 14.4 140 12:20 06.01.2022
6050 Clouds 4 961 75 10000 14.92 140 11:29 06.01.2022
6051 Clouds 5 962 70 10000 14.4 140 09:50 06.01.2022
6052 Clouds 4 966 81 6000 19.55 120 05:55 06.01.2022
6053 Clouds 5 980 86 6000 18.01 130 23:56 05.01.2022
6054 Clouds 5 981 86 6000 18.01 130 23:22 05.01.2022
6055 Clouds 5 984 92 5000 12.35 120 22:42 05.01.2022
6056 Clouds 5 984 89 5000 12.35 120 22:18 05.01.2022
6057 Clouds 5 987 86 10000 11.83 130 21:23 05.01.2022
6058 Rain 5 989 81 10000 13.38 130 20:30 05.01.2022
6059 Clouds 3 991 87 6000 11.32 110 19:29 05.01.2022
6060 Clouds 4 993 87 7000 9.77 120 18:20 05.01.2022
6061 Clouds 2 997 87 6000 10.29 130 16:56 05.01.2022
6062 Clouds 2 997 87 6000 10.29 130 16:18 05.01.2022
6063 Snow 1 1000 86 4000 13.89 110 14:56 05.01.2022
6064 Snow 1 1001 86 4000 12.35 120 13:34 05.01.2022
6065 Snow 1 1002 86 6000 9.26 100 12:20 05.01.2022
6066 Rain 2 1006 60 10000 11.83 100 08:29 05.01.2022
6067 Clouds 1 1009 64 10000 7.72 110 06:37 05.01.2022
6068 Clouds -2 1011 59 10000 7.2 70 01:24 05.01.2022
6069 Clear -3 1012 59 10000 6.69 80 23:42 04.01.2022
6070 Clear -3 1012 59 10000 6.69 80 23:19 04.01.2022
6071 Clouds -3 1013 59 10000 6.17 70 21:41 04.01.2022
6072 Clear -3 1013 59 10000 5.66 70 20:41 04.01.2022
6073 Clear -4 1013 63 10000 5.66 80 18:39 04.01.2022
6074 Clouds -4 1014 54 10000 3.6 90 17:30 04.01.2022
6075 Clear -5 1014 58 10000 5.14 80 16:33 04.01.2022
6076 Clear -5 1015 58 10000 6.17 90 15:20 04.01.2022
6077 Clear -5 1015 63 10000 5.14 80 14:37 04.01.2022
6078 Clear -5 1015 63 10000 4.63 80 13:55 04.01.2022
6079 Clear -5 1015 63 10000 3.6 80 12:22 04.01.2022
6080 Clear -8 1016 79 10000 2.06 100 10:23 04.01.2022
6081 Clear -7 1017 73 10000 2.06 100 08:57 04.01.2022
6082 Clear -7 1017 79 10000 1.54 110 06:28 04.01.2022
6083 Clear -7 1018 79 10000 2.06 140 00:43 04.01.2022
6084 Clear -7 1018 79 10000 1.54 180 23:56 03.01.2022
6085 Clear -6 1018 79 10000 1.54 180 22:22 03.01.2022
6086 Clouds -6 1019 79 10000 2.06 140 21:40 03.01.2022
6087 Clouds -6 1018 79 10000 2.06 140 20:41 03.01.2022
6088 Clouds -6 1018 73 10000 2.57 200 19:38 03.01.2022
6089 Clear -5 1018 80 10000 1.54 180 18:31 03.01.2022
6090 Clear -4 1018 74 10000 2.57 180 17:23 03.01.2022
6091 Clouds -3 1018 68 10000 2.06 70 16:53 03.01.2022
6092 Clouds -3 1017 74 10000 6.17 350 14:32 03.01.2022
6093 Clear -3 1017 68 10000 5.66 350 12:53 03.01.2022
6094 Clear -3 1017 68 10000 5.66 350 12:22 03.01.2022
6095 Clouds -3 1017 68 10000 3.6 330 11:22 03.01.2022
6096 Clouds -4 1016 63 10000 5.14 350 09:29 03.01.2022
6097 Clear -4 1015 58 10000 5.66 340 07:55 03.01.2022
6098 Clear -4 1013 54 10000 6.17 340 04:23 03.01.2022
6099 Clouds -5 1010 58 10000 6.69 360 23:32 02.01.2022
6100 Clear -4 1009 54 10000 10.29 20 22:56 02.01.2022
6101 Clear -4 1009 54 10000 10.29 20 22:22 02.01.2022
6102 Clear -5 1009 54 10000 2.06 0 21:26 02.01.2022
6103 Clouds -5 1008 58 10000 6.17 340 20:30 02.01.2022
6104 Clouds -5 1007 54 10000 6.69 20 19:32 02.01.2022
6105 Clouds -5 1006 58 10000 8.75 20 18:56 02.01.2022
6106 Clouds -5 1006 58 10000 8.75 20 18:30 02.01.2022
6107 Clouds -5 1006 58 10000 8.75 30 17:42 02.01.2022
6108 Clouds -5 1006 58 10000 8.75 30 17:21 02.01.2022
6109 Clouds -5 1005 58 10000 9.77 20 16:30 02.01.2022
6110 Clouds -5 1004 54 10000 7.72 30 15:39 02.01.2022
6111 Clouds -5 1003 50 10000 13.38 20 13:57 02.01.2022
6112 Clouds -5 1003 58 10000 10.8 20 12:33 02.01.2022
6113 Clouds -5 1002 58 10000 10.29 20 11:55 02.01.2022
6114 Clouds -5 1002 57 10000 7.72 40 10:55 02.01.2022
6115 Clouds -5 1002 57 10000 7.72 40 10:22 02.01.2022
6116 Clear -5 999 55 10000 12.86 40 07:45 02.01.2022
6117 Clear -5 994 58 10000 12.86 20 02:57 02.01.2022
6118 Clear -4 992 58 10000 8.23 30 23:54 01.01.2022
6119 Clear -4 992 58 10000 8.23 30 23:35 01.01.2022
6120 Clear -4 991 58 10000 12.86 20 22:41 01.01.2022
6121 Clear -4 991 58 10000 12.86 20 22:18 01.01.2022
6122 Clear -4 991 58 10000 13.89 10 21:42 01.01.2022
6123 Clouds -3 991 59 10000 12.35 20 20:50 01.01.2022
6124 Clouds -3 990 63 10000 12.35 20 19:47 01.01.2022
6125 Clouds -3 990 62 10000 12.86 10 18:53 01.01.2022
6126 Clouds -3 990 67 10000 10.8 360 17:46 01.01.2022
6127 Clouds -2 990 62 10000 15.43 20 16:35 01.01.2022
6128 Clouds -2 990 65 10000 13.89 10 15:50 01.01.2022
6129 Clouds -1 991 62 10000 7.72 30 14:40 01.01.2022
6130 Clouds -1 991 64 10000 14.4 30 13:42 01.01.2022
6131 Clouds 0 994 61 10000 11.83 40 12:26 01.01.2022
6132 Clouds 0 995 63 10000 11.83 30 11:46 01.01.2022
6133 Clouds 0 995 63 10000 11.83 30 11:18 01.01.2022
6134 Clouds 2 996 51 10000 8.23 30 09:48 01.01.2022
6135 Clouds 2 996 51 10000 8.23 30 09:20 01.01.2022
6136 Clear 0 997 59 10000 12.35 20 08:22 01.01.2022
6137 Clear 0 998 64 10000 11.32 20 07:41 01.01.2022
6138 Clear 1 999 60 10000 10.8 20 06:45 01.01.2022
6139 Clear 3 1001 52 10000 4.63 50 05:25 01.01.2022
6140 Clear 3 1002 56 10000 5.14 40 04:37 01.01.2022
6141 Snow 2 1006 64 10000 4.63 80 00:41 01.01.2022
6142 Snow 2 1006 55 10000 5.14 70 22:59 31.12.2021
6143 Rain 2 1006 55 10000 5.66 80 21:51 31.12.2021
6144 Snow 2 1006 55 10000 5.66 80 20:32 31.12.2021
6145 Snow 1 1006 55 10000 7.2 80 19:29 31.12.2021
6146 Snow 1 1006 55 10000 5.66 70 18:30 31.12.2021
6147 Snow 2 1006 51 10000 6.69 80 17:37 31.12.2021
6148 Snow 2 1006 51 10000 6.69 80 17:18 31.12.2021
6149 Clear 2 1006 51 10000 6.69 80 16:19 31.12.2021
6150 Clear 1 1006 55 10000 6.69 80 15:53 31.12.2021
6151 Snow 1 1006 55 10000 6.69 80 15:28 31.12.2021
6152 Clear 1 1006 55 10000 6.69 80 14:43 31.12.2021
6153 Clear 1 1006 55 10000 6.69 80 14:18 31.12.2021
6154 Clear 1 1006 51 10000 6.17 80 13:36 31.12.2021
6155 Clear 1 1005 51 10000 7.72 80 12:44 31.12.2021
6156 Snow 1 1005 51 10000 7.2 80 11:43 31.12.2021
6157 Snow 1 1005 51 10000 7.2 80 11:20 31.12.2021
6158 Snow 1 1004 51 10000 6.69 80 10:32 31.12.2021
6159 Snow 1 1004 47 10000 6.69 80 09:35 31.12.2021
6160 Clouds 1 1004 47 10000 4.63 90 08:56 31.12.2021
6161 Clouds 1 1004 47 10000 4.63 90 08:25 31.12.2021
6162 Clouds 0 1004 47 10000 6.17 90 07:30 31.12.2021
6163 Clouds -2 1003 57 10000 3.09 80 23:23 30.12.2021
6164 Clear -2 1003 60 10000 3.09 60 22:33 30.12.2021
6165 Clear -2 1003 56 10000 5.66 100 21:54 30.12.2021
6166 Clear -2 1003 56 10000 5.66 100 21:36 30.12.2021
6167 Clear -3 1002 64 10000 1.54 80 20:46 30.12.2021
6168 Clear -3 1002 63 10000 1.54 80 20:25 30.12.2021
6169 Clear -3 1002 58 10000 2.06 80 19:45 30.12.2021
6170 Clear -4 1001 63 10000 2.06 110 18:45 30.12.2021
6171 Clear -4 1001 62 10000 2.06 110 18:18 30.12.2021
6172 Clear -4 1000 57 10000 2.57 110 16:19 30.12.2021
6173 Clear -5 1000 61 10000 1.54 90 15:51 30.12.2021
6174 Clear -7 999 68 10000 0.51 0 14:39 30.12.2021
6175 Clear -6 999 63 10000 2.06 50 13:55 30.12.2021
6176 Clear -7 998 63 10000 1.54 60 12:40 30.12.2021
6177 Clear -7 997 63 10000 1.03 0 10:58 30.12.2021
6178 Clear -6 997 58 10000 1.03 130 09:59 30.12.2021
6179 Clear -6 997 58 10000 1.03 130 09:59 30.12.2021
6180 Clear -6 997 58 10000 1.03 130 09:21 30.12.2021
6181 Clear -5 996 68 10000 1.54 210 06:54 30.12.2021
6182 Clear -4 996 59 10000 2.06 120 03:45 30.12.2021
6183 Clear -4 996 59 10000 2.06 120 03:23 30.12.2021
6184 Clear -3 996 62 10000 0.51 0 23:57 29.12.2021
6185 Clear -3 996 63 10000 0.51 0 23:23 29.12.2021
6186 Clear -2 996 62 10000 0.51 0 22:22 29.12.2021
6187 Clear -1 996 61 10000 2.57 20 21:45 29.12.2021
6188 Clear -1 995 63 10000 5.14 30 20:39 29.12.2021
6189 Clear -1 995 65 10000 5.66 20 19:50 29.12.2021
6190 Clear -1 995 61 10000 6.17 20 18:57 29.12.2021
6191 Clear -1 995 62 10000 7.72 10 17:57 29.12.2021
6192 Clear -1 995 59 10000 7.72 10 17:28 29.12.2021
6193 Clear -1 995 60 10000 5.66 20 16:44 29.12.2021
6194 Clear -1 995 60 10000 5.66 20 16:19 29.12.2021
6195 Clouds -1 995 64 10000 6.69 350 14:40 29.12.2021
6196 Clear 0 995 54 10000 4.63 40 12:48 29.12.2021
6197 Clear 0 995 54 10000 4.63 40 12:20 29.12.2021
6198 Snow 0 995 58 10000 5.66 60 10:31 29.12.2021
6199 Snow -2 994 86 4500 7.72 40 07:52 29.12.2021
6200 Snow -1 994 69 6000 9.77 50 06:45 29.12.2021
6201 Snow -1 994 69 6000 9.77 50 06:24 29.12.2021
6202 Clouds -1 996 70 10000 9.77 40 05:42 29.12.2021
6203 Clouds -1 996 69 10000 10.29 40 03:20 29.12.2021
6204 Clouds -1 996 69 10000 13.38 40 00:24 29.12.2021
6205 Clouds 0 996 69 10000 11.83 40 23:47 28.12.2021
6206 Clouds -1 996 74 10000 5.66 30 22:45 28.12.2021
6207 Clouds -1 996 74 10000 5.66 30 22:24 28.12.2021
6208 Snow -2 997 86 4000 7.72 360 21:53 28.12.2021
6209 Snow -3 997 93 10000 5.66 350 20:48 28.12.2021
6210 Snow -3 997 93 6000 4.63 360 19:44 28.12.2021
6211 Snow -2 998 69 10000 7.2 10 18:44 28.12.2021
6212 Snow -2 998 69 10000 7.2 10 18:23 28.12.2021
6213 Snow -2 999 69 10000 9.26 10 16:35 28.12.2021
6214 Snow -2 999 64 10000 7.72 10 15:52 28.12.2021
6215 Clouds -2 999 64 10000 7.72 10 15:27 28.12.2021
6216 Clouds -3 999 68 10000 11.32 20 14:53 28.12.2021
6217 Clouds -3 999 68 10000 11.32 20 14:21 28.12.2021
6218 Clouds -3 1000 70 10000 11.32 20 13:54 28.12.2021
6219 Clouds -3 1000 70 10000 11.32 20 13:31 28.12.2021
6220 Clouds -3 1000 74 10000 11.32 20 12:55 28.12.2021
6221 Clear -3 1001 75 10000 12.35 20 11:51 28.12.2021
6222 Clouds -3 1000 74 10000 11.32 20 09:30 28.12.2021
6223 Clouds -2 1000 74 10000 8.75 20 07:33 28.12.2021
6224 Clear -7 1001 77 10000 2.06 0 03:28 28.12.2021
6225 Clear -6 1001 78 10000 2.57 150 23:26 27.12.2021
6226 Clear -5 1000 73 10000 1.03 0 22:20 27.12.2021
6227 Clear -5 1000 73 10000 1.54 90 21:30 27.12.2021
6228 Clear -6 1000 75 10000 1.03 0 20:27 27.12.2021
6229 Clear -4 999 72 10000 1.03 100 19:47 27.12.2021
6230 Clouds -4 999 71 10000 0.51 0 18:56 27.12.2021
6231 Clouds -3 999 70 10000 1.54 40 17:50 27.12.2021
6232 Clouds -3 999 69 10000 1.54 40 17:27 27.12.2021
6233 Clouds -2 999 69 10000 2.57 20 15:54 27.12.2021
6234 Clouds -2 999 72 10000 2.06 60 14:56 27.12.2021
6235 Clouds -2 999 71 10000 2.06 60 14:21 27.12.2021
6236 Clouds -3 999 79 10000 0.51 0 12:49 27.12.2021
6237 Clouds -1 999 70 10000 2.06 50 10:37 27.12.2021
6238 Clouds -1 999 70 10000 2.06 50 10:18 27.12.2021
6239 Clear -1 999 75 10000 2.06 50 08:42 27.12.2021
6240 Clear -1 999 76 10000 1.54 50 07:34 27.12.2021
6241 Snow -1 999 77 10000 2.57 50 06:27 27.12.2021
6242 Clouds 0 1000 80 10000 1.54 40 01:51 27.12.2021
6243 Clouds 0 1000 83 10000 3.6 10 23:49 26.12.2021
6244 Snow 0 1001 83 10000 3.6 10 23:19 26.12.2021
6245 Snow 0 1001 84 10000 2.06 350 21:33 26.12.2021
6246 Snow 0 1002 81 10000 2.06 40 19:55 26.12.2021
6247 Clouds 0 1002 82 10000 2.06 40 18:45 26.12.2021
6248 Clouds 0 1002 82 10000 2.06 40 18:21 26.12.2021
6249 Snow 0 1003 86 2500 2.57 20 15:38 26.12.2021
6250 Snow 0 1004 79 10000 3.09 60 13:49 26.12.2021
6251 Snow 0 1004 79 10000 3.09 60 13:31 26.12.2021
6252 Snow 0 1004 74 10000 2.57 70 12:36 26.12.2021
6253 Snow 0 1005 73 10000 2.06 50 11:24 26.12.2021
6254 Clouds 0 1005 73 10000 3.6 70 09:35 26.12.2021
6255 Clouds 0 1005 78 10000 0.51 0 08:50 26.12.2021
6256 Clouds 0 1005 78 10000 0.51 0 08:27 26.12.2021
6257 Clouds 1 1006 69 10000 3.09 50 05:59 26.12.2021
6258 Clear 1 1007 74 10000 5.14 60 00:44 26.12.2021
6259 Clear 2 1007 74 10000 3.09 60 23:48 25.12.2021
6260 Clear 2 1007 74 10000 4.63 60 22:39 25.12.2021
6261 Clear 2 1007 74 10000 4.63 60 22:20 25.12.2021
6262 Clear 2 1008 75 10000 5.66 50 20:36 25.12.2021
6263 Clear 2 1007 79 10000 2.06 40 19:20 25.12.2021
6264 Clouds 2 1008 74 10000 3.6 60 18:51 25.12.2021
6265 Clouds 3 1008 73 10000 3.09 50 16:52 25.12.2021
6266 Clouds 3 1008 71 10000 4.12 70 15:48 25.12.2021
6267 Clear 2 1009 72 10000 2.57 60 14:25 25.12.2021
6268 Clouds 2 1009 72 10000 1.03 0 12:42 25.12.2021
6269 Clouds 1 1010 73 10000 2.57 80 11:27 25.12.2021
6270 Clear 1 1009 76 10000 3.09 70 09:49 25.12.2021
6271 Clear 1 1010 73 10000 4.12 70 07:51 25.12.2021
6272 Clear 1 1011 71 10000 6.17 80 01:45 25.12.2021
6273 Clear 0 1011 73 10000 4.12 70 00:27 25.12.2021
6274 Clear 0 1011 73 10000 4.63 70 22:40 24.12.2021
6275 Clouds 1 1011 72 10000 4.63 50 19:38 24.12.2021
6276 Clouds 1 1011 72 10000 4.63 50 19:19 24.12.2021
6277 Clouds -1 1012 75 10000 1.54 70 16:50 24.12.2021
6278 Clouds -1 1013 81 10000 3.46 64 16:19 24.12.2021
6279 Clear -1 1013 72 10000 3.09 60 15:45 24.12.2021
6280 Clear -2 1013 77 10000 3.6 40 14:46 24.12.2021
6281 Clear -2 1013 77 10000 3.6 40 14:22 24.12.2021
6282 Clear -2 1013 75 10000 4.12 80 13:37 24.12.2021
6283 Clear -2 1014 75 10000 4.12 100 12:48 24.12.2021
6284 Clear -2 1014 72 10000 3.6 80 11:52 24.12.2021
6285 Clear -2 1014 71 10000 3.6 80 11:26 24.12.2021
6286 Clear -2 1014 71 10000 6.17 80 10:46 24.12.2021
6287 Clear -2 1014 68 10000 5.14 90 09:33 24.12.2021
6288 Clear 0 1013 51 10000 4.12 90 08:24 24.12.2021
6289 Clear 0 1014 59 10000 3.6 90 07:48 24.12.2021
6290 Clear -1 1015 60 10000 1.54 40 02:52 24.12.2021
6291 Clear -1 1016 64 10000 1.03 0 23:56 23.12.2021
6292 Clear -1 1016 64 10000 1.03 0 23:22 23.12.2021
6293 Clear 0 1016 64 10000 1.03 0 22:37 23.12.2021
6294 Clear 0 1016 64 10000 1.03 0 22:37 23.12.2021
6295 Clear 0 1016 64 10000 1.03 0 22:19 23.12.2021
6296 Clear 1 1016 55 10000 2.06 40 20:59 23.12.2021
6297 Clear 1 1016 55 10000 2.06 40 20:19 23.12.2021
6298 Clear 1 1016 47 10000 1.54 0 18:36 23.12.2021
6299 Clear 1 1016 51 10000 2.06 50 17:57 23.12.2021
6300 Clear 2 1017 48 10000 3.09 80 16:47 23.12.2021
6301 Clear 2 1017 48 10000 3.09 80 16:24 23.12.2021
6302 Clear 2 1017 44 10000 4.12 60 15:31 23.12.2021
6303 Clear 2 1017 48 10000 3.6 70 14:52 23.12.2021
6304 Clear 2 1017 48 10000 3.6 70 14:31 23.12.2021
6305 Clear 1 1018 51 10000 3.6 70 13:19 23.12.2021
6306 Clear 1 1017 47 10000 2.57 80 10:53 23.12.2021
6307 Clear 1 1017 47 10000 6.69 90 09:47 23.12.2021
6308 Clear 1 1017 47 10000 6.69 90 09:19 23.12.2021
6309 Clear -2 1018 69 10000 1.54 60 06:59 23.12.2021
6310 Clear 0 1019 51 10000 2.57 30 04:35 23.12.2021
6311 Clear -2 1020 74 10000 3.09 80 23:26 22.12.2021
6312 Clear -2 1020 72 10000 4.63 80 22:48 22.12.2021
6313 Clear -2 1020 76 10000 4.12 80 21:57 22.12.2021
6314 Clear -2 1020 76 10000 4.12 80 21:29 22.12.2021
6315 Clear -2 1020 78 10000 5.14 100 20:50 22.12.2021
6316 Clear -2 1020 79 10000 5.14 100 20:30 22.12.2021
6317 Clouds -1 1020 77 10000 5.14 90 19:32 22.12.2021
6318 Clouds 0 1020 75 10000 4.12 90 17:55 22.12.2021
6319 Clouds 0 1020 74 10000 4.12 90 17:34 22.12.2021
6320 Rain 2 1020 64 10000 4.12 90 15:46 22.12.2021
6321 Rain 2 1020 75 10000 3.6 90 13:44 22.12.2021
6322 Clouds 3 1020 75 10000 2.57 90 12:41 22.12.2021
6323 Clouds 3 1020 70 10000 3.09 100 10:46 22.12.2021
6324 Clouds 3 1020 70 10000 3.6 80 09:40 22.12.2021
6325 Clouds 3 1020 70 10000 3.09 80 07:32 22.12.2021
6326 Clouds 4 1020 65 10000 3.6 90 05:50 22.12.2021
6327 Clouds 4 1020 65 10000 3.6 90 05:28 22.12.2021
6328 Clouds 3 1020 70 10000 3.6 70 04:52 22.12.2021
6329 Clouds 3 1020 70 10000 3.6 70 04:30 22.12.2021
6330 Clouds 4 1020 65 10000 2.57 70 03:33 22.12.2021
6331 Clouds 3 1021 75 10000 4.12 80 00:57 22.12.2021
6332 Clouds 3 1021 75 10000 4.63 90 23:32 21.12.2021
6333 Clouds 4 1021 70 10000 5.14 90 22:29 21.12.2021
6334 Clouds 2 1021 80 10000 1.03 0 21:44 21.12.2021
6335 Clouds 2 1021 80 10000 1.03 0 21:23 21.12.2021
6336 Clouds 3 1021 75 10000 4.12 100 20:22 21.12.2021
6337 Clouds 3 1021 75 10000 3.6 90 19:46 21.12.2021
6338 Clouds 3 1021 75 10000 3.6 90 19:19 21.12.2021
6339 Clouds 3 1021 81 10000 4.12 80 18:22 21.12.2021
6340 Clouds 3 1022 81 10000 5.66 100 17:47 21.12.2021
6341 Clouds 2 1022 84 10000 4.12 80 16:35 21.12.2021
6342 Clouds 3 1022 75 10000 5.14 80 15:29 21.12.2021
6343 Clouds 2 1023 80 10000 3.6 80 13:51 21.12.2021
6344 Clouds 2 1023 80 10000 3.6 80 13:31 21.12.2021
6345 Clouds 2 1023 80 10000 5.14 80 11:57 21.12.2021
6346 Clouds 2 1023 80 10000 3.6 80 10:25 21.12.2021
6347 Clouds 2 1023 80 10000 5.66 90 09:35 21.12.2021
6348 Clear 1 1023 86 10000 5.14 80 08:30 21.12.2021
6349 Clear -1 1023 100 10000 0.51 0 07:32 21.12.2021
6350 Fog 0 1023 100 10000 1.54 30 06:54 21.12.2021
6351 Drizzle 1 1025 95 1000 1.54 120 03:20 21.12.2021
6352 Drizzle 3 1025 95 1200 0 0 00:46 21.12.2021
6353 Drizzle 4 1026 95 1000 1.54 290 23:34 20.12.2021
6354 Mist 4 1026 94 2300 1.03 0 22:34 20.12.2021
6355 Mist 4 1026 95 1300 1.03 0 21:48 20.12.2021
6356 Mist 4 1026 95 1300 1.03 0 21:24 20.12.2021
6357 Mist 4 1026 98 3600 0.51 0 20:48 20.12.2021
6358 Drizzle 5 1026 94 3000 0 0 19:55 20.12.2021
6359 Drizzle 5 1027 94 3000 0 0 19:34 20.12.2021
6360 Drizzle 4 1027 94 2200 0.51 0 18:55 20.12.2021
6361 Drizzle 4 1027 94 2200 0.51 0 18:25 20.12.2021
6362 Drizzle 5 1027 94 300 0 0 17:46 20.12.2021
6363 Drizzle 5 1027 94 300 0 0 16:44 20.12.2021
6364 Drizzle 5 1028 91 1700 1.03 130 15:52 20.12.2021
6365 Drizzle 5 1028 91 2500 1.03 50 14:58 20.12.2021
6366 Drizzle 5 1028 91 10000 0 0 13:24 20.12.2021
6367 Clouds 4 1028 87 10000 2.06 120 11:36 20.12.2021
6368 Clouds 4 1028 87 10000 1.03 0 09:56 20.12.2021
6369 Clouds 4 1028 87 10000 1.03 0 09:32 20.12.2021
6370 Clouds 4 1028 87 10000 2.06 110 08:43 20.12.2021
6371 Clouds 5 1028 87 10000 1.54 90 07:57 20.12.2021
6372 Clouds 5 1028 87 10000 1.54 90 07:31 20.12.2021
6373 Clouds 5 1029 87 10000 3.09 90 05:25 20.12.2021
6374 Clouds 6 1031 87 10000 2.57 90 00:19 20.12.2021
6375 Clouds 6 1032 87 10000 2.06 90 22:56 19.12.2021
6376 Clouds 7 1032 81 10000 2.57 90 21:58 19.12.2021
6377 Clouds 7 1032 81 10000 2.57 90 21:32 19.12.2021
6378 Clouds 7 1032 86 10000 2.57 80 20:35 19.12.2021
6379 Clouds 7 1032 81 10000 2.57 100 19:53 19.12.2021
6380 Clouds 7 1032 81 10000 2.57 100 19:32 19.12.2021
6381 Clouds 7 1032 87 10000 2.57 110 18:35 19.12.2021
6382 Clouds 8 1033 81 10000 3.09 130 17:53 19.12.2021
6383 Clouds 8 1033 81 10000 3.09 130 17:28 19.12.2021
6384 Clouds 8 1033 76 10000 3.09 110 16:27 19.12.2021
6385 Clouds 8 1033 76 10000 3.09 110 16:27 19.12.2021
6386 Clouds 8 1033 76 10000 3.09 110 15:51 19.12.2021
6387 Clouds 8 1033 76 10000 3.09 110 15:23 19.12.2021
6388 Clouds 8 1033 81 10000 3.6 110 14:45 19.12.2021
6389 Clouds 8 1034 81 10000 4.12 140 13:26 19.12.2021
6390 Clouds 8 1034 81 10000 4.63 100 12:50 19.12.2021
6391 Clouds 8 1034 81 10000 4.63 100 12:28 19.12.2021
6392 Clouds 8 1033 81 10000 5.66 140 11:30 19.12.2021
6393 Clouds 8 1033 81 10000 6.69 140 10:47 19.12.2021
6394 Clouds 8 1033 81 10000 6.69 140 10:21 19.12.2021
6395 Clouds 8 1033 81 10000 6.69 130 08:46 19.12.2021
6396 Clouds 8 1033 87 10000 7.2 130 05:37 19.12.2021
6397 Clouds 8 1033 87 10000 5.66 140 01:45 19.12.2021
6398 Clouds 8 1032 87 10000 5.14 130 00:54 19.12.2021
6399 Clouds 8 1032 87 10000 5.66 130 22:51 18.12.2021
6400 Clouds 8 1032 87 10000 5.66 130 22:24 18.12.2021
6401 Clouds 8 1032 87 10000 6.69 130 21:41 18.12.2021
6402 Clouds 8 1032 87 10000 6.69 130 21:22 18.12.2021
6403 Clouds 8 1031 87 10000 5.14 120 20:25 18.12.2021
6404 Clouds 8 1030 87 10000 4.63 110 19:34 18.12.2021
6405 Drizzle 8 1030 87 10000 4.63 120 18:24 18.12.2021
6406 Clouds 8 1030 87 10000 4.12 120 17:49 18.12.2021
6407 Clouds 8 1029 87 10000 4.12 110 16:27 18.12.2021
6408 Drizzle 8 1029 87 3500 4.12 110 15:48 18.12.2021
6409 Clouds 8 1029 87 10000 4.63 140 14:53 18.12.2021
6410 Clouds 8 1029 87 10000 3.09 90 13:42 18.12.2021
6411 Clouds 7 1029 95 10000 2.57 130 11:48 18.12.2021
6412 Clouds 8 1026 87 10000 4.12 160 09:54 18.12.2021
6413 Clouds 8 1026 87 10000 4.12 160 09:30 18.12.2021
6414 Drizzle 7 1025 93 10000 3.6 170 08:36 18.12.2021
6415 Drizzle 7 1025 93 10000 3.6 170 08:36 18.12.2021
6416 Drizzle 7 1024 87 10000 2.06 100 06:27 18.12.2021
6417 Drizzle 4 1022 93 8000 1.03 0 00:58 18.12.2021
6418 Drizzle 4 1022 94 10000 1.54 90 23:47 17.12.2021
6419 Clouds 4 1021 93 10000 2.57 30 22:37 17.12.2021
6420 Rain 4 1021 93 8000 2.57 50 21:29 17.12.2021
6421 Drizzle 5 1021 87 8000 2.57 90 20:43 17.12.2021
6422 Clouds 5 1021 87 9000 1.54 90 19:51 17.12.2021
6423 Drizzle 5 1021 87 10000 1.54 130 18:39 17.12.2021
6424 Drizzle 5 1021 87 10000 2.57 150 17:50 17.12.2021
6425 Drizzle 5 1020 87 10000 2.57 140 16:51 17.12.2021
6426 Drizzle 5 1020 87 10000 2.57 140 16:27 17.12.2021
6427 Drizzle 5 1020 81 10000 2.57 150 15:38 17.12.2021
6428 Rain 5 1020 81 10000 3.6 160 14:42 17.12.2021
6429 Rain 6 1020 75 10000 3.09 160 13:45 17.12.2021
6430 Rain 5 1020 87 10000 2.06 130 12:36 17.12.2021
6431 Clouds 5 1019 81 10000 3.09 140 10:42 17.12.2021
6432 Clouds 5 1018 81 10000 3.09 130 09:47 17.12.2021
6433 Clouds 5 1018 81 10000 3.09 130 09:47 17.12.2021
6434 Clear 5 1017 81 10000 3.6 160 08:32 17.12.2021
6435 Clouds 5 1017 81 10000 3.6 150 07:30 17.12.2021
6436 Clouds 5 1014 81 10000 5.66 210 04:41 17.12.2021
6437 Clouds 6 1008 81 10000 12.35 200 00:28 17.12.2021
6438 Clouds 8 1005 66 10000 12.86 180 22:25 16.12.2021
6439 Clouds 8 1004 66 10000 10.29 180 21:55 16.12.2021
6440 Clouds 8 1004 66 10000 10.29 180 21:36 16.12.2021
6441 Clouds 7 1003 70 10000 11.83 190 20:40 16.12.2021
6442 Clouds 7 1003 76 10000 12.86 190 19:52 16.12.2021
6443 Clouds 8 1001 71 10000 13.89 180 18:45 16.12.2021
6444 Clouds 8 1001 71 10000 13.89 180 18:26 16.12.2021
6445 Clouds 8 1000 81 10000 12.86 170 17:35 16.12.2021
6446 Rain 8 1000 81 10000 10.8 180 16:23 16.12.2021
6447 Rain 8 1000 81 10000 11.32 170 15:26 16.12.2021
6448 Clouds 9 1000 76 10000 12.35 160 13:45 16.12.2021
6449 Rain 8 999 87 4000 14.92 150 11:48 16.12.2021
6450 Rain 8 999 90 4000 14.92 150 11:18 16.12.2021
6451 Rain 8 999 87 7000 13.89 140 10:39 16.12.2021
6452 Rain 7 1000 87 5000 14.92 140 09:42 16.12.2021
6453 Rain 7 1003 81 10000 12.35 140 06:23 16.12.2021
6454 Rain 6 1006 82 10000 5.14 140 03:54 16.12.2021
6455 Clouds 4 1003 75 10000 6.69 210 23:36 15.12.2021
6456 Clouds 4 1002 75 10000 7.2 200 22:49 15.12.2021
6457 Clouds 4 1002 75 10000 7.2 200 22:20 15.12.2021
6458 Clouds 5 1000 75 10000 7.2 210 21:31 15.12.2021
6459 Clouds 4 999 80 10000 7.72 210 20:41 15.12.2021
6460 Clouds 4 998 84 10000 7.2 210 19:53 15.12.2021
6461 Clouds 4 996 85 10000 8.75 210 18:50 15.12.2021
6462 Clouds 4 995 85 10000 8.75 210 18:18 15.12.2021
6463 Clouds 4 994 86 10000 11.83 210 17:43 15.12.2021
6464 Clouds 4 993 81 10000 11.83 210 17:21 15.12.2021
6465 Clouds 4 991 87 10000 10.29 210 15:48 15.12.2021
6466 Rain 4 991 87 10000 10.29 210 15:29 15.12.2021
6467 Clouds 4 990 87 8000 7.2 210 14:44 15.12.2021
6468 Clouds 5 989 75 10000 8.75 200 13:28 15.12.2021
6469 Clouds 4 986 81 10000 6.17 180 11:41 15.12.2021
6470 Rain 3 986 87 10000 4.63 170 10:18 15.12.2021
6471 Snow 2 984 87 10000 5.66 170 07:55 15.12.2021
6472 Rain 3 983 75 10000 5.14 170 04:22 15.12.2021
6473 Clouds 2 983 87 10000 3.6 140 23:53 14.12.2021
6474 Rain 2 983 87 10000 3.6 140 23:21 14.12.2021
6475 Clouds 1 982 93 10000 3.6 160 22:42 14.12.2021
6476 Rain 2 982 87 10000 6.17 170 21:38 14.12.2021
6477 Rain 2 981 87 10000 4.12 150 20:20 14.12.2021
6478 Rain 2 981 87 10000 5.66 190 19:21 14.12.2021
6479 Snow 2 980 87 10000 5.66 170 18:38 14.12.2021
6480 Clouds 2 980 87 10000 5.66 160 17:53 14.12.2021
6481 Clouds 3 980 75 10000 7.2 190 16:43 14.12.2021
6482 Clouds 3 980 75 10000 7.2 190 16:18 14.12.2021
6483 Clouds 3 978 81 10000 5.66 200 13:58 14.12.2021
6484 Clouds 3 978 87 10000 4.63 220 12:48 14.12.2021
6485 Clouds 3 977 81 10000 6.17 200 11:25 14.12.2021
6486 Clouds 3 976 81 10000 7.2 200 10:45 14.12.2021
6487 Clouds 4 975 81 10000 8.23 210 09:54 14.12.2021
6488 Clouds 4 974 81 10000 6.69 190 08:48 14.12.2021
6489 Clouds 4 974 81 10000 6.69 190 08:21 14.12.2021
6490 Rain 3 973 87 10000 6.17 200 07:23 14.12.2021
6491 Rain 3 985 81 10000 4.63 90 23:51 13.12.2021
6492 Clouds 3 986 81 10000 7.2 110 22:24 13.12.2021
6493 Clouds 3 988 81 10000 5.66 100 21:39 13.12.2021
6494 Clouds 3 989 81 10000 4.12 110 20:51 13.12.2021
6495 Clouds 3 989 81 10000 4.12 110 20:51 13.12.2021
6496 Clouds 3 989 81 10000 4.12 110 20:21 13.12.2021
6497 Clouds 3 989 81 10000 3.09 110 19:49 13.12.2021
6498 Clouds 3 990 81 10000 4.12 140 17:27 13.12.2021
6499 Clouds 3 990 87 10000 3.09 120 16:32 13.12.2021
6500 Drizzle 3 991 87 10000 3.6 130 15:43 13.12.2021
6501 Clouds 3 990 87 10000 4.12 130 14:30 13.12.2021
6502 Clouds 3 990 87 10000 3.09 90 13:36 13.12.2021
6503 Clouds 3 990 87 10000 3.6 80 12:39 13.12.2021
6504 Clouds 3 989 87 10000 3.6 100 11:50 13.12.2021
6505 Clouds 3 989 87 10000 3.6 100 11:29 13.12.2021
6506 Clouds 3 988 87 9000 2.57 80 10:36 13.12.2021
6507 Rain 4 988 81 9000 4.63 130 08:43 13.12.2021
6508 Rain 4 988 81 9000 4.63 130 08:43 13.12.2021
6509 Rain 4 987 81 10000 6.17 90 06:55 13.12.2021
6510 Clouds 4 986 81 10000 5.66 100 05:19 13.12.2021
6511 Clouds 5 985 83 10000 7.2 150 23:55 12.12.2021
6512 Clouds 5 984 83 10000 7.72 140 21:58 12.12.2021
6513 Clouds 5 983 85 10000 9.26 160 20:50 12.12.2021
6514 Clouds 5 981 75 10000 7.2 160 19:35 12.12.2021
6515 Clouds 5 981 81 10000 7.72 160 18:22 12.12.2021
6516 Rain 5 979 81 10000 8.23 160 16:32 12.12.2021
6517 Clouds 5 979 81 8000 8.23 170 15:55 12.12.2021
6518 Rain 5 979 81 8000 8.23 170 15:28 12.12.2021
6519 Rain 5 978 81 10000 8.75 150 14:51 12.12.2021
6520 Rain 5 978 81 10000 8.75 150 14:18 12.12.2021
6521 Clouds 5 976 81 10000 6.17 160 12:48 12.12.2021
6522 Clouds 5 975 87 10000 5.66 170 11:59 12.12.2021
6523 Clouds 5 975 87 10000 5.66 170 11:32 12.12.2021
6524 Rain 5 973 87 10000 6.17 170 10:44 12.12.2021
6525 Rain 5 973 87 10000 6.17 170 10:20 12.12.2021
6526 Clouds 5 971 81 10000 7.72 130 08:46 12.12.2021
6527 Clouds 5 970 81 10000 8.23 150 07:28 12.12.2021
6528 Clouds 5 969 81 10000 7.2 160 05:29 12.12.2021
6529 Clouds 5 967 81 10000 4.63 140 04:51 12.12.2021
6530 Clouds 5 965 81 9000 7.2 120 00:57 12.12.2021
6531 Clouds 4 966 90 10000 7.72 110 23:26 11.12.2021
6532 Clouds 5 965 87 10000 10.29 120 22:21 11.12.2021
6533 Clouds 5 965 87 10000 8.23 120 21:35 11.12.2021
6534 Clouds 4 964 87 10000 7.72 80 20:19 11.12.2021
6535 Clouds 5 964 83 9000 8.23 100 19:21 11.12.2021
6536 Rain 4 964 85 8000 9.26 100 18:48 11.12.2021
6537 Clouds 4 965 86 8000 9.26 100 17:54 11.12.2021
6538 Clouds 5 965 75 10000 10.29 110 16:37 11.12.2021
6539 Clouds 4 966 81 10000 10.29 110 15:41 11.12.2021
6540 Clouds 5 967 75 10000 11.32 110 14:46 11.12.2021
6541 Clouds 5 968 75 10000 8.75 120 12:41 11.12.2021
6542 Clouds 4 969 81 10000 10.8 100 10:58 11.12.2021
6543 Rain 3 969 81 10000 11.83 100 09:44 11.12.2021
6544 Rain 2 976 87 6000 10.8 100 05:36 11.12.2021
6545 Clouds 1 987 75 10000 8.23 100 00:50 11.12.2021
6546 Clouds 1 988 64 10000 5.66 60 23:44 10.12.2021
6547 Clouds 1 989 69 10000 6.69 60 22:50 10.12.2021
6548 Clear 0 991 69 10000 5.14 70 21:51 10.12.2021
6549 Clear -2 992 74 10000 4.12 60 20:35 10.12.2021
6550 Clear -2 992 74 10000 4.12 80 19:19 10.12.2021
6551 Clear -3 993 80 10000 2.06 90 17:54 10.12.2021
6552 Clear -3 994 80 10000 2.57 70 16:41 10.12.2021
6553 Clear -3 994 80 10000 1.54 90 15:47 10.12.2021
6554 Clear -3 994 80 10000 1.54 90 15:28 10.12.2021
6555 Clear -3 994 86 10000 3.09 70 14:57 10.12.2021
6556 Clear -3 994 93 10000 1.54 90 13:50 10.12.2021
6557 Clear -3 994 93 10000 1.54 90 13:20 10.12.2021
6558 Clear -3 993 93 10000 3.09 110 12:23 10.12.2021
6559 Clear -3 993 93 10000 2.06 140 11:27 10.12.2021
6560 Mist -2 991 93 1100 1.03 0 09:54 10.12.2021
6561 Mist -2 991 93 1100 1.03 0 09:54 10.12.2021
6562 Fog -1 990 93 700 1.03 0 08:23 10.12.2021
6563 Clouds 0 988 93 10000 2.06 320 05:46 10.12.2021
6564 Clouds 1 985 93 10000 2.06 360 02:47 10.12.2021
6565 Snow 1 984 93 10000 2.57 340 23:44 09.12.2021
6566 Snow 0 983 93 10000 0 0 22:49 09.12.2021
6567 Snow 0 983 93 10000 0 0 22:23 09.12.2021
6568 Snow 1 983 86 10000 1.54 30 21:48 09.12.2021
6569 Rain 1 983 93 9000 0.51 0 20:40 09.12.2021
6570 Rain 1 983 93 9000 0.51 0 20:20 09.12.2021
6571 Rain 1 982 93 10000 2.57 110 19:21 09.12.2021
6572 Rain 2 982 87 10000 2.06 100 18:35 09.12.2021
6573 Rain 2 982 87 10000 1.54 90 17:51 09.12.2021
6574 Rain 2 982 87 10000 1.54 90 17:25 09.12.2021
6575 Rain 2 982 87 10000 1.54 90 17:25 09.12.2021
6576 Snow 2 981 87 10000 1.03 110 16:53 09.12.2021
6577 Snow 2 981 87 10000 1.03 0 15:31 09.12.2021
6578 Rain 2 981 87 10000 1.54 120 14:44 09.12.2021
6579 Clouds 3 980 75 10000 6.17 130 13:18 09.12.2021
6580 Clouds 3 980 81 10000 6.69 130 12:35 09.12.2021
6581 Snow 1 979 86 10000 10.29 80 10:58 09.12.2021
6582 Snow 1 981 75 10000 6.69 70 08:49 09.12.2021
6583 Snow 1 983 69 10000 9.26 90 06:19 09.12.2021
6584 Rain 1 987 69 10000 10.29 90 02:49 09.12.2021
6585 Snow 0 991 93 1800 8.23 100 23:43 08.12.2021
6586 Snow 0 991 93 1800 8.23 100 23:21 08.12.2021
6587 Snow 0 991 93 2500 10.29 100 22:46 08.12.2021
6588 Snow 1 992 86 2500 7.72 120 21:40 08.12.2021
6589 Snow 0 993 93 1500 10.29 100 20:59 08.12.2021
6590 Snow 1 993 86 8000 8.23 110 19:58 08.12.2021
6591 Snow 1 993 86 8000 8.23 110 19:58 08.12.2021
6592 Snow 1 993 86 8000 8.23 110 19:33 08.12.2021
6593 Snow 1 994 86 8000 8.75 100 18:31 08.12.2021
6594 Snow 0 994 93 9000 7.2 100 17:34 08.12.2021
6595 Snow 2 995 75 7000 9.26 110 15:47 08.12.2021
6596 Snow 2 995 75 7000 9.26 110 15:26 08.12.2021
6597 Snow 1 996 80 3000 7.2 110 14:28 08.12.2021
6598 Clouds 0 995 74 10000 6.17 100 10:55 08.12.2021
6599 Clouds 0 995 74 10000 6.17 100 10:28 08.12.2021
6600 Clouds 0 994 80 10000 5.66 90 08:54 08.12.2021
6601 Clear 0 994 80 10000 5.66 80 07:25 08.12.2021
6602 Snow -2 990 93 8000 6.69 80 02:30 08.12.2021
6603 Snow -2 989 80 1800 5.14 70 23:33 07.12.2021
6604 Clouds -2 988 93 10000 5.14 80 21:43 07.12.2021
6605 Clouds -2 988 93 10000 5.14 80 21:23 07.12.2021
6606 Snow -2 987 86 10000 4.63 110 20:20 07.12.2021
6607 Snow -2 986 74 10000 5.14 80 18:43 07.12.2021
6608 Clouds -2 986 74 10000 4.12 80 17:48 07.12.2021
6609 Clouds -2 986 74 10000 4.12 80 17:19 07.12.2021
6610 Clouds -2 986 74 10000 4.63 110 16:28 07.12.2021
6611 Clouds -1 986 69 10000 4.12 100 15:33 07.12.2021
6612 Clouds -2 986 74 10000 4.12 100 14:18 07.12.2021
6613 Clear -1 985 74 10000 3.09 110 12:49 07.12.2021
6614 Clear -2 985 80 10000 3.09 140 11:27 07.12.2021
6615 Clouds -2 985 74 10000 2.57 140 10:33 07.12.2021
6616 Clear -2 985 80 10000 2.57 140 08:26 07.12.2021
6617 Clear 1 985 69 10000 5.14 230 06:18 07.12.2021
6618 Clear 1 984 69 10000 5.14 210 05:33 07.12.2021
6619 Clouds 2 984 80 10000 8.23 280 23:47 06.12.2021
6620 Snow 1 984 86 10000 8.75 260 22:46 06.12.2021
6621 Snow 1 984 86 10000 8.75 260 22:23 06.12.2021
6622 Rain 2 984 87 10000 5.14 280 21:51 06.12.2021
6623 Rain 2 984 80 10000 4.63 270 20:33 06.12.2021
6624 Rain 2 984 87 9000 5.66 290 19:55 06.12.2021
6625 Rain 2 984 87 9000 5.66 290 19:20 06.12.2021
6626 Rain 2 984 87 10000 6.17 300 18:23 06.12.2021
6627 Rain 2 984 87 10000 5.66 290 17:40 06.12.2021
6628 Rain 2 984 87 10000 5.66 290 17:40 06.12.2021
6629 Rain 2 984 87 10000 2.06 200 16:32 06.12.2021
6630 Rain 2 985 87 10000 3.09 250 15:38 06.12.2021
6631 Clouds 2 985 75 10000 6.17 110 13:46 06.12.2021
6632 Clouds 3 984 75 10000 3.09 80 12:39 06.12.2021
6633 Clouds 3 985 81 10000 6.17 70 10:38 06.12.2021
6634 Clouds 3 985 81 10000 5.66 150 08:46 06.12.2021
6635 Clouds 4 984 75 10000 5.66 170 06:39 06.12.2021
6636 Clouds 5 985 81 10000 5.14 170 22:54 05.12.2021
6637 Clouds 5 984 87 7000 8.23 130 21:51 05.12.2021
6638 Clouds 5 984 87 7000 8.23 130 21:19 05.12.2021
6639 Rain 4 984 81 10000 15.95 120 20:19 05.12.2021
6640 Rain 4 985 81 7000 15.95 130 19:33 05.12.2021
6641 Rain 3 986 87 6000 16.98 120 18:47 05.12.2021
6642 Rain 3 986 87 6000 16.98 120 18:19 05.12.2021
6643 Rain 4 988 81 6000 16.98 110 17:48 05.12.2021
6644 Rain 4 990 75 7000 14.4 110 16:47 05.12.2021
6645 Rain 4 990 75 7000 14.4 110 16:26 05.12.2021
6646 Rain 3 993 81 8000 14.92 110 15:34 05.12.2021
6647 Rain 4 995 75 10000 18.01 120 14:37 05.12.2021
6648 Rain 4 995 75 10000 18.01 120 14:19 05.12.2021
6649 Rain 3 996 87 10000 19.03 130 13:22 05.12.2021
6650 Rain 4 997 70 10000 18.52 130 12:40 05.12.2021
6651 Rain 4 997 70 10000 18.52 130 12:18 05.12.2021
6652 Clouds 4 999 70 10000 14.4 120 11:29 05.12.2021
6653 Clouds 4 1002 65 10000 19.03 120 09:59 05.12.2021
6654 Clouds 2 1005 69 10000 8.23 110 08:24 05.12.2021
6655 Clear -2 1012 76 10000 6.17 80 03:27 05.12.2021
6656 Clear -3 1013 74 10000 4.63 90 23:45 04.12.2021
6657 Clouds -3 1013 74 10000 1.54 170 21:55 04.12.2021
6658 Clouds -5 1013 86 10000 1.54 0 20:57 04.12.2021
6659 Clouds -5 1013 90 10000 1.54 0 20:20 04.12.2021
6660 Clear -5 1013 93 10000 2.06 100 19:32 04.12.2021
6661 Clouds -4 1013 89 10000 1.03 0 18:21 04.12.2021
6662 Clear -4 1012 90 10000 1.03 0 17:39 04.12.2021
6663 Clear -4 1011 93 10000 0.51 0 16:51 04.12.2021
6664 Clear -4 1011 93 10000 0.51 0 16:31 04.12.2021
6665 Clouds -4 1010 93 10000 0 0 15:57 04.12.2021
6666 Clear -4 1005 93 10000 0.51 0 11:54 04.12.2021
6667 Clear -4 1005 93 10000 0.51 0 11:32 04.12.2021
6668 Clouds -4 1004 90 10000 1.03 90 10:56 04.12.2021
6669 Clouds -5 1001 93 10000 1.03 0 08:49 04.12.2021
6670 Clouds -5 998 86 10000 0.51 0 06:42 04.12.2021
6671 Clear -3 995 86 10000 3.09 100 04:42 04.12.2021
6672 Clear -3 990 86 10000 4.12 80 00:47 04.12.2021
6673 Clear -3 990 90 10000 3.09